<?xml version='1.0' encoding='UTF-8'?><gpx version="1.1" creator="JPX - https://github.com/jenetics/jpx" xmlns="http://www.topografix.com/GPX/1/1"><trk><trkseg><trkpt lat="45.685055832202686" lon="9.662586868928749"><ele>234.99999999999997</ele><time>2026-04-12T09:08:57Z</time></trkpt><trkpt lat="45.68501330039966" lon="9.662505164833865"><ele>235.0</ele><time>2026-04-12T09:09:00Z</time></trkpt><trkpt lat="45.6849446007468" lon="9.662464537563396"><ele>235.0</ele><time>2026-04-12T09:09:01Z</time></trkpt><trkpt lat="45.68484761692801" lon="9.662453130098754"><ele>235.0</ele><time>2026-04-12T09:09:03Z</time></trkpt><trkpt lat="45.68477448754648" lon="9.66245477888208"><ele>234.99999999999997</ele><time>2026-04-12T09:09:05Z</time></trkpt><trkpt lat="45.68466975073618" lon="9.662442954355196"><ele>235.0</ele><time>2026-04-12T09:09:09Z</time></trkpt><trkpt lat="45.68454266312844" lon="9.662415500957483"><ele>234.99999999999997</ele><time>2026-04-12T09:09:11Z</time></trkpt><trkpt lat="45.68447148975067" lon="9.66240830473521"><ele>235.0</ele><time>2026-04-12T09:09:12Z</time></trkpt><trkpt lat="45.684396693696684" lon="9.662398544426862"><ele>235.0</ele><time>2026-04-12T09:09:13Z</time></trkpt><trkpt lat="45.68431787505439" lon="9.662388170678636"><ele>235.0</ele><time>2026-04-12T09:09:14Z</time></trkpt><trkpt lat="45.68423507235659" lon="9.662384655217567"><ele>234.99999999999997</ele><time>2026-04-12T09:09:15Z</time></trkpt><trkpt lat="45.68416003141138" lon="9.662379604718232"><ele>235.0</ele><time>2026-04-12T09:09:16Z</time></trkpt><trkpt lat="45.684080719604516" lon="9.662374508688899"><ele>234.99999999999997</ele><time>2026-04-12T09:09:17Z</time></trkpt><trkpt lat="45.683998901313934" lon="9.662361879449628"><ele>235.0</ele><time>2026-04-12T09:09:18Z</time></trkpt><trkpt lat="45.68391383992381" lon="9.662350469015356"><ele>235.0</ele><time>2026-04-12T09:09:19Z</time></trkpt><trkpt lat="45.683829757237504" lon="9.662336005041636"><ele>235.0</ele><time>2026-04-12T09:09:20Z</time></trkpt><trkpt lat="45.68374287998434" lon="9.662319264543656"><ele>234.99999999999997</ele><time>2026-04-12T09:09:21Z</time></trkpt><trkpt lat="45.68365708700273" lon="9.662305196130255"><ele>235.0</ele><time>2026-04-12T09:09:22Z</time></trkpt><trkpt lat="45.683572966156746" lon="9.662294169191043"><ele>234.99999999999997</ele><time>2026-04-12T09:09:23Z</time></trkpt><trkpt lat="45.68349259550661" lon="9.662279732770616"><ele>235.0</ele><time>2026-04-12T09:09:24Z</time></trkpt><trkpt lat="45.683410712379086" lon="9.662266646884044"><ele>235.0</ele><time>2026-04-12T09:09:25Z</time></trkpt><trkpt lat="45.68332951958491" lon="9.662253584770038"><ele>235.0</ele><time>2026-04-12T09:09:26Z</time></trkpt><trkpt lat="45.683249528364" lon="9.662240780398255"><ele>234.99999999999997</ele><time>2026-04-12T09:09:27Z</time></trkpt><trkpt lat="45.68316817200272" lon="9.66222403820134"><ele>235.0</ele><time>2026-04-12T09:09:28Z</time></trkpt><trkpt lat="45.68308606721395" lon="9.662210672431216"><ele>234.99999999999997</ele><time>2026-04-12T09:09:29Z</time></trkpt><trkpt lat="45.68300626156901" lon="9.662194860752585"><ele>235.0</ele><time>2026-04-12T09:09:30Z</time></trkpt><trkpt lat="45.682928752400066" lon="9.662183037851642"><ele>235.0</ele><time>2026-04-12T09:09:31Z</time></trkpt><trkpt lat="45.68284856723171" lon="9.662174076331539"><ele>235.0</ele><time>2026-04-12T09:09:32Z</time></trkpt><trkpt lat="45.682763636893064" lon="9.662165639298433"><ele>234.99999999999997</ele><time>2026-04-12T09:09:33Z</time></trkpt><trkpt lat="45.682675631029234" lon="9.662156484453181"><ele>235.0</ele><time>2026-04-12T09:09:34Z</time></trkpt><trkpt lat="45.68258763269001" lon="9.662144975101887"><ele>234.8</ele><time>2026-04-12T09:09:35Z</time></trkpt><trkpt lat="45.68249367094881" lon="9.662133146973275"><ele>234.6</ele><time>2026-04-12T09:09:36Z</time></trkpt><trkpt lat="45.68239346774475" lon="9.662120500147497"><ele>234.39999999999998</ele><time>2026-04-12T09:09:37Z</time></trkpt><trkpt lat="45.68229869587609" lon="9.662111377030769"><ele>234.2</ele><time>2026-04-12T09:09:38Z</time></trkpt><trkpt lat="45.682215142218325" lon="9.66210135222395"><ele>234.0</ele><time>2026-04-12T09:09:39Z</time></trkpt><trkpt lat="45.68213811798966" lon="9.662086757826591"><ele>234.0</ele><time>2026-04-12T09:09:40Z</time></trkpt><trkpt lat="45.682062048772785" lon="9.662077626658572"><ele>234.0</ele><time>2026-04-12T09:09:41Z</time></trkpt><trkpt lat="45.68198279726071" lon="9.662065844372062"><ele>234.0</ele><time>2026-04-12T09:09:42Z</time></trkpt><trkpt lat="45.68190506040843" lon="9.662051033378606"><ele>234.0</ele><time>2026-04-12T09:09:43Z</time></trkpt><trkpt lat="45.68182603186022" lon="9.662035957461635"><ele>234.0</ele><time>2026-04-12T09:09:44Z</time></trkpt><trkpt lat="45.681745530379" lon="9.662020619828017"><ele>234.0</ele><time>2026-04-12T09:09:45Z</time></trkpt><trkpt lat="45.68166535393387" lon="9.662008563176748"><ele>234.0</ele><time>2026-04-12T09:09:46Z</time></trkpt><trkpt lat="45.681586307297984" lon="9.661992806370426"><ele>234.0</ele><time>2026-04-12T09:09:47Z</time></trkpt><trkpt lat="45.68150631248983" lon="9.661980699263513"><ele>234.0</ele><time>2026-04-12T09:09:48Z</time></trkpt><trkpt lat="45.681425664655215" lon="9.661967865353624"><ele>234.0</ele><time>2026-04-12T09:09:49Z</time></trkpt><trkpt lat="45.681343760806705" lon="9.661958045868296"><ele>234.0</ele><time>2026-04-12T09:09:50Z</time></trkpt><trkpt lat="45.6812616154506" lon="9.661940724162157"><ele>234.0</ele><time>2026-04-12T09:09:51Z</time></trkpt><trkpt lat="45.681173205259135" lon="9.66192273275463"><ele>234.2</ele><time>2026-04-12T09:09:52Z</time></trkpt><trkpt lat="45.681076137815666" lon="9.661911240410351"><ele>234.39999999999998</ele><time>2026-04-12T09:09:53Z</time></trkpt><trkpt lat="45.68097757610232" lon="9.661893240669723"><ele>234.6</ele><time>2026-04-12T09:09:54Z</time></trkpt><trkpt lat="45.680875177141914" lon="9.661877291998708"><ele>234.8</ele><time>2026-04-12T09:09:55Z</time></trkpt><trkpt lat="45.6807673417513" lon="9.66185603475968"><ele>235.0</ele><time>2026-04-12T09:09:56Z</time></trkpt><trkpt lat="45.68066052003834" lon="9.661837768092115"><ele>235.0</ele><time>2026-04-12T09:09:57Z</time></trkpt><trkpt lat="45.680556001921474" lon="9.661823852773766"><ele>235.0</ele><time>2026-04-12T09:09:58Z</time></trkpt><trkpt lat="45.68045643736359" lon="9.661809935727431"><ele>235.0</ele><time>2026-04-12T09:09:59Z</time></trkpt><trkpt lat="45.68036107479368" lon="9.661800073679064"><ele>235.0</ele><time>2026-04-12T09:10:00Z</time></trkpt><trkpt lat="45.680266677451954" lon="9.661792475685528"><ele>235.0</ele><time>2026-04-12T09:10:01Z</time></trkpt><trkpt lat="45.68017093921282" lon="9.6617825713037"><ele>234.8</ele><time>2026-04-12T09:10:02Z</time></trkpt><trkpt lat="45.68007445935771" lon="9.661733194769182"><ele>234.6</ele><time>2026-04-12T09:10:03Z</time></trkpt><trkpt lat="45.67997267550434" lon="9.661719077145317"><ele>234.39999999999998</ele><time>2026-04-12T09:10:04Z</time></trkpt><trkpt lat="45.679863865950566" lon="9.6617029790636"><ele>234.2</ele><time>2026-04-12T09:10:05Z</time></trkpt><trkpt lat="45.679752659686116" lon="9.661686526392092"><ele>234.0</ele><time>2026-04-12T09:10:06Z</time></trkpt><trkpt lat="45.67964589237018" lon="9.661670730450117"><ele>234.0</ele><time>2026-04-12T09:10:07Z</time></trkpt><trkpt lat="45.67955234916219" lon="9.661657405418412"><ele>233.99999999999997</ele><time>2026-04-12T09:10:08Z</time></trkpt><trkpt lat="45.679475537550715" lon="9.661643644639247"><ele>233.99999999999997</ele><time>2026-04-12T09:10:09Z</time></trkpt><trkpt lat="45.67937312354268" lon="9.661613874178665"><ele>234.0</ele><time>2026-04-12T09:10:11Z</time></trkpt><trkpt lat="45.67930361236952" lon="9.661556444290813"><ele>234.0</ele><time>2026-04-12T09:10:13Z</time></trkpt><trkpt lat="45.679258733148146" lon="9.661405084239883"><ele>234.5</ele><time>2026-04-12T09:10:15Z</time></trkpt><trkpt lat="45.67920131487028" lon="9.661361538090185"><ele>235.0</ele><time>2026-04-12T09:10:16Z</time></trkpt><trkpt lat="45.67913693565671" lon="9.661421606410892"><ele>235.5</ele><time>2026-04-12T09:10:17Z</time></trkpt><trkpt lat="45.6790463199871" lon="9.661522458644802"><ele>236.0</ele><time>2026-04-12T09:10:19Z</time></trkpt><trkpt lat="45.67894836649836" lon="9.661601436384164"><ele>236.5</ele><time>2026-04-12T09:10:21Z</time></trkpt><trkpt lat="45.678884975206756" lon="9.661600752217694"><ele>237.0</ele><time>2026-04-12T09:10:22Z</time></trkpt><trkpt lat="45.67882617433426" lon="9.661553042513962"><ele>237.0</ele><time>2026-04-12T09:10:23Z</time></trkpt><trkpt lat="45.6787026608155" lon="9.661561259945307"><ele>237.0</ele><time>2026-04-12T09:10:25Z</time></trkpt><trkpt lat="45.678579967320665" lon="9.661530948833361"><ele>237.0</ele><time>2026-04-12T09:10:27Z</time></trkpt><trkpt lat="45.67851713088411" lon="9.661523202280277"><ele>237.0</ele><time>2026-04-12T09:10:28Z</time></trkpt><trkpt lat="45.67845437828051" lon="9.661511933536689"><ele>237.0</ele><time>2026-04-12T09:10:29Z</time></trkpt><trkpt lat="45.678386775077016" lon="9.661505477331154"><ele>237.0</ele><time>2026-04-12T09:10:30Z</time></trkpt><trkpt lat="45.67831160654741" lon="9.66150040308437"><ele>236.66666666666666</ele><time>2026-04-12T09:10:31Z</time></trkpt><trkpt lat="45.678233965190856" lon="9.66149032658373"><ele>236.33333333333331</ele><time>2026-04-12T09:10:32Z</time></trkpt><trkpt lat="45.67814425920737" lon="9.661483866144023"><ele>236.0</ele><time>2026-04-12T09:10:33Z</time></trkpt><trkpt lat="45.67805431632906" lon="9.6614738390844"><ele>235.66666666666666</ele><time>2026-04-12T09:10:34Z</time></trkpt><trkpt lat="45.67796992281213" lon="9.661463235607428"><ele>235.33333333333331</ele><time>2026-04-12T09:10:35Z</time></trkpt><trkpt lat="45.677883324472276" lon="9.66145142025741"><ele>235.0</ele><time>2026-04-12T09:10:36Z</time></trkpt><trkpt lat="45.67779489431465" lon="9.661441440924289"><ele>234.6</ele><time>2026-04-12T09:10:37Z</time></trkpt><trkpt lat="45.677709803670275" lon="9.661406130341607"><ele>234.2</ele><time>2026-04-12T09:10:38Z</time></trkpt><trkpt lat="45.67761825384968" lon="9.661392263077037"><ele>233.8</ele><time>2026-04-12T09:10:39Z</time></trkpt><trkpt lat="45.67752229098321" lon="9.661400345661828"><ele>233.4</ele><time>2026-04-12T09:10:40Z</time></trkpt><trkpt lat="45.67742635448456" lon="9.661382637484875"><ele>233.0</ele><time>2026-04-12T09:10:41Z</time></trkpt><trkpt lat="45.67733091661889" lon="9.661371216173915"><ele>233.00000000000003</ele><time>2026-04-12T09:10:42Z</time></trkpt><trkpt lat="45.6772422629653" lon="9.661356597240236"><ele>233.0</ele><time>2026-04-12T09:10:43Z</time></trkpt><trkpt lat="45.67715426239653" lon="9.661341899218186"><ele>233.0</ele><time>2026-04-12T09:10:44Z</time></trkpt><trkpt lat="45.67706850613489" lon="9.661328798652026"><ele>233.0</ele><time>2026-04-12T09:10:45Z</time></trkpt><trkpt lat="45.67698698312187" lon="9.661313610445921"><ele>233.00000000000003</ele><time>2026-04-12T09:10:46Z</time></trkpt><trkpt lat="45.676903411120634" lon="9.66129957412127"><ele>233.0</ele><time>2026-04-12T09:10:47Z</time></trkpt><trkpt lat="45.67681674931458" lon="9.661285297439195"><ele>232.60000000000002</ele><time>2026-04-12T09:10:48Z</time></trkpt><trkpt lat="45.67672921782946" lon="9.661268277830873"><ele>232.20000000000002</ele><time>2026-04-12T09:10:49Z</time></trkpt><trkpt lat="45.676641734001905" lon="9.661252813810618"><ele>231.8</ele><time>2026-04-12T09:10:50Z</time></trkpt><trkpt lat="45.676564413936234" lon="9.661238709680116"><ele>231.4</ele><time>2026-04-12T09:10:51Z</time></trkpt><trkpt lat="45.67646265211168" lon="9.66121171248595"><ele>231.0</ele><time>2026-04-12T09:10:53Z</time></trkpt><trkpt lat="45.67637528793186" lon="9.66116863227657"><ele>230.8</ele><time>2026-04-12T09:11:58Z</time></trkpt><trkpt lat="45.676276892056826" lon="9.661044709052343"><ele>230.60000000000002</ele><time>2026-04-12T09:12:00Z</time></trkpt><trkpt lat="45.67623036865793" lon="9.66094282119871"><ele>230.4</ele><time>2026-04-12T09:12:01Z</time></trkpt><trkpt lat="45.676190344954044" lon="9.66082401777283"><ele>230.2</ele><time>2026-04-12T09:12:02Z</time></trkpt><trkpt lat="45.6761679237208" lon="9.660698423447863"><ele>230.0</ele><time>2026-04-12T09:12:03Z</time></trkpt><trkpt lat="45.6761514552147" lon="9.660556739710742"><ele>230.0</ele><time>2026-04-12T09:12:04Z</time></trkpt><trkpt lat="45.676149198261555" lon="9.66039389726777"><ele>230.0</ele><time>2026-04-12T09:12:05Z</time></trkpt><trkpt lat="45.67614621121959" lon="9.660217485724512"><ele>230.0</ele><time>2026-04-12T09:12:06Z</time></trkpt><trkpt lat="45.676143498544214" lon="9.660025117198309"><ele>230.0</ele><time>2026-04-12T09:12:07Z</time></trkpt><trkpt lat="45.676132029633095" lon="9.65982877490227"><ele>230.0</ele><time>2026-04-12T09:12:08Z</time></trkpt><trkpt lat="45.676116269046254" lon="9.659644006818562"><ele>230.0</ele><time>2026-04-12T09:12:09Z</time></trkpt><trkpt lat="45.676108759826754" lon="9.659451369190633"><ele>230.0</ele><time>2026-04-12T09:12:10Z</time></trkpt><trkpt lat="45.67610456985696" lon="9.659251477595804"><ele>230.0</ele><time>2026-04-12T09:12:11Z</time></trkpt><trkpt lat="45.67609643278298" lon="9.65904581601668"><ele>230.0</ele><time>2026-04-12T09:12:12Z</time></trkpt><trkpt lat="45.67608860678337" lon="9.658843389407958"><ele>230.0</ele><time>2026-04-12T09:12:13Z</time></trkpt><trkpt lat="45.67608049165388" lon="9.658645226699289"><ele>230.0</ele><time>2026-04-12T09:12:14Z</time></trkpt><trkpt lat="45.676074481907335" lon="9.65845603233253"><ele>230.0</ele><time>2026-04-12T09:12:15Z</time></trkpt><trkpt lat="45.67606697551313" lon="9.65826611435651"><ele>230.0</ele><time>2026-04-12T09:12:16Z</time></trkpt><trkpt lat="45.676056789826895" lon="9.65807120981788"><ele>230.0</ele><time>2026-04-12T09:12:17Z</time></trkpt><trkpt lat="45.67604908705888" lon="9.657869938189487"><ele>230.0</ele><time>2026-04-12T09:12:18Z</time></trkpt><trkpt lat="45.67603700116196" lon="9.65765931110907"><ele>230.0</ele><time>2026-04-12T09:12:19Z</time></trkpt><trkpt lat="45.6760229816452" lon="9.657434054037857"><ele>228.66666666666669</ele><time>2026-04-12T09:12:20Z</time></trkpt><trkpt lat="45.676010173334944" lon="9.657207971993584"><ele>227.33333333333331</ele><time>2026-04-12T09:12:21Z</time></trkpt><trkpt lat="45.675999534274005" lon="9.65698699550133"><ele>226.0</ele><time>2026-04-12T09:12:22Z</time></trkpt><trkpt lat="45.675988888731105" lon="9.65675448873286"><ele>225.33333333333331</ele><time>2026-04-12T09:12:23Z</time></trkpt><trkpt lat="45.67597878802008" lon="9.656516471959453"><ele>224.66666666666669</ele><time>2026-04-12T09:12:24Z</time></trkpt><trkpt lat="45.67596795554421" lon="9.65626403729107"><ele>224.0</ele><time>2026-04-12T09:12:25Z</time></trkpt><trkpt lat="45.67595686965039" lon="9.656001592455103"><ele>224.0</ele><time>2026-04-12T09:12:26Z</time></trkpt><trkpt lat="45.675947203552425" lon="9.655733769645865"><ele>224.0</ele><time>2026-04-12T09:12:27Z</time></trkpt><trkpt lat="45.675937923381426" lon="9.655462078189553"><ele>224.0</ele><time>2026-04-12T09:12:28Z</time></trkpt><trkpt lat="45.67592821443161" lon="9.655193457543534"><ele>224.0</ele><time>2026-04-12T09:12:29Z</time></trkpt><trkpt lat="45.675918830442114" lon="9.654928168374461"><ele>224.0</ele><time>2026-04-12T09:12:30Z</time></trkpt><trkpt lat="45.675909495653286" lon="9.654662669993272"><ele>224.0</ele><time>2026-04-12T09:12:31Z</time></trkpt><trkpt lat="45.675900747748166" lon="9.654399878422915"><ele>224.0</ele><time>2026-04-12T09:12:32Z</time></trkpt><trkpt lat="45.675891790122606" lon="9.654138138592765"><ele>224.0</ele><time>2026-04-12T09:12:33Z</time></trkpt><trkpt lat="45.67588462272505" lon="9.653876585565223"><ele>224.0</ele><time>2026-04-12T09:12:34Z</time></trkpt><trkpt lat="45.67587754130866" lon="9.6536211813374"><ele>224.33333333333334</ele><time>2026-04-12T09:12:35Z</time></trkpt><trkpt lat="45.675868618881246" lon="9.653379916842525"><ele>224.66666666666669</ele><time>2026-04-12T09:12:36Z</time></trkpt><trkpt lat="45.6758562768248" lon="9.653154869454573"><ele>225.0</ele><time>2026-04-12T09:12:37Z</time></trkpt><trkpt lat="45.67584723197605" lon="9.652955935350372"><ele>224.5</ele><time>2026-04-12T09:12:38Z</time></trkpt><trkpt lat="45.67585831911216" lon="9.65277702524734"><ele>224.0</ele><time>2026-04-12T09:12:39Z</time></trkpt><trkpt lat="45.67589175031127" lon="9.652604941659385"><ele>223.5</ele><time>2026-04-12T09:12:40Z</time></trkpt><trkpt lat="45.675960038124366" lon="9.652464274070068"><ele>223.0</ele><time>2026-04-12T09:12:41Z</time></trkpt><trkpt lat="45.67603168238234" lon="9.65232159079106"><ele>223.0</ele><time>2026-04-12T09:12:42Z</time></trkpt><trkpt lat="45.67610115514517" lon="9.652175212964378"><ele>223.0</ele><time>2026-04-12T09:12:43Z</time></trkpt><trkpt lat="45.676184655293554" lon="9.652051122313726"><ele>223.0</ele><time>2026-04-12T09:12:44Z</time></trkpt><trkpt lat="45.67624059566925" lon="9.651916582733257"><ele>223.0</ele><time>2026-04-12T09:12:45Z</time></trkpt><trkpt lat="45.676286623081836" lon="9.651762075593659"><ele>223.25</ele><time>2026-04-12T09:12:46Z</time></trkpt><trkpt lat="45.676350420303" lon="9.651614035056378"><ele>223.5</ele><time>2026-04-12T09:12:47Z</time></trkpt><trkpt lat="45.67641694750592" lon="9.651461543530388"><ele>223.75</ele><time>2026-04-12T09:12:48Z</time></trkpt><trkpt lat="45.676485047962" lon="9.65130332596145"><ele>224.0</ele><time>2026-04-12T09:12:49Z</time></trkpt><trkpt lat="45.67655487856779" lon="9.65114430946161"><ele>223.75</ele><time>2026-04-12T09:12:50Z</time></trkpt><trkpt lat="45.67662403243528" lon="9.650985230429372"><ele>223.5</ele><time>2026-04-12T09:12:51Z</time></trkpt><trkpt lat="45.67669373526262" lon="9.650823319453105"><ele>223.25</ele><time>2026-04-12T09:12:52Z</time></trkpt><trkpt lat="45.67676141709678" lon="9.650664073242465"><ele>223.0</ele><time>2026-04-12T09:12:53Z</time></trkpt><trkpt lat="45.676827895596674" lon="9.65050690390685"><ele>223.0</ele><time>2026-04-12T09:12:54Z</time></trkpt><trkpt lat="45.67689495895583" lon="9.650348048796525"><ele>223.0</ele><time>2026-04-12T09:12:55Z</time></trkpt><trkpt lat="45.676958569652946" lon="9.650194935950829"><ele>223.0</ele><time>2026-04-12T09:12:56Z</time></trkpt><trkpt lat="45.67702379925299" lon="9.650049953414491"><ele>223.0</ele><time>2026-04-12T09:12:57Z</time></trkpt><trkpt lat="45.677085014166785" lon="9.649911759434291"><ele>223.4</ele><time>2026-04-12T09:12:58Z</time></trkpt><trkpt lat="45.67713759832102" lon="9.649778387966988"><ele>223.8</ele><time>2026-04-12T09:12:59Z</time></trkpt><trkpt lat="45.67718833659546" lon="9.649659774369043"><ele>224.2</ele><time>2026-04-12T09:13:00Z</time></trkpt><trkpt lat="45.6772380620728" lon="9.649557635027529"><ele>224.6</ele><time>2026-04-12T09:13:01Z</time></trkpt><trkpt lat="45.67728279553356" lon="9.64945874300199"><ele>225.0</ele><time>2026-04-12T09:13:02Z</time></trkpt><trkpt lat="45.67732890463186" lon="9.649366948627165"><ele>225.0</ele><time>2026-04-12T09:13:03Z</time></trkpt><trkpt lat="45.677374230257804" lon="9.649279652238299"><ele>225.0</ele><time>2026-04-12T09:13:04Z</time></trkpt><trkpt lat="45.67741482690154" lon="9.649202747893415"><ele>225.0</ele><time>2026-04-12T09:13:05Z</time></trkpt><trkpt lat="45.67749218971231" lon="9.649070883770742"><ele>225.0</ele><time>2026-04-12T09:13:07Z</time></trkpt><trkpt lat="45.67756746036085" lon="9.6489686171576"><ele>225.0</ele><time>2026-04-12T09:13:09Z</time></trkpt><trkpt lat="45.677647280450365" lon="9.64888401324308"><ele>225.0</ele><time>2026-04-12T09:13:11Z</time></trkpt><trkpt lat="45.6777366104433" lon="9.64876551382189"><ele>225.0</ele><time>2026-04-12T09:13:13Z</time></trkpt><trkpt lat="45.6778274436126" lon="9.648651595690533"><ele>225.0</ele><time>2026-04-12T09:13:15Z</time></trkpt><trkpt lat="45.67786921722351" lon="9.648549972800907"><ele>225.0</ele><time>2026-04-12T09:13:17Z</time></trkpt><trkpt lat="45.67775044350977" lon="9.648413477558398"><ele>225.0</ele><time>2026-04-12T09:13:18Z</time></trkpt><trkpt lat="45.677685983860115" lon="9.64833908308151"><ele>225.0</ele><time>2026-04-12T09:13:19Z</time></trkpt><trkpt lat="45.67761563362579" lon="9.64825434994337"><ele>225.0</ele><time>2026-04-12T09:13:20Z</time></trkpt><trkpt lat="45.677533640677225" lon="9.648155223538968"><ele>225.0</ele><time>2026-04-12T09:13:21Z</time></trkpt><trkpt lat="45.67744832729881" lon="9.648062901200294"><ele>225.0</ele><time>2026-04-12T09:13:22Z</time></trkpt><trkpt lat="45.67738768787179" lon="9.647995162090341"><ele>225.0</ele><time>2026-04-12T09:13:23Z</time></trkpt><trkpt lat="45.67732229370467" lon="9.647928320889815"><ele>225.0</ele><time>2026-04-12T09:13:25Z</time></trkpt><trkpt lat="45.67727169213473" lon="9.647846037558804"><ele>225.0</ele><time>2026-04-12T09:13:27Z</time></trkpt><trkpt lat="45.677176016101015" lon="9.647732691876987"><ele>225.0</ele><time>2026-04-12T09:13:29Z</time></trkpt><trkpt lat="45.67712063226895" lon="9.647665729100432"><ele>225.0</ele><time>2026-04-12T09:13:30Z</time></trkpt><trkpt lat="45.67705811095691" lon="9.647589858725572"><ele>225.0</ele><time>2026-04-12T09:13:31Z</time></trkpt><trkpt lat="45.67698782681772" lon="9.647505255468442"><ele>225.0</ele><time>2026-04-12T09:13:32Z</time></trkpt><trkpt lat="45.676910356038434" lon="9.647415903200091"><ele>225.0</ele><time>2026-04-12T09:13:33Z</time></trkpt><trkpt lat="45.67682226271251" lon="9.647313911421286"><ele>225.0</ele><time>2026-04-12T09:13:34Z</time></trkpt><trkpt lat="45.676726980232374" lon="9.647202626177416"><ele>225.0</ele><time>2026-04-12T09:13:35Z</time></trkpt><trkpt lat="45.67662427040987" lon="9.647082416525247"><ele>225.0</ele><time>2026-04-12T09:13:36Z</time></trkpt><trkpt lat="45.67652807309664" lon="9.64696636037286"><ele>225.0</ele><time>2026-04-12T09:13:37Z</time></trkpt><trkpt lat="45.67642573943656" lon="9.646841680711946"><ele>225.0</ele><time>2026-04-12T09:13:38Z</time></trkpt><trkpt lat="45.676313930208885" lon="9.646709652812596"><ele>225.0</ele><time>2026-04-12T09:13:39Z</time></trkpt><trkpt lat="45.676196270249974" lon="9.64657056100686"><ele>225.33333333333331</ele><time>2026-04-12T09:13:40Z</time></trkpt><trkpt lat="45.6760734084028" lon="9.646425234687262"><ele>225.66666666666666</ele><time>2026-04-12T09:13:41Z</time></trkpt><trkpt lat="45.67595109554509" lon="9.64627875028586"><ele>226.0</ele><time>2026-04-12T09:13:42Z</time></trkpt><trkpt lat="45.67583543767886" lon="9.646139123726163"><ele>225.75</ele><time>2026-04-12T09:13:43Z</time></trkpt><trkpt lat="45.67573087655282" lon="9.646012893582029"><ele>225.5</ele><time>2026-04-12T09:13:44Z</time></trkpt><trkpt lat="45.67563009164769" lon="9.645916277221346"><ele>225.25</ele><time>2026-04-12T09:13:45Z</time></trkpt><trkpt lat="45.67555486977804" lon="9.64580904312187"><ele>225.0</ele><time>2026-04-12T09:13:46Z</time></trkpt><trkpt lat="45.67548316746384" lon="9.645707881689265"><ele>225.0</ele><time>2026-04-12T09:13:47Z</time></trkpt><trkpt lat="45.67541467392878" lon="9.645615660654594"><ele>225.0</ele><time>2026-04-12T09:13:48Z</time></trkpt><trkpt lat="45.675344451760296" lon="9.645524558902638"><ele>225.0</ele><time>2026-04-12T09:13:49Z</time></trkpt><trkpt lat="45.67526915253276" lon="9.645424734359125"><ele>225.0</ele><time>2026-04-12T09:13:50Z</time></trkpt><trkpt lat="45.6752086019471" lon="9.645334891389915"><ele>225.0</ele><time>2026-04-12T09:13:51Z</time></trkpt><trkpt lat="45.675147243594715" lon="9.64528096082163"><ele>225.14285714285717</ele><time>2026-04-12T09:13:52Z</time></trkpt><trkpt lat="45.67508391403097" lon="9.64525693837023"><ele>225.28571428571428</ele><time>2026-04-12T09:13:53Z</time></trkpt><trkpt lat="45.675018525221915" lon="9.645266591407074"><ele>225.42857142857144</ele><time>2026-04-12T09:13:54Z</time></trkpt><trkpt lat="45.67496555402235" lon="9.645326088673356"><ele>225.57142857142858</ele><time>2026-04-12T09:13:55Z</time></trkpt><trkpt lat="45.67494039193274" lon="9.64541519395388"><ele>225.71428571428572</ele><time>2026-04-12T09:13:56Z</time></trkpt><trkpt lat="45.6749456922983" lon="9.64552606068841"><ele>225.85714285714286</ele><time>2026-04-12T09:13:57Z</time></trkpt><trkpt lat="45.67497780753269" lon="9.645648116727935"><ele>226.0</ele><time>2026-04-12T09:13:58Z</time></trkpt><trkpt lat="45.67500251131315" lon="9.645786928936593"><ele>226.0</ele><time>2026-04-12T09:13:59Z</time></trkpt><trkpt lat="45.67501649053445" lon="9.645952632007411"><ele>226.0</ele><time>2026-04-12T09:14:00Z</time></trkpt><trkpt lat="45.67502236719046" lon="9.646139769885934"><ele>226.0</ele><time>2026-04-12T09:14:01Z</time></trkpt><trkpt lat="45.675029459891114" lon="9.64634121553624"><ele>226.0</ele><time>2026-04-12T09:14:02Z</time></trkpt><trkpt lat="45.67503242244303" lon="9.646528984364062"><ele>226.0</ele><time>2026-04-12T09:14:03Z</time></trkpt><trkpt lat="45.675035217732116" lon="9.64672162773437"><ele>226.0</ele><time>2026-04-12T09:14:04Z</time></trkpt><trkpt lat="45.6750481166939" lon="9.646915555865853"><ele>226.0</ele><time>2026-04-12T09:14:05Z</time></trkpt><trkpt lat="45.67508447297016" lon="9.647109404707452"><ele>226.0</ele><time>2026-04-12T09:14:06Z</time></trkpt><trkpt lat="45.67514055504194" lon="9.64730537959612"><ele>225.66666666666666</ele><time>2026-04-12T09:14:07Z</time></trkpt><trkpt lat="45.67524779136568" lon="9.647456331033762"><ele>225.33333333333331</ele><time>2026-04-12T09:14:08Z</time></trkpt><trkpt lat="45.67531340629874" lon="9.647664690781774"><ele>225.0</ele><time>2026-04-12T09:14:09Z</time></trkpt><trkpt lat="45.67539287199253" lon="9.647850096737246"><ele>224.75</ele><time>2026-04-12T09:14:10Z</time></trkpt><trkpt lat="45.67544065907093" lon="9.648054534142693"><ele>224.5</ele><time>2026-04-12T09:14:11Z</time></trkpt><trkpt lat="45.67546354500697" lon="9.648257162822263"><ele>224.25</ele><time>2026-04-12T09:14:12Z</time></trkpt><trkpt lat="45.67547960306223" lon="9.648474369584983"><ele>224.0</ele><time>2026-04-12T09:14:13Z</time></trkpt><trkpt lat="45.6754932003077" lon="9.64869805782532"><ele>224.0</ele><time>2026-04-12T09:14:14Z</time></trkpt><trkpt lat="45.675507211157" lon="9.64892963935651"><ele>224.0</ele><time>2026-04-12T09:14:15Z</time></trkpt><trkpt lat="45.67552540698051" lon="9.64916060559017"><ele>224.0</ele><time>2026-04-12T09:14:16Z</time></trkpt><trkpt lat="45.67554196714012" lon="9.64938489694209"><ele>224.33333333333334</ele><time>2026-04-12T09:14:17Z</time></trkpt><trkpt lat="45.675560828488884" lon="9.649623049904505"><ele>224.66666666666669</ele><time>2026-04-12T09:14:18Z</time></trkpt><trkpt lat="45.67558232855248" lon="9.64988197668212"><ele>225.0</ele><time>2026-04-12T09:14:19Z</time></trkpt><trkpt lat="45.67560230504823" lon="9.650152070245232"><ele>224.0</ele><time>2026-04-12T09:14:20Z</time></trkpt><trkpt lat="45.67561572810329" lon="9.650426062631414"><ele>223.0</ele><time>2026-04-12T09:14:21Z</time></trkpt><trkpt lat="45.67562610123895" lon="9.65070059546254"><ele>222.0</ele><time>2026-04-12T09:14:22Z</time></trkpt><trkpt lat="45.67563159684218" lon="9.65096770597098"><ele>221.0</ele><time>2026-04-12T09:14:23Z</time></trkpt><trkpt lat="45.67563790902154" lon="9.651236360390456"><ele>220.0</ele><time>2026-04-12T09:14:24Z</time></trkpt><trkpt lat="45.6756468153415" lon="9.651520960369414"><ele>219.0</ele><time>2026-04-12T09:14:25Z</time></trkpt><trkpt lat="45.67565911169796" lon="9.651822751541072"><ele>220.33333333333331</ele><time>2026-04-12T09:14:26Z</time></trkpt><trkpt lat="45.675670643202324" lon="9.652123766141289"><ele>221.66666666666666</ele><time>2026-04-12T09:14:27Z</time></trkpt><trkpt lat="45.67568227460097" lon="9.652430780615155"><ele>223.0</ele><time>2026-04-12T09:14:28Z</time></trkpt><trkpt lat="45.67569538761055" lon="9.652746840227719"><ele>223.33333333333331</ele><time>2026-04-12T09:14:29Z</time></trkpt><trkpt lat="45.67570946981515" lon="9.653062906932849"><ele>223.66666666666669</ele><time>2026-04-12T09:14:30Z</time></trkpt><trkpt lat="45.675713944859076" lon="9.653369734902808"><ele>224.0</ele><time>2026-04-12T09:14:31Z</time></trkpt><trkpt lat="45.67572835121593" lon="9.653684194293472"><ele>224.0</ele><time>2026-04-12T09:14:32Z</time></trkpt><trkpt lat="45.675742910963876" lon="9.653992627222287"><ele>224.0</ele><time>2026-04-12T09:14:33Z</time></trkpt><trkpt lat="45.67575626779428" lon="9.654292862891088"><ele>224.0</ele><time>2026-04-12T09:14:34Z</time></trkpt><trkpt lat="45.67576595100472" lon="9.654582681842195"><ele>224.0</ele><time>2026-04-12T09:14:35Z</time></trkpt><trkpt lat="45.67577696627114" lon="9.654855379478166"><ele>224.0</ele><time>2026-04-12T09:14:36Z</time></trkpt><trkpt lat="45.67578415108524" lon="9.655115198970766"><ele>224.0</ele><time>2026-04-12T09:14:37Z</time></trkpt><trkpt lat="45.67579805038" lon="9.655379347385885"><ele>224.0</ele><time>2026-04-12T09:14:38Z</time></trkpt><trkpt lat="45.675812379172314" lon="9.655652623556694"><ele>224.0</ele><time>2026-04-12T09:14:39Z</time></trkpt><trkpt lat="45.67582185917299" lon="9.655929964884615"><ele>224.0</ele><time>2026-04-12T09:14:40Z</time></trkpt><trkpt lat="45.67582822533012" lon="9.656190461859488"><ele>224.0</ele><time>2026-04-12T09:14:41Z</time></trkpt><trkpt lat="45.67583782917127" lon="9.656445669449282"><ele>224.0</ele><time>2026-04-12T09:14:42Z</time></trkpt><trkpt lat="45.6758480332817" lon="9.656706768006233"><ele>224.0</ele><time>2026-04-12T09:14:43Z</time></trkpt><trkpt lat="45.67585892554083" lon="9.656970820766807"><ele>224.66666666666669</ele><time>2026-04-12T09:14:44Z</time></trkpt><trkpt lat="45.675866980266115" lon="9.65723271328279"><ele>225.33333333333331</ele><time>2026-04-12T09:14:45Z</time></trkpt><trkpt lat="45.67587708148357" lon="9.65749930311864"><ele>226.0</ele><time>2026-04-12T09:14:46Z</time></trkpt><trkpt lat="45.67588645670076" lon="9.657769596901943"><ele>227.33333333333331</ele><time>2026-04-12T09:14:47Z</time></trkpt><trkpt lat="45.67589592093753" lon="9.65804644228833"><ele>228.66666666666669</ele><time>2026-04-12T09:14:48Z</time></trkpt><trkpt lat="45.675907516162134" lon="9.658323128651972"><ele>230.0</ele><time>2026-04-12T09:14:49Z</time></trkpt><trkpt lat="45.67591898732799" lon="9.6585969153973"><ele>230.0</ele><time>2026-04-12T09:14:50Z</time></trkpt><trkpt lat="45.675932673420945" lon="9.658867770601198"><ele>230.0</ele><time>2026-04-12T09:14:51Z</time></trkpt><trkpt lat="45.67594105383811" lon="9.659133358033113"><ele>230.0</ele><time>2026-04-12T09:14:52Z</time></trkpt><trkpt lat="45.67595110075045" lon="9.659401258492212"><ele>229.0</ele><time>2026-04-12T09:14:53Z</time></trkpt><trkpt lat="45.67596302658481" lon="9.659670121436847"><ele>228.0</ele><time>2026-04-12T09:14:54Z</time></trkpt><trkpt lat="45.67597345554771" lon="9.659937728139381"><ele>227.0</ele><time>2026-04-12T09:14:55Z</time></trkpt><trkpt lat="45.675982808174" lon="9.66019352572756"><ele>227.0</ele><time>2026-04-12T09:14:56Z</time></trkpt><trkpt lat="45.67599365789119" lon="9.660441245898392"><ele>227.0</ele><time>2026-04-12T09:14:57Z</time></trkpt><trkpt lat="45.67600160773814" lon="9.66067976592367"><ele>227.0</ele><time>2026-04-12T09:14:58Z</time></trkpt><trkpt lat="45.67600922447225" lon="9.660899862207552"><ele>228.0</ele><time>2026-04-12T09:14:59Z</time></trkpt><trkpt lat="45.67599267226945" lon="9.661167307075486"><ele>229.0</ele><time>2026-04-12T09:15:00Z</time></trkpt><trkpt lat="45.676014645720244" lon="9.661367566097256"><ele>230.0</ele><time>2026-04-12T09:15:01Z</time></trkpt><trkpt lat="45.676030664207865" lon="9.661599232530941"><ele>230.0</ele><time>2026-04-12T09:15:02Z</time></trkpt><trkpt lat="45.6760440247052" lon="9.661836038788856"><ele>230.0</ele><time>2026-04-12T09:15:03Z</time></trkpt><trkpt lat="45.676069397834276" lon="9.662084771984508"><ele>230.0</ele><time>2026-04-12T09:15:04Z</time></trkpt><trkpt lat="45.67607497329551" lon="9.662311649213747"><ele>230.0</ele><time>2026-04-12T09:15:05Z</time></trkpt><trkpt lat="45.676103082669236" lon="9.6625426223256"><ele>230.0</ele><time>2026-04-12T09:15:06Z</time></trkpt><trkpt lat="45.676109053169334" lon="9.662751055627014"><ele>230.0</ele><time>2026-04-12T09:15:07Z</time></trkpt><trkpt lat="45.67611474977328" lon="9.662951461416826"><ele>230.25</ele><time>2026-04-12T09:15:08Z</time></trkpt><trkpt lat="45.67612316388363" lon="9.663136984737944"><ele>230.5</ele><time>2026-04-12T09:15:09Z</time></trkpt><trkpt lat="45.67613047874404" lon="9.66331167176832"><ele>230.75</ele><time>2026-04-12T09:15:10Z</time></trkpt><trkpt lat="45.67613620716829" lon="9.663474414583414"><ele>231.0</ele><time>2026-04-12T09:15:11Z</time></trkpt><trkpt lat="45.6761402170719" lon="9.663628254145513"><ele>231.0</ele><time>2026-04-12T09:15:12Z</time></trkpt><trkpt lat="45.67614283712242" lon="9.663775010833163"><ele>231.00000000000003</ele><time>2026-04-12T09:15:13Z</time></trkpt><trkpt lat="45.67614409373473" lon="9.663916277997975"><ele>231.00000000000003</ele><time>2026-04-12T09:15:14Z</time></trkpt><trkpt lat="45.67614710917915" lon="9.664063753449684"><ele>231.0</ele><time>2026-04-12T09:15:15Z</time></trkpt><trkpt lat="45.67615040310596" lon="9.664223442506293"><ele>231.0</ele><time>2026-04-12T09:15:16Z</time></trkpt><trkpt lat="45.67615402382277" lon="9.66439625237224"><ele>231.25</ele><time>2026-04-12T09:15:17Z</time></trkpt><trkpt lat="45.676157829281344" lon="9.664584048527503"><ele>231.5</ele><time>2026-04-12T09:15:18Z</time></trkpt><trkpt lat="45.67616379375932" lon="9.664784690463621"><ele>231.75</ele><time>2026-04-12T09:15:19Z</time></trkpt><trkpt lat="45.67616666442541" lon="9.664997497814776"><ele>232.0</ele><time>2026-04-12T09:15:20Z</time></trkpt><trkpt lat="45.6761641205781" lon="9.665210252854928"><ele>232.5</ele><time>2026-04-12T09:15:21Z</time></trkpt><trkpt lat="45.67615419383064" lon="9.665419662814465"><ele>233.0</ele><time>2026-04-12T09:15:22Z</time></trkpt><trkpt lat="45.67613828511647" lon="9.665620038769738"><ele>233.5</ele><time>2026-04-12T09:15:23Z</time></trkpt><trkpt lat="45.67611387586966" lon="9.665811875567142"><ele>234.0</ele><time>2026-04-12T09:15:24Z</time></trkpt><trkpt lat="45.676078033280206" lon="9.665995802451087"><ele>233.5</ele><time>2026-04-12T09:15:25Z</time></trkpt><trkpt lat="45.67603147905106" lon="9.666176005146221"><ele>233.0</ele><time>2026-04-12T09:15:26Z</time></trkpt><trkpt lat="45.67597023920699" lon="9.666364297925028"><ele>232.5</ele><time>2026-04-12T09:15:27Z</time></trkpt><trkpt lat="45.67589742059395" lon="9.666548101290205"><ele>232.0</ele><time>2026-04-12T09:15:28Z</time></trkpt><trkpt lat="45.675815545964774" lon="9.666721590950983"><ele>232.0</ele><time>2026-04-12T09:15:29Z</time></trkpt><trkpt lat="45.675737562043196" lon="9.666877323698596"><ele>232.0</ele><time>2026-04-12T09:15:30Z</time></trkpt><trkpt lat="45.675658502997095" lon="9.667028871043241"><ele>232.0</ele><time>2026-04-12T09:15:31Z</time></trkpt><trkpt lat="45.67558621006904" lon="9.6671911724577"><ele>232.0</ele><time>2026-04-12T09:15:32Z</time></trkpt><trkpt lat="45.67553178115896" lon="9.667377155329884"><ele>231.66666666666666</ele><time>2026-04-12T09:15:33Z</time></trkpt><trkpt lat="45.675490709802965" lon="9.667582647007652"><ele>231.33333333333331</ele><time>2026-04-12T09:15:34Z</time></trkpt><trkpt lat="45.67546446502835" lon="9.667801167656446"><ele>231.0</ele><time>2026-04-12T09:15:35Z</time></trkpt><trkpt lat="45.67545206658631" lon="9.668025197833902"><ele>231.33333333333331</ele><time>2026-04-12T09:15:36Z</time></trkpt><trkpt lat="45.67545828762993" lon="9.668245154704353"><ele>231.66666666666666</ele><time>2026-04-12T09:15:37Z</time></trkpt><trkpt lat="45.67547773766386" lon="9.668478490404476"><ele>232.0</ele><time>2026-04-12T09:15:38Z</time></trkpt><trkpt lat="45.67552102699461" lon="9.668712592860645"><ele>232.0</ele><time>2026-04-12T09:15:39Z</time></trkpt><trkpt lat="45.67558005179121" lon="9.668930910266038"><ele>232.0</ele><time>2026-04-12T09:15:40Z</time></trkpt><trkpt lat="45.675645924990015" lon="9.669134796837916"><ele>232.0</ele><time>2026-04-12T09:15:41Z</time></trkpt><trkpt lat="45.67573018833019" lon="9.669313051589402"><ele>232.66666666666666</ele><time>2026-04-12T09:15:42Z</time></trkpt><trkpt lat="45.67583290558706" lon="9.669468396123314"><ele>233.33333333333331</ele><time>2026-04-12T09:15:43Z</time></trkpt><trkpt lat="45.67595198408732" lon="9.669598902259919"><ele>234.0</ele><time>2026-04-12T09:15:44Z</time></trkpt><trkpt lat="45.67607821746011" lon="9.669717604285896"><ele>235.0</ele><time>2026-04-12T09:15:45Z</time></trkpt><trkpt lat="45.67617313852739" lon="9.669830278404127"><ele>236.0</ele><time>2026-04-12T09:15:46Z</time></trkpt><trkpt lat="45.67633088105718" lon="9.669899730778278"><ele>237.0</ele><time>2026-04-12T09:15:47Z</time></trkpt><trkpt lat="45.67649341580307" lon="9.669969498757107"><ele>237.0</ele><time>2026-04-12T09:15:48Z</time></trkpt><trkpt lat="45.67665432414999" lon="9.6700555022735"><ele>237.0</ele><time>2026-04-12T09:15:49Z</time></trkpt><trkpt lat="45.67682016496769" lon="9.67016654854587"><ele>237.0</ele><time>2026-04-12T09:15:50Z</time></trkpt><trkpt lat="45.67698997829363" lon="9.670289522040209"><ele>236.33333333333331</ele><time>2026-04-12T09:15:51Z</time></trkpt><trkpt lat="45.67715980321966" lon="9.670430498612916"><ele>235.66666666666666</ele><time>2026-04-12T09:15:52Z</time></trkpt><trkpt lat="45.67732572937474" lon="9.670590649564224"><ele>235.0</ele><time>2026-04-12T09:15:53Z</time></trkpt><trkpt lat="45.67749105001014" lon="9.670761631319714"><ele>235.0</ele><time>2026-04-12T09:15:54Z</time></trkpt><trkpt lat="45.67765124869483" lon="9.670952220471492"><ele>235.0</ele><time>2026-04-12T09:15:55Z</time></trkpt><trkpt lat="45.677794335838655" lon="9.671145559124643"><ele>235.0</ele><time>2026-04-12T09:15:56Z</time></trkpt><trkpt lat="45.6779295053908" lon="9.671362528011178"><ele>235.33333333333331</ele><time>2026-04-12T09:15:57Z</time></trkpt><trkpt lat="45.67806099230844" lon="9.671599022700677"><ele>235.66666666666669</ele><time>2026-04-12T09:15:58Z</time></trkpt><trkpt lat="45.67819939547264" lon="9.671843446125997"><ele>236.0</ele><time>2026-04-12T09:15:59Z</time></trkpt><trkpt lat="45.67834409325104" lon="9.672091357331297"><ele>237.0</ele><time>2026-04-12T09:16:00Z</time></trkpt><trkpt lat="45.67848960841936" lon="9.672338462184559"><ele>238.0</ele><time>2026-04-12T09:16:01Z</time></trkpt><trkpt lat="45.678638204779475" lon="9.672585973707141"><ele>237.66666666666666</ele><time>2026-04-12T09:16:02Z</time></trkpt><trkpt lat="45.678777779902234" lon="9.672828158439126"><ele>237.33333333333331</ele><time>2026-04-12T09:16:03Z</time></trkpt><trkpt lat="45.67891592644492" lon="9.673067172214331"><ele>237.0</ele><time>2026-04-12T09:16:04Z</time></trkpt><trkpt lat="45.6790546605435" lon="9.673305102511927"><ele>237.0</ele><time>2026-04-12T09:16:05Z</time></trkpt><trkpt lat="45.67918706451972" lon="9.673532570042754"><ele>237.0</ele><time>2026-04-12T09:16:06Z</time></trkpt><trkpt lat="45.67931225915104" lon="9.673748531946194"><ele>237.0</ele><time>2026-04-12T09:16:07Z</time></trkpt><trkpt lat="45.67943844768541" lon="9.673965911388342"><ele>237.66666666666669</ele><time>2026-04-12T09:16:08Z</time></trkpt><trkpt lat="45.67956608036631" lon="9.674181712447734"><ele>238.33333333333334</ele><time>2026-04-12T09:16:09Z</time></trkpt><trkpt lat="45.679692663435276" lon="9.674398717699898"><ele>239.0</ele><time>2026-04-12T09:16:10Z</time></trkpt><trkpt lat="45.6798179111856" lon="9.674609088702521"><ele>239.66666666666669</ele><time>2026-04-12T09:16:11Z</time></trkpt><trkpt lat="45.679937749266614" lon="9.674811644925931"><ele>240.33333333333331</ele><time>2026-04-12T09:16:12Z</time></trkpt><trkpt lat="45.6800580467134" lon="9.67501683018533"><ele>241.0</ele><time>2026-04-12T09:16:13Z</time></trkpt><trkpt lat="45.68017887406848" lon="9.675221051328043"><ele>241.66666666666666</ele><time>2026-04-12T09:16:14Z</time></trkpt><trkpt lat="45.680297910163716" lon="9.675421150670093"><ele>242.33333333333331</ele><time>2026-04-12T09:16:15Z</time></trkpt><trkpt lat="45.68041389221617" lon="9.675619172153677"><ele>243.0</ele><time>2026-04-12T09:16:16Z</time></trkpt><trkpt lat="45.680527164195965" lon="9.675815907115473"><ele>243.0</ele><time>2026-04-12T09:16:17Z</time></trkpt><trkpt lat="45.680640799418946" lon="9.676015601514123"><ele>243.0</ele><time>2026-04-12T09:16:18Z</time></trkpt><trkpt lat="45.68075302928446" lon="9.676206472620555"><ele>243.0</ele><time>2026-04-12T09:16:19Z</time></trkpt><trkpt lat="45.680855787554925" lon="9.676383428333875"><ele>242.33333333333331</ele><time>2026-04-12T09:16:20Z</time></trkpt><trkpt lat="45.68095226879722" lon="9.67655281418546"><ele>241.66666666666666</ele><time>2026-04-12T09:16:21Z</time></trkpt><trkpt lat="45.681054884111646" lon="9.676729313997757"><ele>241.0</ele><time>2026-04-12T09:16:22Z</time></trkpt><trkpt lat="45.68116157330054" lon="9.676905594927376"><ele>241.33333333333331</ele><time>2026-04-12T09:16:23Z</time></trkpt><trkpt lat="45.681272980120326" lon="9.677079855795904"><ele>241.66666666666669</ele><time>2026-04-12T09:16:24Z</time></trkpt><trkpt lat="45.68138957230368" lon="9.677246561981834"><ele>242.0</ele><time>2026-04-12T09:16:25Z</time></trkpt><trkpt lat="45.68150838476025" lon="9.67741589702499"><ele>242.0</ele><time>2026-04-12T09:16:26Z</time></trkpt><trkpt lat="45.68162178313663" lon="9.677575514552862"><ele>242.0</ele><time>2026-04-12T09:16:27Z</time></trkpt><trkpt lat="45.68173073707703" lon="9.677727746278368"><ele>242.0</ele><time>2026-04-12T09:16:28Z</time></trkpt><trkpt lat="45.681839449002" lon="9.677883583269837"><ele>241.33333333333334</ele><time>2026-04-12T09:16:29Z</time></trkpt><trkpt lat="45.68195113361672" lon="9.678040325817813"><ele>240.66666666666669</ele><time>2026-04-12T09:16:30Z</time></trkpt><trkpt lat="45.682062714197514" lon="9.678211204320124"><ele>240.0</ele><time>2026-04-12T09:16:31Z</time></trkpt><trkpt lat="45.68216968079107" lon="9.678392777527119"><ele>240.0</ele><time>2026-04-12T09:16:32Z</time></trkpt><trkpt lat="45.68227490169571" lon="9.67857870410733"><ele>240.0</ele><time>2026-04-12T09:16:33Z</time></trkpt><trkpt lat="45.682378681402774" lon="9.678772265289199"><ele>240.0</ele><time>2026-04-12T09:16:34Z</time></trkpt><trkpt lat="45.6824722394989" lon="9.678970973067038"><ele>240.33333333333331</ele><time>2026-04-12T09:16:35Z</time></trkpt><trkpt lat="45.682562384562026" lon="9.67917343285112"><ele>240.66666666666666</ele><time>2026-04-12T09:16:36Z</time></trkpt><trkpt lat="45.68265214711771" lon="9.679371472527126"><ele>241.0</ele><time>2026-04-12T09:16:37Z</time></trkpt><trkpt lat="45.68274413535614" lon="9.679557610980256"><ele>241.33333333333331</ele><time>2026-04-12T09:16:38Z</time></trkpt><trkpt lat="45.6828416433951" lon="9.67974389816278"><ele>241.66666666666669</ele><time>2026-04-12T09:16:39Z</time></trkpt><trkpt lat="45.682946057306154" lon="9.6799349462471"><ele>242.0</ele><time>2026-04-12T09:16:40Z</time></trkpt><trkpt lat="45.683061670796945" lon="9.680129731650617"><ele>243.0</ele><time>2026-04-12T09:16:41Z</time></trkpt><trkpt lat="45.683180663517334" lon="9.680324829604672"><ele>244.0</ele><time>2026-04-12T09:16:42Z</time></trkpt><trkpt lat="45.683298194499955" lon="9.68052380353336"><ele>245.0</ele><time>2026-04-12T09:16:43Z</time></trkpt><trkpt lat="45.68341578115543" lon="9.680726370952476"><ele>245.0</ele><time>2026-04-12T09:16:44Z</time></trkpt><trkpt lat="45.68353491773126" lon="9.680931990037656"><ele>245.0</ele><time>2026-04-12T09:16:45Z</time></trkpt><trkpt lat="45.68365765907134" lon="9.68113987101459"><ele>245.0</ele><time>2026-04-12T09:16:46Z</time></trkpt><trkpt lat="45.68378318825394" lon="9.681352119166359"><ele>245.33333333333334</ele><time>2026-04-12T09:16:47Z</time></trkpt><trkpt lat="45.683912796371224" lon="9.681573318206912"><ele>245.66666666666669</ele><time>2026-04-12T09:16:48Z</time></trkpt><trkpt lat="45.6840440108885" lon="9.681795613009148"><ele>246.0</ele><time>2026-04-12T09:16:49Z</time></trkpt><trkpt lat="45.68416914732614" lon="9.682008483943378"><ele>246.0</ele><time>2026-04-12T09:16:50Z</time></trkpt><trkpt lat="45.68429741138616" lon="9.682226472300064"><ele>246.0</ele><time>2026-04-12T09:16:51Z</time></trkpt><trkpt lat="45.684426797589566" lon="9.682446515724346"><ele>246.0</ele><time>2026-04-12T09:16:52Z</time></trkpt><trkpt lat="45.68456055760056" lon="9.682672337357818"><ele>245.66666666666669</ele><time>2026-04-12T09:16:53Z</time></trkpt><trkpt lat="45.68469358766525" lon="9.682902656086615"><ele>245.33333333333334</ele><time>2026-04-12T09:16:54Z</time></trkpt><trkpt lat="45.684828877867396" lon="9.683137774980064"><ele>245.0</ele><time>2026-04-12T09:16:55Z</time></trkpt><trkpt lat="45.68496867342925" lon="9.683375140422902"><ele>245.0</ele><time>2026-04-12T09:16:56Z</time></trkpt><trkpt lat="45.68510889334411" lon="9.683614207174994"><ele>245.0</ele><time>2026-04-12T09:16:57Z</time></trkpt><trkpt lat="45.68524806408483" lon="9.683858525787334"><ele>245.0</ele><time>2026-04-12T09:16:58Z</time></trkpt><trkpt lat="45.685387635074" lon="9.684109897485694"><ele>244.66666666666669</ele><time>2026-04-12T09:16:59Z</time></trkpt><trkpt lat="45.68552285156748" lon="9.684365034654595"><ele>244.33333333333331</ele><time>2026-04-12T09:17:00Z</time></trkpt><trkpt lat="45.68565942152892" lon="9.684616257632918"><ele>244.0</ele><time>2026-04-12T09:17:01Z</time></trkpt><trkpt lat="45.68579955932345" lon="9.684852642234825"><ele>245.33333333333331</ele><time>2026-04-12T09:17:02Z</time></trkpt><trkpt lat="45.685934808694654" lon="9.685086649660969"><ele>246.66666666666669</ele><time>2026-04-12T09:17:03Z</time></trkpt><trkpt lat="45.68606496584763" lon="9.685316048821592"><ele>248.0</ele><time>2026-04-12T09:17:04Z</time></trkpt><trkpt lat="45.68619508227774" lon="9.68554062538777"><ele>248.0</ele><time>2026-04-12T09:17:05Z</time></trkpt><trkpt lat="45.68632515098723" lon="9.685761662853558"><ele>248.0</ele><time>2026-04-12T09:17:06Z</time></trkpt><trkpt lat="45.68645523297244" lon="9.685977312784454"><ele>248.0</ele><time>2026-04-12T09:17:07Z</time></trkpt><trkpt lat="45.68658927770708" lon="9.68618665608134"><ele>248.0</ele><time>2026-04-12T09:17:08Z</time></trkpt><trkpt lat="45.68672998055402" lon="9.686384754604754"><ele>248.0</ele><time>2026-04-12T09:17:09Z</time></trkpt><trkpt lat="45.68687456273655" lon="9.68656236489927"><ele>248.0</ele><time>2026-04-12T09:17:10Z</time></trkpt><trkpt lat="45.6870176842466" lon="9.686722942008139"><ele>247.33333333333334</ele><time>2026-04-12T09:17:11Z</time></trkpt><trkpt lat="45.687152578963335" lon="9.686866970798256"><ele>246.66666666666669</ele><time>2026-04-12T09:17:12Z</time></trkpt><trkpt lat="45.687285937822985" lon="9.68699294986476"><ele>246.0</ele><time>2026-04-12T09:17:13Z</time></trkpt><trkpt lat="45.68741148681458" lon="9.687108247181119"><ele>246.0</ele><time>2026-04-12T09:17:14Z</time></trkpt><trkpt lat="45.68753120233932" lon="9.687215381040437"><ele>246.0</ele><time>2026-04-12T09:17:15Z</time></trkpt><trkpt lat="45.687644282919855" lon="9.687313632674627"><ele>246.0</ele><time>2026-04-12T09:17:16Z</time></trkpt><trkpt lat="45.68775229536204" lon="9.68740994752603"><ele>246.0</ele><time>2026-04-12T09:17:17Z</time></trkpt><trkpt lat="45.68786350971044" lon="9.687507267000884"><ele>246.75</ele><time>2026-04-12T09:17:18Z</time></trkpt><trkpt lat="45.687973552157054" lon="9.6876061591431"><ele>247.5</ele><time>2026-04-12T09:17:19Z</time></trkpt><trkpt lat="45.68808568926811" lon="9.687704182150597"><ele>248.25</ele><time>2026-04-12T09:17:20Z</time></trkpt><trkpt lat="45.68819757779113" lon="9.687802219150893"><ele>249.0</ele><time>2026-04-12T09:17:21Z</time></trkpt><trkpt lat="45.68830790715633" lon="9.68790171502749"><ele>249.25</ele><time>2026-04-12T09:17:22Z</time></trkpt><trkpt lat="45.68842072340671" lon="9.688000494825275"><ele>249.5</ele><time>2026-04-12T09:17:23Z</time></trkpt><trkpt lat="45.68853061573755" lon="9.68809982161983"><ele>249.75</ele><time>2026-04-12T09:17:24Z</time></trkpt><trkpt lat="45.68863867476814" lon="9.688195602848053"><ele>250.0</ele><time>2026-04-12T09:17:25Z</time></trkpt><trkpt lat="45.688747562884735" lon="9.688293132755277"><ele>250.75</ele><time>2026-04-12T09:17:26Z</time></trkpt><trkpt lat="45.688859600867666" lon="9.688392468878531"><ele>251.5</ele><time>2026-04-12T09:17:27Z</time></trkpt><trkpt lat="45.688976893884615" lon="9.68849817962695"><ele>252.25</ele><time>2026-04-12T09:17:28Z</time></trkpt><trkpt lat="45.68909315169879" lon="9.688603537643152"><ele>253.0</ele><time>2026-04-12T09:17:29Z</time></trkpt><trkpt lat="45.68921214498384" lon="9.688709092689306"><ele>253.0</ele><time>2026-04-12T09:17:30Z</time></trkpt><trkpt lat="45.68933365924097" lon="9.68881692624522"><ele>253.0</ele><time>2026-04-12T09:17:31Z</time></trkpt><trkpt lat="45.689453074112876" lon="9.688923452824806"><ele>253.0</ele><time>2026-04-12T09:17:32Z</time></trkpt><trkpt lat="45.68955985884029" lon="9.689019526338292"><ele>253.0</ele><time>2026-04-12T09:17:33Z</time></trkpt><trkpt lat="45.6896577193501" lon="9.689106683014183"><ele>253.0</ele><time>2026-04-12T09:17:34Z</time></trkpt><trkpt lat="45.68974227285935" lon="9.689181783303875"><ele>253.0</ele><time>2026-04-12T09:17:35Z</time></trkpt><trkpt lat="45.689821067292904" lon="9.689253246422346"><ele>253.0</ele><time>2026-04-12T09:17:36Z</time></trkpt><trkpt lat="45.68989677973956" lon="9.68932224292463"><ele>253.0</ele><time>2026-04-12T09:17:37Z</time></trkpt><trkpt lat="45.68997063369995" lon="9.689388626187759"><ele>253.0</ele><time>2026-04-12T09:17:38Z</time></trkpt><trkpt lat="45.690049465819385" lon="9.68945909207859"><ele>253.0</ele><time>2026-04-12T09:17:39Z</time></trkpt><trkpt lat="45.69013306695731" lon="9.689532707779875"><ele>253.0</ele><time>2026-04-12T09:17:40Z</time></trkpt><trkpt lat="45.69022063742998" lon="9.68960903729211"><ele>253.0</ele><time>2026-04-12T09:17:41Z</time></trkpt><trkpt lat="45.69031138807265" lon="9.689687969955045"><ele>253.0</ele><time>2026-04-12T09:17:42Z</time></trkpt><trkpt lat="45.690407659669255" lon="9.689774197196007"><ele>253.0</ele><time>2026-04-12T09:17:43Z</time></trkpt><trkpt lat="45.69051022719728" lon="9.689864281691612"><ele>253.0</ele><time>2026-04-12T09:17:43.999Z</time></trkpt><trkpt lat="45.69061463082937" lon="9.68995697352708"><ele>253.0</ele><time>2026-04-12T09:17:44.999Z</time></trkpt><trkpt lat="45.690712505451245" lon="9.690043690448348"><ele>253.0</ele><time>2026-04-12T09:17:45.999Z</time></trkpt><trkpt lat="45.69080634957641" lon="9.690126126703253"><ele>253.0</ele><time>2026-04-12T09:17:46.999Z</time></trkpt><trkpt lat="45.69089900982606" lon="9.690213289322577"><ele>253.0</ele><time>2026-04-12T09:17:47.999Z</time></trkpt><trkpt lat="45.69098938712239" lon="9.690300466950191"><ele>253.0</ele><time>2026-04-12T09:17:48.999Z</time></trkpt><trkpt lat="45.69108069802866" lon="9.690405917178694"><ele>253.0</ele><time>2026-04-12T09:17:49.999Z</time></trkpt><trkpt lat="45.691176335957884" lon="9.69051912932642"><ele>253.0</ele><time>2026-04-12T09:17:50.999Z</time></trkpt><trkpt lat="45.69127656224478" lon="9.690624333006935"><ele>253.0</ele><time>2026-04-12T09:17:51.999Z</time></trkpt><trkpt lat="45.691382053555934" lon="9.690723699151404"><ele>253.0</ele><time>2026-04-12T09:17:52.999Z</time></trkpt><trkpt lat="45.691495136994135" lon="9.690821435530767"><ele>253.0</ele><time>2026-04-12T09:17:53.999Z</time></trkpt><trkpt lat="45.691606440253075" lon="9.69091617373427"><ele>253.0</ele><time>2026-04-12T09:17:54.999Z</time></trkpt><trkpt lat="45.69171330341317" lon="9.691008804239573"><ele>253.5</ele><time>2026-04-12T09:17:55.999Z</time></trkpt><trkpt lat="45.69181271614347" lon="9.691100157442422"><ele>254.0</ele><time>2026-04-12T09:17:56.999Z</time></trkpt><trkpt lat="45.69191098422041" lon="9.691188663139872"><ele>254.5</ele><time>2026-04-12T09:17:57.999Z</time></trkpt><trkpt lat="45.69200883285226" lon="9.691274773842864"><ele>255.0</ele><time>2026-04-12T09:17:58.999Z</time></trkpt><trkpt lat="45.69210391051886" lon="9.691359231903833"><ele>255.8</ele><time>2026-04-12T09:17:59.999Z</time></trkpt><trkpt lat="45.69219706359837" lon="9.691449059566276"><ele>256.6</ele><time>2026-04-12T09:18:00.999Z</time></trkpt><trkpt lat="45.69229329606038" lon="9.69153354236955"><ele>257.4</ele><time>2026-04-12T09:18:01.999Z</time></trkpt><trkpt lat="45.69238015559944" lon="9.69160761867524"><ele>258.2</ele><time>2026-04-12T09:18:02.999Z</time></trkpt><trkpt lat="45.69246259571753" lon="9.69168571808665"><ele>259.0</ele><time>2026-04-12T09:18:03.999Z</time></trkpt><trkpt lat="45.69253463196109" lon="9.691754598362472"><ele>259.0</ele><time>2026-04-12T09:18:05Z</time></trkpt><trkpt lat="45.6926037561199" lon="9.691821987719639"><ele>259.0</ele><time>2026-04-12T09:18:06Z</time></trkpt><trkpt lat="45.69267860714967" lon="9.691888711996482"><ele>259.0</ele><time>2026-04-12T09:18:07Z</time></trkpt><trkpt lat="45.69275094469971" lon="9.691951784122944"><ele>259.0</ele><time>2026-04-12T09:18:08Z</time></trkpt><trkpt lat="45.692816448017055" lon="9.69200903487319"><ele>259.0</ele><time>2026-04-12T09:18:09Z</time></trkpt><trkpt lat="45.692880741923574" lon="9.692066918644752"><ele>259.0</ele><time>2026-04-12T09:18:10Z</time></trkpt><trkpt lat="45.69294081491424" lon="9.692121708736853"><ele>259.0</ele><time>2026-04-12T09:18:11Z</time></trkpt><trkpt lat="45.69299821642156" lon="9.692171028016853"><ele>259.0</ele><time>2026-04-12T09:18:12Z</time></trkpt><trkpt lat="45.693054338395996" lon="9.69222058247412"><ele>259.0</ele><time>2026-04-12T09:18:13Z</time></trkpt><trkpt lat="45.69311156237193" lon="9.69227167464917"><ele>259.0</ele><time>2026-04-12T09:18:14Z</time></trkpt><trkpt lat="45.693167094763304" lon="9.692324846828198"><ele>259.0</ele><time>2026-04-12T09:18:15Z</time></trkpt><trkpt lat="45.69322629517251" lon="9.692374954654182"><ele>259.0</ele><time>2026-04-12T09:18:16Z</time></trkpt><trkpt lat="45.69328089934989" lon="9.692422629785298"><ele>259.0</ele><time>2026-04-12T09:18:17Z</time></trkpt><trkpt lat="45.69333541681371" lon="9.692471327409311"><ele>259.0</ele><time>2026-04-12T09:18:18Z</time></trkpt><trkpt lat="45.69339010981991" lon="9.692532668502004"><ele>259.0</ele><time>2026-04-12T09:18:19Z</time></trkpt><trkpt lat="45.693419525501945" lon="9.692623777861005"><ele>259.0</ele><time>2026-04-12T09:18:20Z</time></trkpt><trkpt lat="45.69337963677824" lon="9.69282573023978"><ele>259.0</ele><time>2026-04-12T09:18:22Z</time></trkpt><trkpt lat="45.693339694081004" lon="9.692935617375134"><ele>259.0</ele><time>2026-04-12T09:18:23Z</time></trkpt><trkpt lat="45.6933017812868" lon="9.693053584188602"><ele>259.0</ele><time>2026-04-12T09:18:24Z</time></trkpt><trkpt lat="45.693263200019295" lon="9.69316836709428"><ele>259.0</ele><time>2026-04-12T09:18:25Z</time></trkpt><trkpt lat="45.69322602619467" lon="9.693298443856378"><ele>259.0</ele><time>2026-04-12T09:18:26Z</time></trkpt><trkpt lat="45.693185412399906" lon="9.693409538728227"><ele>259.0</ele><time>2026-04-12T09:18:27Z</time></trkpt><trkpt lat="45.6931442381411" lon="9.693533986412078"><ele>259.0</ele><time>2026-04-12T09:18:28Z</time></trkpt><trkpt lat="45.69310715748415" lon="9.693674947881972"><ele>259.0</ele><time>2026-04-12T09:18:29Z</time></trkpt><trkpt lat="45.6930678850132" lon="9.693832768432994"><ele>259.0</ele><time>2026-04-12T09:18:30Z</time></trkpt><trkpt lat="45.693024043633365" lon="9.693992523756206"><ele>259.0</ele><time>2026-04-12T09:18:31Z</time></trkpt><trkpt lat="45.69298045678459" lon="9.69414418672"><ele>259.0</ele><time>2026-04-12T09:18:32Z</time></trkpt><trkpt lat="45.692932562963854" lon="9.694311962670117"><ele>259.0</ele><time>2026-04-12T09:18:33Z</time></trkpt><trkpt lat="45.69288142760416" lon="9.694497068351357"><ele>259.0</ele><time>2026-04-12T09:18:34Z</time></trkpt><trkpt lat="45.69282776942901" lon="9.694693336583997"><ele>259.0</ele><time>2026-04-12T09:18:35Z</time></trkpt><trkpt lat="45.69277030846348" lon="9.694888452475398"><ele>259.0</ele><time>2026-04-12T09:18:36Z</time></trkpt><trkpt lat="45.69271268192799" lon="9.695072459585703"><ele>259.0</ele><time>2026-04-12T09:18:37Z</time></trkpt><trkpt lat="45.692659860920216" lon="9.695251815777981"><ele>259.0</ele><time>2026-04-12T09:18:38Z</time></trkpt><trkpt lat="45.692610789045595" lon="9.695429755810602"><ele>259.0</ele><time>2026-04-12T09:18:39Z</time></trkpt><trkpt lat="45.692561434976646" lon="9.695602593319867"><ele>259.0</ele><time>2026-04-12T09:18:40Z</time></trkpt><trkpt lat="45.692511734993786" lon="9.695772881509317"><ele>258.75</ele><time>2026-04-12T09:18:41Z</time></trkpt><trkpt lat="45.692466727225835" lon="9.695941338689913"><ele>258.5</ele><time>2026-04-12T09:18:42Z</time></trkpt><trkpt lat="45.69241847813836" lon="9.696107028616678"><ele>258.25</ele><time>2026-04-12T09:18:43Z</time></trkpt><trkpt lat="45.692369169323" lon="9.6962792483157"><ele>258.0</ele><time>2026-04-12T09:18:44Z</time></trkpt><trkpt lat="45.692320817947234" lon="9.696464480374894"><ele>257.75</ele><time>2026-04-12T09:18:45Z</time></trkpt><trkpt lat="45.69227004171762" lon="9.696654188741363"><ele>257.5</ele><time>2026-04-12T09:18:46Z</time></trkpt><trkpt lat="45.692218571653314" lon="9.696844801400998"><ele>257.25</ele><time>2026-04-12T09:18:47Z</time></trkpt><trkpt lat="45.692164176838155" lon="9.69703418391022"><ele>257.0</ele><time>2026-04-12T09:18:48Z</time></trkpt><trkpt lat="45.6921132259737" lon="9.697223491168"><ele>256.75</ele><time>2026-04-12T09:18:49Z</time></trkpt><trkpt lat="45.69206863053711" lon="9.697403292217603"><ele>256.5</ele><time>2026-04-12T09:18:50Z</time></trkpt><trkpt lat="45.69202288040655" lon="9.697577046954963"><ele>256.25</ele><time>2026-04-12T09:18:51Z</time></trkpt><trkpt lat="45.69197348895717" lon="9.697749633224396"><ele>256.0</ele><time>2026-04-12T09:18:52Z</time></trkpt><trkpt lat="45.69192512651303" lon="9.697925681727748"><ele>256.25</ele><time>2026-04-12T09:18:53Z</time></trkpt><trkpt lat="45.69187766938925" lon="9.698097274304589"><ele>256.5</ele><time>2026-04-12T09:18:54Z</time></trkpt><trkpt lat="45.691833403450865" lon="9.698257974742061"><ele>256.75</ele><time>2026-04-12T09:18:55Z</time></trkpt><trkpt lat="45.69179083909982" lon="9.698412406154729"><ele>257.0</ele><time>2026-04-12T09:18:56Z</time></trkpt><trkpt lat="45.69174752387054" lon="9.698567247679684"><ele>256.8</ele><time>2026-04-12T09:18:57Z</time></trkpt><trkpt lat="45.691704622969155" lon="9.698723299403241"><ele>256.6</ele><time>2026-04-12T09:18:58Z</time></trkpt><trkpt lat="45.691664956361315" lon="9.69886868789308"><ele>256.40000000000003</ele><time>2026-04-12T09:18:59Z</time></trkpt><trkpt lat="45.6916274388894" lon="9.699002091611211"><ele>256.2</ele><time>2026-04-12T09:19:00Z</time></trkpt><trkpt lat="45.691592712099755" lon="9.69913034650114"><ele>256.0</ele><time>2026-04-12T09:19:01Z</time></trkpt><trkpt lat="45.69155817414907" lon="9.6992591719559"><ele>255.99999999999997</ele><time>2026-04-12T09:19:02Z</time></trkpt><trkpt lat="45.6915279396975" lon="9.699378332571037"><ele>256.0</ele><time>2026-04-12T09:19:03Z</time></trkpt><trkpt lat="45.691497378965984" lon="9.699487071932875"><ele>256.0</ele><time>2026-04-12T09:19:04Z</time></trkpt><trkpt lat="45.69146883989088" lon="9.699592309953317"><ele>256.0</ele><time>2026-04-12T09:19:05Z</time></trkpt><trkpt lat="45.69144209216493" lon="9.699692979304373"><ele>255.99999999999997</ele><time>2026-04-12T09:19:06Z</time></trkpt><trkpt lat="45.69141753984067" lon="9.699786739087685"><ele>256.0</ele><time>2026-04-12T09:19:07Z</time></trkpt><trkpt lat="45.691393565741514" lon="9.699872508116218"><ele>256.40000000000003</ele><time>2026-04-12T09:19:08Z</time></trkpt><trkpt lat="45.69135124835535" lon="9.700035739486568"><ele>256.8</ele><time>2026-04-12T09:19:10Z</time></trkpt><trkpt lat="45.691317131591305" lon="9.700156047256284"><ele>257.20000000000005</ele><time>2026-04-12T09:19:12Z</time></trkpt><trkpt lat="45.691293981535665" lon="9.700250619402633"><ele>257.6</ele><time>2026-04-12T09:19:20Z</time></trkpt><trkpt lat="45.69126092565155" lon="9.700369321778746"><ele>258.0</ele><time>2026-04-12T09:19:22Z</time></trkpt><trkpt lat="45.6912270772212" lon="9.700493752839328"><ele>258.2</ele><time>2026-04-12T09:19:24Z</time></trkpt><trkpt lat="45.69119972170386" lon="9.700588527581807"><ele>258.4</ele><time>2026-04-12T09:19:26Z</time></trkpt><trkpt lat="45.69116590830353" lon="9.700720023619105"><ele>258.59999999999997</ele><time>2026-04-12T09:19:28Z</time></trkpt><trkpt lat="45.69112632710751" lon="9.70086885429037"><ele>258.8</ele><time>2026-04-12T09:19:30Z</time></trkpt><trkpt lat="45.69104439419192" lon="9.700930482061597"><ele>259.0</ele><time>2026-04-12T09:19:32Z</time></trkpt><trkpt lat="45.690952774944535" lon="9.70085496435692"><ele>258.66666666666663</ele><time>2026-04-12T09:19:34Z</time></trkpt><trkpt lat="45.69090982470443" lon="9.70078875257457"><ele>258.3333333333333</ele><time>2026-04-12T09:19:35Z</time></trkpt><trkpt lat="45.69085839862441" lon="9.700723338189757"><ele>258.0</ele><time>2026-04-12T09:19:36Z</time></trkpt><trkpt lat="45.6907982934186" lon="9.700651412378923"><ele>257.6666666666667</ele><time>2026-04-12T09:19:37Z</time></trkpt><trkpt lat="45.69072879484125" lon="9.70057237357695"><ele>257.33333333333337</ele><time>2026-04-12T09:19:38Z</time></trkpt><trkpt lat="45.690661822886696" lon="9.700487614461151"><ele>257.0</ele><time>2026-04-12T09:19:39Z</time></trkpt><trkpt lat="45.690601192476755" lon="9.70040433103068"><ele>257.0</ele><time>2026-04-12T09:19:40Z</time></trkpt><trkpt lat="45.69054406632899" lon="9.700311972944625"><ele>257.0</ele><time>2026-04-12T09:19:41Z</time></trkpt><trkpt lat="45.69049662014232" lon="9.700210698560985"><ele>257.0</ele><time>2026-04-12T09:19:42Z</time></trkpt><trkpt lat="45.690466762291415" lon="9.700122093850299"><ele>257.0</ele><time>2026-04-12T09:19:43Z</time></trkpt><trkpt lat="45.69045586414184" lon="9.700008151695942"><ele>257.0</ele><time>2026-04-12T09:19:45Z</time></trkpt><trkpt lat="45.69037370716902" lon="9.699867263651472"><ele>257.0</ele><time>2026-04-12T09:22:37.999Z</time></trkpt><trkpt lat="45.690417912571974" lon="9.700003170911966"><ele>257.0</ele><time>2026-04-12T09:22:45.999Z</time></trkpt><trkpt lat="45.69047317823007" lon="9.70013671198561"><ele>257.0</ele><time>2026-04-12T09:22:47.999Z</time></trkpt><trkpt lat="45.690530531667775" lon="9.700275296032686"><ele>257.0</ele><time>2026-04-12T09:22:49.999Z</time></trkpt><trkpt lat="45.69057107855075" lon="9.700352903959013"><ele>257.0</ele><time>2026-04-12T09:22:50.999Z</time></trkpt><trkpt lat="45.6906439271602" lon="9.700498583208734"><ele>257.0</ele><time>2026-04-12T09:22:52.999Z</time></trkpt><trkpt lat="45.690691290645255" lon="9.700561750805916"><ele>257.0</ele><time>2026-04-12T09:22:53.999Z</time></trkpt><trkpt lat="45.690753384683475" lon="9.700601040558272"><ele>257.0</ele><time>2026-04-12T09:22:54.999Z</time></trkpt><trkpt lat="45.69080026451248" lon="9.700664187134503"><ele>257.0</ele><time>2026-04-12T09:22:55.999Z</time></trkpt><trkpt lat="45.69088547556993" lon="9.700754728054335"><ele>257.0</ele><time>2026-04-12T09:22:57.999Z</time></trkpt><trkpt lat="45.69245051106108" lon="9.696137491706533"><ele>257.2</ele><time>2026-04-12T09:24:03.998Z</time></trkpt><trkpt lat="45.6924914372261" lon="9.695988947762503"><ele>257.4</ele><time>2026-04-12T09:24:04.998Z</time></trkpt><trkpt lat="45.69252875256721" lon="9.695852509697662"><ele>257.6</ele><time>2026-04-12T09:24:05.998Z</time></trkpt><trkpt lat="45.69256463510093" lon="9.695718512668362"><ele>257.8</ele><time>2026-04-12T09:24:06.998Z</time></trkpt><trkpt lat="45.69260253879787" lon="9.695581105837622"><ele>258.0</ele><time>2026-04-12T09:24:07.998Z</time></trkpt><trkpt lat="45.69264121948704" lon="9.695435644131711"><ele>258.0</ele><time>2026-04-12T09:24:08.998Z</time></trkpt><trkpt lat="45.69268642367786" lon="9.695271991324168"><ele>258.0</ele><time>2026-04-12T09:24:09.998Z</time></trkpt><trkpt lat="45.69273267554243" lon="9.695097731464376"><ele>258.0</ele><time>2026-04-12T09:24:10.998Z</time></trkpt><trkpt lat="45.69277598091578" lon="9.694930029197987"><ele>258.0</ele><time>2026-04-12T09:24:11.998Z</time></trkpt><trkpt lat="45.692818726159814" lon="9.694774187938998"><ele>257.75</ele><time>2026-04-12T09:24:12.998Z</time></trkpt><trkpt lat="45.69285971336702" lon="9.694623200323338"><ele>257.5</ele><time>2026-04-12T09:24:13.998Z</time></trkpt><trkpt lat="45.692899830561636" lon="9.694470169298526"><ele>257.25</ele><time>2026-04-12T09:24:14.999Z</time></trkpt><trkpt lat="45.692942372369885" lon="9.694317421993137"><ele>257.0</ele><time>2026-04-12T09:24:15.999Z</time></trkpt><trkpt lat="45.692982672780154" lon="9.694170055850675"><ele>257.33333333333337</ele><time>2026-04-12T09:24:16.999Z</time></trkpt><trkpt lat="45.69301997988355" lon="9.694036940969703"><ele>257.6666666666667</ele><time>2026-04-12T09:24:17.999Z</time></trkpt><trkpt lat="45.693057022368365" lon="9.693911482675835"><ele>258.0</ele><time>2026-04-12T09:24:18.999Z</time></trkpt><trkpt lat="45.69309196121733" lon="9.693798263003833"><ele>258.3333333333333</ele><time>2026-04-12T09:24:19.999Z</time></trkpt><trkpt lat="45.693123104048006" lon="9.693696431098477"><ele>258.66666666666663</ele><time>2026-04-12T09:24:20.999Z</time></trkpt><trkpt lat="45.69315355949645" lon="9.693604647720445"><ele>259.0</ele><time>2026-04-12T09:24:21.999Z</time></trkpt><trkpt lat="45.69318241593877" lon="9.693518371784867"><ele>259.2</ele><time>2026-04-12T09:24:22.999Z</time></trkpt><trkpt lat="45.693241158224176" lon="9.693364826966286"><ele>259.4</ele><time>2026-04-12T09:24:24.999Z</time></trkpt><trkpt lat="45.693304546259355" lon="9.693254699897969"><ele>259.6</ele><time>2026-04-12T09:24:26.999Z</time></trkpt><trkpt lat="45.69335689834394" lon="9.693185323220423"><ele>259.8</ele><time>2026-04-12T09:24:29.999Z</time></trkpt><trkpt lat="45.69340325080634" lon="9.693076152737143"><ele>260.0</ele><time>2026-04-12T09:25:29Z</time></trkpt><trkpt lat="45.693447220090796" lon="9.692924456200345"><ele>260.0</ele><time>2026-04-12T09:25:31Z</time></trkpt><trkpt lat="45.693488487294" lon="9.692785234854183"><ele>260.0</ele><time>2026-04-12T09:25:33Z</time></trkpt><trkpt lat="45.693534721825216" lon="9.692681079031987"><ele>260.0</ele><time>2026-04-12T09:25:35Z</time></trkpt><trkpt lat="45.69366175617406" lon="9.692695146932413"><ele>260.0</ele><time>2026-04-12T09:25:37.001Z</time></trkpt><trkpt lat="45.69373689114128" lon="9.692725365224499"><ele>260.0</ele><time>2026-04-12T09:25:38.001Z</time></trkpt><trkpt lat="45.69383343548206" lon="9.692774952828414"><ele>259.75</ele><time>2026-04-12T09:25:39.001Z</time></trkpt><trkpt lat="45.69392829028721" lon="9.692831509904973"><ele>259.5</ele><time>2026-04-12T09:25:40.001Z</time></trkpt><trkpt lat="45.69402723806591" lon="9.692893160409927"><ele>259.25</ele><time>2026-04-12T09:25:41.001Z</time></trkpt><trkpt lat="45.69413858511842" lon="9.692965469216924"><ele>259.0</ele><time>2026-04-12T09:25:42.001Z</time></trkpt><trkpt lat="45.69426218454325" lon="9.693035621594113"><ele>259.0</ele><time>2026-04-12T09:25:43.001Z</time></trkpt><trkpt lat="45.69438762110707" lon="9.693113395255704"><ele>259.0</ele><time>2026-04-12T09:25:44.001Z</time></trkpt><trkpt lat="45.69450786647922" lon="9.693179336838318"><ele>259.0</ele><time>2026-04-12T09:25:45.001Z</time></trkpt><trkpt lat="45.694624323277594" lon="9.69323856806685"><ele>259.0</ele><time>2026-04-12T09:25:46.001Z</time></trkpt><trkpt lat="45.69472809132669" lon="9.693297496308595"><ele>259.2</ele><time>2026-04-12T09:25:47.001Z</time></trkpt><trkpt lat="45.69482312755115" lon="9.693355459342783"><ele>259.4</ele><time>2026-04-12T09:25:48.001Z</time></trkpt><trkpt lat="45.69491995253703" lon="9.693406908286551"><ele>259.6</ele><time>2026-04-12T09:25:49.001Z</time></trkpt><trkpt lat="45.695004236156265" lon="9.693459584471793"><ele>259.8</ele><time>2026-04-12T09:25:50.001Z</time></trkpt><trkpt lat="45.6950837089006" lon="9.693506171206382"><ele>260.0</ele><time>2026-04-12T09:25:51.001Z</time></trkpt><trkpt lat="45.69516163573422" lon="9.693552605728952"><ele>259.83333333333337</ele><time>2026-04-12T09:25:52.001Z</time></trkpt><trkpt lat="45.695237535476636" lon="9.693598796326771"><ele>259.6666666666667</ele><time>2026-04-12T09:25:53.001Z</time></trkpt><trkpt lat="45.695313494178265" lon="9.693641840835014"><ele>259.5</ele><time>2026-04-12T09:25:54.001Z</time></trkpt><trkpt lat="45.69539041864246" lon="9.693683743149787"><ele>259.3333333333333</ele><time>2026-04-12T09:25:55.001Z</time></trkpt><trkpt lat="45.695464133760225" lon="9.69372415943354"><ele>259.16666666666663</ele><time>2026-04-12T09:25:56.001Z</time></trkpt><trkpt lat="45.69553266503621" lon="9.6937596586471"><ele>259.0</ele><time>2026-04-12T09:25:57.001Z</time></trkpt><trkpt lat="45.69560246802368" lon="9.693794246156967"><ele>259.4</ele><time>2026-04-12T09:25:58.001Z</time></trkpt><trkpt lat="45.69567211027268" lon="9.693826630039775"><ele>259.79999999999995</ele><time>2026-04-12T09:25:59.001Z</time></trkpt><trkpt lat="45.69575040500894" lon="9.693861794120645"><ele>260.20000000000005</ele><time>2026-04-12T09:26:00.001Z</time></trkpt><trkpt lat="45.69582859808452" lon="9.693932297392866"><ele>260.6</ele><time>2026-04-12T09:26:01.001Z</time></trkpt><trkpt lat="45.69592478322122" lon="9.693988671884023"><ele>261.0</ele><time>2026-04-12T09:26:02.001Z</time></trkpt><trkpt lat="45.69602330645438" lon="9.694047261762098"><ele>266.0</ele><time>2026-04-12T09:26:03.001Z</time></trkpt><trkpt lat="45.70561268061775" lon="9.697269692875263"><ele>266.0</ele><time>2026-04-12T09:27:04.001Z</time></trkpt><trkpt lat="45.705750058125126" lon="9.697449483048274"><ele>266.0</ele><time>2026-04-12T09:27:05.001Z</time></trkpt><trkpt lat="45.70588267107829" lon="9.697637475516563"><ele>266.0</ele><time>2026-04-12T09:27:06.001Z</time></trkpt><trkpt lat="45.70600574142447" lon="9.697839237693843"><ele>267.0</ele><time>2026-04-12T09:27:07.001Z</time></trkpt><trkpt lat="45.70612696252345" lon="9.698051937907643"><ele>268.0</ele><time>2026-04-12T09:27:08.001Z</time></trkpt><trkpt lat="45.70625192522962" lon="9.698269252982504"><ele>269.0</ele><time>2026-04-12T09:27:09.001Z</time></trkpt><trkpt lat="45.70636908732342" lon="9.6984759475794"><ele>268.6666666666667</ele><time>2026-04-12T09:27:10.001Z</time></trkpt><trkpt lat="45.7064892841378" lon="9.698682633891847"><ele>268.3333333333333</ele><time>2026-04-12T09:27:11.001Z</time></trkpt><trkpt lat="45.70661387953557" lon="9.69888405409752"><ele>268.0</ele><time>2026-04-12T09:27:12.001Z</time></trkpt><trkpt lat="45.70674656428711" lon="9.699082729584656"><ele>268.0</ele><time>2026-04-12T09:27:13.001Z</time></trkpt><trkpt lat="45.70688354867216" lon="9.699283426084184"><ele>268.0</ele><time>2026-04-12T09:27:14.001Z</time></trkpt><trkpt lat="45.70702601322211" lon="9.6994784693189"><ele>268.0</ele><time>2026-04-12T09:27:15.001Z</time></trkpt><trkpt lat="45.70717286403139" lon="9.699671158049668"><ele>268.66666666666663</ele><time>2026-04-12T09:27:16.001Z</time></trkpt><trkpt lat="45.70732434094834" lon="9.699861914537658"><ele>269.3333333333333</ele><time>2026-04-12T09:27:17.001Z</time></trkpt><trkpt lat="45.70748104392548" lon="9.700050510453996"><ele>270.0</ele><time>2026-04-12T09:27:18.001Z</time></trkpt><trkpt lat="45.70764284353587" lon="9.70023804307105"><ele>270.3333333333333</ele><time>2026-04-12T09:27:19.001Z</time></trkpt><trkpt lat="45.707804630867926" lon="9.700428000134403"><ele>270.66666666666663</ele><time>2026-04-12T09:27:20.001Z</time></trkpt><trkpt lat="45.70797027573442" lon="9.700615048048643"><ele>271.0</ele><time>2026-04-12T09:27:21.001Z</time></trkpt><trkpt lat="45.708133520672796" lon="9.70079716378491"><ele>271.0</ele><time>2026-04-12T09:27:22.001Z</time></trkpt><trkpt lat="45.70828607033773" lon="9.700967528323089"><ele>271.0</ele><time>2026-04-12T09:27:23.001Z</time></trkpt><trkpt lat="45.70842887837355" lon="9.701130361623425"><ele>271.0</ele><time>2026-04-12T09:27:24.001Z</time></trkpt><trkpt lat="45.70856461016579" lon="9.701283244557294"><ele>271.0</ele><time>2026-04-12T09:27:25.001Z</time></trkpt><trkpt lat="45.70869044074986" lon="9.701423927288559"><ele>271.0</ele><time>2026-04-12T09:27:26.001Z</time></trkpt><trkpt lat="45.708808443712215" lon="9.70155343852129"><ele>271.0</ele><time>2026-04-12T09:27:27.001Z</time></trkpt><trkpt lat="45.70891942450354" lon="9.701676039242319"><ele>271.0</ele><time>2026-04-12T09:27:28.001Z</time></trkpt><trkpt lat="45.7090229983722" lon="9.701791692302335"><ele>271.0</ele><time>2026-04-12T09:27:29.001Z</time></trkpt><trkpt lat="45.709120569071025" lon="9.701900708390687"><ele>271.0</ele><time>2026-04-12T09:27:30.001Z</time></trkpt><trkpt lat="45.709212710195956" lon="9.702006279472362"><ele>271.0</ele><time>2026-04-12T09:27:31.001Z</time></trkpt><trkpt lat="45.70929435406584" lon="9.702098752588002"><ele>271.0</ele><time>2026-04-12T09:27:32.001Z</time></trkpt><trkpt lat="45.709373181999915" lon="9.702185922906333"><ele>271.0</ele><time>2026-04-12T09:27:33.001Z</time></trkpt><trkpt lat="45.7094469157727" lon="9.702266580030287"><ele>271.8</ele><time>2026-04-12T09:27:34.001Z</time></trkpt><trkpt lat="45.709513812924484" lon="9.70234425650105"><ele>272.6</ele><time>2026-04-12T09:27:35.001Z</time></trkpt><trkpt lat="45.709583485462225" lon="9.70242254202387"><ele>273.4</ele><time>2026-04-12T09:27:36.001Z</time></trkpt><trkpt lat="45.70965479580268" lon="9.702505031974853"><ele>274.2</ele><time>2026-04-12T09:27:37.001Z</time></trkpt><trkpt lat="45.70972886975034" lon="9.702585238505268"><ele>275.0</ele><time>2026-04-12T09:27:38.001Z</time></trkpt><trkpt lat="45.70981007801071" lon="9.702666546593"><ele>274.5</ele><time>2026-04-12T09:27:39.001Z</time></trkpt><trkpt lat="45.70990058758399" lon="9.702753650124256"><ele>274.0</ele><time>2026-04-12T09:27:40.001Z</time></trkpt><trkpt lat="45.70999977421993" lon="9.702851263574148"><ele>273.5</ele><time>2026-04-12T09:27:41.001Z</time></trkpt><trkpt lat="45.71010494484089" lon="9.702963008566691"><ele>273.0</ele><time>2026-04-12T09:27:42.001Z</time></trkpt><trkpt lat="45.710212979888105" lon="9.703091206215793"><ele>273.0</ele><time>2026-04-12T09:27:43.001Z</time></trkpt><trkpt lat="45.71032092619695" lon="9.70322920125252"><ele>273.0</ele><time>2026-04-12T09:27:44.001Z</time></trkpt><trkpt lat="45.710432062776796" lon="9.703369946569158"><ele>273.0</ele><time>2026-04-12T09:27:45.001Z</time></trkpt><trkpt lat="45.7105367036747" lon="9.703511837999988"><ele>273.0</ele><time>2026-04-12T09:27:46.001Z</time></trkpt><trkpt lat="45.71063377425424" lon="9.703642652241154"><ele>273.25</ele><time>2026-04-12T09:27:47.001Z</time></trkpt><trkpt lat="45.71072761868786" lon="9.703770665629973"><ele>273.5</ele><time>2026-04-12T09:27:48.001Z</time></trkpt><trkpt lat="45.710820031690794" lon="9.703899663411972"><ele>273.75</ele><time>2026-04-12T09:27:49.001Z</time></trkpt><trkpt lat="45.71091105840763" lon="9.704028972179502"><ele>274.0</ele><time>2026-04-12T09:27:50.001Z</time></trkpt><trkpt lat="45.71100038604067" lon="9.70415633488023"><ele>274.75</ele><time>2026-04-12T09:27:51.002Z</time></trkpt><trkpt lat="45.711087777031665" lon="9.704281914092551"><ele>275.5</ele><time>2026-04-12T09:27:52.002Z</time></trkpt><trkpt lat="45.71117135433413" lon="9.704403708760033"><ele>276.25</ele><time>2026-04-12T09:27:53.002Z</time></trkpt><trkpt lat="45.71125069383731" lon="9.704526634934018"><ele>277.0</ele><time>2026-04-12T09:27:54.002Z</time></trkpt><trkpt lat="45.711328900628835" lon="9.704652640384932"><ele>277.25</ele><time>2026-04-12T09:27:55.002Z</time></trkpt><trkpt lat="45.711411580096076" lon="9.704786523261866"><ele>277.5</ele><time>2026-04-12T09:27:56.002Z</time></trkpt><trkpt lat="45.71150275857259" lon="9.704932660068039"><ele>277.75</ele><time>2026-04-12T09:27:57.002Z</time></trkpt><trkpt lat="45.71160317445647" lon="9.705097602163995"><ele>278.0</ele><time>2026-04-12T09:27:58.002Z</time></trkpt><trkpt lat="45.71169718066722" lon="9.705278514853836"><ele>277.75</ele><time>2026-04-12T09:27:59.002Z</time></trkpt><trkpt lat="45.711779232774106" lon="9.70544571674638"><ele>277.5</ele><time>2026-04-12T09:28:00.002Z</time></trkpt><trkpt lat="45.71184943138145" lon="9.705591677013357"><ele>277.25</ele><time>2026-04-12T09:28:01.002Z</time></trkpt><trkpt lat="45.711912150468635" lon="9.70572353602967"><ele>277.0</ele><time>2026-04-12T09:28:02.002Z</time></trkpt><trkpt lat="45.71197080995185" lon="9.705849878793563"><ele>282.0</ele><time>2026-04-12T09:28:03.002Z</time></trkpt><trkpt lat="45.71748464302689" lon="9.717498747467477"><ele>282.0</ele><time>2026-04-12T09:29:04.001Z</time></trkpt><trkpt lat="45.71755886660993" lon="9.717655378885542"><ele>282.0</ele><time>2026-04-12T09:29:05.001Z</time></trkpt><trkpt lat="45.71764259273223" lon="9.717828393113399"><ele>282.0</ele><time>2026-04-12T09:29:06.001Z</time></trkpt><trkpt lat="45.71773526879204" lon="9.718016730230069"><ele>282.0</ele><time>2026-04-12T09:29:07.001Z</time></trkpt><trkpt lat="45.71783384298105" lon="9.71822041785839"><ele>281.0</ele><time>2026-04-12T09:29:08.001Z</time></trkpt><trkpt lat="45.7179384255169" lon="9.718436359445382"><ele>280.0</ele><time>2026-04-12T09:29:09.001Z</time></trkpt><trkpt lat="45.71804736962683" lon="9.718647035344997"><ele>279.0</ele><time>2026-04-12T09:29:10.001Z</time></trkpt><trkpt lat="45.71815084495408" lon="9.718836101107804"><ele>279.0</ele><time>2026-04-12T09:29:11.001Z</time></trkpt><trkpt lat="45.71825320797587" lon="9.71901656205449"><ele>279.0</ele><time>2026-04-12T09:29:12.001Z</time></trkpt><trkpt lat="45.71835618253306" lon="9.719193906962099"><ele>279.0</ele><time>2026-04-12T09:29:13.001Z</time></trkpt><trkpt lat="45.71846307807178" lon="9.719370099053222"><ele>280.0</ele><time>2026-04-12T09:29:14.001Z</time></trkpt><trkpt lat="45.718572328173174" lon="9.71954325800573"><ele>281.0</ele><time>2026-04-12T09:29:15.001Z</time></trkpt><trkpt lat="45.71868390099933" lon="9.719712406430805"><ele>282.0</ele><time>2026-04-12T09:29:16.001Z</time></trkpt><trkpt lat="45.71879440330241" lon="9.719878402394524"><ele>282.0</ele><time>2026-04-12T09:29:17.001Z</time></trkpt><trkpt lat="45.71890420445834" lon="9.720044414217169"><ele>282.0</ele><time>2026-04-12T09:29:18.001Z</time></trkpt><trkpt lat="45.71901259825372" lon="9.720207417889702"><ele>282.0</ele><time>2026-04-12T09:29:19.001Z</time></trkpt><trkpt lat="45.719119417524276" lon="9.720369828651954"><ele>281.6666666666667</ele><time>2026-04-12T09:29:20.001Z</time></trkpt><trkpt lat="45.719225482689566" lon="9.720530025917956"><ele>281.33333333333337</ele><time>2026-04-12T09:29:21.001Z</time></trkpt><trkpt lat="45.719330822045265" lon="9.720687425487805"><ele>281.0</ele><time>2026-04-12T09:29:22.001Z</time></trkpt><trkpt lat="45.71943197629823" lon="9.720833157275518"><ele>281.0</ele><time>2026-04-12T09:29:23.001Z</time></trkpt><trkpt lat="45.71954161072546" lon="9.720989716255858"><ele>281.0</ele><time>2026-04-12T09:29:24.001Z</time></trkpt><trkpt lat="45.71966322087045" lon="9.721162036740857"><ele>281.0</ele><time>2026-04-12T09:29:25.001Z</time></trkpt><trkpt lat="45.71978756062702" lon="9.721343523354284"><ele>280.0</ele><time>2026-04-12T09:29:26.001Z</time></trkpt><trkpt lat="45.71991302874448" lon="9.721531545599337"><ele>279.0</ele><time>2026-04-12T09:29:27.001Z</time></trkpt><trkpt lat="45.7200395606981" lon="9.721724106113681"><ele>278.0</ele><time>2026-04-12T09:29:28.001Z</time></trkpt><trkpt lat="45.720171216846076" lon="9.721920231363425"><ele>277.6666666666667</ele><time>2026-04-12T09:29:29.001Z</time></trkpt><trkpt lat="45.72029826560227" lon="9.72211156296589"><ele>277.3333333333333</ele><time>2026-04-12T09:29:30.001Z</time></trkpt><trkpt lat="45.72041874044049" lon="9.722290411985956"><ele>277.0</ele><time>2026-04-12T09:29:31.001Z</time></trkpt><trkpt lat="45.720530288193714" lon="9.72245875429562"><ele>277.0</ele><time>2026-04-12T09:29:32.001Z</time></trkpt><trkpt lat="45.72063432614155" lon="9.722618864597635"><ele>277.0</ele><time>2026-04-12T09:29:33.001Z</time></trkpt><trkpt lat="45.72073893091467" lon="9.722775444544594"><ele>277.0</ele><time>2026-04-12T09:29:34.001Z</time></trkpt><trkpt lat="45.720852272431664" lon="9.7229394526913"><ele>276.0</ele><time>2026-04-12T09:29:35.001Z</time></trkpt><trkpt lat="45.72096985763447" lon="9.723103526660353"><ele>275.0</ele><time>2026-04-12T09:29:36.001Z</time></trkpt><trkpt lat="45.72108729905552" lon="9.723269376460467"><ele>274.0</ele><time>2026-04-12T09:29:37.001Z</time></trkpt><trkpt lat="45.72120796514759" lon="9.723433859688077"><ele>274.0</ele><time>2026-04-12T09:29:38.001Z</time></trkpt><trkpt lat="45.72133363898674" lon="9.723595524056114"><ele>274.0</ele><time>2026-04-12T09:29:39.001Z</time></trkpt><trkpt lat="45.72145970171959" lon="9.72375865159121"><ele>274.0</ele><time>2026-04-12T09:29:40.001Z</time></trkpt><trkpt lat="45.721585056613534" lon="9.723928172827037"><ele>274.0</ele><time>2026-04-12T09:29:41.001Z</time></trkpt><trkpt lat="45.721714726485864" lon="9.724095682040218"><ele>274.0</ele><time>2026-04-12T09:29:42.001Z</time></trkpt><trkpt lat="45.72185019712827" lon="9.724269200325407"><ele>274.0</ele><time>2026-04-12T09:29:43.001Z</time></trkpt><trkpt lat="45.721989126104454" lon="9.724447145468547"><ele>273.0</ele><time>2026-04-12T09:29:44.001Z</time></trkpt><trkpt lat="45.722126531890545" lon="9.724630699392273"><ele>272.0</ele><time>2026-04-12T09:29:45.001Z</time></trkpt><trkpt lat="45.72226725050915" lon="9.7248163422179"><ele>271.0</ele><time>2026-04-12T09:29:46.001Z</time></trkpt><trkpt lat="45.7224075278807" lon="9.725001187623816"><ele>271.0</ele><time>2026-04-12T09:29:47.001Z</time></trkpt><trkpt lat="45.72254948925368" lon="9.725187825530574"><ele>271.0</ele><time>2026-04-12T09:29:48.001Z</time></trkpt><trkpt lat="45.72269887779122" lon="9.725381711677663"><ele>271.0</ele><time>2026-04-12T09:29:49.001Z</time></trkpt><trkpt lat="45.72285568682429" lon="9.725585357020904"><ele>271.0</ele><time>2026-04-12T09:29:50.001Z</time></trkpt><trkpt lat="45.72300727274851" lon="9.72578736458848"><ele>271.0</ele><time>2026-04-12T09:29:51.001Z</time></trkpt><trkpt lat="45.723157729762484" lon="9.725990187493068"><ele>271.0</ele><time>2026-04-12T09:29:52.001Z</time></trkpt><trkpt lat="45.723315688264805" lon="9.726199636755053"><ele>271.0</ele><time>2026-04-12T09:29:53.001Z</time></trkpt><trkpt lat="45.72347757432335" lon="9.726415209863026"><ele>271.0</ele><time>2026-04-12T09:29:54.001Z</time></trkpt><trkpt lat="45.72364399154812" lon="9.726636162231909"><ele>271.0</ele><time>2026-04-12T09:29:55.001Z</time></trkpt><trkpt lat="45.72380105661874" lon="9.726851927007107"><ele>270.3333333333333</ele><time>2026-04-12T09:29:56.001Z</time></trkpt><trkpt lat="45.72395035785198" lon="9.727044634732739"><ele>269.6666666666667</ele><time>2026-04-12T09:29:57.001Z</time></trkpt><trkpt lat="45.724095754205415" lon="9.727231367067754"><ele>269.0</ele><time>2026-04-12T09:29:58.001Z</time></trkpt><trkpt lat="45.724239221811274" lon="9.72742028022112"><ele>269.0</ele><time>2026-04-12T09:29:59.001Z</time></trkpt><trkpt lat="45.72438517135437" lon="9.727611183552185"><ele>269.0</ele><time>2026-04-12T09:30:00.001Z</time></trkpt><trkpt lat="45.72453340086074" lon="9.727804198671368"><ele>269.0</ele><time>2026-04-12T09:30:01.001Z</time></trkpt><trkpt lat="45.724684225344596" lon="9.728003538554743"><ele>270.0</ele><time>2026-04-12T09:30:02.001Z</time></trkpt><trkpt lat="45.72483756821468" lon="9.728207310982727"><ele>271.0</ele><time>2026-04-12T09:30:03.001Z</time></trkpt><trkpt lat="45.731764062216165" lon="9.738074494103948"><ele>272.75</ele><time>2026-04-12T09:31:04.001Z</time></trkpt><trkpt lat="45.73185751081666" lon="9.73821351111265"><ele>274.5</ele><time>2026-04-12T09:31:05.001Z</time></trkpt><trkpt lat="45.731950171229336" lon="9.738355646982498"><ele>276.25</ele><time>2026-04-12T09:31:06.001Z</time></trkpt><trkpt lat="45.73204438992732" lon="9.738494645331986"><ele>278.0</ele><time>2026-04-12T09:31:07.001Z</time></trkpt><trkpt lat="45.73214092872105" lon="9.738635977655404"><ele>278.0</ele><time>2026-04-12T09:31:08.001Z</time></trkpt><trkpt lat="45.73223836381496" lon="9.7387809589941"><ele>278.0</ele><time>2026-04-12T09:31:09.001Z</time></trkpt><trkpt lat="45.73233730957562" lon="9.738928249030772"><ele>278.0</ele><time>2026-04-12T09:31:10.001Z</time></trkpt><trkpt lat="45.73243855524966" lon="9.739078938083528"><ele>278.0</ele><time>2026-04-12T09:31:11.001Z</time></trkpt><trkpt lat="45.732543308361564" lon="9.739233583663724"><ele>278.33333333333337</ele><time>2026-04-12T09:31:12.001Z</time></trkpt><trkpt lat="45.73264852056608" lon="9.739388757617904"><ele>278.6666666666667</ele><time>2026-04-12T09:31:13.001Z</time></trkpt><trkpt lat="45.73275601263797" lon="9.739544989387976"><ele>279.0</ele><time>2026-04-12T09:31:14.001Z</time></trkpt><trkpt lat="45.73286342705366" lon="9.739703500226524"><ele>279.0</ele><time>2026-04-12T09:31:15.001Z</time></trkpt><trkpt lat="45.73297291422956" lon="9.739865594963405"><ele>279.0</ele><time>2026-04-12T09:31:16.001Z</time></trkpt><trkpt lat="45.7330840086424" lon="9.740027457487258"><ele>279.0</ele><time>2026-04-12T09:31:17.001Z</time></trkpt><trkpt lat="45.73319444723151" lon="9.740189528638744"><ele>280.3333333333333</ele><time>2026-04-12T09:31:18.001Z</time></trkpt><trkpt lat="45.73330618489165" lon="9.740352163284491"><ele>281.66666666666663</ele><time>2026-04-12T09:31:19.001Z</time></trkpt><trkpt lat="45.73341155521811" lon="9.74050993858868"><ele>283.0</ele><time>2026-04-12T09:31:20.001Z</time></trkpt><trkpt lat="45.73351352845454" lon="9.740659078562128"><ele>283.0</ele><time>2026-04-12T09:31:21.001Z</time></trkpt><trkpt lat="45.73361034462456" lon="9.740805310545808"><ele>283.0</ele><time>2026-04-12T09:31:22.001Z</time></trkpt><trkpt lat="45.73370777922186" lon="9.740954747233234"><ele>283.0</ele><time>2026-04-12T09:31:23.001Z</time></trkpt><trkpt lat="45.73380538150652" lon="9.74110467908031"><ele>283.0</ele><time>2026-04-12T09:31:24.001Z</time></trkpt><trkpt lat="45.73390107716156" lon="9.741249967770628"><ele>283.5</ele><time>2026-04-12T09:31:25.001Z</time></trkpt><trkpt lat="45.73399372106371" lon="9.741386139324119"><ele>284.0</ele><time>2026-04-12T09:31:26.001Z</time></trkpt><trkpt lat="45.73408446476347" lon="9.741519545508321"><ele>284.5</ele><time>2026-04-12T09:31:27.001Z</time></trkpt><trkpt lat="45.73417499216115" lon="9.741652789352095"><ele>285.0</ele><time>2026-04-12T09:31:28.001Z</time></trkpt><trkpt lat="45.73426610910202" lon="9.741786673757877"><ele>284.75</ele><time>2026-04-12T09:31:29.001Z</time></trkpt><trkpt lat="45.73435023348304" lon="9.741923530590265"><ele>284.5</ele><time>2026-04-12T09:31:30.001Z</time></trkpt><trkpt lat="45.73442776485956" lon="9.742065810836253"><ele>284.25</ele><time>2026-04-12T09:31:31.001Z</time></trkpt><trkpt lat="45.734498529849134" lon="9.74221366119069"><ele>284.0</ele><time>2026-04-12T09:31:32.001Z</time></trkpt><trkpt lat="45.73456562799952" lon="9.742363493750002"><ele>284.4</ele><time>2026-04-12T09:31:33.001Z</time></trkpt><trkpt lat="45.73462429686879" lon="9.742501586020289"><ele>284.79999999999995</ele><time>2026-04-12T09:31:34.001Z</time></trkpt><trkpt lat="45.73467886422283" lon="9.742627997325513"><ele>285.20000000000005</ele><time>2026-04-12T09:31:35.001Z</time></trkpt><trkpt lat="45.734727941018654" lon="9.742752017813077"><ele>285.6</ele><time>2026-04-12T09:31:36.001Z</time></trkpt><trkpt lat="45.7347683639734" lon="9.742859669980117"><ele>286.0</ele><time>2026-04-12T09:31:37.001Z</time></trkpt><trkpt lat="45.734798881283524" lon="9.74295248724298"><ele>286.0</ele><time>2026-04-12T09:31:38.001Z</time></trkpt><trkpt lat="45.734822596758285" lon="9.743044930119808"><ele>286.0</ele><time>2026-04-12T09:31:39.001Z</time></trkpt><trkpt lat="45.734850250772595" lon="9.743204416340971"><ele>286.0</ele><time>2026-04-12T09:31:41.001Z</time></trkpt><trkpt lat="45.734863801097625" lon="9.74329654554144"><ele>286.0</ele><time>2026-04-12T09:31:42.001Z</time></trkpt><trkpt lat="45.73486933456666" lon="9.743407817431352"><ele>286.0</ele><time>2026-04-12T09:31:43.001Z</time></trkpt><trkpt lat="45.73488152136726" lon="9.743535275112803"><ele>286.0</ele><time>2026-04-12T09:31:44.001Z</time></trkpt><trkpt lat="45.73491379862414" lon="9.74367363300686"><ele>286.0</ele><time>2026-04-12T09:31:45.001Z</time></trkpt><trkpt lat="45.734966895067316" lon="9.743813764665553"><ele>286.0</ele><time>2026-04-12T09:31:46.001Z</time></trkpt><trkpt lat="45.735033686577744" lon="9.743948382401816"><ele>286.0</ele><time>2026-04-12T09:31:47.001Z</time></trkpt><trkpt lat="45.73510698756031" lon="9.74407458078268"><ele>286.0</ele><time>2026-04-12T09:31:48.001Z</time></trkpt><trkpt lat="45.73518029763215" lon="9.744194974069876"><ele>286.6</ele><time>2026-04-12T09:31:49.001Z</time></trkpt><trkpt lat="45.73526104244997" lon="9.744300972766423"><ele>287.20000000000005</ele><time>2026-04-12T09:31:50.001Z</time></trkpt><trkpt lat="45.73535125912628" lon="9.744378159167447"><ele>287.79999999999995</ele><time>2026-04-12T09:31:51.001Z</time></trkpt><trkpt lat="45.73544750849916" lon="9.744440004650004"><ele>288.4</ele><time>2026-04-12T09:31:52.001Z</time></trkpt><trkpt lat="45.73556766065581" lon="9.744487055303228"><ele>289.0</ele><time>2026-04-12T09:31:53.001Z</time></trkpt><trkpt lat="45.73568884916372" lon="9.74457965856484"><ele>289.25</ele><time>2026-04-12T09:31:54.001Z</time></trkpt><trkpt lat="45.735805405688254" lon="9.744705031974416"><ele>289.5</ele><time>2026-04-12T09:31:55.001Z</time></trkpt><trkpt lat="45.735908466853" lon="9.74482811085179"><ele>289.75</ele><time>2026-04-12T09:31:56.001Z</time></trkpt><trkpt lat="45.736020568374215" lon="9.744966064498575"><ele>290.0</ele><time>2026-04-12T09:31:57.001Z</time></trkpt><trkpt lat="45.73613395619108" lon="9.745118931784443"><ele>291.6666666666667</ele><time>2026-04-12T09:31:58.001Z</time></trkpt><trkpt lat="45.73624168977612" lon="9.745297315354497"><ele>293.3333333333333</ele><time>2026-04-12T09:31:59.001Z</time></trkpt><trkpt lat="45.73634840614184" lon="9.745494409250167"><ele>295.0</ele><time>2026-04-12T09:32:00.001Z</time></trkpt><trkpt lat="45.73645974901145" lon="9.745700576394771"><ele>295.0</ele><time>2026-04-12T09:32:01.001Z</time></trkpt><trkpt lat="45.736573849895755" lon="9.74591317074046"><ele>295.0</ele><time>2026-04-12T09:32:02.001Z</time></trkpt><trkpt lat="45.736678276390414" lon="9.74610778492573"><ele>295.0</ele><time>2026-04-12T09:32:03.001Z</time></trkpt><trkpt lat="45.741668073329656" lon="9.756412368147432"><ele>298.2</ele><time>2026-04-12T09:33:04Z</time></trkpt><trkpt lat="45.74170690577519" lon="9.756522162074598"><ele>301.4</ele><time>2026-04-12T09:33:05Z</time></trkpt><trkpt lat="45.74175355327047" lon="9.75664469473232"><ele>304.6</ele><time>2026-04-12T09:33:06Z</time></trkpt><trkpt lat="45.74180155370557" lon="9.756782564463471"><ele>307.8</ele><time>2026-04-12T09:33:07Z</time></trkpt><trkpt lat="45.741851467817284" lon="9.756929306960998"><ele>311.0</ele><time>2026-04-12T09:33:08Z</time></trkpt><trkpt lat="45.74190449603571" lon="9.75706250848738"><ele>311.40000000000003</ele><time>2026-04-12T09:33:09Z</time></trkpt><trkpt lat="45.74195730278895" lon="9.757188113201332"><ele>311.8</ele><time>2026-04-12T09:33:10Z</time></trkpt><trkpt lat="45.74198993494443" lon="9.757325215639622"><ele>312.20000000000005</ele><time>2026-04-12T09:33:11Z</time></trkpt><trkpt lat="45.742036917163304" lon="9.757460333405332"><ele>312.6</ele><time>2026-04-12T09:33:12Z</time></trkpt><trkpt lat="45.74209812730463" lon="9.757589554021237"><ele>313.0</ele><time>2026-04-12T09:33:13Z</time></trkpt><trkpt lat="45.742140025729526" lon="9.757736514428984"><ele>313.0</ele><time>2026-04-12T09:33:14Z</time></trkpt><trkpt lat="45.742182695190316" lon="9.757892510016132"><ele>313.0</ele><time>2026-04-12T09:33:15Z</time></trkpt><trkpt lat="45.74222955527784" lon="9.758047150296168"><ele>313.0</ele><time>2026-04-12T09:33:16Z</time></trkpt><trkpt lat="45.74228195805044" lon="9.758202422557092"><ele>313.0</ele><time>2026-04-12T09:33:17Z</time></trkpt><trkpt lat="45.74233720061538" lon="9.758360449447212"><ele>313.0</ele><time>2026-04-12T09:33:18Z</time></trkpt><trkpt lat="45.74239365014244" lon="9.758515785123942"><ele>313.0</ele><time>2026-04-12T09:33:19Z</time></trkpt><trkpt lat="45.74244949843811" lon="9.758663232664915"><ele>313.0</ele><time>2026-04-12T09:33:20Z</time></trkpt><trkpt lat="45.74249855404205" lon="9.758810847529455"><ele>313.0</ele><time>2026-04-12T09:33:21Z</time></trkpt><trkpt lat="45.742551536178915" lon="9.758948333913917"><ele>312.8</ele><time>2026-04-12T09:33:22Z</time></trkpt><trkpt lat="45.742599546853185" lon="9.759078602687714"><ele>312.6</ele><time>2026-04-12T09:33:23Z</time></trkpt><trkpt lat="45.74264222682247" lon="9.759190898915016"><ele>312.4</ele><time>2026-04-12T09:33:24Z</time></trkpt><trkpt lat="45.74267261655894" lon="9.759281061267549"><ele>312.2</ele><time>2026-04-12T09:33:25Z</time></trkpt><trkpt lat="45.742702591254265" lon="9.759407959848705"><ele>312.0</ele><time>2026-04-12T09:33:27.001Z</time></trkpt><trkpt lat="45.74270033174333" lon="9.759548076926329"><ele>311.8</ele><time>2026-04-12T09:33:29.001Z</time></trkpt><trkpt lat="45.742684123370864" lon="9.759647460391317"><ele>311.6</ele><time>2026-04-12T09:33:30.001Z</time></trkpt><trkpt lat="45.74268445309026" lon="9.759740264657022"><ele>311.40000000000003</ele><time>2026-04-12T09:33:31.001Z</time></trkpt><trkpt lat="45.74275947607861" lon="9.759894143378515"><ele>311.2</ele><time>2026-04-12T09:33:33.001Z</time></trkpt><trkpt lat="45.742883426852515" lon="9.7598946090632"><ele>311.0</ele><time>2026-04-12T09:33:35.001Z</time></trkpt><trkpt lat="45.742941649392954" lon="9.759859728266523"><ele>311.6666666666667</ele><time>2026-04-12T09:33:36.001Z</time></trkpt><trkpt lat="45.74306260561833" lon="9.759793719295269"><ele>312.33333333333337</ele><time>2026-04-12T09:33:38.001Z</time></trkpt><trkpt lat="45.743133317171036" lon="9.759787255707966"><ele>313.0</ele><time>2026-04-12T09:33:39.001Z</time></trkpt><trkpt lat="45.743209401164904" lon="9.759785218315656"><ele>313.6666666666667</ele><time>2026-04-12T09:33:40.001Z</time></trkpt><trkpt lat="45.74329081182565" lon="9.759780690281943"><ele>314.3333333333333</ele><time>2026-04-12T09:33:41.001Z</time></trkpt><trkpt lat="45.74336841331119" lon="9.759767482871387"><ele>315.0</ele><time>2026-04-12T09:33:42.001Z</time></trkpt><trkpt lat="45.743442293727924" lon="9.759753871984518"><ele>315.0</ele><time>2026-04-12T09:33:43.001Z</time></trkpt><trkpt lat="45.74351396089951" lon="9.759735620476864"><ele>315.0</ele><time>2026-04-12T09:33:44.001Z</time></trkpt><trkpt lat="45.74358281755261" lon="9.759714752528712"><ele>315.0</ele><time>2026-04-12T09:33:45.001Z</time></trkpt><trkpt lat="45.74365084995196" lon="9.759690892108718"><ele>315.0</ele><time>2026-04-12T09:33:46.001Z</time></trkpt><trkpt lat="45.74374633047423" lon="9.759668577580372"><ele>315.0</ele><time>2026-04-12T09:33:48.001Z</time></trkpt><trkpt lat="45.74383742386697" lon="9.759710859043214"><ele>315.0</ele><time>2026-04-12T09:33:50.001Z</time></trkpt><trkpt lat="45.74390376191767" lon="9.759848704017578"><ele>315.6666666666667</ele><time>2026-04-12T09:33:52.001Z</time></trkpt><trkpt lat="45.743959020692344" lon="9.760021522427955"><ele>316.3333333333333</ele><time>2026-04-12T09:33:54.001Z</time></trkpt><trkpt lat="45.743989700002494" lon="9.76011816215875"><ele>317.0</ele><time>2026-04-12T09:33:55.001Z</time></trkpt><trkpt lat="45.744023038777144" lon="9.760216363064323"><ele>317.66666666666663</ele><time>2026-04-12T09:33:56.001Z</time></trkpt><trkpt lat="45.74405738349516" lon="9.760316935609223"><ele>318.3333333333333</ele><time>2026-04-12T09:33:57.001Z</time></trkpt><trkpt lat="45.744087990589605" lon="9.760414828105441"><ele>319.0</ele><time>2026-04-12T09:33:58.001Z</time></trkpt><trkpt lat="45.74411946211256" lon="9.7605071873668"><ele>319.4</ele><time>2026-04-12T09:33:59.001Z</time></trkpt><trkpt lat="45.74414971255928" lon="9.760598466850837"><ele>319.79999999999995</ele><time>2026-04-12T09:34:00.001Z</time></trkpt><trkpt lat="45.74417539940103" lon="9.76069309561222"><ele>320.20000000000005</ele><time>2026-04-12T09:34:01.001Z</time></trkpt><trkpt lat="45.74420099557944" lon="9.760789319687149"><ele>320.6</ele><time>2026-04-12T09:34:02.001Z</time></trkpt><trkpt lat="45.74423227048313" lon="9.760874505293106"><ele>321.0</ele><time>2026-04-12T09:34:03.001Z</time></trkpt><trkpt lat="45.747064873952006" lon="9.761756945999194"><ele>322.6666666666667</ele><time>2026-04-12T09:35:04Z</time></trkpt><trkpt lat="45.74714338738674" lon="9.761816029679668"><ele>324.3333333333333</ele><time>2026-04-12T09:35:05Z</time></trkpt><trkpt lat="45.74722498146135" lon="9.761884568111025"><ele>326.0</ele><time>2026-04-12T09:35:06Z</time></trkpt><trkpt lat="45.74731058149687" lon="9.761928740917392"><ele>327.66666666666663</ele><time>2026-04-12T09:35:07Z</time></trkpt><trkpt lat="45.74736863960361" lon="9.762000485933497"><ele>329.3333333333333</ele><time>2026-04-12T09:35:08Z</time></trkpt><trkpt lat="45.74743718185867" lon="9.762041173283336"><ele>331.0</ele><time>2026-04-12T09:35:09Z</time></trkpt><trkpt lat="45.747518539500156" lon="9.762053168400191"><ele>331.0</ele><time>2026-04-12T09:35:10Z</time></trkpt><trkpt lat="45.747598358909954" lon="9.762028731466287"><ele>331.0</ele><time>2026-04-12T09:35:11Z</time></trkpt><trkpt lat="45.747668127525344" lon="9.762045808739753"><ele>331.0</ele><time>2026-04-12T09:35:12Z</time></trkpt><trkpt lat="45.74775159612424" lon="9.762022496532174"><ele>331.0</ele><time>2026-04-12T09:35:13Z</time></trkpt><trkpt lat="45.7478255600482" lon="9.76199755703519"><ele>331.0</ele><time>2026-04-12T09:35:14Z</time></trkpt><trkpt lat="45.747891461301656" lon="9.761976038646557"><ele>331.0</ele><time>2026-04-12T09:35:15Z</time></trkpt><trkpt lat="45.747961911899495" lon="9.76195351173274"><ele>331.0</ele><time>2026-04-12T09:35:16Z</time></trkpt><trkpt lat="45.74803342830454" lon="9.76192594396438"><ele>331.0</ele><time>2026-04-12T09:35:17Z</time></trkpt><trkpt lat="45.74810622690472" lon="9.761878830363182"><ele>331.0</ele><time>2026-04-12T09:35:18Z</time></trkpt><trkpt lat="45.748166556232206" lon="9.761823762079858"><ele>331.0</ele><time>2026-04-12T09:35:19Z</time></trkpt><trkpt lat="45.74822959099274" lon="9.761770741706002"><ele>331.0</ele><time>2026-04-12T09:35:20Z</time></trkpt><trkpt lat="45.74829186090721" lon="9.761718363956337"><ele>331.0</ele><time>2026-04-12T09:35:21Z</time></trkpt><trkpt lat="45.74834702471909" lon="9.761671962705124"><ele>331.0</ele><time>2026-04-12T09:35:22Z</time></trkpt><trkpt lat="45.74840052939635" lon="9.76161803995577"><ele>332.5</ele><time>2026-04-12T09:35:23Z</time></trkpt><trkpt lat="45.74844445564412" lon="9.76154425287857"><ele>334.0</ele><time>2026-04-12T09:35:24Z</time></trkpt><trkpt lat="45.748436652427" lon="9.76143783686856"><ele>335.5</ele><time>2026-04-12T09:35:25Z</time></trkpt><trkpt lat="45.748334217869036" lon="9.761293346519981"><ele>337.0</ele><time>2026-04-12T09:35:27Z</time></trkpt><trkpt lat="45.7482577207679" lon="9.761281528342518"><ele>338.5</ele><time>2026-04-12T09:35:28Z</time></trkpt><trkpt lat="45.74818519028346" lon="9.761328048547346"><ele>340.0</ele><time>2026-04-12T09:35:29Z</time></trkpt><trkpt lat="45.74812735343074" lon="9.761410604234678"><ele>340.0</ele><time>2026-04-12T09:35:30Z</time></trkpt><trkpt lat="45.74806902767789" lon="9.761484065185568"><ele>340.0</ele><time>2026-04-12T09:35:31Z</time></trkpt><trkpt lat="45.74800026197864" lon="9.761545786195006"><ele>340.0</ele><time>2026-04-12T09:35:32Z</time></trkpt><trkpt lat="45.747925679957525" lon="9.761585899029951"><ele>340.0</ele><time>2026-04-12T09:35:33Z</time></trkpt><trkpt lat="45.747849830608224" lon="9.761593904216783"><ele>340.0</ele><time>2026-04-12T09:35:34Z</time></trkpt><trkpt lat="45.74777990277802" lon="9.761562082193526"><ele>340.0</ele><time>2026-04-12T09:35:35Z</time></trkpt><trkpt lat="45.74772247703838" lon="9.76150055618075"><ele>340.14285714285717</ele><time>2026-04-12T09:35:36Z</time></trkpt><trkpt lat="45.74767046212252" lon="9.761426053759815"><ele>340.2857142857143</ele><time>2026-04-12T09:35:37Z</time></trkpt><trkpt lat="45.74762356719336" lon="9.761365321407771"><ele>340.42857142857144</ele><time>2026-04-12T09:35:38Z</time></trkpt><trkpt lat="45.74757057428284" lon="9.761305539212675"><ele>340.57142857142856</ele><time>2026-04-12T09:35:39Z</time></trkpt><trkpt lat="45.747513199638334" lon="9.761249625061232"><ele>340.7142857142857</ele><time>2026-04-12T09:35:40Z</time></trkpt><trkpt lat="45.74745208328537" lon="9.761199403547051"><ele>340.85714285714283</ele><time>2026-04-12T09:35:41Z</time></trkpt><trkpt lat="45.74738569501269" lon="9.761143836355597"><ele>341.0</ele><time>2026-04-12T09:35:42Z</time></trkpt><trkpt lat="45.74731369993587" lon="9.761083990451791"><ele>342.6666666666667</ele><time>2026-04-12T09:35:43Z</time></trkpt><trkpt lat="45.74723713927116" lon="9.761025944745432"><ele>344.33333333333337</ele><time>2026-04-12T09:35:44Z</time></trkpt><trkpt lat="45.74715706199443" lon="9.760963158064687"><ele>346.0</ele><time>2026-04-12T09:35:45Z</time></trkpt><trkpt lat="45.74707798287283" lon="9.760892820178507"><ele>347.6666666666667</ele><time>2026-04-12T09:35:46Z</time></trkpt><trkpt lat="45.74700465962012" lon="9.760819355044188"><ele>349.3333333333333</ele><time>2026-04-12T09:35:47Z</time></trkpt><trkpt lat="45.74693963177333" lon="9.760746542396951"><ele>351.0</ele><time>2026-04-12T09:35:48Z</time></trkpt><trkpt lat="45.74687323923117" lon="9.760684717745084"><ele>351.0</ele><time>2026-04-12T09:35:49Z</time></trkpt><trkpt lat="45.74680395376946" lon="9.760624735829474"><ele>351.0</ele><time>2026-04-12T09:35:50Z</time></trkpt><trkpt lat="45.746727180084015" lon="9.760562216737954"><ele>351.0</ele><time>2026-04-12T09:35:51Z</time></trkpt><trkpt lat="45.746646705629374" lon="9.760491098502056"><ele>351.0</ele><time>2026-04-12T09:35:52Z</time></trkpt><trkpt lat="45.746562308156115" lon="9.760414891150388"><ele>351.0</ele><time>2026-04-12T09:35:53Z</time></trkpt><trkpt lat="45.74647574522406" lon="9.760341107872165"><ele>351.0</ele><time>2026-04-12T09:35:54Z</time></trkpt><trkpt lat="45.74638387741727" lon="9.76027236298185"><ele>351.0</ele><time>2026-04-12T09:35:55Z</time></trkpt><trkpt lat="45.7462902737036" lon="9.760204067320323"><ele>351.0</ele><time>2026-04-12T09:35:56Z</time></trkpt><trkpt lat="45.74621131346896" lon="9.760135330074093"><ele>351.0</ele><time>2026-04-12T09:35:57Z</time></trkpt><trkpt lat="45.74613847022622" lon="9.76004380447358"><ele>351.0</ele><time>2026-04-12T09:35:58Z</time></trkpt><trkpt lat="45.746077130540016" lon="9.7599391337827"><ele>351.0</ele><time>2026-04-12T09:35:59Z</time></trkpt><trkpt lat="45.746029490764634" lon="9.759821461624483"><ele>351.0</ele><time>2026-04-12T09:36:00Z</time></trkpt><trkpt lat="45.74599380204482" lon="9.759695499314228"><ele>351.0</ele><time>2026-04-12T09:36:01Z</time></trkpt><trkpt lat="45.74598112122001" lon="9.75956506357443"><ele>351.0</ele><time>2026-04-12T09:36:02Z</time></trkpt><trkpt lat="45.74598809590329" lon="9.759429907448913"><ele>351.0</ele><time>2026-04-12T09:36:03Z</time></trkpt><trkpt lat="45.75270848745327" lon="9.760144782787279"><ele>373.66666666666663</ele><time>2026-04-12T09:37:04Z</time></trkpt><trkpt lat="45.752843824152244" lon="9.760087961942958"><ele>396.3333333333333</ele><time>2026-04-12T09:37:05Z</time></trkpt><trkpt lat="45.75300301100015" lon="9.76004817615573"><ele>419.0</ele><time>2026-04-12T09:37:06Z</time></trkpt><trkpt lat="45.75316418416312" lon="9.759896189272451"><ele>419.0</ele><time>2026-04-12T09:37:07Z</time></trkpt><trkpt lat="45.7533072955131" lon="9.759734476950385"><ele>419.0</ele><time>2026-04-12T09:37:08Z</time></trkpt><trkpt lat="45.75347000209018" lon="9.759607553286049"><ele>419.0</ele><time>2026-04-12T09:37:09Z</time></trkpt><trkpt lat="45.753620397547785" lon="9.759508807395182"><ele>422.0</ele><time>2026-04-12T09:37:10Z</time></trkpt><trkpt lat="45.75376159672383" lon="9.759437962808407"><ele>425.0</ele><time>2026-04-12T09:37:11Z</time></trkpt><trkpt lat="45.753910973222375" lon="9.759422233237458"><ele>428.0</ele><time>2026-04-12T09:37:12Z</time></trkpt><trkpt lat="45.754049662330004" lon="9.759397064541865"><ele>431.0</ele><time>2026-04-12T09:37:13Z</time></trkpt><trkpt lat="45.7541760110676" lon="9.759337777781216"><ele>431.0</ele><time>2026-04-12T09:37:14Z</time></trkpt><trkpt lat="45.754281119007736" lon="9.759237590985661"><ele>431.0</ele><time>2026-04-12T09:37:15Z</time></trkpt><trkpt lat="45.75438231881817" lon="9.759090373201312"><ele>431.0</ele><time>2026-04-12T09:37:16Z</time></trkpt><trkpt lat="45.75448488172372" lon="9.75894028098692"><ele>431.0</ele><time>2026-04-12T09:37:17Z</time></trkpt><trkpt lat="45.75459799069958" lon="9.758776631489274"><ele>430.99999999999994</ele><time>2026-04-12T09:37:18Z</time></trkpt><trkpt lat="45.75467259366638" lon="9.758632152356297"><ele>431.0</ele><time>2026-04-12T09:37:19Z</time></trkpt><trkpt lat="45.75472246576188" lon="9.758511241372176"><ele>431.0</ele><time>2026-04-12T09:37:20Z</time></trkpt><trkpt lat="45.75475930025543" lon="9.758412071433721"><ele>431.0</ele><time>2026-04-12T09:37:21Z</time></trkpt><trkpt lat="45.75479084559992" lon="9.758330558933226"><ele>430.99999999999994</ele><time>2026-04-12T09:37:22Z</time></trkpt><trkpt lat="45.75482582140688" lon="9.758228797734262"><ele>431.0</ele><time>2026-04-12T09:37:25Z</time></trkpt><trkpt lat="45.75487675985762" lon="9.758106826176597"><ele>430.99999999999994</ele><time>2026-04-12T09:37:30Z</time></trkpt><trkpt lat="45.754961624188724" lon="9.757991663153524"><ele>431.0</ele><time>2026-04-12T09:37:32Z</time></trkpt><trkpt lat="45.75501317123298" lon="9.757906292003097"><ele>431.0</ele><time>2026-04-12T09:37:33Z</time></trkpt><trkpt lat="45.755049037810885" lon="9.757802493841446"><ele>431.0</ele><time>2026-04-12T09:37:34Z</time></trkpt><trkpt lat="45.75510916807294" lon="9.757693538077962"><ele>430.99999999999994</ele><time>2026-04-12T09:37:36Z</time></trkpt><trkpt lat="45.75515309647855" lon="9.757628305437278"><ele>431.0</ele><time>2026-04-12T09:37:44Z</time></trkpt><trkpt lat="45.75518888387178" lon="9.75755018804058"><ele>434.5</ele><time>2026-04-12T09:37:56Z</time></trkpt><trkpt lat="45.75521444264004" lon="9.757455951452064"><ele>438.0</ele><time>2026-04-12T09:37:59Z</time></trkpt><trkpt lat="45.75665437118495" lon="9.756263546327578"><ele>438.3333333333333</ele><time>2026-04-12T09:39:04Z</time></trkpt><trkpt lat="45.756693499181914" lon="9.756174237139925"><ele>438.66666666666663</ele><time>2026-04-12T09:39:05Z</time></trkpt><trkpt lat="45.75673920231169" lon="9.756089949580195"><ele>439.0</ele><time>2026-04-12T09:39:06Z</time></trkpt><trkpt lat="45.756781367044965" lon="9.756017453825528"><ele>439.3333333333333</ele><time>2026-04-12T09:39:07Z</time></trkpt><trkpt lat="45.75684739669546" lon="9.755906915318564"><ele>439.66666666666663</ele><time>2026-04-12T09:39:09Z</time></trkpt><trkpt lat="45.7568964827779" lon="9.755825966520465"><ele>440.0</ele><time>2026-04-12T09:39:12Z</time></trkpt><trkpt lat="45.756959210137374" lon="9.75572721604856"><ele>440.0</ele><time>2026-04-12T09:39:14Z</time></trkpt><trkpt lat="45.75702392560446" lon="9.755631925518705"><ele>440.0</ele><time>2026-04-12T09:39:16Z</time></trkpt><trkpt lat="45.7570812293081" lon="9.75555236984269"><ele>440.0</ele><time>2026-04-12T09:39:18Z</time></trkpt><trkpt lat="45.75716070756901" lon="9.755458611172005"><ele>440.0</ele><time>2026-04-12T09:39:20Z</time></trkpt><trkpt lat="45.75725445721419" lon="9.755355263350529"><ele>440.0</ele><time>2026-04-12T09:39:22Z</time></trkpt><trkpt lat="45.757343212840894" lon="9.755234666565558"><ele>439.2</ele><time>2026-04-12T09:39:24Z</time></trkpt><trkpt lat="45.75743350460423" lon="9.755140237563133"><ele>438.4</ele><time>2026-04-12T09:39:26Z</time></trkpt><trkpt lat="45.757510464046966" lon="9.755086894511413"><ele>437.6</ele><time>2026-04-12T09:39:28Z</time></trkpt><trkpt lat="45.75758113771408" lon="9.754984198182754"><ele>436.8</ele><time>2026-04-12T09:39:30Z</time></trkpt><trkpt lat="45.75766632616339" lon="9.754895873809444"><ele>436.0</ele><time>2026-04-12T09:39:32Z</time></trkpt><trkpt lat="45.757762570448406" lon="9.754810988873118"><ele>436.0</ele><time>2026-04-12T09:39:34Z</time></trkpt><trkpt lat="45.757836329384176" lon="9.754695475920919"><ele>436.0</ele><time>2026-04-12T09:39:36Z</time></trkpt><trkpt lat="45.757903242152864" lon="9.754597797835867"><ele>436.0</ele><time>2026-04-12T09:39:38Z</time></trkpt><trkpt lat="45.757957123216826" lon="9.75445922370155"><ele>436.0</ele><time>2026-04-12T09:39:40Z</time></trkpt><trkpt lat="45.75787546754936" lon="9.754338386999287"><ele>436.0</ele><time>2026-04-12T09:39:42Z</time></trkpt><trkpt lat="45.757814411030175" lon="9.754380690158685"><ele>436.0</ele><time>2026-04-12T09:39:43Z</time></trkpt><trkpt lat="45.75774890324411" lon="9.754471851477556"><ele>436.0</ele><time>2026-04-12T09:39:44Z</time></trkpt><trkpt lat="45.7576689358219" lon="9.754577981303708"><ele>436.0</ele><time>2026-04-12T09:39:45Z</time></trkpt><trkpt lat="45.757614495673884" lon="9.75465261048073"><ele>436.0</ele><time>2026-04-12T09:39:46Z</time></trkpt><trkpt lat="45.75752480136439" lon="9.754727585232184"><ele>436.0</ele><time>2026-04-12T09:39:48Z</time></trkpt><trkpt lat="45.75743806833148" lon="9.754823980666563"><ele>440.6666666666667</ele><time>2026-04-12T09:39:50Z</time></trkpt><trkpt lat="45.75736396259248" lon="9.754877362206487"><ele>445.33333333333337</ele><time>2026-04-12T09:39:52Z</time></trkpt><trkpt lat="45.757297849352256" lon="9.754806387512621"><ele>450.0</ele><time>2026-04-12T09:39:54Z</time></trkpt><trkpt lat="45.75737551763942" lon="9.754714803856622"><ele>454.66666666666663</ele><time>2026-04-12T09:39:56Z</time></trkpt><trkpt lat="45.757458641261486" lon="9.754666603569252"><ele>459.3333333333333</ele><time>2026-04-12T09:39:57Z</time></trkpt><trkpt lat="45.7575422338398" lon="9.754613009437044"><ele>464.0</ele><time>2026-04-12T09:39:58Z</time></trkpt><trkpt lat="45.75763413736286" lon="9.754519995825571"><ele>462.79999999999995</ele><time>2026-04-12T09:39:59Z</time></trkpt><trkpt lat="45.75773181963258" lon="9.754399877934443"><ele>461.59999999999997</ele><time>2026-04-12T09:40:00Z</time></trkpt><trkpt lat="45.75781096504431" lon="9.754269253025125"><ele>460.4</ele><time>2026-04-12T09:40:01Z</time></trkpt><trkpt lat="45.757869188665346" lon="9.754152453926134"><ele>459.2</ele><time>2026-04-12T09:40:02Z</time></trkpt><trkpt lat="45.757907270496126" lon="9.754055413762327"><ele>458.0</ele><time>2026-04-12T09:40:03Z</time></trkpt><trkpt lat="45.75895843378016" lon="9.752427475722824"><ele>459.16666666666663</ele><time>2026-04-12T09:41:04Z</time></trkpt><trkpt lat="45.759073328860495" lon="9.752418601072403"><ele>460.3333333333333</ele><time>2026-04-12T09:41:06Z</time></trkpt><trkpt lat="45.75913978881936" lon="9.752418935467709"><ele>461.5</ele><time>2026-04-12T09:41:07Z</time></trkpt><trkpt lat="45.75920607284734" lon="9.75238547331151"><ele>462.66666666666663</ele><time>2026-04-12T09:41:08Z</time></trkpt><trkpt lat="45.75927501737971" lon="9.752343604141341"><ele>463.8333333333333</ele><time>2026-04-12T09:41:09Z</time></trkpt><trkpt lat="45.75935145917961" lon="9.752293497472294"><ele>465.0</ele><time>2026-04-12T09:41:10Z</time></trkpt><trkpt lat="45.759423417057285" lon="9.752246330152797"><ele>465.0</ele><time>2026-04-12T09:41:11Z</time></trkpt><trkpt lat="45.75950160596859" lon="9.752192950782359"><ele>465.0</ele><time>2026-04-12T09:41:12Z</time></trkpt><trkpt lat="45.759559777625675" lon="9.752125314683637"><ele>465.0</ele><time>2026-04-12T09:41:13Z</time></trkpt><trkpt lat="45.759649061400154" lon="9.752075602867647"><ele>465.0</ele><time>2026-04-12T09:41:15Z</time></trkpt><trkpt lat="45.7597380454937" lon="9.751998602873206"><ele>465.0</ele><time>2026-04-12T09:41:17Z</time></trkpt><trkpt lat="45.75981544631541" lon="9.751931626042559"><ele>470.6666666666667</ele><time>2026-04-12T09:41:19Z</time></trkpt><trkpt lat="45.75989659744641" lon="9.751862646793587"><ele>476.33333333333337</ele><time>2026-04-12T09:41:21Z</time></trkpt><trkpt lat="45.7599796190843" lon="9.751794311273343"><ele>482.0</ele><time>2026-04-12T09:41:23Z</time></trkpt><trkpt lat="45.760078317083774" lon="9.75168854377672"><ele>487.6666666666667</ele><time>2026-04-12T09:41:25Z</time></trkpt><trkpt lat="45.760104134724095" lon="9.751595756634782"><ele>493.33333333333337</ele><time>2026-04-12T09:41:26Z</time></trkpt><trkpt lat="45.76008137573366" lon="9.751507087116622"><ele>499.0</ele><time>2026-04-12T09:41:27Z</time></trkpt><trkpt lat="45.75999107538111" lon="9.75150915681196"><ele>499.0</ele><time>2026-04-12T09:41:28Z</time></trkpt><trkpt lat="45.759912743146096" lon="9.751579429153969"><ele>499.0</ele><time>2026-04-12T09:41:29Z</time></trkpt><trkpt lat="45.75984224206936" lon="9.75169757131936"><ele>499.0</ele><time>2026-04-12T09:41:30Z</time></trkpt><trkpt lat="45.759763398211184" lon="9.751790489067146"><ele>499.0</ele><time>2026-04-12T09:41:31Z</time></trkpt><trkpt lat="45.75968514394349" lon="9.751862005775147"><ele>499.0</ele><time>2026-04-12T09:41:32Z</time></trkpt><trkpt lat="45.75960151954345" lon="9.751928581507062"><ele>499.00000000000006</ele><time>2026-04-12T09:41:33Z</time></trkpt><trkpt lat="45.75953069972924" lon="9.751988702320025"><ele>499.0</ele><time>2026-04-12T09:41:34Z</time></trkpt><trkpt lat="45.75945731047696" lon="9.751992574583927"><ele>499.0</ele><time>2026-04-12T09:41:36Z</time></trkpt><trkpt lat="45.75944395374753" lon="9.75187570679036"><ele>499.0</ele><time>2026-04-12T09:41:38Z</time></trkpt><trkpt lat="45.75951518478292" lon="9.751843304031757"><ele>499.00000000000006</ele><time>2026-04-12T09:41:39Z</time></trkpt><trkpt lat="45.759597418335204" lon="9.751814149439051"><ele>499.0</ele><time>2026-04-12T09:41:40Z</time></trkpt><trkpt lat="45.759678137086674" lon="9.751716558246196"><ele>499.0</ele><time>2026-04-12T09:41:41Z</time></trkpt><trkpt lat="45.75977793715452" lon="9.751599017231628"><ele>499.0</ele><time>2026-04-12T09:41:42Z</time></trkpt><trkpt lat="45.75988176612322" lon="9.751503848148799"><ele>499.0</ele><time>2026-04-12T09:41:43Z</time></trkpt><trkpt lat="45.75996127889578" lon="9.751443511496218"><ele>499.0</ele><time>2026-04-12T09:41:44Z</time></trkpt><trkpt lat="45.76003541037674" lon="9.751419689639743"><ele>499.0</ele><time>2026-04-12T09:41:45Z</time></trkpt><trkpt lat="45.760099392399766" lon="9.751398483998127"><ele>498.50000000000006</ele><time>2026-04-12T09:41:46Z</time></trkpt><trkpt lat="45.760212471495244" lon="9.751357230927763"><ele>498.0</ele><time>2026-04-12T09:41:48Z</time></trkpt><trkpt lat="45.760272938134015" lon="9.751310848888227"><ele>497.5</ele><time>2026-04-12T09:41:49Z</time></trkpt><trkpt lat="45.76033241070296" lon="9.751232845782223"><ele>497.0</ele><time>2026-04-12T09:41:50Z</time></trkpt><trkpt lat="45.760380630726914" lon="9.751122773378565"><ele>496.50000000000006</ele><time>2026-04-12T09:41:51Z</time></trkpt><trkpt lat="45.76043400927496" lon="9.751020111107131"><ele>496.0</ele><time>2026-04-12T09:41:52Z</time></trkpt><trkpt lat="45.760491421784245" lon="9.750906141862039"><ele>496.0</ele><time>2026-04-12T09:41:53Z</time></trkpt><trkpt lat="45.76054868855682" lon="9.750790007756503"><ele>496.0</ele><time>2026-04-12T09:41:54Z</time></trkpt><trkpt lat="45.760597343061036" lon="9.750654787426077"><ele>496.0</ele><time>2026-04-12T09:41:55Z</time></trkpt><trkpt lat="45.7606503019458" lon="9.750552432735764"><ele>496.0</ele><time>2026-04-12T09:41:56Z</time></trkpt><trkpt lat="45.760721187482716" lon="9.750436496717663"><ele>496.0</ele><time>2026-04-12T09:41:57Z</time></trkpt><trkpt lat="45.760774146225515" lon="9.750318238737872"><ele>496.00000000000006</ele><time>2026-04-12T09:41:58Z</time></trkpt><trkpt lat="45.76082782952377" lon="9.750208703353088"><ele>496.0</ele><time>2026-04-12T09:41:59Z</time></trkpt><trkpt lat="45.76088933275497" lon="9.750116156292703"><ele>496.0</ele><time>2026-04-12T09:42:00Z</time></trkpt><trkpt lat="45.7609447826726" lon="9.750015275627051"><ele>496.0</ele><time>2026-04-12T09:42:01Z</time></trkpt><trkpt lat="45.76099731133551" lon="9.749915948978591"><ele>496.00000000000006</ele><time>2026-04-12T09:42:02Z</time></trkpt><trkpt lat="45.76104955978345" lon="9.749815578299511"><ele>496.0</ele><time>2026-04-12T09:42:03Z</time></trkpt><trkpt lat="45.764543499579496" lon="9.746029335088329"><ele>504.33333333333337</ele><time>2026-04-12T09:43:04Z</time></trkpt><trkpt lat="45.7646140327844" lon="9.745900021714434"><ele>512.6666666666667</ele><time>2026-04-12T09:43:05Z</time></trkpt><trkpt lat="45.76465355593043" lon="9.745781509874364"><ele>521.0</ele><time>2026-04-12T09:43:06Z</time></trkpt><trkpt lat="45.76467820900317" lon="9.745680371424896"><ele>529.3333333333334</ele><time>2026-04-12T09:43:07Z</time></trkpt><trkpt lat="45.76469806171782" lon="9.745591727481717"><ele>537.6666666666666</ele><time>2026-04-12T09:43:08Z</time></trkpt><trkpt lat="45.76472273828717" lon="9.745481544594194"><ele>546.0</ele><time>2026-04-12T09:43:10Z</time></trkpt><trkpt lat="45.76473912033693" lon="9.74535376189408"><ele>546.0</ele><time>2026-04-12T09:43:13Z</time></trkpt><trkpt lat="45.76476487172747" lon="9.745268796027473"><ele>546.0</ele><time>2026-04-12T09:43:14Z</time></trkpt><trkpt lat="45.76481888863183" lon="9.745181689777754"><ele>546.0</ele><time>2026-04-12T09:43:15Z</time></trkpt><trkpt lat="45.76487177495396" lon="9.745091473903129"><ele>546.0</ele><time>2026-04-12T09:43:16Z</time></trkpt><trkpt lat="45.764926535105474" lon="9.745010869433308"><ele>546.0</ele><time>2026-04-12T09:43:17Z</time></trkpt><trkpt lat="45.76500592200576" lon="9.744973265043015"><ele>546.0</ele><time>2026-04-12T09:43:18Z</time></trkpt><trkpt lat="45.76509519210653" lon="9.744956715088243"><ele>548.0</ele><time>2026-04-12T09:43:19Z</time></trkpt><trkpt lat="45.765185927489725" lon="9.744946130390451"><ele>550.0</ele><time>2026-04-12T09:43:20Z</time></trkpt><trkpt lat="45.76527070246968" lon="9.744920730685191"><ele>552.0</ele><time>2026-04-12T09:43:21Z</time></trkpt><trkpt lat="45.76534583058891" lon="9.744924827223253"><ele>554.0</ele><time>2026-04-12T09:43:22Z</time></trkpt><trkpt lat="45.76541439915957" lon="9.7449832304134"><ele>556.0</ele><time>2026-04-12T09:43:23Z</time></trkpt><trkpt lat="45.76547622938672" lon="9.745076784534177"><ele>558.0</ele><time>2026-04-12T09:43:24Z</time></trkpt><trkpt lat="45.765534801802964" lon="9.745225897290693"><ele>561.5</ele><time>2026-04-12T09:43:25Z</time></trkpt><trkpt lat="45.76557688176874" lon="9.74541677023295"><ele>565.0</ele><time>2026-04-12T09:43:26Z</time></trkpt><trkpt lat="45.76560587298552" lon="9.745612133823968"><ele>568.5</ele><time>2026-04-12T09:43:27Z</time></trkpt><trkpt lat="45.765632997044655" lon="9.745784205595138"><ele>572.0</ele><time>2026-04-12T09:43:28Z</time></trkpt><trkpt lat="45.76565997188996" lon="9.745935638921358"><ele>571.25</ele><time>2026-04-12T09:43:29Z</time></trkpt><trkpt lat="45.76568841714006" lon="9.746106563882938"><ele>570.5</ele><time>2026-04-12T09:43:30Z</time></trkpt><trkpt lat="45.76571142918489" lon="9.74627675321243"><ele>569.75</ele><time>2026-04-12T09:43:31Z</time></trkpt><trkpt lat="45.765728454451164" lon="9.746442061979213"><ele>569.0</ele><time>2026-04-12T09:43:32Z</time></trkpt><trkpt lat="45.76573027498079" lon="9.746608738403427"><ele>569.0</ele><time>2026-04-12T09:43:33Z</time></trkpt><trkpt lat="45.76572521873506" lon="9.746762765656369"><ele>569.0</ele><time>2026-04-12T09:43:34Z</time></trkpt><trkpt lat="45.765717706709324" lon="9.74691353849639"><ele>569.0</ele><time>2026-04-12T09:43:35Z</time></trkpt><trkpt lat="45.765710526424364" lon="9.747042756960225"><ele>569.0</ele><time>2026-04-12T09:43:36Z</time></trkpt><trkpt lat="45.76570698134802" lon="9.747147856656028"><ele>569.0</ele><time>2026-04-12T09:43:37Z</time></trkpt><trkpt lat="45.765712064475345" lon="9.747240051419771"><ele>569.0</ele><time>2026-04-12T09:43:38Z</time></trkpt><trkpt lat="45.765738186073676" lon="9.747396118722822"><ele>569.6</ele><time>2026-04-12T09:43:40Z</time></trkpt><trkpt lat="45.76575991933616" lon="9.747518440691442"><ele>570.2</ele><time>2026-04-12T09:43:42Z</time></trkpt><trkpt lat="45.76578968436081" lon="9.747630843412427"><ele>570.8000000000001</ele><time>2026-04-12T09:43:44Z</time></trkpt><trkpt lat="45.7658339882013" lon="9.747751342816516"><ele>571.4</ele><time>2026-04-12T09:43:46Z</time></trkpt><trkpt lat="45.76587782596493" lon="9.747920420193797"><ele>572.0</ele><time>2026-04-12T09:43:48Z</time></trkpt><trkpt lat="45.76587143063072" lon="9.7480262645461"><ele>572.1666666666666</ele><time>2026-04-12T09:43:49Z</time></trkpt><trkpt lat="45.76585198221314" lon="9.74813326848894"><ele>572.3333333333333</ele><time>2026-04-12T09:43:50Z</time></trkpt><trkpt lat="45.76582379386682" lon="9.748237155621778"><ele>572.5</ele><time>2026-04-12T09:43:51Z</time></trkpt><trkpt lat="45.76581157010114" lon="9.748353330326953"><ele>572.6666666666666</ele><time>2026-04-12T09:43:52Z</time></trkpt><trkpt lat="45.765819568065446" lon="9.748468323127193"><ele>572.8333333333334</ele><time>2026-04-12T09:43:53Z</time></trkpt><trkpt lat="45.7658341821865" lon="9.748583048017212"><ele>573.0</ele><time>2026-04-12T09:43:54Z</time></trkpt><trkpt lat="45.76584311791129" lon="9.74870136651114"><ele>571.8</ele><time>2026-04-12T09:43:55Z</time></trkpt><trkpt lat="45.765851859614735" lon="9.748816526900699"><ele>570.5999999999999</ele><time>2026-04-12T09:43:56Z</time></trkpt><trkpt lat="45.76585700923943" lon="9.748926229951685"><ele>569.4000000000001</ele><time>2026-04-12T09:43:57Z</time></trkpt><trkpt lat="45.76587186560062" lon="9.749087969941455"><ele>568.2</ele><time>2026-04-12T09:43:59Z</time></trkpt><trkpt lat="45.765876816205534" lon="9.749205771163421"><ele>567.0</ele><time>2026-04-12T09:44:01Z</time></trkpt><trkpt lat="45.76637612956638" lon="9.744875231380533"><ele>577.2</ele><time>2026-04-12T09:45:03.999Z</time></trkpt><trkpt lat="45.766431400549976" lon="9.745040552773009"><ele>587.4000000000001</ele><time>2026-04-12T09:45:04.999Z</time></trkpt><trkpt lat="45.76647669541076" lon="9.745187980147154"><ele>597.5999999999999</ele><time>2026-04-12T09:45:05.999Z</time></trkpt><trkpt lat="45.76648272553937" lon="9.745314808406077"><ele>607.8</ele><time>2026-04-12T09:45:06.999Z</time></trkpt><trkpt lat="45.76645877391668" lon="9.74543702383209"><ele>618.0</ele><time>2026-04-12T09:45:07.999Z</time></trkpt><trkpt lat="45.76642669701447" lon="9.745552171212063"><ele>618.1666666666666</ele><time>2026-04-12T09:45:08.999Z</time></trkpt><trkpt lat="45.766421830204116" lon="9.745669762443361"><ele>618.3333333333334</ele><time>2026-04-12T09:45:09.999Z</time></trkpt><trkpt lat="45.76644753338309" lon="9.745790998962201"><ele>618.5</ele><time>2026-04-12T09:45:10.999Z</time></trkpt><trkpt lat="45.76647277630943" lon="9.745910454240063"><ele>618.6666666666667</ele><time>2026-04-12T09:45:11.999Z</time></trkpt><trkpt lat="45.76649119580688" lon="9.74602628900557"><ele>618.8333333333334</ele><time>2026-04-12T09:45:12.999Z</time></trkpt><trkpt lat="45.76651736963649" lon="9.746130827192326"><ele>619.0</ele><time>2026-04-12T09:45:13.999Z</time></trkpt><trkpt lat="45.766540527256325" lon="9.746233001583901"><ele>619.3333333333334</ele><time>2026-04-12T09:45:14.999Z</time></trkpt><trkpt lat="45.766563903977335" lon="9.746330210471521"><ele>619.6666666666667</ele><time>2026-04-12T09:45:15.999Z</time></trkpt><trkpt lat="45.76658022317557" lon="9.746425759937383"><ele>620.0</ele><time>2026-04-12T09:45:16.999Z</time></trkpt><trkpt lat="45.766592759227116" lon="9.746605099331816"><ele>620.3333333333334</ele><time>2026-04-12T09:45:18.999Z</time></trkpt><trkpt lat="45.76656397816389" lon="9.746712612494278"><ele>620.6666666666666</ele><time>2026-04-12T09:45:19.999Z</time></trkpt><trkpt lat="45.76652261680545" lon="9.746821085020343"><ele>621.0</ele><time>2026-04-12T09:45:20.999Z</time></trkpt><trkpt lat="45.766482396974666" lon="9.746938163380415"><ele>621.8</ele><time>2026-04-12T09:45:21.999Z</time></trkpt><trkpt lat="45.76646581364203" lon="9.74707529094525"><ele>622.6</ele><time>2026-04-12T09:45:22.999Z</time></trkpt><trkpt lat="45.76646445583711" lon="9.747220018960595"><ele>623.4</ele><time>2026-04-12T09:45:23.999Z</time></trkpt><trkpt lat="45.76646058886395" lon="9.747367822887455"><ele>624.2</ele><time>2026-04-12T09:45:24.999Z</time></trkpt><trkpt lat="45.766457877128666" lon="9.74750749512929"><ele>625.0</ele><time>2026-04-12T09:45:25.999Z</time></trkpt><trkpt lat="45.76646134773142" lon="9.747628152298388"><ele>625.8333333333334</ele><time>2026-04-12T09:45:26.999Z</time></trkpt><trkpt lat="45.76647011101383" lon="9.747747526145206"><ele>626.6666666666667</ele><time>2026-04-12T09:45:27.999Z</time></trkpt><trkpt lat="45.766485602921485" lon="9.747859210976994"><ele>627.5</ele><time>2026-04-12T09:45:29Z</time></trkpt><trkpt lat="45.76650088981869" lon="9.7479756828543"><ele>628.3333333333334</ele><time>2026-04-12T09:45:30Z</time></trkpt><trkpt lat="45.766505769962215" lon="9.748087905863622"><ele>629.1666666666666</ele><time>2026-04-12T09:45:31Z</time></trkpt><trkpt lat="45.76649431577955" lon="9.748191213613563"><ele>630.0</ele><time>2026-04-12T09:45:32Z</time></trkpt><trkpt lat="45.76645737485973" lon="9.748358680964694"><ele>630.0</ele><time>2026-04-12T09:45:34Z</time></trkpt><trkpt lat="45.76642836105544" lon="9.748467976036045"><ele>630.0</ele><time>2026-04-12T09:45:36Z</time></trkpt><trkpt lat="45.766412363490296" lon="9.748577048586643"><ele>630.0</ele><time>2026-04-12T09:45:39Z</time></trkpt><trkpt lat="45.76639926764542" lon="9.748674856912855"><ele>630.0</ele><time>2026-04-12T09:45:42Z</time></trkpt><trkpt lat="45.76638862312427" lon="9.748812984162749"><ele>630.0</ele><time>2026-04-12T09:45:44Z</time></trkpt><trkpt lat="45.766402291447754" lon="9.748902329055474"><ele>630.0</ele><time>2026-04-12T09:45:45Z</time></trkpt><trkpt lat="45.766519282725945" lon="9.748923465320372"><ele>630.0</ele><time>2026-04-12T09:45:47Z</time></trkpt><trkpt lat="45.766562405293136" lon="9.74883261056186"><ele>630.0</ele><time>2026-04-12T09:45:48Z</time></trkpt><trkpt lat="45.76655454590083" lon="9.74871694974352"><ele>630.0</ele><time>2026-04-12T09:45:49Z</time></trkpt><trkpt lat="45.76653316564583" lon="9.748601814612924"><ele>630.0</ele><time>2026-04-12T09:45:50Z</time></trkpt><trkpt lat="45.76653197929941" lon="9.74850166902277"><ele>630.0</ele><time>2026-04-12T09:45:51Z</time></trkpt><trkpt lat="45.76654453353289" lon="9.748393317814198"><ele>630.0</ele><time>2026-04-12T09:45:52Z</time></trkpt><trkpt lat="45.76657046743724" lon="9.748296348048939"><ele>630.0</ele><time>2026-04-12T09:45:53Z</time></trkpt><trkpt lat="45.76658932722096" lon="9.748203648385651"><ele>630.0</ele><time>2026-04-12T09:45:54Z</time></trkpt><trkpt lat="45.766599519072436" lon="9.74809852567022"><ele>630.0</ele><time>2026-04-12T09:45:55Z</time></trkpt><trkpt lat="45.76660527874623" lon="9.747987926037105"><ele>630.0</ele><time>2026-04-12T09:45:56Z</time></trkpt><trkpt lat="45.76660050505128" lon="9.747872851547186"><ele>630.0</ele><time>2026-04-12T09:45:57Z</time></trkpt><trkpt lat="45.76659318999109" lon="9.747752575484173"><ele>630.0</ele><time>2026-04-12T09:45:58Z</time></trkpt><trkpt lat="45.76660412244524" lon="9.74762260240582"><ele>628.75</ele><time>2026-04-12T09:45:59Z</time></trkpt><trkpt lat="45.766639362951786" lon="9.747480707390016"><ele>627.5</ele><time>2026-04-12T09:46:00Z</time></trkpt><trkpt lat="45.766676728235474" lon="9.747321346284423"><ele>626.25</ele><time>2026-04-12T09:46:01Z</time></trkpt><trkpt lat="45.766731356352985" lon="9.74715710971849"><ele>625.0</ele><time>2026-04-12T09:46:02Z</time></trkpt><trkpt lat="45.766779116430136" lon="9.746966696808446"><ele>676.0</ele><time>2026-04-12T09:46:03Z</time></trkpt><trkpt lat="45.76694693731153" lon="9.748465849293863"><ele>676.0</ele><time>2026-04-12T09:47:04Z</time></trkpt><trkpt lat="45.76702830075489" lon="9.748587891445865"><ele>676.0</ele><time>2026-04-12T09:47:06Z</time></trkpt><trkpt lat="45.76709306602251" lon="9.74857461451414"><ele>676.0</ele><time>2026-04-12T09:47:07Z</time></trkpt><trkpt lat="45.76714257765758" lon="9.74850501496455"><ele>676.0</ele><time>2026-04-12T09:47:07.999Z</time></trkpt><trkpt lat="45.76715975735885" lon="9.748399996556307"><ele>676.0</ele><time>2026-04-12T09:47:08.999Z</time></trkpt><trkpt lat="45.767144295031116" lon="9.748288990327643"><ele>676.0</ele><time>2026-04-12T09:47:09.999Z</time></trkpt><trkpt lat="45.76711412170433" lon="9.748171478160057"><ele>676.0</ele><time>2026-04-12T09:47:10.999Z</time></trkpt><trkpt lat="45.7671057144746" lon="9.748047501072989"><ele>676.0</ele><time>2026-04-12T09:47:11.999Z</time></trkpt><trkpt lat="45.76712308473315" lon="9.747919972245526"><ele>676.0</ele><time>2026-04-12T09:47:12.999Z</time></trkpt><trkpt lat="45.76715267800248" lon="9.74779046579678"><ele>676.0</ele><time>2026-04-12T09:47:13.999Z</time></trkpt><trkpt lat="45.767196756020894" lon="9.747657460384273"><ele>676.0</ele><time>2026-04-12T09:47:14.999Z</time></trkpt><trkpt lat="45.76725695514868" lon="9.747515675387158"><ele>677.0</ele><time>2026-04-12T09:47:15.999Z</time></trkpt><trkpt lat="45.76732339618006" lon="9.74737690497384"><ele>678.0</ele><time>2026-04-12T09:47:16.999Z</time></trkpt><trkpt lat="45.76738266034281" lon="9.74723550176451"><ele>679.0</ele><time>2026-04-12T09:47:17.999Z</time></trkpt><trkpt lat="45.7674527176547" lon="9.747059170192546"><ele>680.0</ele><time>2026-04-12T09:47:18.999Z</time></trkpt><trkpt lat="45.767494299699756" lon="9.746806428574196"><ele>677.0</ele><time>2026-04-12T09:47:19.999Z</time></trkpt><trkpt lat="45.76753863359378" lon="9.74655135457625"><ele>674.0</ele><time>2026-04-12T09:47:20.999Z</time></trkpt><trkpt lat="45.767576101354926" lon="9.746321092740137"><ele>671.0</ele><time>2026-04-12T09:47:21.999Z</time></trkpt><trkpt lat="45.767637329049215" lon="9.746100705638078"><ele>681.3333333333333</ele><time>2026-04-12T09:47:22.999Z</time></trkpt><trkpt lat="45.767725047342864" lon="9.745902667803866"><ele>691.6666666666666</ele><time>2026-04-12T09:47:23.999Z</time></trkpt><trkpt lat="45.76781664216435" lon="9.74570193603755"><ele>702.0</ele><time>2026-04-12T09:47:24.999Z</time></trkpt><trkpt lat="45.76789447842125" lon="9.74553453162424"><ele>702.0</ele><time>2026-04-12T09:47:25.999Z</time></trkpt><trkpt lat="45.767975798919544" lon="9.745399210947745"><ele>702.0</ele><time>2026-04-12T09:47:26.999Z</time></trkpt><trkpt lat="45.7680865850822" lon="9.745295264876892"><ele>702.0</ele><time>2026-04-12T09:47:27.999Z</time></trkpt><trkpt lat="45.768195007854786" lon="9.745229938339554"><ele>702.0</ele><time>2026-04-12T09:47:29Z</time></trkpt><trkpt lat="45.7682822919189" lon="9.745167971425891"><ele>699.0</ele><time>2026-04-12T09:47:30Z</time></trkpt><trkpt lat="45.76832182970202" lon="9.745085402979026"><ele>696.0</ele><time>2026-04-12T09:47:31Z</time></trkpt><trkpt lat="45.76830953860758" lon="9.744986594326457"><ele>693.0</ele><time>2026-04-12T09:47:32Z</time></trkpt><trkpt lat="45.768249111073764" lon="9.744870185508656"><ele>690.0</ele><time>2026-04-12T09:47:33Z</time></trkpt><trkpt lat="45.76815641283609" lon="9.74476166342115"><ele>687.0</ele><time>2026-04-12T09:47:34Z</time></trkpt><trkpt lat="45.76807309553771" lon="9.744630195747638"><ele>687.0</ele><time>2026-04-12T09:47:35Z</time></trkpt><trkpt lat="45.76798452504374" lon="9.744455149601777"><ele>687.0</ele><time>2026-04-12T09:47:36Z</time></trkpt><trkpt lat="45.7679145166004" lon="9.744268974662216"><ele>687.0</ele><time>2026-04-12T09:47:37Z</time></trkpt><trkpt lat="45.76786347718338" lon="9.7441168818296"><ele>687.0</ele><time>2026-04-12T09:47:38Z</time></trkpt><trkpt lat="45.76781980628287" lon="9.743994734335509"><ele>688.6666666666666</ele><time>2026-04-12T09:47:39Z</time></trkpt><trkpt lat="45.76778636057441" lon="9.743887016664605"><ele>690.3333333333334</ele><time>2026-04-12T09:47:40Z</time></trkpt><trkpt lat="45.767768325334096" lon="9.743791617336818"><ele>692.0</ele><time>2026-04-12T09:47:41Z</time></trkpt><trkpt lat="45.767761292982435" lon="9.743679927971742"><ele>693.6666666666667</ele><time>2026-04-12T09:47:43Z</time></trkpt><trkpt lat="45.76777000220245" lon="9.743582645201334"><ele>695.3333333333334</ele><time>2026-04-12T09:47:45Z</time></trkpt><trkpt lat="45.767855081307246" lon="9.743597872035878"><ele>697.0</ele><time>2026-04-12T09:47:47Z</time></trkpt><trkpt lat="45.7678317240942" lon="9.743775099046708"><ele>697.0</ele><time>2026-04-12T09:47:49Z</time></trkpt><trkpt lat="45.76786085604064" lon="9.743900102105274"><ele>697.0</ele><time>2026-04-12T09:47:50Z</time></trkpt><trkpt lat="45.76793302938106" lon="9.744039598727351"><ele>697.0</ele><time>2026-04-12T09:47:51Z</time></trkpt><trkpt lat="45.76804169686196" lon="9.744181075081073"><ele>697.0</ele><time>2026-04-12T09:47:52Z</time></trkpt><trkpt lat="45.76816570167744" lon="9.74433677463455"><ele>694.5</ele><time>2026-04-12T09:47:53Z</time></trkpt><trkpt lat="45.768281032826934" lon="9.744479256292482"><ele>692.0</ele><time>2026-04-12T09:47:54Z</time></trkpt><trkpt lat="45.76838534200584" lon="9.744601884637351"><ele>689.5</ele><time>2026-04-12T09:47:55Z</time></trkpt><trkpt lat="45.768476464651556" lon="9.74470991892743"><ele>687.0</ele><time>2026-04-12T09:47:56Z</time></trkpt><trkpt lat="45.76855410927046" lon="9.74480107848882"><ele>692.5</ele><time>2026-04-12T09:47:57Z</time></trkpt><trkpt lat="45.76862012246965" lon="9.744882110038965"><ele>698.0</ele><time>2026-04-12T09:47:58Z</time></trkpt><trkpt lat="45.7686696229598" lon="9.744974686176034"><ele>703.5</ele><time>2026-04-12T09:47:59Z</time></trkpt><trkpt lat="45.76870318832443" lon="9.74506949224083"><ele>709.0</ele><time>2026-04-12T09:48:00Z</time></trkpt><trkpt lat="45.76873586301133" lon="9.745148707497968"><ele>714.5</ele><time>2026-04-12T09:48:01Z</time></trkpt><trkpt lat="45.76874716496479" lon="9.74529028023661"><ele>720.0</ele><time>2026-04-12T09:48:03Z</time></trkpt><trkpt lat="45.769106048346465" lon="9.74410296180906"><ele>722.5</ele><time>2026-04-12T09:49:04.001Z</time></trkpt><trkpt lat="45.7690178003561" lon="9.743982069825261"><ele>725.0</ele><time>2026-04-12T09:49:05.001Z</time></trkpt><trkpt lat="45.768949803420654" lon="9.743873250791278"><ele>727.5</ele><time>2026-04-12T09:49:06.001Z</time></trkpt><trkpt lat="45.76889625037057" lon="9.743797332280904"><ele>730.0</ele><time>2026-04-12T09:49:07.001Z</time></trkpt><trkpt lat="45.768850142431155" lon="9.743725677850202"><ele>732.5</ele><time>2026-04-12T09:49:08.001Z</time></trkpt><trkpt lat="45.768806422419175" lon="9.743644191806085"><ele>735.0</ele><time>2026-04-12T09:49:09.001Z</time></trkpt><trkpt lat="45.76877278421917" lon="9.74355641096891"><ele>738.1666666666666</ele><time>2026-04-12T09:49:10.001Z</time></trkpt><trkpt lat="45.76873723854742" lon="9.743408740595164"><ele>741.3333333333334</ele><time>2026-04-12T09:49:12.001Z</time></trkpt><trkpt lat="45.76871734723679" lon="9.743298381328618"><ele>744.5</ele><time>2026-04-12T09:49:14Z</time></trkpt><trkpt lat="45.76870822387253" lon="9.74318988810798"><ele>747.6666666666667</ele><time>2026-04-12T09:49:16Z</time></trkpt><trkpt lat="45.7687001576637" lon="9.7430882219663"><ele>750.8333333333334</ele><time>2026-04-12T09:49:19Z</time></trkpt><trkpt lat="45.76868662855046" lon="9.742991690884864"><ele>754.0</ele><time>2026-04-12T09:49:22Z</time></trkpt><trkpt lat="45.768741529659664" lon="9.74294418393408"><ele>754.0</ele><time>2026-04-12T09:49:26Z</time></trkpt><trkpt lat="45.768791237206926" lon="9.743066989106527"><ele>754.0</ele><time>2026-04-12T09:49:29Z</time></trkpt><trkpt lat="45.76874941420031" lon="9.743211868589619"><ele>754.0</ele><time>2026-04-12T09:49:30Z</time></trkpt><trkpt lat="45.7687870544967" lon="9.74333137266811"><ele>754.0</ele><time>2026-04-12T09:49:31Z</time></trkpt><trkpt lat="45.76881796420319" lon="9.743426099471279"><ele>754.0</ele><time>2026-04-12T09:49:32Z</time></trkpt><trkpt lat="45.76889028695777" lon="9.743596199453082"><ele>750.2</ele><time>2026-04-12T09:49:34Z</time></trkpt><trkpt lat="45.768954345418685" lon="9.743681255199647"><ele>746.4000000000001</ele><time>2026-04-12T09:49:35Z</time></trkpt><trkpt lat="45.76903198167969" lon="9.743754919478917"><ele>742.6</ele><time>2026-04-12T09:49:36Z</time></trkpt><trkpt lat="45.76911527203049" lon="9.74382772990684"><ele>738.8</ele><time>2026-04-12T09:49:37Z</time></trkpt><trkpt lat="45.76920703079658" lon="9.743907344124256"><ele>735.0</ele><time>2026-04-12T09:49:38Z</time></trkpt><trkpt lat="45.76928873454499" lon="9.743978721290034"><ele>739.0</ele><time>2026-04-12T09:49:39Z</time></trkpt><trkpt lat="45.76937476586385" lon="9.744054418714333"><ele>743.0</ele><time>2026-04-12T09:49:40Z</time></trkpt><trkpt lat="45.76944546714223" lon="9.744116094345987"><ele>747.0</ele><time>2026-04-12T09:49:41Z</time></trkpt><trkpt lat="45.76950077619217" lon="9.744197700073608"><ele>751.0</ele><time>2026-04-12T09:49:42Z</time></trkpt><trkpt lat="45.76952626158052" lon="9.744317253233623"><ele>755.0</ele><time>2026-04-12T09:49:43Z</time></trkpt><trkpt lat="45.76954660757293" lon="9.744451532457258"><ele>759.0</ele><time>2026-04-12T09:49:44Z</time></trkpt><trkpt lat="45.76957619193387" lon="9.744577649839398"><ele>759.0</ele><time>2026-04-12T09:49:45Z</time></trkpt><trkpt lat="45.76961758191144" lon="9.744695395639548"><ele>759.0</ele><time>2026-04-12T09:49:46Z</time></trkpt><trkpt lat="45.76965079154038" lon="9.744824453348818"><ele>759.0</ele><time>2026-04-12T09:49:47Z</time></trkpt><trkpt lat="45.769730542709844" lon="9.744919098774709"><ele>759.0</ele><time>2026-04-12T09:49:48Z</time></trkpt><trkpt lat="45.769800747536515" lon="9.745006709543313"><ele>759.0</ele><time>2026-04-12T09:49:49Z</time></trkpt><trkpt lat="45.769857440547135" lon="9.74507344704962"><ele>757.8000000000001</ele><time>2026-04-12T09:49:50Z</time></trkpt><trkpt lat="45.76993239258473" lon="9.745213014942832"><ele>756.6</ele><time>2026-04-12T09:49:52Z</time></trkpt><trkpt lat="45.769948573550465" lon="9.745309041412893"><ele>755.4</ele><time>2026-04-12T09:49:53Z</time></trkpt><trkpt lat="45.76994418024282" lon="9.74542421139082"><ele>754.2</ele><time>2026-04-12T09:49:54Z</time></trkpt><trkpt lat="45.769905170702394" lon="9.74553400709128"><ele>753.0</ele><time>2026-04-12T09:49:55Z</time></trkpt><trkpt lat="45.7698891095636" lon="9.745665900570266"><ele>753.0</ele><time>2026-04-12T09:49:56Z</time></trkpt><trkpt lat="45.769840484545476" lon="9.745795507248236"><ele>753.0</ele><time>2026-04-12T09:49:57Z</time></trkpt><trkpt lat="45.76977972488353" lon="9.745924449609584"><ele>753.0</ele><time>2026-04-12T09:49:58Z</time></trkpt><trkpt lat="45.769714634593164" lon="9.746034622356612"><ele>753.0</ele><time>2026-04-12T09:49:59Z</time></trkpt><trkpt lat="45.769655629303855" lon="9.746119811219605"><ele>753.0</ele><time>2026-04-12T09:50:00Z</time></trkpt><trkpt lat="45.76960357998645" lon="9.746189946399468"><ele>746.0</ele><time>2026-04-12T09:50:01Z</time></trkpt><trkpt lat="45.7695069815915" lon="9.746294541008796"><ele>739.0</ele><time>2026-04-12T09:50:03Z</time></trkpt><trkpt lat="45.770839770997135" lon="9.740453372230114"><ele>757.0</ele><time>2026-04-12T09:51:04.001Z</time></trkpt><trkpt lat="45.77079936658101" lon="9.740600609166856"><ele>775.0</ele><time>2026-04-12T09:51:05.001Z</time></trkpt><trkpt lat="45.770751142769" lon="9.740782005578575"><ele>793.0</ele><time>2026-04-12T09:51:06.001Z</time></trkpt><trkpt lat="45.77069198999878" lon="9.7409874409469"><ele>811.0</ele><time>2026-04-12T09:51:07.001Z</time></trkpt><trkpt lat="45.77063365236984" lon="9.741187594072624"><ele>816.0</ele><time>2026-04-12T09:51:08.001Z</time></trkpt><trkpt lat="45.77056883548473" lon="9.741342949379746"><ele>821.0</ele><time>2026-04-12T09:51:09.001Z</time></trkpt><trkpt lat="45.77050190227622" lon="9.741471470588511"><ele>826.0</ele><time>2026-04-12T09:51:10.001Z</time></trkpt><trkpt lat="45.77047472018418" lon="9.74160983984212"><ele>831.0</ele><time>2026-04-12T09:51:11.001Z</time></trkpt><trkpt lat="45.77047198793168" lon="9.741781356793458"><ele>832.4</ele><time>2026-04-12T09:51:12.001Z</time></trkpt><trkpt lat="45.770448717443315" lon="9.741931896171847"><ele>833.8</ele><time>2026-04-12T09:51:13.001Z</time></trkpt><trkpt lat="45.77039177649135" lon="9.742040551034707"><ele>835.1999999999999</ele><time>2026-04-12T09:51:14.001Z</time></trkpt><trkpt lat="45.77030706358123" lon="9.742125800549239"><ele>836.5999999999999</ele><time>2026-04-12T09:51:15.001Z</time></trkpt><trkpt lat="45.77021737964644" lon="9.74218174440249"><ele>838.0</ele><time>2026-04-12T09:51:16.001Z</time></trkpt><trkpt lat="45.77013439154842" lon="9.742237617869147"><ele>831.4999999999999</ele><time>2026-04-12T09:51:17.001Z</time></trkpt><trkpt lat="45.77007326661888" lon="9.74230497519942"><ele>825.0</ele><time>2026-04-12T09:51:18.001Z</time></trkpt><trkpt lat="45.77001748557135" lon="9.742389850575089"><ele>818.5</ele><time>2026-04-12T09:51:19.001Z</time></trkpt><trkpt lat="45.769978121811526" lon="9.742486143885973"><ele>812.0</ele><time>2026-04-12T09:51:20Z</time></trkpt><trkpt lat="45.769965934588534" lon="9.74261377564404"><ele>805.4999999999999</ele><time>2026-04-12T09:51:21Z</time></trkpt><trkpt lat="45.769987816097945" lon="9.742740875118017"><ele>799.0</ele><time>2026-04-12T09:51:22Z</time></trkpt><trkpt lat="45.77003148864151" lon="9.742853583125397"><ele>798.1666666666666</ele><time>2026-04-12T09:51:23Z</time></trkpt><trkpt lat="45.77009848177396" lon="9.742939652827616"><ele>797.3333333333333</ele><time>2026-04-12T09:51:24Z</time></trkpt><trkpt lat="45.77016139319522" lon="9.7429979871683"><ele>796.5</ele><time>2026-04-12T09:51:25Z</time></trkpt><trkpt lat="45.770207049408036" lon="9.743080221439099"><ele>795.6666666666667</ele><time>2026-04-12T09:51:26Z</time></trkpt><trkpt lat="45.7702648714983" lon="9.743151885216266"><ele>794.8333333333334</ele><time>2026-04-12T09:51:27Z</time></trkpt><trkpt lat="45.77033419213611" lon="9.743215994552127"><ele>794.0</ele><time>2026-04-12T09:51:28Z</time></trkpt><trkpt lat="45.77039913566866" lon="9.743304886498349"><ele>794.0</ele><time>2026-04-12T09:51:29Z</time></trkpt><trkpt lat="45.770452757139275" lon="9.743387376720655"><ele>794.0</ele><time>2026-04-12T09:51:30Z</time></trkpt><trkpt lat="45.77049521668427" lon="9.743455950511393"><ele>794.0</ele><time>2026-04-12T09:51:31Z</time></trkpt><trkpt lat="45.77055377142096" lon="9.743581574456805"><ele>794.0</ele><time>2026-04-12T09:51:33Z</time></trkpt><trkpt lat="45.77063019957615" lon="9.743660536954923"><ele>794.0</ele><time>2026-04-12T09:51:35Z</time></trkpt><trkpt lat="45.77071828255108" lon="9.743562721146303"><ele>798.6666666666667</ele><time>2026-04-12T09:51:37Z</time></trkpt><trkpt lat="45.77069773448863" lon="9.743476108342778"><ele>803.3333333333334</ele><time>2026-04-12T09:51:38Z</time></trkpt><trkpt lat="45.77062870526492" lon="9.743408892124146"><ele>808.0</ele><time>2026-04-12T09:51:39Z</time></trkpt><trkpt lat="45.77054942963" lon="9.743332225912262"><ele>812.6666666666667</ele><time>2026-04-12T09:51:40Z</time></trkpt><trkpt lat="45.770492837251574" lon="9.743216020179274"><ele>817.3333333333334</ele><time>2026-04-12T09:51:41Z</time></trkpt><trkpt lat="45.77044690198394" lon="9.743122842339115"><ele>822.0</ele><time>2026-04-12T09:51:42Z</time></trkpt><trkpt lat="45.77040947694399" lon="9.743038640820602"><ele>822.0</ele><time>2026-04-12T09:51:43Z</time></trkpt><trkpt lat="45.77036437076797" lon="9.742948617702101"><ele>822.0</ele><time>2026-04-12T09:51:44Z</time></trkpt><trkpt lat="45.77031693510474" lon="9.74285798117865"><ele>822.0</ele><time>2026-04-12T09:51:45Z</time></trkpt><trkpt lat="45.77028771180248" lon="9.742769249514382"><ele>822.0</ele><time>2026-04-12T09:51:46Z</time></trkpt><trkpt lat="45.77033805229858" lon="9.742623313431654"><ele>822.0</ele><time>2026-04-12T09:51:48Z</time></trkpt><trkpt lat="45.77040911644936" lon="9.74257638390926"><ele>822.0</ele><time>2026-04-12T09:51:49Z</time></trkpt><trkpt lat="45.7704848614636" lon="9.742530114855192"><ele>825.2</ele><time>2026-04-12T09:51:50Z</time></trkpt><trkpt lat="45.77056710772071" lon="9.742510994127727"><ele>828.4000000000001</ele><time>2026-04-12T09:51:51Z</time></trkpt><trkpt lat="45.77063187976509" lon="9.742430820636425"><ele>831.5999999999999</ele><time>2026-04-12T09:51:52Z</time></trkpt><trkpt lat="45.77069886046979" lon="9.742348704159497"><ele>834.8</ele><time>2026-04-12T09:51:53Z</time></trkpt><trkpt lat="45.77075951881184" lon="9.742242561709038"><ele>838.0</ele><time>2026-04-12T09:51:54Z</time></trkpt><trkpt lat="45.7708149128444" lon="9.742107415560202"><ele>838.0</ele><time>2026-04-12T09:51:55Z</time></trkpt><trkpt lat="45.770819540205345" lon="9.741937980092796"><ele>838.0</ele><time>2026-04-12T09:51:56Z</time></trkpt><trkpt lat="45.77083164802076" lon="9.741766643094193"><ele>838.0</ele><time>2026-04-12T09:51:57Z</time></trkpt><trkpt lat="45.77084885275503" lon="9.741619003407465"><ele>838.0</ele><time>2026-04-12T09:51:58Z</time></trkpt><trkpt lat="45.77089519877161" lon="9.741487210400695"><ele>838.0</ele><time>2026-04-12T09:51:59Z</time></trkpt><trkpt lat="45.77092565566393" lon="9.741347846259576"><ele>836.25</ele><time>2026-04-12T09:52:00Z</time></trkpt><trkpt lat="45.77097772693244" lon="9.741228643316477"><ele>834.5</ele><time>2026-04-12T09:52:01Z</time></trkpt><trkpt lat="45.77103910303597" lon="9.74111503463811"><ele>832.75</ele><time>2026-04-12T09:52:02Z</time></trkpt><trkpt lat="45.771118755273044" lon="9.741004214067381"><ele>831.0</ele><time>2026-04-12T09:52:03Z</time></trkpt><trkpt lat="45.77512035157755" lon="9.741048895322995"><ele>844.6666666666667</ele><time>2026-04-12T09:53:04.001Z</time></trkpt><trkpt lat="45.77522969921199" lon="9.740870513198491"><ele>858.3333333333334</ele><time>2026-04-12T09:53:05.001Z</time></trkpt><trkpt lat="45.77533033945451" lon="9.740668161282692"><ele>872.0</ele><time>2026-04-12T09:53:06.001Z</time></trkpt><trkpt lat="45.77542567061502" lon="9.74048442409179"><ele>872.0</ele><time>2026-04-12T09:53:07.001Z</time></trkpt><trkpt lat="45.775507795877715" lon="9.740363585507618"><ele>872.0</ele><time>2026-04-12T09:53:08.001Z</time></trkpt><trkpt lat="45.775610569647135" lon="9.740270294912401"><ele>872.0</ele><time>2026-04-12T09:53:09.001Z</time></trkpt><trkpt lat="45.775748603136584" lon="9.740231634172861"><ele>872.0</ele><time>2026-04-12T09:53:10.001Z</time></trkpt><trkpt lat="45.77590999407737" lon="9.740169339612125"><ele>881.6666666666667</ele><time>2026-04-12T09:53:11.001Z</time></trkpt><trkpt lat="45.77608513704956" lon="9.740059192020828"><ele>891.3333333333333</ele><time>2026-04-12T09:53:12.001Z</time></trkpt><trkpt lat="45.77622229670922" lon="9.739896765054864"><ele>901.0</ele><time>2026-04-12T09:53:13.001Z</time></trkpt><trkpt lat="45.7763497126966" lon="9.739736106597354"><ele>901.0</ele><time>2026-04-12T09:53:14.001Z</time></trkpt><trkpt lat="45.7764495750924" lon="9.739627243034086"><ele>901.0</ele><time>2026-04-12T09:53:15.001Z</time></trkpt><trkpt lat="45.7765663917088" lon="9.73960379271237"><ele>901.0</ele><time>2026-04-12T09:53:16.001Z</time></trkpt><trkpt lat="45.77671061955971" lon="9.739650331533882"><ele>901.0</ele><time>2026-04-12T09:53:17.001Z</time></trkpt><trkpt lat="45.776862844093685" lon="9.739698952715392"><ele>906.1999999999999</ele><time>2026-04-12T09:53:18.001Z</time></trkpt><trkpt lat="45.77698649858877" lon="9.739746407519036"><ele>911.3999999999999</ele><time>2026-04-12T09:53:19.001Z</time></trkpt><trkpt lat="45.77706565436787" lon="9.739813879172685"><ele>916.6</ele><time>2026-04-12T09:53:20.001Z</time></trkpt><trkpt lat="45.77712302525746" lon="9.739934585011692"><ele>921.8</ele><time>2026-04-12T09:53:21.001Z</time></trkpt><trkpt lat="45.77712672903261" lon="9.740108782664896"><ele>927.0</ele><time>2026-04-12T09:53:22.001Z</time></trkpt><trkpt lat="45.77708120087329" lon="9.740305030850502"><ele>927.0</ele><time>2026-04-12T09:53:23.001Z</time></trkpt><trkpt lat="45.77703341370305" lon="9.74053712959576"><ele>927.0</ele><time>2026-04-12T09:53:24.001Z</time></trkpt><trkpt lat="45.77700042089332" lon="9.740808080146783"><ele>927.0</ele><time>2026-04-12T09:53:25.001Z</time></trkpt><trkpt lat="45.776984980156044" lon="9.74109088622953"><ele>925.3333333333333</ele><time>2026-04-12T09:53:26Z</time></trkpt><trkpt lat="45.77698530541927" lon="9.741357777620548"><ele>923.6666666666666</ele><time>2026-04-12T09:53:27Z</time></trkpt><trkpt lat="45.77699609654891" lon="9.741585038646273"><ele>922.0</ele><time>2026-04-12T09:53:28Z</time></trkpt><trkpt lat="45.777045659166994" lon="9.741799925473343"><ele>921.0</ele><time>2026-04-12T09:53:29Z</time></trkpt><trkpt lat="45.77713251548678" lon="9.742014308859071"><ele>920.0</ele><time>2026-04-12T09:53:30Z</time></trkpt><trkpt lat="45.777205923034025" lon="9.742216857126015"><ele>919.0</ele><time>2026-04-12T09:53:31Z</time></trkpt><trkpt lat="45.77724131015145" lon="9.742418992895585"><ele>919.0</ele><time>2026-04-12T09:53:32Z</time></trkpt><trkpt lat="45.7772202656606" lon="9.742632513905152"><ele>919.0</ele><time>2026-04-12T09:53:33Z</time></trkpt><trkpt lat="45.777214985736414" lon="9.742829965159052"><ele>919.0</ele><time>2026-04-12T09:53:34Z</time></trkpt><trkpt lat="45.77719307185506" lon="9.742985482754516"><ele>919.0</ele><time>2026-04-12T09:53:35Z</time></trkpt><trkpt lat="45.777195428504676" lon="9.743122680629549"><ele>916.6</ele><time>2026-04-12T09:53:36Z</time></trkpt><trkpt lat="45.77721602160107" lon="9.743261423073452"><ele>914.2</ele><time>2026-04-12T09:53:37Z</time></trkpt><trkpt lat="45.77731739727201" lon="9.743357012303662"><ele>911.8000000000001</ele><time>2026-04-12T09:53:38Z</time></trkpt><trkpt lat="45.77740392006948" lon="9.743417575882082"><ele>909.4000000000001</ele><time>2026-04-12T09:53:39Z</time></trkpt><trkpt lat="45.77748957245525" lon="9.743475722532489"><ele>907.0</ele><time>2026-04-12T09:53:40Z</time></trkpt><trkpt lat="45.777583329228214" lon="9.743539405377598"><ele>908.4000000000001</ele><time>2026-04-12T09:53:41Z</time></trkpt><trkpt lat="45.777673128718405" lon="9.743604105208016"><ele>909.8000000000001</ele><time>2026-04-12T09:53:42Z</time></trkpt><trkpt lat="45.77776136448908" lon="9.743648897165494"><ele>911.2</ele><time>2026-04-12T09:53:43Z</time></trkpt><trkpt lat="45.777853539468026" lon="9.74368031044863"><ele>912.6</ele><time>2026-04-12T09:53:44Z</time></trkpt><trkpt lat="45.777959467531026" lon="9.743698773663374"><ele>914.0</ele><time>2026-04-12T09:53:45Z</time></trkpt><trkpt lat="45.77806884643665" lon="9.743700604137473"><ele>914.0</ele><time>2026-04-12T09:53:46Z</time></trkpt><trkpt lat="45.778178983360505" lon="9.743700792824871"><ele>914.0000000000001</ele><time>2026-04-12T09:53:47Z</time></trkpt><trkpt lat="45.77828717290375" lon="9.74369882308736"><ele>914.0000000000001</ele><time>2026-04-12T09:53:48Z</time></trkpt><trkpt lat="45.778392456010806" lon="9.743696906264697"><ele>914.0</ele><time>2026-04-12T09:53:49Z</time></trkpt><trkpt lat="45.77849207590593" lon="9.743690546179131"><ele>914.0</ele><time>2026-04-12T09:53:50Z</time></trkpt><trkpt lat="45.778572338961226" lon="9.743687919613441"><ele>915.3333333333334</ele><time>2026-04-12T09:53:51Z</time></trkpt><trkpt lat="45.77865996527997" lon="9.743685780136065"><ele>916.6666666666667</ele><time>2026-04-12T09:53:52Z</time></trkpt><trkpt lat="45.7787351014504" lon="9.743758253554052"><ele>918.0</ele><time>2026-04-12T09:53:53Z</time></trkpt><trkpt lat="45.77879330245505" lon="9.743819318973163"><ele>919.3333333333333</ele><time>2026-04-12T09:53:54Z</time></trkpt><trkpt lat="45.77885697252815" lon="9.74390427135133"><ele>920.6666666666666</ele><time>2026-04-12T09:53:56Z</time></trkpt><trkpt lat="45.77893979168835" lon="9.743978459317752"><ele>922.0</ele><time>2026-04-12T09:54:00Z</time></trkpt><trkpt lat="45.77898900044871" lon="9.74412992482692"><ele>916.0</ele><time>2026-04-12T09:54:02Z</time></trkpt><trkpt lat="45.78294457201179" lon="9.746127509116082"><ele>916.0</ele><time>2026-04-12T09:55:04.001Z</time></trkpt><trkpt lat="45.78304919633966" lon="9.746205284528765"><ele>915.9999999999999</ele><time>2026-04-12T09:55:05.001Z</time></trkpt><trkpt lat="45.783134115228485" lon="9.746320232849426"><ele>915.9999999999999</ele><time>2026-04-12T09:55:06.001Z</time></trkpt><trkpt lat="45.783222921872245" lon="9.746402066203713"><ele>916.0</ele><time>2026-04-12T09:55:07.001Z</time></trkpt><trkpt lat="45.78331133835443" lon="9.74646785727315"><ele>916.0</ele><time>2026-04-12T09:55:08.001Z</time></trkpt><trkpt lat="45.78337831804764" lon="9.746555689681786"><ele>916.0</ele><time>2026-04-12T09:55:09.001Z</time></trkpt><trkpt lat="45.78345784359345" lon="9.746608274754236"><ele>915.9999999999999</ele><time>2026-04-12T09:55:10.001Z</time></trkpt><trkpt lat="45.78351908354068" lon="9.7466999162374"><ele>915.9999999999999</ele><time>2026-04-12T09:55:11.001Z</time></trkpt><trkpt lat="45.78358454570985" lon="9.74676717472396"><ele>916.0</ele><time>2026-04-12T09:55:12.001Z</time></trkpt><trkpt lat="45.783660480973225" lon="9.746845201946156"><ele>916.0</ele><time>2026-04-12T09:55:13.001Z</time></trkpt><trkpt lat="45.78374692641529" lon="9.746934026611617"><ele>917.0</ele><time>2026-04-12T09:55:14.001Z</time></trkpt><trkpt lat="45.78384796638676" lon="9.747037847086206"><ele>918.0</ele><time>2026-04-12T09:55:15.001Z</time></trkpt><trkpt lat="45.78396461623129" lon="9.747157514200504"><ele>919.0</ele><time>2026-04-12T09:55:16.001Z</time></trkpt><trkpt lat="45.78410373869293" lon="9.747271574974286"><ele>920.0</ele><time>2026-04-12T09:55:17.001Z</time></trkpt><trkpt lat="45.7842216325405" lon="9.74740049539792"><ele>920.0</ele><time>2026-04-12T09:55:18.001Z</time></trkpt><trkpt lat="45.784339748777604" lon="9.747514658902507"><ele>920.0</ele><time>2026-04-12T09:55:19.001Z</time></trkpt><trkpt lat="45.784459619760554" lon="9.747638642911056"><ele>920.0</ele><time>2026-04-12T09:55:20.001Z</time></trkpt><trkpt lat="45.78458035349695" lon="9.747755878850695"><ele>920.0</ele><time>2026-04-12T09:55:21.001Z</time></trkpt><trkpt lat="45.78469035299343" lon="9.747863841918667"><ele>918.3333333333334</ele><time>2026-04-12T09:55:22.001Z</time></trkpt><trkpt lat="45.78480159136489" lon="9.74799606507694"><ele>916.6666666666667</ele><time>2026-04-12T09:55:23.001Z</time></trkpt><trkpt lat="45.78490908712025" lon="9.748159277425243"><ele>915.0</ele><time>2026-04-12T09:55:24.001Z</time></trkpt><trkpt lat="45.785015296684804" lon="9.74832920157102"><ele>915.0</ele><time>2026-04-12T09:55:25.001Z</time></trkpt><trkpt lat="45.78511922347524" lon="9.748485578700329"><ele>915.0</ele><time>2026-04-12T09:55:26.001Z</time></trkpt><trkpt lat="45.78522689938183" lon="9.74863609487171"><ele>915.0</ele><time>2026-04-12T09:55:27.001Z</time></trkpt><trkpt lat="45.78533998942145" lon="9.748771801595437"><ele>915.0</ele><time>2026-04-12T09:55:28.001Z</time></trkpt><trkpt lat="45.785445317395045" lon="9.74889350374682"><ele>913.75</ele><time>2026-04-12T09:55:29.001Z</time></trkpt><trkpt lat="45.78556201146155" lon="9.74900437543627"><ele>912.5</ele><time>2026-04-12T09:55:30.001Z</time></trkpt><trkpt lat="45.78567404705468" lon="9.749111085008531"><ele>911.25</ele><time>2026-04-12T09:55:31.001Z</time></trkpt><trkpt lat="45.78578287418115" lon="9.749215843917195"><ele>910.0</ele><time>2026-04-12T09:55:31.999Z</time></trkpt><trkpt lat="45.785890555306864" lon="9.74933038360702"><ele>910.75</ele><time>2026-04-12T09:55:32.999Z</time></trkpt><trkpt lat="45.785996565023254" lon="9.749443616465808"><ele>911.5</ele><time>2026-04-12T09:55:33.999Z</time></trkpt><trkpt lat="45.78610084334592" lon="9.74956077397623"><ele>912.25</ele><time>2026-04-12T09:55:34.999Z</time></trkpt><trkpt lat="45.7862044078638" lon="9.749678775331198"><ele>913.0</ele><time>2026-04-12T09:55:35.999Z</time></trkpt><trkpt lat="45.78630268691895" lon="9.749791333920927"><ele>913.0</ele><time>2026-04-12T09:55:36.999Z</time></trkpt><trkpt lat="45.78640192595682" lon="9.749904659636595"><ele>913.0</ele><time>2026-04-12T09:55:37.999Z</time></trkpt><trkpt lat="45.78650173451945" lon="9.750012332452302"><ele>913.0</ele><time>2026-04-12T09:55:38.999Z</time></trkpt><trkpt lat="45.78660471485732" lon="9.750111689187026"><ele>913.0</ele><time>2026-04-12T09:55:39.999Z</time></trkpt><trkpt lat="45.78670954452721" lon="9.750196979649173"><ele>914.0</ele><time>2026-04-12T09:55:40.999Z</time></trkpt><trkpt lat="45.78682270353335" lon="9.750272064238631"><ele>915.0</ele><time>2026-04-12T09:55:41.999Z</time></trkpt><trkpt lat="45.78693955314155" lon="9.750343932343014"><ele>916.0</ele><time>2026-04-12T09:55:42.999Z</time></trkpt><trkpt lat="45.787058341641796" lon="9.750424880203807"><ele>917.0</ele><time>2026-04-12T09:55:43.999Z</time></trkpt><trkpt lat="45.787180378560635" lon="9.750507895013142"><ele>917.0</ele><time>2026-04-12T09:55:44.999Z</time></trkpt><trkpt lat="45.78730876510884" lon="9.750583913357938"><ele>917.0</ele><time>2026-04-12T09:55:45.999Z</time></trkpt><trkpt lat="45.78743920360338" lon="9.750666770237371"><ele>917.0</ele><time>2026-04-12T09:55:46.999Z</time></trkpt><trkpt lat="45.78755546638995" lon="9.750751521543243"><ele>917.0</ele><time>2026-04-12T09:55:47.999Z</time></trkpt><trkpt lat="45.78765994529361" lon="9.750847522729952"><ele>917.5</ele><time>2026-04-12T09:55:49Z</time></trkpt><trkpt lat="45.78776475062988" lon="9.750967869407248"><ele>918.0</ele><time>2026-04-12T09:55:50Z</time></trkpt><trkpt lat="45.78786975007977" lon="9.751106332169584"><ele>918.5</ele><time>2026-04-12T09:55:51Z</time></trkpt><trkpt lat="45.78798711318849" lon="9.751221978363784"><ele>919.0</ele><time>2026-04-12T09:55:52Z</time></trkpt><trkpt lat="45.78810339993728" lon="9.75128531363744"><ele>919.0</ele><time>2026-04-12T09:55:53Z</time></trkpt><trkpt lat="45.78821842166768" lon="9.751331755528202"><ele>919.0000000000001</ele><time>2026-04-12T09:55:54Z</time></trkpt><trkpt lat="45.78832893635391" lon="9.75128612010315"><ele>919.0000000000001</ele><time>2026-04-12T09:55:55Z</time></trkpt><trkpt lat="45.78843064023652" lon="9.75129194435971"><ele>919.0</ele><time>2026-04-12T09:55:56Z</time></trkpt><trkpt lat="45.78851677349101" lon="9.751362014902574"><ele>919.0</ele><time>2026-04-12T09:55:57Z</time></trkpt><trkpt lat="45.78858075618672" lon="9.75147817006075"><ele>916.25</ele><time>2026-04-12T09:55:58Z</time></trkpt><trkpt lat="45.78860930917754" lon="9.751626285021302"><ele>913.5</ele><time>2026-04-12T09:55:59Z</time></trkpt><trkpt lat="45.788614692076735" lon="9.751797141505657"><ele>910.75</ele><time>2026-04-12T09:56:00Z</time></trkpt><trkpt lat="45.78861592367666" lon="9.751969427609392"><ele>908.0</ele><time>2026-04-12T09:56:01Z</time></trkpt><trkpt lat="45.788630472099356" lon="9.752121116310661"><ele>908.0</ele><time>2026-04-12T09:56:02Z</time></trkpt><trkpt lat="45.78865016877607" lon="9.752254031934863"><ele>908.0</ele><time>2026-04-12T09:56:03Z</time></trkpt><trkpt lat="45.78893237274623" lon="9.754962638185471"><ele>909.6666666666667</ele><time>2026-04-12T09:57:04.001Z</time></trkpt><trkpt lat="45.78893175250813" lon="9.755070147587368"><ele>911.3333333333334</ele><time>2026-04-12T09:57:06.001Z</time></trkpt><trkpt lat="45.788936542930664" lon="9.755165209579854"><ele>913.0</ele><time>2026-04-12T09:57:08.001Z</time></trkpt><trkpt lat="45.788820075432525" lon="9.755209784769981"><ele>914.6666666666667</ele><time>2026-04-12T09:57:09.001Z</time></trkpt><trkpt lat="45.788748903893" lon="9.75525529450805"><ele>916.3333333333334</ele><time>2026-04-12T09:57:10.001Z</time></trkpt><trkpt lat="45.78866769478469" lon="9.755300315504106"><ele>918.0</ele><time>2026-04-12T09:57:11.001Z</time></trkpt><trkpt lat="45.7885818362248" lon="9.75534830714881"><ele>920.2</ele><time>2026-04-12T09:57:12.001Z</time></trkpt><trkpt lat="45.78849354936071" lon="9.755400375001837"><ele>922.4</ele><time>2026-04-12T09:57:13.001Z</time></trkpt><trkpt lat="45.788401782368" lon="9.755455429729269"><ele>924.6000000000001</ele><time>2026-04-12T09:57:14.001Z</time></trkpt><trkpt lat="45.788309462400164" lon="9.755512417666363"><ele>926.8000000000001</ele><time>2026-04-12T09:57:15.001Z</time></trkpt><trkpt lat="45.78821423301066" lon="9.755571519785637"><ele>929.0</ele><time>2026-04-12T09:57:16.001Z</time></trkpt><trkpt lat="45.788122479655755" lon="9.755624017799136"><ele>929.0</ele><time>2026-04-12T09:57:17.001Z</time></trkpt><trkpt lat="45.78803377019027" lon="9.755679722648207"><ele>929.0000000000001</ele><time>2026-04-12T09:57:18.001Z</time></trkpt><trkpt lat="45.78794747312492" lon="9.755734036725656"><ele>929.0000000000001</ele><time>2026-04-12T09:57:19.001Z</time></trkpt><trkpt lat="45.78786575983071" lon="9.755788357768695"><ele>929.0</ele><time>2026-04-12T09:57:20.001Z</time></trkpt><trkpt lat="45.78778477304031" lon="9.755840268356657"><ele>929.0</ele><time>2026-04-12T09:57:21.001Z</time></trkpt><trkpt lat="45.78770298344307" lon="9.755887012884125"><ele>930.5000000000001</ele><time>2026-04-12T09:57:22.001Z</time></trkpt><trkpt lat="45.78762287628732" lon="9.755938384833327"><ele>932.0</ele><time>2026-04-12T09:57:23.001Z</time></trkpt><trkpt lat="45.787537999309365" lon="9.755983487291354"><ele>933.5</ele><time>2026-04-12T09:57:24.001Z</time></trkpt><trkpt lat="45.78745660801213" lon="9.756022757750795"><ele>935.0</ele><time>2026-04-12T09:57:25.001Z</time></trkpt><trkpt lat="45.78737628386465" lon="9.756056489403381"><ele>936.5000000000001</ele><time>2026-04-12T09:57:26.001Z</time></trkpt><trkpt lat="45.78729458720349" lon="9.75607798655259"><ele>938.0</ele><time>2026-04-12T09:57:27.001Z</time></trkpt><trkpt lat="45.78721244023843" lon="9.75608275477192"><ele>938.3333333333334</ele><time>2026-04-12T09:57:28.001Z</time></trkpt><trkpt lat="45.78712756648672" lon="9.75608459496167"><ele>938.6666666666667</ele><time>2026-04-12T09:57:29.001Z</time></trkpt><trkpt lat="45.787038100237936" lon="9.756089980841772"><ele>939.0</ele><time>2026-04-12T09:57:30.001Z</time></trkpt><trkpt lat="45.78694531946846" lon="9.75609840657698"><ele>939.3333333333333</ele><time>2026-04-12T09:57:31.001Z</time></trkpt><trkpt lat="45.7868555696868" lon="9.756116917903933"><ele>939.6666666666666</ele><time>2026-04-12T09:57:32.001Z</time></trkpt><trkpt lat="45.78677762848711" lon="9.756139813526602"><ele>940.0</ele><time>2026-04-12T09:57:33.001Z</time></trkpt><trkpt lat="45.78671049487818" lon="9.756238104523757"><ele>940.9999999999999</ele><time>2026-04-12T09:57:34.001Z</time></trkpt><trkpt lat="45.7866452618719" lon="9.756321035955521"><ele>942.0</ele><time>2026-04-12T09:57:35.001Z</time></trkpt><trkpt lat="45.78656070104" lon="9.75636903487361"><ele>943.0</ele><time>2026-04-12T09:57:36.001Z</time></trkpt><trkpt lat="45.786497902989176" lon="9.756437714376942"><ele>944.0</ele><time>2026-04-12T09:57:37.001Z</time></trkpt><trkpt lat="45.78643138188281" lon="9.756516883220204"><ele>944.9999999999999</ele><time>2026-04-12T09:57:38Z</time></trkpt><trkpt lat="45.786383967892114" lon="9.756621833644024"><ele>946.0</ele><time>2026-04-12T09:57:39Z</time></trkpt><trkpt lat="45.7863528166258" lon="9.756745381473543"><ele>945.9999999999999</ele><time>2026-04-12T09:57:40Z</time></trkpt><trkpt lat="45.78633600670597" lon="9.756859646000722"><ele>946.0</ele><time>2026-04-12T09:57:41Z</time></trkpt><trkpt lat="45.78632362624772" lon="9.75697393125759"><ele>946.0</ele><time>2026-04-12T09:57:42Z</time></trkpt><trkpt lat="45.78630617923832" lon="9.75708333641022"><ele>946.0</ele><time>2026-04-12T09:57:43Z</time></trkpt><trkpt lat="45.7862910190102" lon="9.757179949134269"><ele>945.9999999999999</ele><time>2026-04-12T09:57:44Z</time></trkpt><trkpt lat="45.7862622264984" lon="9.757309672056074"><ele>946.0</ele><time>2026-04-12T09:57:46Z</time></trkpt><trkpt lat="45.78627454959678" lon="9.757506845019233"><ele>947.4</ele><time>2026-04-12T09:57:48Z</time></trkpt><trkpt lat="45.78632621604832" lon="9.757597668845042"><ele>948.8</ele><time>2026-04-12T09:57:49Z</time></trkpt><trkpt lat="45.786365377355416" lon="9.757668934719476"><ele>950.1999999999999</ele><time>2026-04-12T09:57:50Z</time></trkpt><trkpt lat="45.786412434049794" lon="9.757805146028515"><ele>951.5999999999999</ele><time>2026-04-12T09:57:52Z</time></trkpt><trkpt lat="45.786442180723725" lon="9.757895462539503"><ele>953.0</ele><time>2026-04-12T09:57:55Z</time></trkpt><trkpt lat="45.79122871716262" lon="9.753871961126226"><ele>943.0</ele><time>2026-04-12T10:01:04Z</time></trkpt><trkpt lat="45.79130647110028" lon="9.753704871391445"><ele>933.0</ele><time>2026-04-12T10:01:05Z</time></trkpt><trkpt lat="45.791393650013376" lon="9.753548274511845"><ele>923.0</ele><time>2026-04-12T10:01:06Z</time></trkpt><trkpt lat="45.791475926764406" lon="9.753400980918423"><ele>913.0</ele><time>2026-04-12T10:01:07Z</time></trkpt><trkpt lat="45.791562778086515" lon="9.753272606814381"><ele>912.5</ele><time>2026-04-12T10:01:08Z</time></trkpt><trkpt lat="45.79166138291552" lon="9.753180793724773"><ele>912.0</ele><time>2026-04-12T10:01:09Z</time></trkpt><trkpt lat="45.79176506301895" lon="9.753096902980404"><ele>911.5</ele><time>2026-04-12T10:01:10Z</time></trkpt><trkpt lat="45.791875607995244" lon="9.753055264761528"><ele>911.0</ele><time>2026-04-12T10:01:11Z</time></trkpt><trkpt lat="45.79199926128473" lon="9.753050667585265"><ele>909.25</ele><time>2026-04-12T10:01:12Z</time></trkpt><trkpt lat="45.79213392770285" lon="9.753077766516334"><ele>907.5</ele><time>2026-04-12T10:01:13Z</time></trkpt><trkpt lat="45.7922566369844" lon="9.75313761276521"><ele>905.75</ele><time>2026-04-12T10:01:14Z</time></trkpt><trkpt lat="45.792356765684325" lon="9.75324454242748"><ele>904.0</ele><time>2026-04-12T10:01:15Z</time></trkpt><trkpt lat="45.79241131567076" lon="9.753383951402899"><ele>902.75</ele><time>2026-04-12T10:01:16Z</time></trkpt><trkpt lat="45.79241453088621" lon="9.753539368298418"><ele>901.5</ele><time>2026-04-12T10:01:17.001Z</time></trkpt><trkpt lat="45.79240920932743" lon="9.753710711875677"><ele>900.25</ele><time>2026-04-12T10:01:18.001Z</time></trkpt><trkpt lat="45.79236876876574" lon="9.753886357553549"><ele>899.0</ele><time>2026-04-12T10:01:19.001Z</time></trkpt><trkpt lat="45.79230250134375" lon="9.754069087127295"><ele>899.0</ele><time>2026-04-12T10:01:20.001Z</time></trkpt><trkpt lat="45.79222733602292" lon="9.754254539301634"><ele>899.0</ele><time>2026-04-12T10:01:21.001Z</time></trkpt><trkpt lat="45.79216338322674" lon="9.754443744391219"><ele>899.0</ele><time>2026-04-12T10:01:22.001Z</time></trkpt><trkpt lat="45.79213161295626" lon="9.754634118750419"><ele>899.0</ele><time>2026-04-12T10:01:23.001Z</time></trkpt><trkpt lat="45.79213290206535" lon="9.75482369173327"><ele>898.0</ele><time>2026-04-12T10:01:24.001Z</time></trkpt><trkpt lat="45.79217454163389" lon="9.755006954172506"><ele>897.0</ele><time>2026-04-12T10:01:25.001Z</time></trkpt><trkpt lat="45.792222054730594" lon="9.755183220910345"><ele>896.0</ele><time>2026-04-12T10:01:26.001Z</time></trkpt><trkpt lat="45.792282531069056" lon="9.755342122028463"><ele>895.0</ele><time>2026-04-12T10:01:27.001Z</time></trkpt><trkpt lat="45.7923496770902" lon="9.755473169419764"><ele>894.6</ele><time>2026-04-12T10:01:28.001Z</time></trkpt><trkpt lat="45.792418657597025" lon="9.755572954682854"><ele>894.2</ele><time>2026-04-12T10:01:29.001Z</time></trkpt><trkpt lat="45.792488808405885" lon="9.755652104733006"><ele>893.8</ele><time>2026-04-12T10:01:30.001Z</time></trkpt><trkpt lat="45.79258582132746" lon="9.755625373315588"><ele>893.4</ele><time>2026-04-12T10:01:31.001Z</time></trkpt><trkpt lat="45.792673482181804" lon="9.755578661312322"><ele>893.0</ele><time>2026-04-12T10:01:32.001Z</time></trkpt><trkpt lat="45.79277771850898" lon="9.755512039271396"><ele>893.0</ele><time>2026-04-12T10:01:33.001Z</time></trkpt><trkpt lat="45.79290053150952" lon="9.755460858062696"><ele>893.0</ele><time>2026-04-12T10:01:34.001Z</time></trkpt><trkpt lat="45.793043985190124" lon="9.755419403469492"><ele>893.0</ele><time>2026-04-12T10:01:35.001Z</time></trkpt><trkpt lat="45.793208542038315" lon="9.755396265988773"><ele>893.0</ele><time>2026-04-12T10:01:36.001Z</time></trkpt><trkpt lat="45.79339407139013" lon="9.755388054108634"><ele>891.0</ele><time>2026-04-12T10:01:37.001Z</time></trkpt><trkpt lat="45.793577494919774" lon="9.755389383322209"><ele>889.0</ele><time>2026-04-12T10:01:38.001Z</time></trkpt><trkpt lat="45.793764283701236" lon="9.755426567217368"><ele>887.0</ele><time>2026-04-12T10:01:39.001Z</time></trkpt><trkpt lat="45.793956011062576" lon="9.755417211104502"><ele>887.0</ele><time>2026-04-12T10:01:40.001Z</time></trkpt><trkpt lat="45.79412904012732" lon="9.755431648831502"><ele>887.0</ele><time>2026-04-12T10:01:41.001Z</time></trkpt><trkpt lat="45.79429424125919" lon="9.755455041265717"><ele>887.0</ele><time>2026-04-12T10:01:42.001Z</time></trkpt><trkpt lat="45.79444951568606" lon="9.755534104398317"><ele>885.6666666666667</ele><time>2026-04-12T10:01:43.001Z</time></trkpt><trkpt lat="45.79461289031776" lon="9.755623805821248"><ele>884.3333333333333</ele><time>2026-04-12T10:01:44.001Z</time></trkpt><trkpt lat="45.79478518370939" lon="9.755725130457488"><ele>883.0</ele><time>2026-04-12T10:01:45.001Z</time></trkpt><trkpt lat="45.79496219723898" lon="9.755829168658146"><ele>883.0</ele><time>2026-04-12T10:01:46.001Z</time></trkpt><trkpt lat="45.7951288718758" lon="9.755907359759139"><ele>883.0</ele><time>2026-04-12T10:01:47.001Z</time></trkpt><trkpt lat="45.79527249075239" lon="9.755992691990665"><ele>883.0</ele><time>2026-04-12T10:01:48.001Z</time></trkpt><trkpt lat="45.79538650030285" lon="9.756097628162758"><ele>881.75</ele><time>2026-04-12T10:01:49.001Z</time></trkpt><trkpt lat="45.795492820083155" lon="9.756195373427518"><ele>880.5</ele><time>2026-04-12T10:01:50Z</time></trkpt><trkpt lat="45.795593654361674" lon="9.756316581826876"><ele>879.25</ele><time>2026-04-12T10:01:51Z</time></trkpt><trkpt lat="45.795703763692266" lon="9.756465375355981"><ele>878.0</ele><time>2026-04-12T10:01:52Z</time></trkpt><trkpt lat="45.79582801058499" lon="9.756635876427126"><ele>878.0</ele><time>2026-04-12T10:01:53Z</time></trkpt><trkpt lat="45.795961579800505" lon="9.75680781366264"><ele>878.0</ele><time>2026-04-12T10:01:54Z</time></trkpt><trkpt lat="45.796099620361524" lon="9.756946022684948"><ele>878.0</ele><time>2026-04-12T10:01:55Z</time></trkpt><trkpt lat="45.796199739175876" lon="9.757072995450343"><ele>876.0000000000001</ele><time>2026-04-12T10:01:56Z</time></trkpt><trkpt lat="45.79627785408787" lon="9.757168703496461"><ele>874.0</ele><time>2026-04-12T10:01:57Z</time></trkpt><trkpt lat="45.79634990524871" lon="9.757249034715453"><ele>872.0</ele><time>2026-04-12T10:01:58Z</time></trkpt><trkpt lat="45.79642018132741" lon="9.757269560527929"><ele>870.0</ele><time>2026-04-12T10:01:59Z</time></trkpt><trkpt lat="45.79649044520354" lon="9.757210542739763"><ele>868.0000000000001</ele><time>2026-04-12T10:02:00Z</time></trkpt><trkpt lat="45.796516726195065" lon="9.757076414118327"><ele>866.0</ele><time>2026-04-12T10:02:01Z</time></trkpt><trkpt lat="45.79650077749987" lon="9.756937330480444"><ele>862.5</ele><time>2026-04-12T10:02:02Z</time></trkpt><trkpt lat="45.79643979085522" lon="9.756803483314693"><ele>859.0</ele><time>2026-04-12T10:02:03Z</time></trkpt><trkpt lat="45.79360091374357" lon="9.749596745261826"><ele>845.3333333333333</ele><time>2026-04-12T10:03:04.001Z</time></trkpt><trkpt lat="45.7937388530965" lon="9.749727373565642"><ele>831.6666666666667</ele><time>2026-04-12T10:03:05.001Z</time></trkpt><trkpt lat="45.79386657746508" lon="9.749882536405385"><ele>818.0</ele><time>2026-04-12T10:03:06.001Z</time></trkpt><trkpt lat="45.79398183054386" lon="9.75005869886217"><ele>824.0</ele><time>2026-04-12T10:03:07.001Z</time></trkpt><trkpt lat="45.79408597722969" lon="9.750277644186918"><ele>830.0</ele><time>2026-04-12T10:03:08.001Z</time></trkpt><trkpt lat="45.794187514180386" lon="9.750503464100804"><ele>836.0</ele><time>2026-04-12T10:03:09.001Z</time></trkpt><trkpt lat="45.794285685058604" lon="9.750704389808114"><ele>831.6666666666667</ele><time>2026-04-12T10:03:10.001Z</time></trkpt><trkpt lat="45.79437993856643" lon="9.75087283843007"><ele>827.3333333333333</ele><time>2026-04-12T10:03:11.001Z</time></trkpt><trkpt lat="45.794498630498566" lon="9.75100398100216"><ele>823.0</ele><time>2026-04-12T10:03:12.001Z</time></trkpt><trkpt lat="45.79464995319593" lon="9.751108738077257"><ele>823.0</ele><time>2026-04-12T10:03:13.001Z</time></trkpt><trkpt lat="45.79478644790933" lon="9.75122360147505"><ele>823.0</ele><time>2026-04-12T10:03:14.001Z</time></trkpt><trkpt lat="45.794914939215936" lon="9.75130926693228"><ele>823.0</ele><time>2026-04-12T10:03:15.001Z</time></trkpt><trkpt lat="45.79506847408415" lon="9.751338971136022"><ele>822.0</ele><time>2026-04-12T10:03:16.001Z</time></trkpt><trkpt lat="45.79523108591076" lon="9.751314423366011"><ele>821.0</ele><time>2026-04-12T10:03:17.001Z</time></trkpt><trkpt lat="45.79540380108833" lon="9.751319996280666"><ele>820.0</ele><time>2026-04-12T10:03:18.001Z</time></trkpt><trkpt lat="45.79557059640945" lon="9.751330259121563"><ele>820.0</ele><time>2026-04-12T10:03:19.001Z</time></trkpt><trkpt lat="45.79572529093136" lon="9.75137711013431"><ele>820.0</ele><time>2026-04-12T10:03:20.001Z</time></trkpt><trkpt lat="45.79586463193671" lon="9.751443002520224"><ele>820.0</ele><time>2026-04-12T10:03:21.001Z</time></trkpt><trkpt lat="45.79598877495508" lon="9.751525738861835"><ele>820.0</ele><time>2026-04-12T10:03:22.001Z</time></trkpt><trkpt lat="45.796098570812624" lon="9.751631095923639"><ele>817.0</ele><time>2026-04-12T10:03:23.001Z</time></trkpt><trkpt lat="45.796212658636605" lon="9.751742572247647"><ele>814.0</ele><time>2026-04-12T10:03:24.001Z</time></trkpt><trkpt lat="45.796290580247906" lon="9.751911109920062"><ele>811.0</ele><time>2026-04-12T10:03:25.001Z</time></trkpt><trkpt lat="45.79637089966389" lon="9.752080747509174"><ele>808.0</ele><time>2026-04-12T10:03:26.001Z</time></trkpt><trkpt lat="45.79645522457825" lon="9.752266348126144"><ele>808.0</ele><time>2026-04-12T10:03:27.001Z</time></trkpt><trkpt lat="45.79655591137988" lon="9.752444720395856"><ele>808.0</ele><time>2026-04-12T10:03:28.001Z</time></trkpt><trkpt lat="45.79663378324483" lon="9.752657845179467"><ele>808.0</ele><time>2026-04-12T10:03:29.001Z</time></trkpt><trkpt lat="45.796720290244565" lon="9.7528560643634"><ele>811.3333333333333</ele><time>2026-04-12T10:03:30.001Z</time></trkpt><trkpt lat="45.796810718997726" lon="9.753065508072458"><ele>814.6666666666667</ele><time>2026-04-12T10:03:31.001Z</time></trkpt><trkpt lat="45.79690319742305" lon="9.753281219743887"><ele>818.0</ele><time>2026-04-12T10:03:32.001Z</time></trkpt><trkpt lat="45.79701201861857" lon="9.753499376234153"><ele>810.3333333333334</ele><time>2026-04-12T10:03:33.001Z</time></trkpt><trkpt lat="45.79710199050023" lon="9.753719442030835"><ele>802.6666666666667</ele><time>2026-04-12T10:03:34.001Z</time></trkpt><trkpt lat="45.79717190137778" lon="9.753928378547611"><ele>795.0</ele><time>2026-04-12T10:03:35.001Z</time></trkpt><trkpt lat="45.79725560958702" lon="9.754101932157868"><ele>795.0</ele><time>2026-04-12T10:03:36.001Z</time></trkpt><trkpt lat="45.797306130513746" lon="9.754276978939588"><ele>795.0</ele><time>2026-04-12T10:03:37.001Z</time></trkpt><trkpt lat="45.79733528789286" lon="9.754456953036408"><ele>795.0</ele><time>2026-04-12T10:03:38.001Z</time></trkpt><trkpt lat="45.797354697046714" lon="9.754604983207576"><ele>795.0</ele><time>2026-04-12T10:03:39.001Z</time></trkpt><trkpt lat="45.79738356530291" lon="9.754729982396373"><ele>796.8</ele><time>2026-04-12T10:03:40.001Z</time></trkpt><trkpt lat="45.79743737049906" lon="9.754804882843459"><ele>798.6</ele><time>2026-04-12T10:03:41.001Z</time></trkpt><trkpt lat="45.7975293901612" lon="9.7547609469952"><ele>800.4000000000001</ele><time>2026-04-12T10:03:42.001Z</time></trkpt><trkpt lat="45.797590623915085" lon="9.754727569913538"><ele>802.2</ele><time>2026-04-12T10:03:43.001Z</time></trkpt><trkpt lat="45.797545699035055" lon="9.75452900679947"><ele>804.0</ele><time>2026-04-12T10:03:44.001Z</time></trkpt><trkpt lat="45.79752064503026" lon="9.754402393603563"><ele>801.75</ele><time>2026-04-12T10:03:45.001Z</time></trkpt><trkpt lat="45.79747985547555" lon="9.754244900942949"><ele>799.5</ele><time>2026-04-12T10:03:46.001Z</time></trkpt><trkpt lat="45.797444725110836" lon="9.754055213221045"><ele>797.25</ele><time>2026-04-12T10:03:47.001Z</time></trkpt><trkpt lat="45.797412708438806" lon="9.753826703065258"><ele>795.0</ele><time>2026-04-12T10:03:48.001Z</time></trkpt><trkpt lat="45.797383555270784" lon="9.75357585439976"><ele>793.3333333333333</ele><time>2026-04-12T10:03:49.001Z</time></trkpt><trkpt lat="45.797354649116315" lon="9.753301736679552"><ele>791.6666666666666</ele><time>2026-04-12T10:03:50.001Z</time></trkpt><trkpt lat="45.79732840622144" lon="9.753039530873108"><ele>790.0</ele><time>2026-04-12T10:03:51.002Z</time></trkpt><trkpt lat="45.79729702592905" lon="9.752794881558756"><ele>785.0</ele><time>2026-04-12T10:03:52.002Z</time></trkpt><trkpt lat="45.79725066623816" lon="9.75256675048821"><ele>780.0</ele><time>2026-04-12T10:03:53.002Z</time></trkpt><trkpt lat="45.79718259264892" lon="9.752359390783813"><ele>775.0</ele><time>2026-04-12T10:03:54.002Z</time></trkpt><trkpt lat="45.797098792390045" lon="9.752166560756772"><ele>775.0</ele><time>2026-04-12T10:03:55.002Z</time></trkpt><trkpt lat="45.797028726188756" lon="9.751983354398888"><ele>775.0</ele><time>2026-04-12T10:03:56.001Z</time></trkpt><trkpt lat="45.796981999119645" lon="9.751771516749969"><ele>775.0</ele><time>2026-04-12T10:03:57.001Z</time></trkpt><trkpt lat="45.79696115084357" lon="9.751527813604325"><ele>770.6666666666666</ele><time>2026-04-12T10:03:58.001Z</time></trkpt><trkpt lat="45.79695181969524" lon="9.751271752757857"><ele>766.3333333333333</ele><time>2026-04-12T10:03:59.001Z</time></trkpt><trkpt lat="45.796927821381935" lon="9.75104578858954"><ele>762.0</ele><time>2026-04-12T10:04:00.001Z</time></trkpt><trkpt lat="45.79688173735052" lon="9.750847312369732"><ele>768.0</ele><time>2026-04-12T10:04:01.001Z</time></trkpt><trkpt lat="45.79681653894826" lon="9.750675245368488"><ele>774.0</ele><time>2026-04-12T10:04:02.001Z</time></trkpt><trkpt lat="45.796712314215426" lon="9.750505499456088"><ele>780.0</ele><time>2026-04-12T10:04:03.001Z</time></trkpt><trkpt lat="45.79937145882734" lon="9.755308441997524"><ele>759.6666666666666</ele><time>2026-04-12T10:05:04.001Z</time></trkpt><trkpt lat="45.79937261983742" lon="9.755519326503606"><ele>739.3333333333333</ele><time>2026-04-12T10:05:05.001Z</time></trkpt><trkpt lat="45.799365143161594" lon="9.755747810707428"><ele>719.0</ele><time>2026-04-12T10:05:06.001Z</time></trkpt><trkpt lat="45.79933989176318" lon="9.75598673237808"><ele>724.6666666666666</ele><time>2026-04-12T10:05:07.001Z</time></trkpt><trkpt lat="45.79931609170255" lon="9.75624101891105"><ele>730.3333333333334</ele><time>2026-04-12T10:05:08.001Z</time></trkpt><trkpt lat="45.79929409825459" lon="9.756502960512144"><ele>736.0</ele><time>2026-04-12T10:05:09.001Z</time></trkpt><trkpt lat="45.79927613898134" lon="9.75677572115831"><ele>733.6666666666667</ele><time>2026-04-12T10:05:10.001Z</time></trkpt><trkpt lat="45.79926102471603" lon="9.757048739971763"><ele>731.3333333333334</ele><time>2026-04-12T10:05:11.001Z</time></trkpt><trkpt lat="45.7992459098154" lon="9.757300450146294"><ele>729.0</ele><time>2026-04-12T10:05:12.001Z</time></trkpt><trkpt lat="45.7992194434297" lon="9.75752853340584"><ele>728.6666666666666</ele><time>2026-04-12T10:05:13.001Z</time></trkpt><trkpt lat="45.79916819597243" lon="9.75774745488161"><ele>728.3333333333333</ele><time>2026-04-12T10:05:14.001Z</time></trkpt><trkpt lat="45.79910618729433" lon="9.757977034659397"><ele>728.0</ele><time>2026-04-12T10:05:15.001Z</time></trkpt><trkpt lat="45.79903311505216" lon="9.758205479141244"><ele>728.0</ele><time>2026-04-12T10:05:16.001Z</time></trkpt><trkpt lat="45.79896085092462" lon="9.75841248797419"><ele>728.0</ele><time>2026-04-12T10:05:17.001Z</time></trkpt><trkpt lat="45.79888824037843" lon="9.758597965078655"><ele>728.0</ele><time>2026-04-12T10:05:18.001Z</time></trkpt><trkpt lat="45.79882454552278" lon="9.758754629921452"><ele>728.0</ele><time>2026-04-12T10:05:19.001Z</time></trkpt><trkpt lat="45.798783634607034" lon="9.758895866545974"><ele>728.4</ele><time>2026-04-12T10:05:20.001Z</time></trkpt><trkpt lat="45.79874918386648" lon="9.759026311883169"><ele>728.8</ele><time>2026-04-12T10:05:21.001Z</time></trkpt><trkpt lat="45.798779438137906" lon="9.759166600097473"><ele>729.2</ele><time>2026-04-12T10:05:22.001Z</time></trkpt><trkpt lat="45.798894537633224" lon="9.759266392473497"><ele>729.6</ele><time>2026-04-12T10:05:23.001Z</time></trkpt><trkpt lat="45.798981373790326" lon="9.759341167432822"><ele>730.0</ele><time>2026-04-12T10:05:24.001Z</time></trkpt><trkpt lat="45.79907818866362" lon="9.759330418988846"><ele>730.0</ele><time>2026-04-12T10:05:25.001Z</time></trkpt><trkpt lat="45.799172348273714" lon="9.759277138585677"><ele>730.0</ele><time>2026-04-12T10:05:26.001Z</time></trkpt><trkpt lat="45.7992697653774" lon="9.759180772684653"><ele>730.0</ele><time>2026-04-12T10:05:27.001Z</time></trkpt><trkpt lat="45.79938574563227" lon="9.759086381640719"><ele>730.0</ele><time>2026-04-12T10:05:28.001Z</time></trkpt><trkpt lat="45.79952866428094" lon="9.759002347681003"><ele>733.3333333333334</ele><time>2026-04-12T10:05:29.001Z</time></trkpt><trkpt lat="45.7996886789949" lon="9.758903382674195"><ele>736.6666666666666</ele><time>2026-04-12T10:05:30.001Z</time></trkpt><trkpt lat="45.79986747484725" lon="9.758809055732033"><ele>740.0</ele><time>2026-04-12T10:05:31.001Z</time></trkpt><trkpt lat="45.800029696113626" lon="9.758684966062633"><ele>738.3333333333333</ele><time>2026-04-12T10:05:32.001Z</time></trkpt><trkpt lat="45.800208239948674" lon="9.758569112557916"><ele>736.6666666666666</ele><time>2026-04-12T10:05:33.001Z</time></trkpt><trkpt lat="45.80037891874306" lon="9.75841754388493"><ele>735.0</ele><time>2026-04-12T10:05:34.001Z</time></trkpt><trkpt lat="45.800546997040044" lon="9.758238538830739"><ele>735.0</ele><time>2026-04-12T10:05:35.001Z</time></trkpt><trkpt lat="45.80070915408178" lon="9.758037200726713"><ele>735.0</ele><time>2026-04-12T10:05:36.001Z</time></trkpt><trkpt lat="45.80085383346373" lon="9.757825457793237"><ele>735.0</ele><time>2026-04-12T10:05:37.001Z</time></trkpt><trkpt lat="45.80098977417093" lon="9.75759148109156"><ele>735.3333333333334</ele><time>2026-04-12T10:05:38.001Z</time></trkpt><trkpt lat="45.80111276961553" lon="9.757348073385835"><ele>735.6666666666667</ele><time>2026-04-12T10:05:39.001Z</time></trkpt><trkpt lat="45.80122631309869" lon="9.7570982777245"><ele>736.0</ele><time>2026-04-12T10:05:40.001Z</time></trkpt><trkpt lat="45.80133571762981" lon="9.756839570576991"><ele>730.6666666666667</ele><time>2026-04-12T10:05:41.001Z</time></trkpt><trkpt lat="45.80144128517956" lon="9.756572883251017"><ele>725.3333333333334</ele><time>2026-04-12T10:05:42.001Z</time></trkpt><trkpt lat="45.80154728715185" lon="9.756321086199968"><ele>720.0</ele><time>2026-04-12T10:05:43.001Z</time></trkpt><trkpt lat="45.80164875933391" lon="9.756082257241504"><ele>714.6666666666666</ele><time>2026-04-12T10:05:44.002Z</time></trkpt><trkpt lat="45.80174335327507" lon="9.755834419767705"><ele>709.3333333333333</ele><time>2026-04-12T10:05:45.002Z</time></trkpt><trkpt lat="45.80181865617295" lon="9.755573600347468"><ele>704.0</ele><time>2026-04-12T10:05:46.002Z</time></trkpt><trkpt lat="45.80187630562172" lon="9.755302181402309"><ele>708.6666666666666</ele><time>2026-04-12T10:05:47.002Z</time></trkpt><trkpt lat="45.80192513375058" lon="9.75503729800169"><ele>713.3333333333334</ele><time>2026-04-12T10:05:48.002Z</time></trkpt><trkpt lat="45.801976020491345" lon="9.754797246398336"><ele>718.0</ele><time>2026-04-12T10:05:49.002Z</time></trkpt><trkpt lat="45.80201306985983" lon="9.754581163518568"><ele>715.6666666666667</ele><time>2026-04-12T10:05:50.002Z</time></trkpt><trkpt lat="45.802019020342634" lon="9.754371186088887"><ele>713.3333333333334</ele><time>2026-04-12T10:05:51.002Z</time></trkpt><trkpt lat="45.80200105831492" lon="9.754143706855876"><ele>711.0</ele><time>2026-04-12T10:05:52.002Z</time></trkpt><trkpt lat="45.80198061469344" lon="9.753901872526312"><ele>711.0</ele><time>2026-04-12T10:05:53.002Z</time></trkpt><trkpt lat="45.801970071520635" lon="9.753647043029025"><ele>711.0</ele><time>2026-04-12T10:05:54.002Z</time></trkpt><trkpt lat="45.801968251475785" lon="9.753386900153275"><ele>711.0</ele><time>2026-04-12T10:05:55.002Z</time></trkpt><trkpt lat="45.80196193292997" lon="9.753113088735645"><ele>710.6666666666666</ele><time>2026-04-12T10:05:56.002Z</time></trkpt><trkpt lat="45.80195975845596" lon="9.752827903410212"><ele>710.3333333333333</ele><time>2026-04-12T10:05:57.002Z</time></trkpt><trkpt lat="45.801959433024344" lon="9.75255521615068"><ele>710.0</ele><time>2026-04-12T10:05:58.002Z</time></trkpt><trkpt lat="45.80195914983485" lon="9.75229917242629"><ele>710.0</ele><time>2026-04-12T10:05:59.002Z</time></trkpt><trkpt lat="45.80195946673874" lon="9.752055121849915"><ele>710.0</ele><time>2026-04-12T10:06:00.002Z</time></trkpt><trkpt lat="45.801958683348005" lon="9.751821341660222"><ele>710.0</ele><time>2026-04-12T10:06:01.002Z</time></trkpt><trkpt lat="45.801941235982035" lon="9.75160449175593"><ele>708.5</ele><time>2026-04-12T10:06:02.001Z</time></trkpt><trkpt lat="45.80189744141681" lon="9.751408245959995"><ele>707.0</ele><time>2026-04-12T10:06:03.001Z</time></trkpt><trkpt lat="45.79916262947604" lon="9.745905292220007"><ele>690.0</ele><time>2026-04-12T10:07:04.001Z</time></trkpt><trkpt lat="45.79920186882139" lon="9.745778626266675"><ele>673.0</ele><time>2026-04-12T10:07:05.001Z</time></trkpt><trkpt lat="45.79927241230125" lon="9.745705005029873"><ele>656.0</ele><time>2026-04-12T10:07:06.001Z</time></trkpt><trkpt lat="45.79936189273561" lon="9.745703753191343"><ele>639.0</ele><time>2026-04-12T10:07:07.001Z</time></trkpt><trkpt lat="45.799452376341925" lon="9.745764733750956"><ele>622.0</ele><time>2026-04-12T10:07:08.001Z</time></trkpt><trkpt lat="45.79956738577062" lon="9.745824203918604"><ele>622.0</ele><time>2026-04-12T10:07:09.001Z</time></trkpt><trkpt lat="45.79968618572628" lon="9.745868381774455"><ele>622.0</ele><time>2026-04-12T10:07:10.001Z</time></trkpt><trkpt lat="45.799786103207275" lon="9.745869451174157"><ele>622.0</ele><time>2026-04-12T10:07:11.001Z</time></trkpt><trkpt lat="45.7998509536514" lon="9.745805295360357"><ele>622.0</ele><time>2026-04-12T10:07:12.001Z</time></trkpt><trkpt lat="45.79987273975477" lon="9.74568845022007"><ele>622.0</ele><time>2026-04-12T10:07:13.001Z</time></trkpt><trkpt lat="45.79982999271259" lon="9.745574205227342"><ele>622.0</ele><time>2026-04-12T10:07:14.001Z</time></trkpt><trkpt lat="45.799738118756096" lon="9.745503949112305"><ele>622.0</ele><time>2026-04-12T10:07:15.001Z</time></trkpt><trkpt lat="45.799617564846216" lon="9.745446975858705"><ele>622.0</ele><time>2026-04-12T10:07:16.001Z</time></trkpt><trkpt lat="45.7994829514028" lon="9.74537370973945"><ele>622.0</ele><time>2026-04-12T10:07:17.001Z</time></trkpt><trkpt lat="45.79934762205275" lon="9.74530735705076"><ele>620.5</ele><time>2026-04-12T10:07:18.001Z</time></trkpt><trkpt lat="45.79920791130609" lon="9.745237022541275"><ele>619.0</ele><time>2026-04-12T10:07:19.001Z</time></trkpt><trkpt lat="45.79908223387222" lon="9.745180038920795"><ele>617.5</ele><time>2026-04-12T10:07:20.001Z</time></trkpt><trkpt lat="45.798975201615995" lon="9.7451510509899"><ele>616.0</ele><time>2026-04-12T10:07:21.001Z</time></trkpt><trkpt lat="45.798882989919" lon="9.745178707501193"><ele>616.0</ele><time>2026-04-12T10:07:22.001Z</time></trkpt><trkpt lat="45.79882459391159" lon="9.745298438442319"><ele>616.0</ele><time>2026-04-12T10:07:23.001Z</time></trkpt><trkpt lat="45.79878319862999" lon="9.745469517693362"><ele>616.0</ele><time>2026-04-12T10:07:24.001Z</time></trkpt><trkpt lat="45.79875541619541" lon="9.745666659967545"><ele>616.0</ele><time>2026-04-12T10:07:25.001Z</time></trkpt><trkpt lat="45.798748329033636" lon="9.745838897463189"><ele>616.0</ele><time>2026-04-12T10:07:26.001Z</time></trkpt><trkpt lat="45.79870309525343" lon="9.745929387915673"><ele>616.0</ele><time>2026-04-12T10:07:27.001Z</time></trkpt><trkpt lat="45.798655689516146" lon="9.745991781419766"><ele>616.0</ele><time>2026-04-12T10:07:28.001Z</time></trkpt><trkpt lat="45.79856299817218" lon="9.74595349281773"><ele>616.0</ele><time>2026-04-12T10:07:29.001Z</time></trkpt><trkpt lat="45.79849052438226" lon="9.745863968661935"><ele>616.0</ele><time>2026-04-12T10:07:30.001Z</time></trkpt><trkpt lat="45.79847390449414" lon="9.74570824771485"><ele>616.0</ele><time>2026-04-12T10:07:31.001Z</time></trkpt><trkpt lat="45.79852878325366" lon="9.745562634836523"><ele>616.0</ele><time>2026-04-12T10:07:32.001Z</time></trkpt><trkpt lat="45.79856366838402" lon="9.745389036505571"><ele>616.0</ele><time>2026-04-12T10:07:33.001Z</time></trkpt><trkpt lat="45.7986247649807" lon="9.745202593770115"><ele>616.0</ele><time>2026-04-12T10:07:34.001Z</time></trkpt><trkpt lat="45.798650832625036" lon="9.744981455719016"><ele>616.0</ele><time>2026-04-12T10:07:35.001Z</time></trkpt><trkpt lat="45.79864422208511" lon="9.744748334251693"><ele>612.25</ele><time>2026-04-12T10:07:36.001Z</time></trkpt><trkpt lat="45.79862463702146" lon="9.744522108361275"><ele>608.5</ele><time>2026-04-12T10:07:37.001Z</time></trkpt><trkpt lat="45.79860363541486" lon="9.744333893716957"><ele>604.75</ele><time>2026-04-12T10:07:38.001Z</time></trkpt><trkpt lat="45.79862765999022" lon="9.744155389318365"><ele>601.0</ele><time>2026-04-12T10:07:39.001Z</time></trkpt><trkpt lat="45.79869656095592" lon="9.743999847187238"><ele>598.0</ele><time>2026-04-12T10:07:40.001Z</time></trkpt><trkpt lat="45.79878777476618" lon="9.743872021287592"><ele>595.0</ele><time>2026-04-12T10:07:41.001Z</time></trkpt><trkpt lat="45.798897225596825" lon="9.743861080005974"><ele>592.0</ele><time>2026-04-12T10:07:42.001Z</time></trkpt><trkpt lat="45.798961686471785" lon="9.743926744384158"><ele>589.0</ele><time>2026-04-12T10:07:43.001Z</time></trkpt><trkpt lat="45.79903682126088" lon="9.744015674592264"><ele>586.0</ele><time>2026-04-12T10:07:44.001Z</time></trkpt><trkpt lat="45.79912626384673" lon="9.744132603145045"><ele>586.0</ele><time>2026-04-12T10:07:45.001Z</time></trkpt><trkpt lat="45.799233708757896" lon="9.744246011669784"><ele>586.0</ele><time>2026-04-12T10:07:46.001Z</time></trkpt><trkpt lat="45.79937813458983" lon="9.744311486621607"><ele>586.0</ele><time>2026-04-12T10:07:47.001Z</time></trkpt><trkpt lat="45.79953739372841" lon="9.744349356638082"><ele>586.0</ele><time>2026-04-12T10:07:48.001Z</time></trkpt><trkpt lat="45.799704563314194" lon="9.744347201584775"><ele>585.0</ele><time>2026-04-12T10:07:49.001Z</time></trkpt><trkpt lat="45.79986397068363" lon="9.74436389385253"><ele>584.0</ele><time>2026-04-12T10:07:50.001Z</time></trkpt><trkpt lat="45.800023216964505" lon="9.744388541349627"><ele>583.0</ele><time>2026-04-12T10:07:51.001Z</time></trkpt><trkpt lat="45.80018366489726" lon="9.744427590361948"><ele>581.3333333333334</ele><time>2026-04-12T10:07:52.001Z</time></trkpt><trkpt lat="45.80034135251212" lon="9.744455360677666"><ele>579.6666666666666</ele><time>2026-04-12T10:07:53.001Z</time></trkpt><trkpt lat="45.80048435237655" lon="9.744430768481655"><ele>578.0</ele><time>2026-04-12T10:07:54.001Z</time></trkpt><trkpt lat="45.80063040413723" lon="9.744360558653376"><ele>578.0</ele><time>2026-04-12T10:07:55.001Z</time></trkpt><trkpt lat="45.8007603675936" lon="9.744274618926"><ele>578.0</ele><time>2026-04-12T10:07:56.001Z</time></trkpt><trkpt lat="45.80088676426411" lon="9.744224342495606"><ele>578.0</ele><time>2026-04-12T10:07:57.001Z</time></trkpt><trkpt lat="45.80100678660749" lon="9.744167945386884"><ele>578.0</ele><time>2026-04-12T10:07:58.001Z</time></trkpt><trkpt lat="45.80113611352325" lon="9.744206834596206"><ele>576.75</ele><time>2026-04-12T10:07:59.001Z</time></trkpt><trkpt lat="45.80126069791677" lon="9.744238483992143"><ele>575.5</ele><time>2026-04-12T10:08:00.001Z</time></trkpt><trkpt lat="45.80136242428061" lon="9.744319154334912"><ele>574.25</ele><time>2026-04-12T10:08:01.001Z</time></trkpt><trkpt lat="45.80146940170505" lon="9.744354449734345"><ele>573.0</ele><time>2026-04-12T10:08:02.001Z</time></trkpt><trkpt lat="45.80156985024201" lon="9.74440644610266"><ele>557.0</ele><time>2026-04-12T10:08:03.001Z</time></trkpt><trkpt lat="45.8055675496276" lon="9.746460134174017"><ele>557.0</ele><time>2026-04-12T10:09:04.001Z</time></trkpt><trkpt lat="45.80562429497517" lon="9.746545590779654"><ele>557.0</ele><time>2026-04-12T10:09:05.001Z</time></trkpt><trkpt lat="45.805625233585175" lon="9.746679852134298"><ele>557.0</ele><time>2026-04-12T10:09:06.001Z</time></trkpt><trkpt lat="45.80565034817044" lon="9.746774471090335"><ele>557.0</ele><time>2026-04-12T10:09:07.001Z</time></trkpt><trkpt lat="45.805696416307484" lon="9.746856267252513"><ele>557.0</ele><time>2026-04-12T10:09:08.001Z</time></trkpt><trkpt lat="45.80577029958284" lon="9.746912048964816"><ele>557.0</ele><time>2026-04-12T10:09:09.001Z</time></trkpt><trkpt lat="45.80587994137496" lon="9.746963967965979"><ele>561.3333333333333</ele><time>2026-04-12T10:09:10.001Z</time></trkpt><trkpt lat="45.806028660249105" lon="9.746966002868518"><ele>565.6666666666666</ele><time>2026-04-12T10:09:11.001Z</time></trkpt><trkpt lat="45.80619738231446" lon="9.746949638001922"><ele>570.0</ele><time>2026-04-12T10:09:12.001Z</time></trkpt><trkpt lat="45.806356816598914" lon="9.746934173989764"><ele>570.0</ele><time>2026-04-12T10:09:13.001Z</time></trkpt><trkpt lat="45.806527663899004" lon="9.746907907110048"><ele>570.0</ele><time>2026-04-12T10:09:14.001Z</time></trkpt><trkpt lat="45.80670758727236" lon="9.746954526958737"><ele>570.0</ele><time>2026-04-12T10:09:15.001Z</time></trkpt><trkpt lat="45.806866674978814" lon="9.747010420083773"><ele>567.0</ele><time>2026-04-12T10:09:16.001Z</time></trkpt><trkpt lat="45.807013074978386" lon="9.747005456734351"><ele>564.0</ele><time>2026-04-12T10:09:17.001Z</time></trkpt><trkpt lat="45.80715115479463" lon="9.746941707690624"><ele>561.0</ele><time>2026-04-12T10:09:18.001Z</time></trkpt><trkpt lat="45.807301229048974" lon="9.746842272760086"><ele>559.5</ele><time>2026-04-12T10:09:19.001Z</time></trkpt><trkpt lat="45.80744105650875" lon="9.746803347777004"><ele>558.0</ele><time>2026-04-12T10:09:20.001Z</time></trkpt><trkpt lat="45.80757087904949" lon="9.746818240155365"><ele>556.5</ele><time>2026-04-12T10:09:21.001Z</time></trkpt><trkpt lat="45.80769652498407" lon="9.746891013544941"><ele>555.0</ele><time>2026-04-12T10:09:22.001Z</time></trkpt><trkpt lat="45.80782765272656" lon="9.747012514240152"><ele>555.0</ele><time>2026-04-12T10:09:23.001Z</time></trkpt><trkpt lat="45.80796898257574" lon="9.747141189950462"><ele>555.0</ele><time>2026-04-12T10:09:24.001Z</time></trkpt><trkpt lat="45.80810400606875" lon="9.747226220320401"><ele>555.0</ele><time>2026-04-12T10:09:25.001Z</time></trkpt><trkpt lat="45.80823926135872" lon="9.74723315488337"><ele>555.0</ele><time>2026-04-12T10:09:26.001Z</time></trkpt><trkpt lat="45.80837388009852" lon="9.747167944983557"><ele>555.0</ele><time>2026-04-12T10:09:27.001Z</time></trkpt><trkpt lat="45.80852709165585" lon="9.747118236831598"><ele>555.0</ele><time>2026-04-12T10:09:28.001Z</time></trkpt><trkpt lat="45.808700729117305" lon="9.747102324161986"><ele>554.6666666666666</ele><time>2026-04-12T10:09:29.001Z</time></trkpt><trkpt lat="45.80887838118257" lon="9.747072401758382"><ele>554.3333333333333</ele><time>2026-04-12T10:09:30.001Z</time></trkpt><trkpt lat="45.80905167756881" lon="9.747053025091038"><ele>554.0</ele><time>2026-04-12T10:09:31.001Z</time></trkpt><trkpt lat="45.80923338331895" lon="9.747016332824517"><ele>555.0</ele><time>2026-04-12T10:09:32.001Z</time></trkpt><trkpt lat="45.80940579253334" lon="9.746976345064155"><ele>556.0</ele><time>2026-04-12T10:09:33.001Z</time></trkpt><trkpt lat="45.809578367409216" lon="9.746929320851466"><ele>557.0</ele><time>2026-04-12T10:09:34.001Z</time></trkpt><trkpt lat="45.80975676737048" lon="9.746883582597215"><ele>557.0</ele><time>2026-04-12T10:09:35.001Z</time></trkpt><trkpt lat="45.80994288825471" lon="9.74688299628984"><ele>557.0</ele><time>2026-04-12T10:09:36.001Z</time></trkpt><trkpt lat="45.810109775807824" lon="9.74681287560988"><ele>557.0</ele><time>2026-04-12T10:09:37.001Z</time></trkpt><trkpt lat="45.81026284171366" lon="9.746752840526932"><ele>548.0</ele><time>2026-04-12T10:09:38.001Z</time></trkpt><trkpt lat="45.810411739776264" lon="9.746709060358562"><ele>539.0</ele><time>2026-04-12T10:09:39.001Z</time></trkpt><trkpt lat="45.810579446523974" lon="9.746699340020344"><ele>530.0</ele><time>2026-04-12T10:09:40.001Z</time></trkpt><trkpt lat="45.810753590461324" lon="9.746698952934894"><ele>530.0</ele><time>2026-04-12T10:09:41.001Z</time></trkpt><trkpt lat="45.81092825100457" lon="9.74667659716122"><ele>530.0</ele><time>2026-04-12T10:09:42.001Z</time></trkpt><trkpt lat="45.8111034567443" lon="9.746642569181997"><ele>530.0</ele><time>2026-04-12T10:09:43.001Z</time></trkpt><trkpt lat="45.8112736406299" lon="9.746588193023996"><ele>528.6666666666666</ele><time>2026-04-12T10:09:44.001Z</time></trkpt><trkpt lat="45.811444205495654" lon="9.746540731010299"><ele>527.3333333333334</ele><time>2026-04-12T10:09:45.001Z</time></trkpt><trkpt lat="45.8116140372589" lon="9.746485551041836"><ele>526.0</ele><time>2026-04-12T10:09:46.001Z</time></trkpt><trkpt lat="45.8117822998856" lon="9.74641829314335"><ele>528.3333333333334</ele><time>2026-04-12T10:09:47.001Z</time></trkpt><trkpt lat="45.81194699899409" lon="9.746359133826255"><ele>530.6666666666666</ele><time>2026-04-12T10:09:48.001Z</time></trkpt><trkpt lat="45.812119905310134" lon="9.746321695842955"><ele>533.0</ele><time>2026-04-12T10:09:49.001Z</time></trkpt><trkpt lat="45.81229255962749" lon="9.74629207057601"><ele>533.0</ele><time>2026-04-12T10:09:50.001Z</time></trkpt><trkpt lat="45.81244541093278" lon="9.746230844009789"><ele>533.0</ele><time>2026-04-12T10:09:51.001Z</time></trkpt><trkpt lat="45.812589267737955" lon="9.746122882639872"><ele>533.0</ele><time>2026-04-12T10:09:52.001Z</time></trkpt><trkpt lat="45.812743282476" lon="9.745998673444953"><ele>528.0</ele><time>2026-04-12T10:09:53.001Z</time></trkpt><trkpt lat="45.81292031761993" lon="9.745923363017319"><ele>523.0</ele><time>2026-04-12T10:09:54.001Z</time></trkpt><trkpt lat="45.813085293454776" lon="9.745873567289168"><ele>518.0</ele><time>2026-04-12T10:09:55.001Z</time></trkpt><trkpt lat="45.81321742896663" lon="9.745821925881655"><ele>518.0</ele><time>2026-04-12T10:09:56.001Z</time></trkpt><trkpt lat="45.81331539733451" lon="9.745759023543211"><ele>518.0</ele><time>2026-04-12T10:09:57.001Z</time></trkpt><trkpt lat="45.81337046454144" lon="9.745657892749197"><ele>518.0</ele><time>2026-04-12T10:09:58.001Z</time></trkpt><trkpt lat="45.81338330219361" lon="9.745518007380904"><ele>518.0</ele><time>2026-04-12T10:09:59.001Z</time></trkpt><trkpt lat="45.81336485711392" lon="9.74536060668787"><ele>518.0</ele><time>2026-04-12T10:10:00.001Z</time></trkpt><trkpt lat="45.81335816586475" lon="9.745215173191813"><ele>516.3333333333333</ele><time>2026-04-12T10:10:01.001Z</time></trkpt><trkpt lat="45.81338697755307" lon="9.7450872533319"><ele>514.6666666666666</ele><time>2026-04-12T10:10:02.001Z</time></trkpt><trkpt lat="45.81346318994641" lon="9.744959148025934"><ele>513.0</ele><time>2026-04-12T10:10:03.001Z</time></trkpt><trkpt lat="45.818534052074355" lon="9.735621493514776"><ele>502.5</ele><time>2026-04-12T10:11:04Z</time></trkpt><trkpt lat="45.81866125642859" lon="9.735440497783767"><ele>492.0</ele><time>2026-04-12T10:11:05Z</time></trkpt><trkpt lat="45.818950070246785" lon="9.73511375715772"><ele>491.33333333333337</ele><time>2026-04-12T10:11:07Z</time></trkpt><trkpt lat="45.819091623632204" lon="9.734984396091201"><ele>490.6666666666667</ele><time>2026-04-12T10:11:08Z</time></trkpt><trkpt lat="45.81923248002093" lon="9.734885140931178"><ele>490.0</ele><time>2026-04-12T10:11:09Z</time></trkpt><trkpt lat="45.81937881371707" lon="9.734808772494254"><ele>489.33333333333337</ele><time>2026-04-12T10:11:10Z</time></trkpt><trkpt lat="45.81954213898715" lon="9.73476783517651"><ele>488.66666666666663</ele><time>2026-04-12T10:11:11Z</time></trkpt><trkpt lat="45.819712435630024" lon="9.734756822673896"><ele>488.0</ele><time>2026-04-12T10:11:12Z</time></trkpt><trkpt lat="45.81986360635794" lon="9.73474960304917"><ele>488.0</ele><time>2026-04-12T10:11:13Z</time></trkpt><trkpt lat="45.81999462924302" lon="9.73469531816645"><ele>488.0</ele><time>2026-04-12T10:11:14Z</time></trkpt><trkpt lat="45.820098156925624" lon="9.734571860007456"><ele>488.0</ele><time>2026-04-12T10:11:15Z</time></trkpt><trkpt lat="45.82017724402868" lon="9.734398078649768"><ele>488.0</ele><time>2026-04-12T10:11:16Z</time></trkpt><trkpt lat="45.820239031369" lon="9.734180438601095"><ele>487.66666666666663</ele><time>2026-04-12T10:11:17Z</time></trkpt><trkpt lat="45.82030660082841" lon="9.733965238002277"><ele>487.33333333333337</ele><time>2026-04-12T10:11:18Z</time></trkpt><trkpt lat="45.82034501181248" lon="9.733721126736778"><ele>487.0</ele><time>2026-04-12T10:11:19Z</time></trkpt><trkpt lat="45.82036187407525" lon="9.733442270155045"><ele>483.0</ele><time>2026-04-12T10:11:20Z</time></trkpt><trkpt lat="45.82036859645939" lon="9.73315577136981"><ele>479.0</ele><time>2026-04-12T10:11:21Z</time></trkpt><trkpt lat="45.82036836039065" lon="9.732882351410822"><ele>475.0</ele><time>2026-04-12T10:11:22Z</time></trkpt><trkpt lat="45.82037402786185" lon="9.73259475218943"><ele>475.0</ele><time>2026-04-12T10:11:23Z</time></trkpt><trkpt lat="45.8203899387036" lon="9.732300387098144"><ele>475.0</ele><time>2026-04-12T10:11:24Z</time></trkpt><trkpt lat="45.82041996445531" lon="9.732000295653654"><ele>475.0</ele><time>2026-04-12T10:11:25Z</time></trkpt><trkpt lat="45.82045353674572" lon="9.73169669277005"><ele>473.0</ele><time>2026-04-12T10:11:26Z</time></trkpt><trkpt lat="45.82048672875022" lon="9.731393696791594"><ele>471.0</ele><time>2026-04-12T10:11:27Z</time></trkpt><trkpt lat="45.82052715885799" lon="9.731085552082689"><ele>469.0</ele><time>2026-04-12T10:11:28Z</time></trkpt><trkpt lat="45.82056768134338" lon="9.73077950048254"><ele>468.6666666666667</ele><time>2026-04-12T10:11:29Z</time></trkpt><trkpt lat="45.82060794099751" lon="9.730488564539472"><ele>468.33333333333337</ele><time>2026-04-12T10:11:30Z</time></trkpt><trkpt lat="45.8206331401615" lon="9.730215873400187"><ele>468.0</ele><time>2026-04-12T10:11:31Z</time></trkpt><trkpt lat="45.82064429815549" lon="9.729934840158492"><ele>467.33333333333337</ele><time>2026-04-12T10:11:32Z</time></trkpt><trkpt lat="45.820647835125705" lon="9.729637122507528"><ele>466.6666666666667</ele><time>2026-04-12T10:11:33Z</time></trkpt><trkpt lat="45.82065563350887" lon="9.729348268076212"><ele>466.0</ele><time>2026-04-12T10:11:34Z</time></trkpt><trkpt lat="45.82068218012061" lon="9.729062070243835"><ele>466.0</ele><time>2026-04-12T10:11:35Z</time></trkpt><trkpt lat="45.82071090545431" lon="9.728772288234417"><ele>466.0</ele><time>2026-04-12T10:11:36Z</time></trkpt><trkpt lat="45.82074701283431" lon="9.728500425372253"><ele>466.0</ele><time>2026-04-12T10:11:37Z</time></trkpt><trkpt lat="45.82078146554279" lon="9.72824828174286"><ele>466.0</ele><time>2026-04-12T10:11:38Z</time></trkpt><trkpt lat="45.82079889782649" lon="9.727997097204877"><ele>466.0</ele><time>2026-04-12T10:11:39Z</time></trkpt><trkpt lat="45.82079622367655" lon="9.727743940751562"><ele>466.0</ele><time>2026-04-12T10:11:40Z</time></trkpt><trkpt lat="45.82076818091105" lon="9.727484858172325"><ele>465.0</ele><time>2026-04-12T10:11:41Z</time></trkpt><trkpt lat="45.820729606870536" lon="9.727223830243066"><ele>464.0</ele><time>2026-04-12T10:11:42Z</time></trkpt><trkpt lat="45.820705762984055" lon="9.726949987871407"><ele>463.0</ele><time>2026-04-12T10:11:43Z</time></trkpt><trkpt lat="45.82070362311857" lon="9.726687351588327"><ele>460.6666666666667</ele><time>2026-04-12T10:11:44.001Z</time></trkpt><trkpt lat="45.82071494078083" lon="9.726443896596583"><ele>458.33333333333337</ele><time>2026-04-12T10:11:45.001Z</time></trkpt><trkpt lat="45.82072683398727" lon="9.72620332155029"><ele>456.0</ele><time>2026-04-12T10:11:46.001Z</time></trkpt><trkpt lat="45.82075100837833" lon="9.725976634922974"><ele>456.0</ele><time>2026-04-12T10:11:47.001Z</time></trkpt><trkpt lat="45.82080409412033" lon="9.725747342826251"><ele>456.0</ele><time>2026-04-12T10:11:48.001Z</time></trkpt><trkpt lat="45.82087073874221" lon="9.72551559678387"><ele>456.0</ele><time>2026-04-12T10:11:49.001Z</time></trkpt><trkpt lat="45.82092300837513" lon="9.725287509514754"><ele>458.0</ele><time>2026-04-12T10:11:50.001Z</time></trkpt><trkpt lat="45.820944490780626" lon="9.725035178915713"><ele>460.0</ele><time>2026-04-12T10:11:51.001Z</time></trkpt><trkpt lat="45.82095304001648" lon="9.72475899745409"><ele>462.0</ele><time>2026-04-12T10:11:52.001Z</time></trkpt><trkpt lat="45.82096595975007" lon="9.724505922118615"><ele>461.0</ele><time>2026-04-12T10:11:53.001Z</time></trkpt><trkpt lat="45.820989534331865" lon="9.724266016810196"><ele>460.0</ele><time>2026-04-12T10:11:54.001Z</time></trkpt><trkpt lat="45.82102142515719" lon="9.724039275671867"><ele>459.0</ele><time>2026-04-12T10:11:55.001Z</time></trkpt><trkpt lat="45.82107445365642" lon="9.723827245539454"><ele>459.0</ele><time>2026-04-12T10:11:56.001Z</time></trkpt><trkpt lat="45.8211595571392" lon="9.723623143521912"><ele>459.0</ele><time>2026-04-12T10:11:57.001Z</time></trkpt><trkpt lat="45.821294036891544" lon="9.723464743351135"><ele>459.0</ele><time>2026-04-12T10:11:58.001Z</time></trkpt><trkpt lat="45.82144367742428" lon="9.723296682664571"><ele>459.33333333333337</ele><time>2026-04-12T10:11:59.001Z</time></trkpt><trkpt lat="45.82159494059186" lon="9.723140184739139"><ele>459.6666666666667</ele><time>2026-04-12T10:12:00.001Z</time></trkpt><trkpt lat="45.821758479955555" lon="9.722988957893614"><ele>460.0</ele><time>2026-04-12T10:12:01.001Z</time></trkpt><trkpt lat="45.82191046626448" lon="9.722873130016753"><ele>460.0</ele><time>2026-04-12T10:12:02.001Z</time></trkpt><trkpt lat="45.82204731052237" lon="9.722743056979072"><ele>460.0</ele><time>2026-04-12T10:12:03.001Z</time></trkpt><trkpt lat="45.82304558414093" lon="9.71974362540207"><ele>455.4</ele><time>2026-04-12T10:13:04Z</time></trkpt><trkpt lat="45.823122652584004" lon="9.71961919347554"><ele>450.8</ele><time>2026-04-12T10:13:05Z</time></trkpt><trkpt lat="45.8231958854783" lon="9.719528611912903"><ele>446.20000000000005</ele><time>2026-04-12T10:13:06Z</time></trkpt><trkpt lat="45.823290653540504" lon="9.719458648238213"><ele>441.6</ele><time>2026-04-12T10:13:08Z</time></trkpt><trkpt lat="45.82335409974787" lon="9.719465720611032"><ele>437.0</ele><time>2026-04-12T10:13:10Z</time></trkpt><trkpt lat="45.82340141900333" lon="9.719631401966026"><ele>437.0</ele><time>2026-04-12T10:13:12Z</time></trkpt><trkpt lat="45.823440757602576" lon="9.719760905309636"><ele>437.00000000000006</ele><time>2026-04-12T10:13:13Z</time></trkpt><trkpt lat="45.82348065274647" lon="9.719917723545247"><ele>437.00000000000006</ele><time>2026-04-12T10:13:14Z</time></trkpt><trkpt lat="45.82352908575869" lon="9.720086590432794"><ele>437.0</ele><time>2026-04-12T10:13:15Z</time></trkpt><trkpt lat="45.823592869583564" lon="9.720210573174683"><ele>437.0</ele><time>2026-04-12T10:13:16Z</time></trkpt><trkpt lat="45.82366741881717" lon="9.720301283748258"><ele>439.0</ele><time>2026-04-12T10:13:17Z</time></trkpt><trkpt lat="45.823769838493575" lon="9.720387096288416"><ele>441.0</ele><time>2026-04-12T10:13:18Z</time></trkpt><trkpt lat="45.823885822125824" lon="9.720485074432291"><ele>443.0</ele><time>2026-04-12T10:13:19Z</time></trkpt><trkpt lat="45.823990043226374" lon="9.72058541639259"><ele>445.0</ele><time>2026-04-12T10:13:20Z</time></trkpt><trkpt lat="45.824103099051904" lon="9.72068540159261"><ele>445.0</ele><time>2026-04-12T10:13:21Z</time></trkpt><trkpt lat="45.82423253013216" lon="9.720793754201509"><ele>445.0</ele><time>2026-04-12T10:13:22Z</time></trkpt><trkpt lat="45.824368708975136" lon="9.720909936736486"><ele>445.0</ele><time>2026-04-12T10:13:23Z</time></trkpt><trkpt lat="45.82451469250134" lon="9.72102567880715"><ele>446.33333333333337</ele><time>2026-04-12T10:13:24Z</time></trkpt><trkpt lat="45.824671922618684" lon="9.721131206809178"><ele>447.66666666666663</ele><time>2026-04-12T10:13:25Z</time></trkpt><trkpt lat="45.824822331033076" lon="9.721208530269603"><ele>449.0</ele><time>2026-04-12T10:13:26Z</time></trkpt><trkpt lat="45.824978680862465" lon="9.721296549195669"><ele>449.0</ele><time>2026-04-12T10:13:27Z</time></trkpt><trkpt lat="45.82513629650161" lon="9.721396144157142"><ele>449.0</ele><time>2026-04-12T10:13:28Z</time></trkpt><trkpt lat="45.82525505188704" lon="9.721487978492826"><ele>449.0</ele><time>2026-04-12T10:13:29Z</time></trkpt><trkpt lat="45.82538323477286" lon="9.721600498856269"><ele>448.3333333333333</ele><time>2026-04-12T10:13:30Z</time></trkpt><trkpt lat="45.82549673054294" lon="9.72176264232417"><ele>447.66666666666663</ele><time>2026-04-12T10:13:31Z</time></trkpt><trkpt lat="45.825586903276196" lon="9.721959669411529"><ele>447.0</ele><time>2026-04-12T10:13:32Z</time></trkpt><trkpt lat="45.82568620289067" lon="9.72212287454729"><ele>447.0</ele><time>2026-04-12T10:13:33Z</time></trkpt><trkpt lat="45.82577958095483" lon="9.722269354091752"><ele>447.0</ele><time>2026-04-12T10:13:34Z</time></trkpt><trkpt lat="45.82588403343978" lon="9.72238273927047"><ele>447.0</ele><time>2026-04-12T10:13:35Z</time></trkpt><trkpt lat="45.826051537005526" lon="9.722487062262681"><ele>454.66666666666663</ele><time>2026-04-12T10:13:36Z</time></trkpt><trkpt lat="45.82617103074471" lon="9.722529190435079"><ele>462.3333333333333</ele><time>2026-04-12T10:13:37Z</time></trkpt><trkpt lat="45.82631485996195" lon="9.722617073887504"><ele>470.0</ele><time>2026-04-12T10:13:38Z</time></trkpt><trkpt lat="45.82648680094818" lon="9.722702098000054"><ele>469.0</ele><time>2026-04-12T10:13:39Z</time></trkpt><trkpt lat="45.826660142103634" lon="9.722787686823775"><ele>468.0</ele><time>2026-04-12T10:13:40Z</time></trkpt><trkpt lat="45.82683992006836" lon="9.722875562403587"><ele>467.0</ele><time>2026-04-12T10:13:41Z</time></trkpt><trkpt lat="45.82701081388051" lon="9.722957248856796"><ele>467.0</ele><time>2026-04-12T10:13:42Z</time></trkpt><trkpt lat="45.82715857044447" lon="9.723034776602912"><ele>467.0</ele><time>2026-04-12T10:13:43Z</time></trkpt><trkpt lat="45.82730183642033" lon="9.72313677089624"><ele>467.0</ele><time>2026-04-12T10:13:44Z</time></trkpt><trkpt lat="45.82745143844824" lon="9.723255617385654"><ele>467.0</ele><time>2026-04-12T10:13:45Z</time></trkpt><trkpt lat="45.82761219123799" lon="9.72336192374336"><ele>467.0</ele><time>2026-04-12T10:13:46Z</time></trkpt><trkpt lat="45.82777437998318" lon="9.723489387320537"><ele>467.0</ele><time>2026-04-12T10:13:47Z</time></trkpt><trkpt lat="45.827927465356545" lon="9.723611001563206"><ele>467.75</ele><time>2026-04-12T10:13:48Z</time></trkpt><trkpt lat="45.828056073658615" lon="9.723726553299485"><ele>468.5</ele><time>2026-04-12T10:13:49Z</time></trkpt><trkpt lat="45.82817572610411" lon="9.7238317850809"><ele>469.25</ele><time>2026-04-12T10:13:50Z</time></trkpt><trkpt lat="45.82829595297209" lon="9.723924181613748"><ele>470.0</ele><time>2026-04-12T10:13:51Z</time></trkpt><trkpt lat="45.828402883214345" lon="9.724005177237636"><ele>470.0</ele><time>2026-04-12T10:13:52Z</time></trkpt><trkpt lat="45.828470383552414" lon="9.72409404847603"><ele>470.0</ele><time>2026-04-12T10:13:53Z</time></trkpt><trkpt lat="45.82852817892418" lon="9.72420068005168"><ele>470.0</ele><time>2026-04-12T10:13:54Z</time></trkpt><trkpt lat="45.82857204746844" lon="9.724328943357694"><ele>470.0</ele><time>2026-04-12T10:13:55Z</time></trkpt><trkpt lat="45.82858946266599" lon="9.724466448391542"><ele>470.0</ele><time>2026-04-12T10:13:56Z</time></trkpt><trkpt lat="45.82864462236835" lon="9.724660249263561"><ele>471.8333333333333</ele><time>2026-04-12T10:13:58Z</time></trkpt><trkpt lat="45.82873025549314" lon="9.724798045516437"><ele>473.66666666666663</ele><time>2026-04-12T10:13:59Z</time></trkpt><trkpt lat="45.82880043190138" lon="9.724841034516384"><ele>475.5</ele><time>2026-04-12T10:14:00Z</time></trkpt><trkpt lat="45.828860739489386" lon="9.72487898933435"><ele>477.33333333333337</ele><time>2026-04-12T10:14:01Z</time></trkpt><trkpt lat="45.828929458215576" lon="9.724885133615636"><ele>479.1666666666667</ele><time>2026-04-12T10:14:02Z</time></trkpt><trkpt lat="45.829008737872826" lon="9.724911931845448"><ele>481.0</ele><time>2026-04-12T10:14:03Z</time></trkpt><trkpt lat="45.83329272874787" lon="9.725245803217495"><ele>487.0</ele><time>2026-04-12T10:15:04Z</time></trkpt><trkpt lat="45.833332439566774" lon="9.725367719883243"><ele>493.0</ele><time>2026-04-12T10:15:05Z</time></trkpt><trkpt lat="45.83334893781117" lon="9.725513398544491"><ele>499.0</ele><time>2026-04-12T10:15:06Z</time></trkpt><trkpt lat="45.8333847151895" lon="9.725651365653897"><ele>505.0</ele><time>2026-04-12T10:15:07Z</time></trkpt><trkpt lat="45.83345290036583" lon="9.72573231563562"><ele>511.0</ele><time>2026-04-12T10:15:08Z</time></trkpt><trkpt lat="45.833537991957904" lon="9.725808973492683"><ele>512.0</ele><time>2026-04-12T10:15:09Z</time></trkpt><trkpt lat="45.83361396516934" lon="9.7259131901317"><ele>513.0</ele><time>2026-04-12T10:15:10Z</time></trkpt><trkpt lat="45.83365616343791" lon="9.726050919390643"><ele>514.0</ele><time>2026-04-12T10:15:11Z</time></trkpt><trkpt lat="45.833680919745944" lon="9.726217029169176"><ele>515.0</ele><time>2026-04-12T10:15:12Z</time></trkpt><trkpt lat="45.83370920723296" lon="9.72637669609727"><ele>516.0</ele><time>2026-04-12T10:15:13Z</time></trkpt><trkpt lat="45.83375130433978" lon="9.726492428210449"><ele>519.25</ele><time>2026-04-12T10:15:14Z</time></trkpt><trkpt lat="45.833830938071564" lon="9.726566727414363"><ele>522.5</ele><time>2026-04-12T10:15:15Z</time></trkpt><trkpt lat="45.83395136182145" lon="9.726633690075374"><ele>525.75</ele><time>2026-04-12T10:15:16Z</time></trkpt><trkpt lat="45.8340803361508" lon="9.726731427403948"><ele>529.0</ele><time>2026-04-12T10:15:17Z</time></trkpt><trkpt lat="45.83420134803081" lon="9.726814480669612"><ele>531.0</ele><time>2026-04-12T10:15:18Z</time></trkpt><trkpt lat="45.83430144443924" lon="9.726898294399042"><ele>533.0</ele><time>2026-04-12T10:15:19Z</time></trkpt><trkpt lat="45.83437323111214" lon="9.726995288130981"><ele>535.0</ele><time>2026-04-12T10:15:20Z</time></trkpt><trkpt lat="45.83445339569047" lon="9.727093636352247"><ele>537.0</ele><time>2026-04-12T10:15:21Z</time></trkpt><trkpt lat="45.834481591603975" lon="9.727252951954892"><ele>539.0</ele><time>2026-04-12T10:15:22Z</time></trkpt><trkpt lat="45.83452367503136" lon="9.72738300899248"><ele>539.0</ele><time>2026-04-12T10:15:23Z</time></trkpt><trkpt lat="45.834568645305765" lon="9.727486547893989"><ele>539.0</ele><time>2026-04-12T10:15:24Z</time></trkpt><trkpt lat="45.834632682655254" lon="9.727529921476142"><ele>539.0</ele><time>2026-04-12T10:15:25Z</time></trkpt><trkpt lat="45.83471536608792" lon="9.727533141417279"><ele>539.0</ele><time>2026-04-12T10:15:26Z</time></trkpt><trkpt lat="45.83481355135689" lon="9.72747062136607"><ele>539.0</ele><time>2026-04-12T10:15:27Z</time></trkpt><trkpt lat="45.83491665582918" lon="9.727406348102205"><ele>539.0</ele><time>2026-04-12T10:15:28Z</time></trkpt><trkpt lat="45.83503479125747" lon="9.727365892166587"><ele>539.0</ele><time>2026-04-12T10:15:29Z</time></trkpt><trkpt lat="45.83517745510452" lon="9.727361599242345"><ele>539.0</ele><time>2026-04-12T10:15:30Z</time></trkpt><trkpt lat="45.835312630810684" lon="9.727361515594357"><ele>539.0</ele><time>2026-04-12T10:15:31Z</time></trkpt><trkpt lat="45.83545880915016" lon="9.727394479816608"><ele>540.25</ele><time>2026-04-12T10:15:32Z</time></trkpt><trkpt lat="45.83558790028675" lon="9.727474545430573"><ele>541.5</ele><time>2026-04-12T10:15:33Z</time></trkpt><trkpt lat="45.835731494375416" lon="9.727487348235732"><ele>542.75</ele><time>2026-04-12T10:15:34Z</time></trkpt><trkpt lat="45.83588808614924" lon="9.72748719239358"><ele>544.0</ele><time>2026-04-12T10:15:35Z</time></trkpt><trkpt lat="45.836049270262045" lon="9.727463863680033"><ele>544.3333333333334</ele><time>2026-04-12T10:15:36Z</time></trkpt><trkpt lat="45.83621582915328" lon="9.727458148378647"><ele>544.6666666666666</ele><time>2026-04-12T10:15:37Z</time></trkpt><trkpt lat="45.83636840185285" lon="9.72744797921656"><ele>545.0</ele><time>2026-04-12T10:15:38Z</time></trkpt><trkpt lat="45.83650000712054" lon="9.727452429857426"><ele>545.0</ele><time>2026-04-12T10:15:39Z</time></trkpt><trkpt lat="45.836621515149794" lon="9.727441296916869"><ele>545.0</ele><time>2026-04-12T10:15:40Z</time></trkpt><trkpt lat="45.836739551301015" lon="9.727436277716548"><ele>545.0</ele><time>2026-04-12T10:15:41Z</time></trkpt><trkpt lat="45.836843983381144" lon="9.727467620797302"><ele>545.0</ele><time>2026-04-12T10:15:42Z</time></trkpt><trkpt lat="45.836953782591245" lon="9.727496516297672"><ele>547.0</ele><time>2026-04-12T10:15:43Z</time></trkpt><trkpt lat="45.83706467954564" lon="9.727538256152156"><ele>549.0</ele><time>2026-04-12T10:15:44Z</time></trkpt><trkpt lat="45.83718000878057" lon="9.72759069098744"><ele>551.0</ele><time>2026-04-12T10:15:45Z</time></trkpt><trkpt lat="45.837295325991185" lon="9.727611371776248"><ele>553.0</ele><time>2026-04-12T10:15:46Z</time></trkpt><trkpt lat="45.837419285595296" lon="9.727608316733024"><ele>553.0</ele><time>2026-04-12T10:15:47Z</time></trkpt><trkpt lat="45.8375401131983" lon="9.727593443249905"><ele>553.0</ele><time>2026-04-12T10:15:48Z</time></trkpt><trkpt lat="45.83765065933563" lon="9.7276146181552"><ele>553.0</ele><time>2026-04-12T10:15:49Z</time></trkpt><trkpt lat="45.83777868718884" lon="9.727676673271983"><ele>553.0</ele><time>2026-04-12T10:15:50Z</time></trkpt><trkpt lat="45.83791582459938" lon="9.727745098383771"><ele>559.3333333333334</ele><time>2026-04-12T10:15:51Z</time></trkpt><trkpt lat="45.83805959666002" lon="9.727814315494708"><ele>565.6666666666666</ele><time>2026-04-12T10:15:52Z</time></trkpt><trkpt lat="45.83821119106343" lon="9.727859937523114"><ele>572.0</ele><time>2026-04-12T10:15:53Z</time></trkpt><trkpt lat="45.83835701612837" lon="9.727911761652416"><ele>569.0</ele><time>2026-04-12T10:15:54Z</time></trkpt><trkpt lat="45.83848514417218" lon="9.727923646659834"><ele>566.0</ele><time>2026-04-12T10:15:55Z</time></trkpt><trkpt lat="45.83860394632719" lon="9.727933642265802"><ele>563.0</ele><time>2026-04-12T10:15:56Z</time></trkpt><trkpt lat="45.83870261318563" lon="9.728015699342135"><ele>560.0</ele><time>2026-04-12T10:15:57Z</time></trkpt><trkpt lat="45.838826989201756" lon="9.728099523194803"><ele>560.0</ele><time>2026-04-12T10:15:58Z</time></trkpt><trkpt lat="45.83896781898851" lon="9.728186736858579"><ele>560.0</ele><time>2026-04-12T10:15:59Z</time></trkpt><trkpt lat="45.83911266382029" lon="9.728294050407543"><ele>560.0</ele><time>2026-04-12T10:16:00Z</time></trkpt><trkpt lat="45.83926504210458" lon="9.728392166623992"><ele>555.6666666666666</ele><time>2026-04-12T10:16:01Z</time></trkpt><trkpt lat="45.83941867733153" lon="9.728490388946847"><ele>551.3333333333334</ele><time>2026-04-12T10:16:02Z</time></trkpt><trkpt lat="45.839580351505994" lon="9.728575628116117"><ele>547.0</ele><time>2026-04-12T10:16:03Z</time></trkpt><trkpt lat="45.84448131072823" lon="9.729349937473321"><ele>561.8000000000001</ele><time>2026-04-12T10:17:04Z</time></trkpt><trkpt lat="45.84456492262433" lon="9.729392974235228"><ele>576.6</ele><time>2026-04-12T10:17:05Z</time></trkpt><trkpt lat="45.844645402985954" lon="9.729476737708296"><ele>591.4000000000001</ele><time>2026-04-12T10:17:06Z</time></trkpt><trkpt lat="45.84472173654541" lon="9.729563133324332"><ele>606.2</ele><time>2026-04-12T10:17:07Z</time></trkpt><trkpt lat="45.844794064381425" lon="9.729611274908985"><ele>621.0</ele><time>2026-04-12T10:17:08Z</time></trkpt><trkpt lat="45.844881561466885" lon="9.729619895247959"><ele>621.0</ele><time>2026-04-12T10:17:09Z</time></trkpt><trkpt lat="45.844976991062424" lon="9.72961376908263"><ele>621.0</ele><time>2026-04-12T10:17:10Z</time></trkpt><trkpt lat="45.845077164472656" lon="9.72961071443671"><ele>621.0</ele><time>2026-04-12T10:17:11Z</time></trkpt><trkpt lat="45.8451859322827" lon="9.729603447124093"><ele>621.0</ele><time>2026-04-12T10:17:12Z</time></trkpt><trkpt lat="45.84529665103281" lon="9.729611920882224"><ele>621.0</ele><time>2026-04-12T10:17:13Z</time></trkpt><trkpt lat="45.84540066865678" lon="9.729619798928288"><ele>619.6666666666666</ele><time>2026-04-12T10:17:14Z</time></trkpt><trkpt lat="45.84549036334379" lon="9.729615476201145"><ele>618.3333333333334</ele><time>2026-04-12T10:17:15Z</time></trkpt><trkpt lat="45.84557318374213" lon="9.72961966143022"><ele>617.0</ele><time>2026-04-12T10:17:17Z</time></trkpt><trkpt lat="45.845645382296105" lon="9.729634153275518"><ele>615.6666666666667</ele><time>2026-04-12T10:17:19Z</time></trkpt><trkpt lat="45.84570582215484" lon="9.729607660128254"><ele>614.3333333333334</ele><time>2026-04-12T10:17:20Z</time></trkpt><trkpt lat="45.845779244668314" lon="9.729624403466351"><ele>613.0</ele><time>2026-04-12T10:17:21Z</time></trkpt><trkpt lat="45.84586489764437" lon="9.72962196684204"><ele>613.6</ele><time>2026-04-12T10:17:22Z</time></trkpt><trkpt lat="45.845969383627775" lon="9.729625195695498"><ele>614.1999999999999</ele><time>2026-04-12T10:17:23Z</time></trkpt><trkpt lat="45.846086267151925" lon="9.729634693364225"><ele>614.8</ele><time>2026-04-12T10:17:24Z</time></trkpt><trkpt lat="45.84619150049475" lon="9.729608689731904"><ele>615.4</ele><time>2026-04-12T10:17:25Z</time></trkpt><trkpt lat="45.84628838270396" lon="9.729531539351926"><ele>616.0</ele><time>2026-04-12T10:17:26Z</time></trkpt><trkpt lat="45.846383435616744" lon="9.72941453821271"><ele>615.6</ele><time>2026-04-12T10:17:27Z</time></trkpt><trkpt lat="45.84644578225867" lon="9.729294796146931"><ele>615.2</ele><time>2026-04-12T10:17:28Z</time></trkpt><trkpt lat="45.846485881689155" lon="9.7291644777862"><ele>614.8</ele><time>2026-04-12T10:17:29Z</time></trkpt><trkpt lat="45.846536476910316" lon="9.729022666715911"><ele>614.4</ele><time>2026-04-12T10:17:30Z</time></trkpt><trkpt lat="45.8465689686487" lon="9.728887636717724"><ele>614.0</ele><time>2026-04-12T10:17:31Z</time></trkpt><trkpt lat="45.846616210983036" lon="9.72878088349559"><ele>614.0</ele><time>2026-04-12T10:17:32Z</time></trkpt><trkpt lat="45.84666774242746" lon="9.728707645332648"><ele>614.0</ele><time>2026-04-12T10:17:33Z</time></trkpt><trkpt lat="45.846716396132145" lon="9.728605201665431"><ele>614.0</ele><time>2026-04-12T10:17:34Z</time></trkpt><trkpt lat="45.84679884528559" lon="9.728520705856697"><ele>614.0</ele><time>2026-04-12T10:17:35Z</time></trkpt><trkpt lat="45.846891174864744" lon="9.728527146880003"><ele>614.0</ele><time>2026-04-12T10:17:36Z</time></trkpt><trkpt lat="45.846988897000294" lon="9.728589714256909"><ele>615.5</ele><time>2026-04-12T10:17:37Z</time></trkpt><trkpt lat="45.84709632964706" lon="9.728665012067577"><ele>617.0</ele><time>2026-04-12T10:17:38Z</time></trkpt><trkpt lat="45.84722041552994" lon="9.728742135606055"><ele>618.5</ele><time>2026-04-12T10:17:39Z</time></trkpt><trkpt lat="45.84735861035068" lon="9.728826051064475"><ele>620.0</ele><time>2026-04-12T10:17:40Z</time></trkpt><trkpt lat="45.847511072505604" lon="9.728913378115388"><ele>621.6666666666666</ele><time>2026-04-12T10:17:41Z</time></trkpt><trkpt lat="45.847670455025366" lon="9.728980677705982"><ele>623.3333333333334</ele><time>2026-04-12T10:17:42Z</time></trkpt><trkpt lat="45.84782105896455" lon="9.729022729130978"><ele>625.0</ele><time>2026-04-12T10:17:43Z</time></trkpt><trkpt lat="45.84798115583755" lon="9.729068621107622"><ele>625.0</ele><time>2026-04-12T10:17:44Z</time></trkpt><trkpt lat="45.84814329981734" lon="9.729117810982654"><ele>625.0</ele><time>2026-04-12T10:17:45Z</time></trkpt><trkpt lat="45.848306707864936" lon="9.72916193542198"><ele>625.0</ele><time>2026-04-12T10:17:46Z</time></trkpt><trkpt lat="45.84845518486963" lon="9.729196580620686"><ele>626.75</ele><time>2026-04-12T10:17:47Z</time></trkpt><trkpt lat="45.848586486472946" lon="9.729230874529101"><ele>628.5</ele><time>2026-04-12T10:17:48Z</time></trkpt><trkpt lat="45.84871599416118" lon="9.729249036215267"><ele>630.25</ele><time>2026-04-12T10:17:49Z</time></trkpt><trkpt lat="45.8488511607844" lon="9.729238790733351"><ele>632.0</ele><time>2026-04-12T10:17:50Z</time></trkpt><trkpt lat="45.848984343774006" lon="9.729203592983545"><ele>632.0</ele><time>2026-04-12T10:17:51Z</time></trkpt><trkpt lat="45.8491055662031" lon="9.729148790380034"><ele>632.0</ele><time>2026-04-12T10:17:52Z</time></trkpt><trkpt lat="45.84921319491532" lon="9.72904884755692"><ele>632.0</ele><time>2026-04-12T10:17:53Z</time></trkpt><trkpt lat="45.849313995049926" lon="9.728912929847555"><ele>632.0</ele><time>2026-04-12T10:17:54Z</time></trkpt><trkpt lat="45.84942534312013" lon="9.72876478924624"><ele>636.25</ele><time>2026-04-12T10:17:55Z</time></trkpt><trkpt lat="45.849540661855976" lon="9.728624133502546"><ele>640.5</ele><time>2026-04-12T10:17:56Z</time></trkpt><trkpt lat="45.84964886759209" lon="9.728478294415847"><ele>644.75</ele><time>2026-04-12T10:17:57Z</time></trkpt><trkpt lat="45.84974053889733" lon="9.728329253763036"><ele>649.0</ele><time>2026-04-12T10:17:58Z</time></trkpt><trkpt lat="45.84982756718368" lon="9.72818397097763"><ele>649.0</ele><time>2026-04-12T10:17:59Z</time></trkpt><trkpt lat="45.849916290779234" lon="9.728052341594674"><ele>649.0</ele><time>2026-04-12T10:18:00Z</time></trkpt><trkpt lat="45.85001266196699" lon="9.727928571757221"><ele>649.0</ele><time>2026-04-12T10:18:01Z</time></trkpt><trkpt lat="45.850100675230976" lon="9.727788542107984"><ele>649.0</ele><time>2026-04-12T10:18:02Z</time></trkpt><trkpt lat="45.85018033098196" lon="9.727651677826882"><ele>711.0</ele><time>2026-04-12T10:18:03Z</time></trkpt><trkpt lat="45.856167779863945" lon="9.731269876056091"><ele>711.0</ele><time>2026-04-12T10:19:04Z</time></trkpt><trkpt lat="45.85625668606653" lon="9.731285983947597"><ele>711.0</ele><time>2026-04-12T10:19:05Z</time></trkpt><trkpt lat="45.85634794079543" lon="9.731302205087077"><ele>711.0</ele><time>2026-04-12T10:19:06Z</time></trkpt><trkpt lat="45.85644074688843" lon="9.73132088024234"><ele>711.0</ele><time>2026-04-12T10:19:07Z</time></trkpt><trkpt lat="45.85653047916438" lon="9.731333587726557"><ele>711.0</ele><time>2026-04-12T10:19:08Z</time></trkpt><trkpt lat="45.856619845166676" lon="9.73132849370613"><ele>711.0</ele><time>2026-04-12T10:19:09Z</time></trkpt><trkpt lat="45.85671168764606" lon="9.73127443015985"><ele>711.0</ele><time>2026-04-12T10:19:10Z</time></trkpt><trkpt lat="45.856777924119264" lon="9.731158757339225"><ele>711.0</ele><time>2026-04-12T10:19:11Z</time></trkpt><trkpt lat="45.85683999639652" lon="9.731059247646222"><ele>711.0</ele><time>2026-04-12T10:19:12Z</time></trkpt><trkpt lat="45.85688834655844" lon="9.730966336293916"><ele>711.0</ele><time>2026-04-12T10:19:13Z</time></trkpt><trkpt lat="45.856969839228746" lon="9.730828624274805"><ele>708.1666666666666</ele><time>2026-04-12T10:19:15Z</time></trkpt><trkpt lat="45.857021492019484" lon="9.730762670384212"><ele>705.3333333333334</ele><time>2026-04-12T10:19:16Z</time></trkpt><trkpt lat="45.85709537582118" lon="9.730722911403195"><ele>702.5</ele><time>2026-04-12T10:19:17Z</time></trkpt><trkpt lat="45.85718288065346" lon="9.730715243325474"><ele>699.6666666666667</ele><time>2026-04-12T10:19:18Z</time></trkpt><trkpt lat="45.857277169593864" lon="9.730721866092798"><ele>696.8333333333334</ele><time>2026-04-12T10:19:19Z</time></trkpt><trkpt lat="45.857374960604126" lon="9.730753079594175"><ele>694.0</ele><time>2026-04-12T10:19:20Z</time></trkpt><trkpt lat="45.85748133879962" lon="9.730768214037157"><ele>694.0</ele><time>2026-04-12T10:19:21Z</time></trkpt><trkpt lat="45.85759488043026" lon="9.730770036221994"><ele>694.0</ele><time>2026-04-12T10:19:22Z</time></trkpt><trkpt lat="45.85769823616717" lon="9.730788588100594"><ele>694.0</ele><time>2026-04-12T10:19:23Z</time></trkpt><trkpt lat="45.85780014134336" lon="9.730798550277177"><ele>694.0</ele><time>2026-04-12T10:19:24Z</time></trkpt><trkpt lat="45.857905499866185" lon="9.730812657245076"><ele>694.0</ele><time>2026-04-12T10:19:25Z</time></trkpt><trkpt lat="45.858014592842935" lon="9.73084027001706"><ele>695.6</ele><time>2026-04-12T10:19:26Z</time></trkpt><trkpt lat="45.8581248015693" lon="9.730867283307429"><ele>697.2</ele><time>2026-04-12T10:19:27Z</time></trkpt><trkpt lat="45.858233300823144" lon="9.73088105159166"><ele>698.8000000000001</ele><time>2026-04-12T10:19:28Z</time></trkpt><trkpt lat="45.858333556438026" lon="9.730898242717572"><ele>700.4000000000001</ele><time>2026-04-12T10:19:29Z</time></trkpt><trkpt lat="45.85843835088482" lon="9.730888721004103"><ele>702.0</ele><time>2026-04-12T10:19:30Z</time></trkpt><trkpt lat="45.858547722172204" lon="9.730863045620497"><ele>703.25</ele><time>2026-04-12T10:19:31Z</time></trkpt><trkpt lat="45.85865715773702" lon="9.730818725083093"><ele>704.5</ele><time>2026-04-12T10:19:32Z</time></trkpt><trkpt lat="45.858763113085075" lon="9.730751654873865"><ele>705.75</ele><time>2026-04-12T10:19:33Z</time></trkpt><trkpt lat="45.85886422887191" lon="9.730669335610036"><ele>707.0</ele><time>2026-04-12T10:19:34Z</time></trkpt><trkpt lat="45.858956707043546" lon="9.730587101818186"><ele>707.0</ele><time>2026-04-12T10:19:35Z</time></trkpt><trkpt lat="45.85906481483741" lon="9.730528722946284"><ele>707.0</ele><time>2026-04-12T10:19:36Z</time></trkpt><trkpt lat="45.85918332875874" lon="9.73049881828947"><ele>707.0</ele><time>2026-04-12T10:19:37Z</time></trkpt><trkpt lat="45.85929711715081" lon="9.730470814714389"><ele>707.0</ele><time>2026-04-12T10:19:38Z</time></trkpt><trkpt lat="45.85939308262654" lon="9.730423057019127"><ele>706.4000000000001</ele><time>2026-04-12T10:19:39Z</time></trkpt><trkpt lat="45.85948453245356" lon="9.730363741025839"><ele>705.8000000000001</ele><time>2026-04-12T10:19:40Z</time></trkpt><trkpt lat="45.859577891433304" lon="9.73030681576402"><ele>705.2</ele><time>2026-04-12T10:19:41Z</time></trkpt><trkpt lat="45.859669865828195" lon="9.730254185524098"><ele>704.6</ele><time>2026-04-12T10:19:42Z</time></trkpt><trkpt lat="45.859747023144514" lon="9.730206215682347"><ele>704.0</ele><time>2026-04-12T10:19:43Z</time></trkpt><trkpt lat="45.85981830978094" lon="9.730163226614197"><ele>704.0</ele><time>2026-04-12T10:19:44Z</time></trkpt><trkpt lat="45.85987832252479" lon="9.730120995965779"><ele>704.0</ele><time>2026-04-12T10:19:45Z</time></trkpt><trkpt lat="45.85997978431277" lon="9.730052055293633"><ele>704.0</ele><time>2026-04-12T10:19:47Z</time></trkpt><trkpt lat="45.86006483007601" lon="9.72998886367727"><ele>704.0</ele><time>2026-04-12T10:19:49Z</time></trkpt><trkpt lat="45.860150696938035" lon="9.729935976517028"><ele>704.0</ele><time>2026-04-12T10:19:51Z</time></trkpt><trkpt lat="45.86021419537842" lon="9.729891842367481"><ele>704.0</ele><time>2026-04-12T10:19:55Z</time></trkpt><trkpt lat="45.86028159439045" lon="9.729847103228723"><ele>713.0</ele><time>2026-04-12T10:20:00Z</time></trkpt><trkpt lat="45.86036298332368" lon="9.729792654174343"><ele>722.0</ele><time>2026-04-12T10:20:02Z</time></trkpt><trkpt lat="45.86488074881785" lon="9.728667078078418"><ele>725.1666666666666</ele><time>2026-04-12T10:21:04Z</time></trkpt><trkpt lat="45.864809613049076" lon="9.728589076894448"><ele>728.3333333333333</ele><time>2026-04-12T10:21:14Z</time></trkpt><trkpt lat="45.86472185945102" lon="9.728561876421944"><ele>731.5</ele><time>2026-04-12T10:21:16Z</time></trkpt><trkpt lat="45.86464786709989" lon="9.728530516781317"><ele>734.6666666666666</ele><time>2026-04-12T10:21:18Z</time></trkpt><trkpt lat="45.86457310417226" lon="9.72849981994809"><ele>737.8333333333334</ele><time>2026-04-12T10:21:21Z</time></trkpt><trkpt lat="45.86458760911937" lon="9.728378085308409"><ele>741.0</ele><time>2026-04-12T10:21:23Z</time></trkpt><trkpt lat="45.864619112048125" lon="9.728293832674074"><ele>741.0</ele><time>2026-04-12T10:21:25Z</time></trkpt><trkpt lat="45.864644440181614" lon="9.7281808483837"><ele>741.0</ele><time>2026-04-12T10:25:16.999Z</time></trkpt></trkseg><trkseg><trkpt lat="45.89349468635548" lon="9.798558704383948"><ele>1233.8333333333333</ele><time>2026-04-12T10:52:38Z</time></trkpt><trkpt lat="45.89355202912" lon="9.798475368946326"><ele>1231.6666666666667</ele><time>2026-04-12T10:52:42Z</time></trkpt><trkpt lat="45.89353417635224" lon="9.798379683679897"><ele>1229.5</ele><time>2026-04-12T10:52:44Z</time></trkpt><trkpt lat="45.89361537020361" lon="9.798261067302999"><ele>1227.3333333333335</ele><time>2026-04-12T10:53:02Z</time></trkpt><trkpt lat="45.89368144306016" lon="9.798211587751378"><ele>1225.1666666666667</ele><time>2026-04-12T10:53:03Z</time></trkpt><trkpt lat="45.893757218203774" lon="9.798166968783665"><ele>1223.0</ele><time>2026-04-12T10:53:04Z</time></trkpt><trkpt lat="45.893843915224544" lon="9.798138209651864"><ele>1223.0</ele><time>2026-04-12T10:53:05Z</time></trkpt><trkpt lat="45.89390821956195" lon="9.798095795434953"><ele>1223.0</ele><time>2026-04-12T10:53:06Z</time></trkpt><trkpt lat="45.893970700472366" lon="9.79805592700819"><ele>1223.0</ele><time>2026-04-12T10:53:07Z</time></trkpt><trkpt lat="45.89408108935398" lon="9.797989070324"><ele>1223.0</ele><time>2026-04-12T10:53:09Z</time></trkpt><trkpt lat="45.894180024518356" lon="9.797924791402556"><ele>1223.0</ele><time>2026-04-12T10:53:11Z</time></trkpt><trkpt lat="45.894273919462776" lon="9.797858371487292"><ele>1221.4</ele><time>2026-04-12T10:53:13Z</time></trkpt><trkpt lat="45.89434696532545" lon="9.797787591523877"><ele>1219.8</ele><time>2026-04-12T10:53:15Z</time></trkpt><trkpt lat="45.89440603447666" lon="9.797720295803114"><ele>1218.2</ele><time>2026-04-12T10:53:17Z</time></trkpt><trkpt lat="45.89443674110978" lon="9.79760391419645"><ele>1216.6</ele><time>2026-04-12T10:53:19Z</time></trkpt><trkpt lat="45.89435601075507" lon="9.797500076648475"><ele>1215.0</ele><time>2026-04-12T10:53:21Z</time></trkpt><trkpt lat="45.89425362520007" lon="9.797466638208762"><ele>1214.3333333333333</ele><time>2026-04-12T10:53:23Z</time></trkpt><trkpt lat="45.89414462046301" lon="9.797467353600963"><ele>1213.6666666666667</ele><time>2026-04-12T10:53:25Z</time></trkpt><trkpt lat="45.894080238230046" lon="9.797474881645812"><ele>1213.0</ele><time>2026-04-12T10:53:26Z</time></trkpt><trkpt lat="45.89401156575854" lon="9.797487254769536"><ele>1212.3333333333335</ele><time>2026-04-12T10:53:27Z</time></trkpt><trkpt lat="45.89393921881929" lon="9.797510087821935"><ele>1211.6666666666667</ele><time>2026-04-12T10:53:28Z</time></trkpt><trkpt lat="45.89386585473277" lon="9.797512610430132"><ele>1211.0</ele><time>2026-04-12T10:53:29Z</time></trkpt><trkpt lat="45.89380191839551" lon="9.797539164165846"><ele>1211.0</ele><time>2026-04-12T10:53:30Z</time></trkpt><trkpt lat="45.89374613238192" lon="9.797584404937401"><ele>1211.0</ele><time>2026-04-12T10:53:31Z</time></trkpt><trkpt lat="45.89362653674602" lon="9.797614911932735"><ele>1211.0</ele><time>2026-04-12T10:53:33Z</time></trkpt><trkpt lat="45.89350881467334" lon="9.797626805669879"><ele>1211.0</ele><time>2026-04-12T10:53:35Z</time></trkpt><trkpt lat="45.89343285149802" lon="9.797619447952059"><ele>1211.0</ele><time>2026-04-12T10:53:37Z</time></trkpt><trkpt lat="45.89340644172549" lon="9.797535379859058"><ele>1211.0</ele><time>2026-04-12T10:53:39Z</time></trkpt><trkpt lat="45.89345043705504" lon="9.797369423155716"><ele>1211.0</ele><time>2026-04-12T10:53:41Z</time></trkpt><trkpt lat="45.893481565677575" lon="9.797281323773277"><ele>1211.0</ele><time>2026-04-12T10:53:42Z</time></trkpt><trkpt lat="45.89351071272171" lon="9.79717769380069"><ele>1211.0</ele><time>2026-04-12T10:53:43Z</time></trkpt><trkpt lat="45.89354100806467" lon="9.79706203930494"><ele>1211.0</ele><time>2026-04-12T10:53:44Z</time></trkpt><trkpt lat="45.893569790946614" lon="9.796948244350682"><ele>1211.0</ele><time>2026-04-12T10:53:45Z</time></trkpt><trkpt lat="45.89360210743115" lon="9.796827903549861"><ele>1211.0</ele><time>2026-04-12T10:53:46Z</time></trkpt><trkpt lat="45.89364072184453" lon="9.796703752556132"><ele>1208.8</ele><time>2026-04-12T10:53:47Z</time></trkpt><trkpt lat="45.89368767030966" lon="9.796585573106098"><ele>1206.6</ele><time>2026-04-12T10:53:48Z</time></trkpt><trkpt lat="45.89374142724231" lon="9.796475205104162"><ele>1204.4</ele><time>2026-04-12T10:53:49Z</time></trkpt><trkpt lat="45.89380701738101" lon="9.79637519359958"><ele>1202.2</ele><time>2026-04-12T10:53:50Z</time></trkpt><trkpt lat="45.893876915797854" lon="9.79627294867218"><ele>1200.0</ele><time>2026-04-12T10:53:51Z</time></trkpt><trkpt lat="45.89394110682026" lon="9.796160199377017"><ele>1200.0</ele><time>2026-04-12T10:53:52Z</time></trkpt><trkpt lat="45.89400600238009" lon="9.79605029366263"><ele>1200.0</ele><time>2026-04-12T10:53:53Z</time></trkpt><trkpt lat="45.89405997418403" lon="9.795950406140166"><ele>1200.0</ele><time>2026-04-12T10:53:54Z</time></trkpt><trkpt lat="45.89410617421026" lon="9.795859660465316"><ele>1200.0</ele><time>2026-04-12T10:53:55Z</time></trkpt><trkpt lat="45.894133660843046" lon="9.795773139868077"><ele>1200.0</ele><time>2026-04-12T10:53:56Z</time></trkpt><trkpt lat="45.894156365700816" lon="9.795614710688369"><ele>1200.0</ele><time>2026-04-12T10:53:58Z</time></trkpt><trkpt lat="45.89403774556834" lon="9.795518451338092"><ele>1200.0</ele><time>2026-04-12T10:54:00Z</time></trkpt><trkpt lat="45.8939690196234" lon="9.795468464264587"><ele>1200.0</ele><time>2026-04-12T10:54:01Z</time></trkpt><trkpt lat="45.893887650817206" lon="9.795434581768532"><ele>1200.0</ele><time>2026-04-12T10:54:02Z</time></trkpt><trkpt lat="45.893805192937776" lon="9.795404033897519"><ele>1200.0</ele><time>2026-04-12T10:54:03Z</time></trkpt><trkpt lat="45.889282629199876" lon="9.797119087587177"><ele>1205.75</ele><time>2026-04-12T10:55:04Z</time></trkpt><trkpt lat="45.88920323538916" lon="9.796962265639385"><ele>1211.5</ele><time>2026-04-12T10:55:05Z</time></trkpt><trkpt lat="45.889132757548595" lon="9.796824011397572"><ele>1217.25</ele><time>2026-04-12T10:55:06Z</time></trkpt><trkpt lat="45.8890566884276" lon="9.796710870311166"><ele>1223.0</ele><time>2026-04-12T10:55:07Z</time></trkpt><trkpt lat="45.88897034710894" lon="9.796647895810485"><ele>1223.0</ele><time>2026-04-12T10:55:08Z</time></trkpt><trkpt lat="45.88887767126044" lon="9.796630195142633"><ele>1223.0</ele><time>2026-04-12T10:55:09Z</time></trkpt><trkpt lat="45.88878313770457" lon="9.79665950167422"><ele>1223.0</ele><time>2026-04-12T10:55:10Z</time></trkpt><trkpt lat="45.888700574784224" lon="9.796733238075621"><ele>1223.0</ele><time>2026-04-12T10:55:11Z</time></trkpt><trkpt lat="45.88863065597017" lon="9.796836961662766"><ele>1223.0</ele><time>2026-04-12T10:55:12Z</time></trkpt><trkpt lat="45.88856310968308" lon="9.796949255596743"><ele>1225.6</ele><time>2026-04-12T10:55:13Z</time></trkpt><trkpt lat="45.88849522558552" lon="9.797049542080398"><ele>1228.1999999999998</ele><time>2026-04-12T10:55:14Z</time></trkpt><trkpt lat="45.88842458447916" lon="9.797152695863833"><ele>1230.8</ele><time>2026-04-12T10:55:15Z</time></trkpt><trkpt lat="45.88835204126341" lon="9.797224518583205"><ele>1233.3999999999999</ele><time>2026-04-12T10:55:16Z</time></trkpt><trkpt lat="45.88827143435345" lon="9.797247099684334"><ele>1236.0</ele><time>2026-04-12T10:55:17Z</time></trkpt><trkpt lat="45.88818592967433" lon="9.797214091624609"><ele>1239.3999999999999</ele><time>2026-04-12T10:55:18Z</time></trkpt><trkpt lat="45.888107421143935" lon="9.797157027458644"><ele>1242.8</ele><time>2026-04-12T10:55:19Z</time></trkpt><trkpt lat="45.88801983965799" lon="9.797112653595354"><ele>1246.1999999999998</ele><time>2026-04-12T10:55:20Z</time></trkpt><trkpt lat="45.88792319025513" lon="9.79708976910029"><ele>1249.6</ele><time>2026-04-12T10:55:21Z</time></trkpt><trkpt lat="45.88782062094755" lon="9.797079227236974"><ele>1253.0</ele><time>2026-04-12T10:55:22Z</time></trkpt><trkpt lat="45.88772369335809" lon="9.797049126911743"><ele>1253.0</ele><time>2026-04-12T10:55:23Z</time></trkpt><trkpt lat="45.88764229379787" lon="9.797000248669969"><ele>1253.0</ele><time>2026-04-12T10:55:24Z</time></trkpt><trkpt lat="45.887588770952355" lon="9.79689379226863"><ele>1253.0</ele><time>2026-04-12T10:55:25Z</time></trkpt><trkpt lat="45.88756409277045" lon="9.796769420968745"><ele>1253.0</ele><time>2026-04-12T10:55:26Z</time></trkpt><trkpt lat="45.88754056873256" lon="9.796626365873104"><ele>1253.0</ele><time>2026-04-12T10:55:27Z</time></trkpt><trkpt lat="45.887537342050244" lon="9.796478043404935"><ele>1252.6666666666667</ele><time>2026-04-12T10:55:28Z</time></trkpt><trkpt lat="45.8874960065449" lon="9.796350404150724"><ele>1252.3333333333335</ele><time>2026-04-12T10:55:29Z</time></trkpt><trkpt lat="45.887474810445475" lon="9.796246559138634"><ele>1252.0</ele><time>2026-04-12T10:55:30Z</time></trkpt><trkpt lat="45.88743065431252" lon="9.796168840828399"><ele>1251.6666666666667</ele><time>2026-04-12T10:55:31Z</time></trkpt><trkpt lat="45.887310996985136" lon="9.796167202718577"><ele>1251.3333333333333</ele><time>2026-04-12T10:55:33Z</time></trkpt><trkpt lat="45.88726560181585" lon="9.796241519950671"><ele>1251.0</ele><time>2026-04-12T10:55:34Z</time></trkpt><trkpt lat="45.88725330006744" lon="9.796337373809987"><ele>1251.0</ele><time>2026-04-12T10:55:35Z</time></trkpt><trkpt lat="45.88724068877867" lon="9.796458851973041"><ele>1251.0</ele><time>2026-04-12T10:55:36Z</time></trkpt><trkpt lat="45.88723670590602" lon="9.796596325216548"><ele>1251.0</ele><time>2026-04-12T10:55:37Z</time></trkpt><trkpt lat="45.88724862975421" lon="9.796744674523406"><ele>1251.0</ele><time>2026-04-12T10:55:38Z</time></trkpt><trkpt lat="45.88723464620214" lon="9.796896113113588"><ele>1251.0</ele><time>2026-04-12T10:55:39Z</time></trkpt><trkpt lat="45.88722244321592" lon="9.7970546674713"><ele>1252.8</ele><time>2026-04-12T10:55:40Z</time></trkpt><trkpt lat="45.887214567223076" lon="9.79721233189888"><ele>1254.6</ele><time>2026-04-12T10:55:41Z</time></trkpt><trkpt lat="45.88720082753657" lon="9.797363252203887"><ele>1256.4</ele><time>2026-04-12T10:55:42Z</time></trkpt><trkpt lat="45.88717587030292" lon="9.797498563772919"><ele>1258.2</ele><time>2026-04-12T10:55:43Z</time></trkpt><trkpt lat="45.887141732142595" lon="9.797611128240726"><ele>1260.0</ele><time>2026-04-12T10:55:44Z</time></trkpt><trkpt lat="45.887098583493405" lon="9.797711061240411"><ele>1258.8</ele><time>2026-04-12T10:55:45Z</time></trkpt><trkpt lat="45.88704050510759" lon="9.797796577466121"><ele>1257.6</ele><time>2026-04-12T10:55:46Z</time></trkpt><trkpt lat="45.88696257203581" lon="9.79786538673625"><ele>1256.4</ele><time>2026-04-12T10:55:47Z</time></trkpt><trkpt lat="45.88686822230947" lon="9.797912698356006"><ele>1255.2</ele><time>2026-04-12T10:55:48Z</time></trkpt><trkpt lat="45.886759905953014" lon="9.797942039914073"><ele>1254.0</ele><time>2026-04-12T10:55:49Z</time></trkpt><trkpt lat="45.88664030204502" lon="9.797974308940653"><ele>1254.0</ele><time>2026-04-12T10:55:50Z</time></trkpt><trkpt lat="45.88650405023145" lon="9.79803212418807"><ele>1254.0</ele><time>2026-04-12T10:55:51Z</time></trkpt><trkpt lat="45.88633934102707" lon="9.798051979879219"><ele>1254.0</ele><time>2026-04-12T10:55:52Z</time></trkpt><trkpt lat="45.88616493102237" lon="9.798103844543826"><ele>1254.0</ele><time>2026-04-12T10:55:53Z</time></trkpt><trkpt lat="45.88598706326744" lon="9.79815618901304"><ele>1254.0</ele><time>2026-04-12T10:55:54Z</time></trkpt><trkpt lat="45.88581385192322" lon="9.798229464495854"><ele>1254.0</ele><time>2026-04-12T10:55:55Z</time></trkpt><trkpt lat="45.88563964087422" lon="9.798283848878269"><ele>1252.0</ele><time>2026-04-12T10:55:56Z</time></trkpt><trkpt lat="45.88548364464784" lon="9.798335794410836"><ele>1250.0</ele><time>2026-04-12T10:55:57Z</time></trkpt><trkpt lat="45.885354305042895" lon="9.798376559133386"><ele>1248.0</ele><time>2026-04-12T10:55:58Z</time></trkpt><trkpt lat="45.88524091427379" lon="9.798373662541172"><ele>1246.0</ele><time>2026-04-12T10:55:59Z</time></trkpt><trkpt lat="45.8851632912793" lon="9.798385322299522"><ele>1246.0</ele><time>2026-04-12T10:56:00Z</time></trkpt><trkpt lat="45.885130158306985" lon="9.798257258594157"><ele>1246.0</ele><time>2026-04-12T10:56:01Z</time></trkpt><trkpt lat="45.885091394018175" lon="9.798156917019593"><ele>1246.0</ele><time>2026-04-12T10:56:02Z</time></trkpt><trkpt lat="45.88508379071019" lon="9.797991208320797"><ele>1246.0</ele><time>2026-04-12T10:56:03Z</time></trkpt><trkpt lat="45.88323138672161" lon="9.798841789182713"><ele>1228.25</ele><time>2026-04-12T10:57:04Z</time></trkpt><trkpt lat="45.88324810367679" lon="9.799062419713692"><ele>1210.5</ele><time>2026-04-12T10:57:05Z</time></trkpt><trkpt lat="45.88326248386711" lon="9.799250715931494"><ele>1192.75</ele><time>2026-04-12T10:57:06Z</time></trkpt><trkpt lat="45.88329006977337" lon="9.799390661961231"><ele>1175.0</ele><time>2026-04-12T10:57:07Z</time></trkpt><trkpt lat="45.88335658498905" lon="9.799474719479825"><ele>1174.6</ele><time>2026-04-12T10:57:08Z</time></trkpt><trkpt lat="45.88344783394684" lon="9.799487785041133"><ele>1174.2</ele><time>2026-04-12T10:57:09Z</time></trkpt><trkpt lat="45.88356487645705" lon="9.79944282033787"><ele>1173.8</ele><time>2026-04-12T10:57:10Z</time></trkpt><trkpt lat="45.88368850528871" lon="9.799444972079453"><ele>1173.4</ele><time>2026-04-12T10:57:11Z</time></trkpt><trkpt lat="45.88377931292223" lon="9.799442227269555"><ele>1173.0</ele><time>2026-04-12T10:57:12Z</time></trkpt><trkpt lat="45.8838260162139" lon="9.79953225238759"><ele>1173.0</ele><time>2026-04-12T10:57:13Z</time></trkpt><trkpt lat="45.883842807865484" lon="9.79966367712688"><ele>1173.0</ele><time>2026-04-12T10:57:14Z</time></trkpt><trkpt lat="45.883861249839754" lon="9.79980405656294"><ele>1173.0</ele><time>2026-04-12T10:57:15Z</time></trkpt><trkpt lat="45.88384974069222" lon="9.799962500605083"><ele>1173.0</ele><time>2026-04-12T10:57:16Z</time></trkpt><trkpt lat="45.88389086226666" lon="9.800095546032441"><ele>1173.0</ele><time>2026-04-12T10:57:17Z</time></trkpt><trkpt lat="45.88397319287353" lon="9.800185140488841"><ele>1173.0</ele><time>2026-04-12T10:57:18Z</time></trkpt><trkpt lat="45.88409141213704" lon="9.80019251347905"><ele>1173.0</ele><time>2026-04-12T10:57:19Z</time></trkpt><trkpt lat="45.88422162158084" lon="9.800136253144895"><ele>1173.0</ele><time>2026-04-12T10:57:20Z</time></trkpt><trkpt lat="45.88437062395023" lon="9.800061065016337"><ele>1173.0</ele><time>2026-04-12T10:57:21Z</time></trkpt><trkpt lat="45.88450906804575" lon="9.80004653728896"><ele>1177.5</ele><time>2026-04-12T10:57:22Z</time></trkpt><trkpt lat="45.884630263838254" lon="9.80003580428779"><ele>1182.0</ele><time>2026-04-12T10:57:23Z</time></trkpt><trkpt lat="45.88474270952422" lon="9.800055096795969"><ele>1186.5</ele><time>2026-04-12T10:57:24Z</time></trkpt><trkpt lat="45.88484762781801" lon="9.80013541347327"><ele>1191.0</ele><time>2026-04-12T10:57:25Z</time></trkpt><trkpt lat="45.884942105320974" lon="9.800296717455419"><ele>1188.75</ele><time>2026-04-12T10:57:26Z</time></trkpt><trkpt lat="45.88504530129347" lon="9.800442528608151"><ele>1186.5</ele><time>2026-04-12T10:57:27Z</time></trkpt><trkpt lat="45.88515535527509" lon="9.800527407021725"><ele>1184.25</ele><time>2026-04-12T10:57:28Z</time></trkpt><trkpt lat="45.88525112770188" lon="9.8006050071626"><ele>1182.0</ele><time>2026-04-12T10:57:29Z</time></trkpt><trkpt lat="45.88531832553868" lon="9.800729387279356"><ele>1182.0</ele><time>2026-04-12T10:57:30Z</time></trkpt><trkpt lat="45.88534865932677" lon="9.800899890801162"><ele>1182.0</ele><time>2026-04-12T10:57:31Z</time></trkpt><trkpt lat="45.885379901601446" lon="9.801094116311212"><ele>1182.0</ele><time>2026-04-12T10:57:32Z</time></trkpt><trkpt lat="45.88542901413404" lon="9.801268678576102"><ele>1182.0</ele><time>2026-04-12T10:57:33Z</time></trkpt><trkpt lat="45.885501570288156" lon="9.801422774898333"><ele>1176.0</ele><time>2026-04-12T10:57:34Z</time></trkpt><trkpt lat="45.885572188161056" lon="9.801540736748308"><ele>1170.0</ele><time>2026-04-12T10:57:35Z</time></trkpt><trkpt lat="45.885625805592795" lon="9.801641567015494"><ele>1164.0</ele><time>2026-04-12T10:57:36Z</time></trkpt><trkpt lat="45.885589084716955" lon="9.801784498114664"><ele>1158.0</ele><time>2026-04-12T10:57:38Z</time></trkpt><trkpt lat="45.88551136335972" lon="9.801800258753936"><ele>1152.0</ele><time>2026-04-12T10:57:39Z</time></trkpt><trkpt lat="45.885452941489476" lon="9.801727304360508"><ele>1152.0</ele><time>2026-04-12T10:57:40Z</time></trkpt><trkpt lat="45.8854425023046" lon="9.801601128257298"><ele>1152.0</ele><time>2026-04-12T10:57:41Z</time></trkpt><trkpt lat="45.88538835742735" lon="9.801488783217144"><ele>1152.0</ele><time>2026-04-12T10:57:42Z</time></trkpt><trkpt lat="45.88535586036584" lon="9.801334122019268"><ele>1152.0</ele><time>2026-04-12T10:57:43Z</time></trkpt><trkpt lat="45.88530404647445" lon="9.801174120885355"><ele>1152.0</ele><time>2026-04-12T10:57:44Z</time></trkpt><trkpt lat="45.88524293784393" lon="9.801004816427769"><ele>1152.25</ele><time>2026-04-12T10:57:45Z</time></trkpt><trkpt lat="45.88517687495351" lon="9.800840320082006"><ele>1152.5</ele><time>2026-04-12T10:57:46Z</time></trkpt><trkpt lat="45.885083593340205" lon="9.800710566726291"><ele>1152.75</ele><time>2026-04-12T10:57:47Z</time></trkpt><trkpt lat="45.88495868738919" lon="9.800633138983795"><ele>1153.0</ele><time>2026-04-12T10:57:48Z</time></trkpt><trkpt lat="45.88480080571925" lon="9.800590973441022"><ele>1153.0</ele><time>2026-04-12T10:57:49Z</time></trkpt><trkpt lat="45.884634821928096" lon="9.800559419513936"><ele>1153.0</ele><time>2026-04-12T10:57:50Z</time></trkpt><trkpt lat="45.884463334268716" lon="9.800534824473049"><ele>1153.0</ele><time>2026-04-12T10:57:51Z</time></trkpt><trkpt lat="45.884304249205634" lon="9.800521151566619"><ele>1149.5</ele><time>2026-04-12T10:57:52Z</time></trkpt><trkpt lat="45.88416789287534" lon="9.800537305911478"><ele>1146.0</ele><time>2026-04-12T10:57:53Z</time></trkpt><trkpt lat="45.88405987212541" lon="9.800580619912411"><ele>1142.5</ele><time>2026-04-12T10:57:54Z</time></trkpt><trkpt lat="45.88396784503754" lon="9.800693182196476"><ele>1139.0</ele><time>2026-04-12T10:57:55Z</time></trkpt><trkpt lat="45.88387233938527" lon="9.80084266498002"><ele>1139.0</ele><time>2026-04-12T10:57:56Z</time></trkpt><trkpt lat="45.88376210531903" lon="9.800998905592879"><ele>1139.0</ele><time>2026-04-12T10:57:57Z</time></trkpt><trkpt lat="45.88365276993312" lon="9.801138381049874"><ele>1139.0</ele><time>2026-04-12T10:57:58Z</time></trkpt><trkpt lat="45.88354454507541" lon="9.801248962717668"><ele>1139.0</ele><time>2026-04-12T10:57:59Z</time></trkpt><trkpt lat="45.883438861613996" lon="9.801296336776064"><ele>1131.75</ele><time>2026-04-12T10:58:00Z</time></trkpt><trkpt lat="45.88335169000307" lon="9.801275256465871"><ele>1124.5</ele><time>2026-04-12T10:58:01Z</time></trkpt><trkpt lat="45.883284940874354" lon="9.801201064360678"><ele>1117.25</ele><time>2026-04-12T10:58:02Z</time></trkpt><trkpt lat="45.8832743370151" lon="9.801041973788578"><ele>1110.0</ele><time>2026-04-12T10:58:03Z</time></trkpt><trkpt lat="45.88557838966695" lon="9.804456104313365"><ele>1093.6666666666667</ele><time>2026-04-12T10:59:04Z</time></trkpt><trkpt lat="45.8855001953429" lon="9.804247690652822"><ele>1077.3333333333335</ele><time>2026-04-12T10:59:05Z</time></trkpt><trkpt lat="45.885417663733335" lon="9.80404893929533"><ele>1061.0</ele><time>2026-04-12T10:59:06Z</time></trkpt><trkpt lat="45.88530981299257" lon="9.803897017976073"><ele>1061.0</ele><time>2026-04-12T10:59:07Z</time></trkpt><trkpt lat="45.8852101667754" lon="9.80377039603679"><ele>1061.0</ele><time>2026-04-12T10:59:08Z</time></trkpt><trkpt lat="45.88508277349559" lon="9.80370004099314"><ele>1061.0</ele><time>2026-04-12T10:59:09Z</time></trkpt><trkpt lat="45.88493639232588" lon="9.80366941850857"><ele>1061.0</ele><time>2026-04-12T10:59:10Z</time></trkpt><trkpt lat="45.884796649668104" lon="9.803622614440927"><ele>1053.0</ele><time>2026-04-12T10:59:11Z</time></trkpt><trkpt lat="45.88467069683373" lon="9.803604354380608"><ele>1045.0</ele><time>2026-04-12T10:59:12Z</time></trkpt><trkpt lat="45.88456020444758" lon="9.803638440019846"><ele>1037.0</ele><time>2026-04-12T10:59:13Z</time></trkpt><trkpt lat="45.884457750612604" lon="9.803683922149284"><ele>1029.0</ele><time>2026-04-12T10:59:14Z</time></trkpt><trkpt lat="45.88437184318402" lon="9.80377273882499"><ele>1029.0</ele><time>2026-04-12T10:59:15Z</time></trkpt><trkpt lat="45.884305823539336" lon="9.80388171250086"><ele>1029.0</ele><time>2026-04-12T10:59:16Z</time></trkpt><trkpt lat="45.88424663274655" lon="9.803998461853995"><ele>1029.0</ele><time>2026-04-12T10:59:17Z</time></trkpt><trkpt lat="45.88417579366734" lon="9.804097613450988"><ele>1029.0</ele><time>2026-04-12T10:59:18Z</time></trkpt><trkpt lat="45.884112028265314" lon="9.804195869105927"><ele>1029.0</ele><time>2026-04-12T10:59:19Z</time></trkpt><trkpt lat="45.88404097947535" lon="9.804282844096099"><ele>1028.4</ele><time>2026-04-12T10:59:20Z</time></trkpt><trkpt lat="45.883964120881444" lon="9.804372532332609"><ele>1027.8000000000002</ele><time>2026-04-12T10:59:21Z</time></trkpt><trkpt lat="45.88386176895337" lon="9.804377886812643"><ele>1027.1999999999998</ele><time>2026-04-12T10:59:22Z</time></trkpt><trkpt lat="45.88376665385866" lon="9.804374003174049"><ele>1026.6</ele><time>2026-04-12T10:59:23Z</time></trkpt><trkpt lat="45.883674125721974" lon="9.804364100807263"><ele>1026.0</ele><time>2026-04-12T10:59:24Z</time></trkpt><trkpt lat="45.88359937139815" lon="9.804285900999778"><ele>1026.0</ele><time>2026-04-12T10:59:25Z</time></trkpt><trkpt lat="45.88355253127168" lon="9.804184927468999"><ele>1026.0</ele><time>2026-04-12T10:59:26Z</time></trkpt><trkpt lat="45.88352581973054" lon="9.804094296204086"><ele>1026.0</ele><time>2026-04-12T10:59:27Z</time></trkpt><trkpt lat="45.8834494132228" lon="9.803969557189241"><ele>1026.0</ele><time>2026-04-12T10:59:29Z</time></trkpt><trkpt lat="45.88338981011047" lon="9.803928157022643"><ele>1026.0</ele><time>2026-04-12T10:59:30Z</time></trkpt><trkpt lat="45.88331163428004" lon="9.803951945214278"><ele>1026.0</ele><time>2026-04-12T10:59:31Z</time></trkpt><trkpt lat="45.8832490587751" lon="9.804030243754893"><ele>1024.3999999999999</ele><time>2026-04-12T10:59:32Z</time></trkpt><trkpt lat="45.883241626048566" lon="9.804163398668999"><ele>1022.8</ele><time>2026-04-12T10:59:33Z</time></trkpt><trkpt lat="45.88325759917137" lon="9.804276605634902"><ele>1021.1999999999999</ele><time>2026-04-12T10:59:34Z</time></trkpt><trkpt lat="45.88330970371488" lon="9.804381228840402"><ele>1019.5999999999999</ele><time>2026-04-12T10:59:35Z</time></trkpt><trkpt lat="45.88338130441786" lon="9.804486969418104"><ele>1018.0</ele><time>2026-04-12T10:59:36Z</time></trkpt><trkpt lat="45.883453190644275" lon="9.804607519906583"><ele>1015.25</ele><time>2026-04-12T10:59:37Z</time></trkpt><trkpt lat="45.883536248215094" lon="9.804716832934165"><ele>1012.5</ele><time>2026-04-12T10:59:38Z</time></trkpt><trkpt lat="45.88363388319085" lon="9.804800558621883"><ele>1009.75</ele><time>2026-04-12T10:59:39Z</time></trkpt><trkpt lat="45.88374389139712" lon="9.804857450340382"><ele>1007.0</ele><time>2026-04-12T10:59:40Z</time></trkpt><trkpt lat="45.883856365683144" lon="9.804907062575554"><ele>1007.0</ele><time>2026-04-12T10:59:41Z</time></trkpt><trkpt lat="45.88396343978099" lon="9.804966952155262"><ele>1007.0</ele><time>2026-04-12T10:59:42Z</time></trkpt><trkpt lat="45.88407375108986" lon="9.805033320179158"><ele>1007.0</ele><time>2026-04-12T10:59:43Z</time></trkpt><trkpt lat="45.88418912522077" lon="9.805091273131927"><ele>1007.0</ele><time>2026-04-12T10:59:44Z</time></trkpt><trkpt lat="45.884302937848304" lon="9.805150539428537"><ele>1005.5</ele><time>2026-04-12T10:59:45Z</time></trkpt><trkpt lat="45.884408696083206" lon="9.805213353009016"><ele>1004.0</ele><time>2026-04-12T10:59:46Z</time></trkpt><trkpt lat="45.884506987561466" lon="9.805283269843535"><ele>1002.5</ele><time>2026-04-12T10:59:47Z</time></trkpt><trkpt lat="45.88459926906227" lon="9.80536770230058"><ele>1001.0</ele><time>2026-04-12T10:59:48Z</time></trkpt><trkpt lat="45.8846911610958" lon="9.805486008875619"><ele>1001.0</ele><time>2026-04-12T10:59:49Z</time></trkpt><trkpt lat="45.88477308856051" lon="9.805612826798841"><ele>1001.0</ele><time>2026-04-12T10:59:50Z</time></trkpt><trkpt lat="45.884845593509155" lon="9.805733153020222"><ele>1001.0</ele><time>2026-04-12T10:59:51Z</time></trkpt><trkpt lat="45.8849135077239" lon="9.805854455917569"><ele>1001.0</ele><time>2026-04-12T10:59:52Z</time></trkpt><trkpt lat="45.884987304896235" lon="9.8059828288258"><ele>999.5999999999999</ele><time>2026-04-12T10:59:53Z</time></trkpt><trkpt lat="45.885060384727566" lon="9.806116674886892"><ele>998.1999999999999</ele><time>2026-04-12T10:59:54Z</time></trkpt><trkpt lat="45.88513024663096" lon="9.806245020512929"><ele>996.8000000000001</ele><time>2026-04-12T10:59:55Z</time></trkpt><trkpt lat="45.88519594837446" lon="9.806367390252131"><ele>995.4000000000001</ele><time>2026-04-12T10:59:56Z</time></trkpt><trkpt lat="45.88526234169283" lon="9.806480329829892"><ele>994.0</ele><time>2026-04-12T10:59:57Z</time></trkpt><trkpt lat="45.88532994115815" lon="9.806587794371461"><ele>993.9999999999999</ele><time>2026-04-12T10:59:58Z</time></trkpt><trkpt lat="45.8854070072277" lon="9.806671859676479"><ele>994.0</ele><time>2026-04-12T10:59:59Z</time></trkpt><trkpt lat="45.885493476813984" lon="9.806712010317955"><ele>994.0</ele><time>2026-04-12T11:00:00Z</time></trkpt><trkpt lat="45.885585641245" lon="9.806732330384586"><ele>994.0</ele><time>2026-04-12T11:00:01Z</time></trkpt><trkpt lat="45.88567607896254" lon="9.80677347574047"><ele>993.9999999999999</ele><time>2026-04-12T11:00:02Z</time></trkpt><trkpt lat="45.88574079788436" lon="9.806794296893013"><ele>994.0</ele><time>2026-04-12T11:00:03Z</time></trkpt><trkpt lat="45.87951356220045" lon="9.805318890892748"><ele>984.3333333333333</ele><time>2026-04-12T11:01:04Z</time></trkpt><trkpt lat="45.87943545138553" lon="9.80508691092098"><ele>974.6666666666667</ele><time>2026-04-12T11:01:05Z</time></trkpt><trkpt lat="45.879335236218246" lon="9.804879857832614"><ele>965.0</ele><time>2026-04-12T11:01:06Z</time></trkpt><trkpt lat="45.8792372660967" lon="9.804688456343959"><ele>956.5</ele><time>2026-04-12T11:01:07Z</time></trkpt><trkpt lat="45.87914833118177" lon="9.804515133727039"><ele>948.0</ele><time>2026-04-12T11:01:08Z</time></trkpt><trkpt lat="45.87907641499918" lon="9.804363724107239"><ele>939.5</ele><time>2026-04-12T11:01:09Z</time></trkpt><trkpt lat="45.87901624153203" lon="9.804236238047302"><ele>931.0</ele><time>2026-04-12T11:01:10Z</time></trkpt><trkpt lat="45.878945568476404" lon="9.804144065140326"><ele>930.9999999999999</ele><time>2026-04-12T11:01:11Z</time></trkpt><trkpt lat="45.878900551152164" lon="9.804073403653621"><ele>931.0</ele><time>2026-04-12T11:01:12Z</time></trkpt><trkpt lat="45.878842542766215" lon="9.804026059400211"><ele>931.0</ele><time>2026-04-12T11:01:13Z</time></trkpt><trkpt lat="45.87877283455986" lon="9.803982251417867"><ele>931.0</ele><time>2026-04-12T11:01:14Z</time></trkpt><trkpt lat="45.87868528382358" lon="9.803962275828782"><ele>930.9999999999999</ele><time>2026-04-12T11:01:15Z</time></trkpt><trkpt lat="45.87859073707369" lon="9.803947298625241"><ele>931.0</ele><time>2026-04-12T11:01:16Z</time></trkpt><trkpt lat="45.87849305647912" lon="9.803939390424858"><ele>929.4</ele><time>2026-04-12T11:01:17Z</time></trkpt><trkpt lat="45.87841418601432" lon="9.80389893591788"><ele>927.8</ele><time>2026-04-12T11:01:18Z</time></trkpt><trkpt lat="45.87834491484146" lon="9.803823684838802"><ele>926.1999999999999</ele><time>2026-04-12T11:01:19Z</time></trkpt><trkpt lat="45.87828051605014" lon="9.803714901810611"><ele>924.5999999999999</ele><time>2026-04-12T11:01:20Z</time></trkpt><trkpt lat="45.87821104824066" lon="9.803609023571234"><ele>923.0</ele><time>2026-04-12T11:01:21Z</time></trkpt><trkpt lat="45.87817525398202" lon="9.803489508993945"><ele>923.0</ele><time>2026-04-12T11:01:22Z</time></trkpt><trkpt lat="45.87811990773042" lon="9.803400806493912"><ele>923.0</ele><time>2026-04-12T11:01:23Z</time></trkpt><trkpt lat="45.87805326193752" lon="9.803339325251077"><ele>923.0</ele><time>2026-04-12T11:01:24Z</time></trkpt><trkpt lat="45.87796068757477" lon="9.803311660766752"><ele>923.0</ele><time>2026-04-12T11:01:25Z</time></trkpt><trkpt lat="45.87785754024594" lon="9.803358267957606"><ele>923.0</ele><time>2026-04-12T11:01:26Z</time></trkpt><trkpt lat="45.87777012547921" lon="9.803452522943902"><ele>915.6666666666667</ele><time>2026-04-12T11:01:27Z</time></trkpt><trkpt lat="45.877689478777576" lon="9.803621902396655"><ele>908.3333333333333</ele><time>2026-04-12T11:01:28Z</time></trkpt><trkpt lat="45.877580066310735" lon="9.803824994464216"><ele>901.0</ele><time>2026-04-12T11:01:29Z</time></trkpt><trkpt lat="45.8774768574644" lon="9.804053253333535"><ele>901.0</ele><time>2026-04-12T11:01:30Z</time></trkpt><trkpt lat="45.87738438638315" lon="9.804303479743714"><ele>901.0</ele><time>2026-04-12T11:01:31Z</time></trkpt><trkpt lat="45.87728904646383" lon="9.804575961798985"><ele>901.0</ele><time>2026-04-12T11:01:32Z</time></trkpt><trkpt lat="45.87719867336469" lon="9.804841635333851"><ele>895.0</ele><time>2026-04-12T11:01:33Z</time></trkpt><trkpt lat="45.87712440708819" lon="9.805059572439232"><ele>889.0</ele><time>2026-04-12T11:01:34Z</time></trkpt><trkpt lat="45.877031851059066" lon="9.805226690354308"><ele>883.0</ele><time>2026-04-12T11:01:35Z</time></trkpt><trkpt lat="45.876907210249506" lon="9.805365885618977"><ele>880.0</ele><time>2026-04-12T11:01:36Z</time></trkpt><trkpt lat="45.8768068862641" lon="9.805500294930072"><ele>877.0</ele><time>2026-04-12T11:01:37Z</time></trkpt><trkpt lat="45.87674943148563" lon="9.80561045466641"><ele>874.0</ele><time>2026-04-12T11:01:38Z</time></trkpt><trkpt lat="45.876753744681864" lon="9.805757530385325"><ele>871.0</ele><time>2026-04-12T11:01:39Z</time></trkpt><trkpt lat="45.87677269556562" lon="9.80601134320614"><ele>868.8</ele><time>2026-04-12T11:01:40Z</time></trkpt><trkpt lat="45.876790765891016" lon="9.806202306864279"><ele>866.5999999999999</ele><time>2026-04-12T11:01:41Z</time></trkpt><trkpt lat="45.8767782501555" lon="9.806356589453122"><ele>864.4</ele><time>2026-04-12T11:01:42Z</time></trkpt><trkpt lat="45.87674042862804" lon="9.806448816372047"><ele>862.2</ele><time>2026-04-12T11:01:43Z</time></trkpt><trkpt lat="45.87665442439795" lon="9.806485927177437"><ele>860.0</ele><time>2026-04-12T11:01:44Z</time></trkpt><trkpt lat="45.87655446524032" lon="9.806566114103111"><ele>862.25</ele><time>2026-04-12T11:01:45Z</time></trkpt><trkpt lat="45.87644785779645" lon="9.806691465145962"><ele>864.5</ele><time>2026-04-12T11:01:46Z</time></trkpt><trkpt lat="45.876359644865616" lon="9.806838828868338"><ele>866.75</ele><time>2026-04-12T11:01:47Z</time></trkpt><trkpt lat="45.87630281436588" lon="9.807014139392715"><ele>869.0</ele><time>2026-04-12T11:01:48.001Z</time></trkpt><trkpt lat="45.87621119213032" lon="9.807206293866312"><ele>869.0</ele><time>2026-04-12T11:01:49.001Z</time></trkpt><trkpt lat="45.87626193098241" lon="9.80748239198771"><ele>869.0</ele><time>2026-04-12T11:01:50.001Z</time></trkpt><trkpt lat="45.876261316293075" lon="9.807749434954125"><ele>869.0</ele><time>2026-04-12T11:01:51.001Z</time></trkpt><trkpt lat="45.87623477254574" lon="9.808025140790841"><ele>864.0</ele><time>2026-04-12T11:01:52.001Z</time></trkpt><trkpt lat="45.87619261409072" lon="9.808289445063668"><ele>859.0</ele><time>2026-04-12T11:01:53.001Z</time></trkpt><trkpt lat="45.876146580702724" lon="9.808515913614123"><ele>854.0</ele><time>2026-04-12T11:01:54.001Z</time></trkpt><trkpt lat="45.87609634346836" lon="9.80868250622747"><ele>856.6</ele><time>2026-04-12T11:01:55.001Z</time></trkpt><trkpt lat="45.87602251522138" lon="9.808807130425972"><ele>859.2</ele><time>2026-04-12T11:01:56.001Z</time></trkpt><trkpt lat="45.87595896433522" lon="9.808916766376049"><ele>861.8000000000001</ele><time>2026-04-12T11:01:57.001Z</time></trkpt><trkpt lat="45.875869680715056" lon="9.80896586249216"><ele>864.4000000000001</ele><time>2026-04-12T11:01:58.001Z</time></trkpt><trkpt lat="45.87578358407245" lon="9.808931059851577"><ele>867.0</ele><time>2026-04-12T11:01:59.001Z</time></trkpt><trkpt lat="45.875760789201905" lon="9.808800944876776"><ele>867.0</ele><time>2026-04-12T11:02:00.001Z</time></trkpt><trkpt lat="45.87571289994133" lon="9.808689104506492"><ele>867.0</ele><time>2026-04-12T11:02:01.001Z</time></trkpt><trkpt lat="45.87564163912282" lon="9.808562873952422"><ele>867.0</ele><time>2026-04-12T11:02:02.001Z</time></trkpt><trkpt lat="45.87558546714988" lon="9.808441309211362"><ele>867.0</ele><time>2026-04-12T11:02:03.001Z</time></trkpt><trkpt lat="45.87419922644569" lon="9.809335812430268"><ele>863.0</ele><time>2026-04-12T11:03:04Z</time></trkpt><trkpt lat="45.874267571006065" lon="9.809159163361624"><ele>859.0</ele><time>2026-04-12T11:03:05Z</time></trkpt><trkpt lat="45.874325806311695" lon="9.808995326443883"><ele>855.0</ele><time>2026-04-12T11:03:06Z</time></trkpt><trkpt lat="45.8743786862728" lon="9.808872224033383"><ele>851.0</ele><time>2026-04-12T11:03:07Z</time></trkpt><trkpt lat="45.87442725740808" lon="9.808790744552246"><ele>847.0</ele><time>2026-04-12T11:03:08Z</time></trkpt><trkpt lat="45.874555513208286" lon="9.8087877706428"><ele>846.0</ele><time>2026-04-12T11:03:10Z</time></trkpt><trkpt lat="45.87461401673126" lon="9.808887044485225"><ele>845.0</ele><time>2026-04-12T11:03:11Z</time></trkpt><trkpt lat="45.87464348007485" lon="9.809037906026072"><ele>844.0</ele><time>2026-04-12T11:03:12Z</time></trkpt><trkpt lat="45.874674079228114" lon="9.809212850045661"><ele>843.0</ele><time>2026-04-12T11:03:13Z</time></trkpt><trkpt lat="45.874714877929385" lon="9.8094134412048"><ele>835.0</ele><time>2026-04-12T11:03:14Z</time></trkpt><trkpt lat="45.87476143470897" lon="9.809630687577611"><ele>827.0</ele><time>2026-04-12T11:03:15Z</time></trkpt><trkpt lat="45.87481091467243" lon="9.809847762296727"><ele>819.0</ele><time>2026-04-12T11:03:16Z</time></trkpt><trkpt lat="45.87485694572143" lon="9.810052052363645"><ele>815.0</ele><time>2026-04-12T11:03:17Z</time></trkpt><trkpt lat="45.87490534789705" lon="9.810251155098442"><ele>811.0</ele><time>2026-04-12T11:03:18Z</time></trkpt><trkpt lat="45.87495838973268" lon="9.810408755571993"><ele>807.0</ele><time>2026-04-12T11:03:19Z</time></trkpt><trkpt lat="45.87503948991785" lon="9.810530976749396"><ele>803.0</ele><time>2026-04-12T11:03:20Z</time></trkpt><trkpt lat="45.87514734439623" lon="9.810625879744906"><ele>803.0</ele><time>2026-04-12T11:03:21Z</time></trkpt><trkpt lat="45.87527515897623" lon="9.810720733207015"><ele>803.0</ele><time>2026-04-12T11:03:22Z</time></trkpt><trkpt lat="45.87541486027727" lon="9.810783957873628"><ele>803.0</ele><time>2026-04-12T11:03:23Z</time></trkpt><trkpt lat="45.875541836380265" lon="9.810871502774324"><ele>803.0</ele><time>2026-04-12T11:03:24Z</time></trkpt><trkpt lat="45.875663799910534" lon="9.810935713563753"><ele>803.0</ele><time>2026-04-12T11:03:25Z</time></trkpt><trkpt lat="45.87579660219754" lon="9.81094848049663"><ele>803.0</ele><time>2026-04-12T11:03:26Z</time></trkpt><trkpt lat="45.87594023915481" lon="9.810930095613015"><ele>803.0</ele><time>2026-04-12T11:03:27Z</time></trkpt><trkpt lat="45.87607422430007" lon="9.81085150188098"><ele>803.0</ele><time>2026-04-12T11:03:28Z</time></trkpt><trkpt lat="45.876215848661474" lon="9.810753609240072"><ele>799.75</ele><time>2026-04-12T11:03:29Z</time></trkpt><trkpt lat="45.87635048028484" lon="9.810662843084991"><ele>796.5</ele><time>2026-04-12T11:03:30Z</time></trkpt><trkpt lat="45.876477337518224" lon="9.810565143425324"><ele>793.25</ele><time>2026-04-12T11:03:31Z</time></trkpt><trkpt lat="45.87660811591885" lon="9.810505730279138"><ele>790.0</ele><time>2026-04-12T11:03:32Z</time></trkpt><trkpt lat="45.87673435974866" lon="9.810453501191187"><ele>789.25</ele><time>2026-04-12T11:03:33Z</time></trkpt><trkpt lat="45.87685403395359" lon="9.810405443909982"><ele>788.5</ele><time>2026-04-12T11:03:34Z</time></trkpt><trkpt lat="45.876971753218115" lon="9.81035832026222"><ele>787.75</ele><time>2026-04-12T11:03:35Z</time></trkpt><trkpt lat="45.87708557794776" lon="9.810312568743186"><ele>787.0</ele><time>2026-04-12T11:03:36Z</time></trkpt><trkpt lat="45.877199183940256" lon="9.810266041284471"><ele>787.0</ele><time>2026-04-12T11:03:37Z</time></trkpt><trkpt lat="45.877331021918806" lon="9.810219487096665"><ele>787.0</ele><time>2026-04-12T11:03:38.001Z</time></trkpt><trkpt lat="45.8774782039775" lon="9.810198510294578"><ele>787.0</ele><time>2026-04-12T11:03:39.001Z</time></trkpt><trkpt lat="45.877631447619265" lon="9.810204863272654"><ele>787.0</ele><time>2026-04-12T11:03:40.001Z</time></trkpt><trkpt lat="45.87778149291843" lon="9.81022249903571"><ele>787.2</ele><time>2026-04-12T11:03:41.001Z</time></trkpt><trkpt lat="45.87791906560332" lon="9.810235814340608"><ele>787.4000000000001</ele><time>2026-04-12T11:03:42.001Z</time></trkpt><trkpt lat="45.87803806191208" lon="9.810248234633288"><ele>787.5999999999999</ele><time>2026-04-12T11:03:43.001Z</time></trkpt><trkpt lat="45.87814239007962" lon="9.810261061851781"><ele>787.8</ele><time>2026-04-12T11:03:44.001Z</time></trkpt><trkpt lat="45.8782205374573" lon="9.8102981668306"><ele>788.0</ele><time>2026-04-12T11:03:45.001Z</time></trkpt><trkpt lat="45.87825776693504" lon="9.810389154285234"><ele>788.0</ele><time>2026-04-12T11:03:46.001Z</time></trkpt><trkpt lat="45.87826647853109" lon="9.810544267276907"><ele>788.0</ele><time>2026-04-12T11:03:47.001Z</time></trkpt><trkpt lat="45.878282663991044" lon="9.810715598683709"><ele>788.0</ele><time>2026-04-12T11:03:48.001Z</time></trkpt><trkpt lat="45.8783236735581" lon="9.81089522802712"><ele>788.0</ele><time>2026-04-12T11:03:49.001Z</time></trkpt><trkpt lat="45.87840377855366" lon="9.811049560504284"><ele>781.6666666666667</ele><time>2026-04-12T11:03:50.001Z</time></trkpt><trkpt lat="45.878516803354344" lon="9.811159626683821"><ele>775.3333333333333</ele><time>2026-04-12T11:03:51.001Z</time></trkpt><trkpt lat="45.878663517015916" lon="9.81123639132152"><ele>769.0</ele><time>2026-04-12T11:03:52.001Z</time></trkpt><trkpt lat="45.878838011613816" lon="9.811263300622691"><ele>769.0</ele><time>2026-04-12T11:03:53.001Z</time></trkpt><trkpt lat="45.878986747171595" lon="9.81123938277508"><ele>769.0</ele><time>2026-04-12T11:03:54.001Z</time></trkpt><trkpt lat="45.87914610606205" lon="9.811170481726643"><ele>769.0</ele><time>2026-04-12T11:03:55.001Z</time></trkpt><trkpt lat="45.87927589918328" lon="9.811129798373157"><ele>769.0</ele><time>2026-04-12T11:03:56.001Z</time></trkpt><trkpt lat="45.87937619281751" lon="9.811148806451811"><ele>772.2</ele><time>2026-04-12T11:03:57.001Z</time></trkpt><trkpt lat="45.879461244453466" lon="9.811166898521712"><ele>775.4000000000001</ele><time>2026-04-12T11:03:58.001Z</time></trkpt><trkpt lat="45.87953829406845" lon="9.811261725880502"><ele>778.6</ele><time>2026-04-12T11:03:59.001Z</time></trkpt><trkpt lat="45.87959653351282" lon="9.811416918456723"><ele>781.8</ele><time>2026-04-12T11:04:00.001Z</time></trkpt><trkpt lat="45.87962899141495" lon="9.811601806836503"><ele>785.0</ele><time>2026-04-12T11:04:01.001Z</time></trkpt><trkpt lat="45.87966144395591" lon="9.811740831827555"><ele>799.5</ele><time>2026-04-12T11:04:02.001Z</time></trkpt><trkpt lat="45.879657522726454" lon="9.811850259171072"><ele>814.0</ele><time>2026-04-12T11:04:03.001Z</time></trkpt><trkpt lat="45.87234226370812" lon="9.8160439266259"><ele>799.5</ele><time>2026-04-12T11:05:04Z</time></trkpt><trkpt lat="45.872229025820474" lon="9.81610893041927"><ele>785.0</ele><time>2026-04-12T11:05:05Z</time></trkpt><trkpt lat="45.87214094089262" lon="9.816227752806348"><ele>770.5</ele><time>2026-04-12T11:05:06Z</time></trkpt><trkpt lat="45.87208472235628" lon="9.816383178629696"><ele>756.0</ele><time>2026-04-12T11:05:07Z</time></trkpt><trkpt lat="45.872053112555434" lon="9.816566446327027"><ele>756.0</ele><time>2026-04-12T11:05:08Z</time></trkpt><trkpt lat="45.872022726401" lon="9.816750434277282"><ele>756.0</ele><time>2026-04-12T11:05:09Z</time></trkpt><trkpt lat="45.87196525969038" lon="9.816904399128195"><ele>756.0</ele><time>2026-04-12T11:05:10Z</time></trkpt><trkpt lat="45.87187801871374" lon="9.8170488645592"><ele>756.0</ele><time>2026-04-12T11:05:11Z</time></trkpt><trkpt lat="45.8717866355946" lon="9.817196094343123"><ele>752.5</ele><time>2026-04-12T11:05:12Z</time></trkpt><trkpt lat="45.871726578623786" lon="9.817352935197844"><ele>749.0</ele><time>2026-04-12T11:05:13Z</time></trkpt><trkpt lat="45.871679140008936" lon="9.817518124927908"><ele>745.5</ele><time>2026-04-12T11:05:14Z</time></trkpt><trkpt lat="45.87163585860949" lon="9.817687977669166"><ele>742.0</ele><time>2026-04-12T11:05:15Z</time></trkpt><trkpt lat="45.87159065426547" lon="9.81785455050726"><ele>742.0</ele><time>2026-04-12T11:05:16Z</time></trkpt><trkpt lat="45.87154354567056" lon="9.81801380949621"><ele>742.0</ele><time>2026-04-12T11:05:17Z</time></trkpt><trkpt lat="45.87149015177774" lon="9.818171904925714"><ele>742.0</ele><time>2026-04-12T11:05:18Z</time></trkpt><trkpt lat="45.87142877211869" lon="9.818324731269492"><ele>742.0</ele><time>2026-04-12T11:05:19Z</time></trkpt><trkpt lat="45.87135694458477" lon="9.81846945227687"><ele>742.0</ele><time>2026-04-12T11:05:20Z</time></trkpt><trkpt lat="45.87128314633492" lon="9.8186110139009"><ele>742.0</ele><time>2026-04-12T11:05:21Z</time></trkpt><trkpt lat="45.87120624951859" lon="9.818740825378132"><ele>742.0</ele><time>2026-04-12T11:05:22Z</time></trkpt><trkpt lat="45.87113988826309" lon="9.818868154020802"><ele>742.0</ele><time>2026-04-12T11:05:23Z</time></trkpt><trkpt lat="45.8711038859815" lon="9.81899992164475"><ele>742.0</ele><time>2026-04-12T11:05:24Z</time></trkpt><trkpt lat="45.87109462166392" lon="9.81913669498947"><ele>742.0</ele><time>2026-04-12T11:05:25Z</time></trkpt><trkpt lat="45.87112967709073" lon="9.819283223433883"><ele>742.0</ele><time>2026-04-12T11:05:26Z</time></trkpt><trkpt lat="45.871182388750995" lon="9.819449126455432"><ele>742.0</ele><time>2026-04-12T11:05:27Z</time></trkpt><trkpt lat="45.87123740661345" lon="9.819606526046373"><ele>742.3333333333334</ele><time>2026-04-12T11:05:28Z</time></trkpt><trkpt lat="45.87127485697554" lon="9.81974356957462"><ele>742.6666666666667</ele><time>2026-04-12T11:05:29Z</time></trkpt><trkpt lat="45.871299656151315" lon="9.819848874096522"><ele>743.0</ele><time>2026-04-12T11:05:30Z</time></trkpt><trkpt lat="45.87128440851991" lon="9.819949024951052"><ele>743.3333333333334</ele><time>2026-04-12T11:05:31Z</time></trkpt><trkpt lat="45.8712311361147" lon="9.820041933543846"><ele>743.6666666666666</ele><time>2026-04-12T11:05:32.001Z</time></trkpt><trkpt lat="45.871146960312835" lon="9.820110335703975"><ele>744.0</ele><time>2026-04-12T11:05:33.001Z</time></trkpt><trkpt lat="45.87103886367084" lon="9.820163944002232"><ele>738.0</ele><time>2026-04-12T11:05:34.001Z</time></trkpt><trkpt lat="45.870928411198484" lon="9.820247089846111"><ele>732.0</ele><time>2026-04-12T11:05:35.001Z</time></trkpt><trkpt lat="45.87082320251238" lon="9.820381293856903"><ele>726.0</ele><time>2026-04-12T11:05:36.001Z</time></trkpt><trkpt lat="45.87074541824315" lon="9.820547109290764"><ele>720.0</ele><time>2026-04-12T11:05:37.001Z</time></trkpt><trkpt lat="45.87068244939078" lon="9.82073654190297"><ele>720.0</ele><time>2026-04-12T11:05:38.001Z</time></trkpt><trkpt lat="45.87061711955153" lon="9.820907202549032"><ele>720.0</ele><time>2026-04-12T11:05:39.001Z</time></trkpt><trkpt lat="45.8705088268768" lon="9.821008045445605"><ele>720.0</ele><time>2026-04-12T11:05:40.001Z</time></trkpt><trkpt lat="45.870410449799024" lon="9.821132681526782"><ele>720.0</ele><time>2026-04-12T11:05:41.001Z</time></trkpt><trkpt lat="45.87033519724701" lon="9.821245146478395"><ele>722.6</ele><time>2026-04-12T11:05:42.001Z</time></trkpt><trkpt lat="45.87029024480479" lon="9.82140100250048"><ele>725.2</ele><time>2026-04-12T11:05:43.001Z</time></trkpt><trkpt lat="45.8702627431053" lon="9.821560322444153"><ele>727.8</ele><time>2026-04-12T11:05:44.001Z</time></trkpt><trkpt lat="45.870220276628906" lon="9.821680686272966"><ele>730.4</ele><time>2026-04-12T11:05:45.001Z</time></trkpt><trkpt lat="45.87013092476941" lon="9.82169975339047"><ele>733.0</ele><time>2026-04-12T11:05:46.001Z</time></trkpt><trkpt lat="45.87004365129002" lon="9.821762463752409"><ele>727.8</ele><time>2026-04-12T11:05:47.001Z</time></trkpt><trkpt lat="45.86997072937855" lon="9.821835786627824"><ele>722.5999999999999</ele><time>2026-04-12T11:05:48.001Z</time></trkpt><trkpt lat="45.86991041706259" lon="9.821916569015489"><ele>717.4000000000001</ele><time>2026-04-12T11:05:49.001Z</time></trkpt><trkpt lat="45.86987848016884" lon="9.822032738868161"><ele>712.2</ele><time>2026-04-12T11:05:50.001Z</time></trkpt><trkpt lat="45.86990216495068" lon="9.822172276479499"><ele>707.0</ele><time>2026-04-12T11:05:51.001Z</time></trkpt><trkpt lat="45.86996423623992" lon="9.822320170539074"><ele>707.0</ele><time>2026-04-12T11:05:52.001Z</time></trkpt><trkpt lat="45.87003167436894" lon="9.822464200206918"><ele>707.0</ele><time>2026-04-12T11:05:53.001Z</time></trkpt><trkpt lat="45.8700671130933" lon="9.822592223082715"><ele>707.0</ele><time>2026-04-12T11:05:54.001Z</time></trkpt><trkpt lat="45.87008153856147" lon="9.822698186353852"><ele>707.0</ele><time>2026-04-12T11:05:55.001Z</time></trkpt><trkpt lat="45.87006872417548" lon="9.822792538689525"><ele>707.0</ele><time>2026-04-12T11:05:56.001Z</time></trkpt><trkpt lat="45.869989376329144" lon="9.822872269089999"><ele>712.5</ele><time>2026-04-12T11:05:57.001Z</time></trkpt><trkpt lat="45.86987489039171" lon="9.82288964549841"><ele>718.0</ele><time>2026-04-12T11:05:58.001Z</time></trkpt><trkpt lat="45.86976919564831" lon="9.82292411986756"><ele>723.5</ele><time>2026-04-12T11:05:59.001Z</time></trkpt><trkpt lat="45.869657260963365" lon="9.822868776056783"><ele>729.0</ele><time>2026-04-12T11:06:00.001Z</time></trkpt><trkpt lat="45.86951773015596" lon="9.822840861434143"><ele>729.0</ele><time>2026-04-12T11:06:01.001Z</time></trkpt><trkpt lat="45.86936529161885" lon="9.822831272726726"><ele>729.0</ele><time>2026-04-12T11:06:02.001Z</time></trkpt><trkpt lat="45.86923446155139" lon="9.822753640710575"><ele>729.0</ele><time>2026-04-12T11:06:03.001Z</time></trkpt><trkpt lat="45.8660837907059" lon="9.832186956041271"><ele>719.3333333333334</ele><time>2026-04-12T11:07:04Z</time></trkpt><trkpt lat="45.86604150312372" lon="9.83239349507635"><ele>709.6666666666667</ele><time>2026-04-12T11:07:05Z</time></trkpt><trkpt lat="45.86596764899662" lon="9.832575681277783"><ele>700.0</ele><time>2026-04-12T11:07:06Z</time></trkpt><trkpt lat="45.865856781365366" lon="9.832736502577315"><ele>697.25</ele><time>2026-04-12T11:07:07Z</time></trkpt><trkpt lat="45.86574507749691" lon="9.83288158401419"><ele>694.5</ele><time>2026-04-12T11:07:08Z</time></trkpt><trkpt lat="45.86563424771145" lon="9.833017983477795"><ele>691.75</ele><time>2026-04-12T11:07:09Z</time></trkpt><trkpt lat="45.86554336559785" lon="9.833162700761985"><ele>689.0</ele><time>2026-04-12T11:07:10Z</time></trkpt><trkpt lat="45.865471109733264" lon="9.833364005598465"><ele>693.6666666666666</ele><time>2026-04-12T11:07:11Z</time></trkpt><trkpt lat="45.865386310698376" lon="9.833585218126004"><ele>698.3333333333334</ele><time>2026-04-12T11:07:12Z</time></trkpt><trkpt lat="45.86530455140456" lon="9.83377437435833"><ele>703.0</ele><time>2026-04-12T11:07:13Z</time></trkpt><trkpt lat="45.86523725821761" lon="9.833938230754718"><ele>703.0</ele><time>2026-04-12T11:07:14Z</time></trkpt><trkpt lat="45.86520183257053" lon="9.834090429461499"><ele>703.0</ele><time>2026-04-12T11:07:15Z</time></trkpt><trkpt lat="45.86519704179493" lon="9.834235282870146"><ele>703.0</ele><time>2026-04-12T11:07:16Z</time></trkpt><trkpt lat="45.86518088649098" lon="9.83434668854005"><ele>703.0</ele><time>2026-04-12T11:07:17Z</time></trkpt><trkpt lat="45.86513058385737" lon="9.834425724884815"><ele>703.0</ele><time>2026-04-12T11:07:18Z</time></trkpt><trkpt lat="45.865041033589854" lon="9.834454323876077"><ele>702.75</ele><time>2026-04-12T11:07:19Z</time></trkpt><trkpt lat="45.86493679667543" lon="9.834392823581918"><ele>702.5</ele><time>2026-04-12T11:07:20Z</time></trkpt><trkpt lat="45.864812523785645" lon="9.834355300942127"><ele>702.25</ele><time>2026-04-12T11:07:21Z</time></trkpt><trkpt lat="45.86467914337287" lon="9.83433303153474"><ele>702.0</ele><time>2026-04-12T11:07:22Z</time></trkpt><trkpt lat="45.86456395356407" lon="9.834322514973993"><ele>702.0</ele><time>2026-04-12T11:07:23Z</time></trkpt><trkpt lat="45.864467174993585" lon="9.834352517929005"><ele>702.0</ele><time>2026-04-12T11:07:24Z</time></trkpt><trkpt lat="45.864366714644426" lon="9.834389530675361"><ele>702.0</ele><time>2026-04-12T11:07:25Z</time></trkpt><trkpt lat="45.86428194841277" lon="9.834525807514291"><ele>702.0</ele><time>2026-04-12T11:07:26Z</time></trkpt><trkpt lat="45.86420204477461" lon="9.834680578109587"><ele>695.75</ele><time>2026-04-12T11:07:27Z</time></trkpt><trkpt lat="45.864100761368746" lon="9.834838375473584"><ele>689.5</ele><time>2026-04-12T11:07:28Z</time></trkpt><trkpt lat="45.864031773418695" lon="9.8350058662296"><ele>683.25</ele><time>2026-04-12T11:07:29Z</time></trkpt><trkpt lat="45.86394235838953" lon="9.835135156802725"><ele>677.0</ele><time>2026-04-12T11:07:30Z</time></trkpt><trkpt lat="45.86386373949624" lon="9.835230038788383"><ele>677.0</ele><time>2026-04-12T11:07:31Z</time></trkpt><trkpt lat="45.863780870046064" lon="9.835300429767374"><ele>677.0</ele><time>2026-04-12T11:07:32Z</time></trkpt><trkpt lat="45.86367128618888" lon="9.835308384904579"><ele>677.0</ele><time>2026-04-12T11:07:33Z</time></trkpt><trkpt lat="45.863567874736866" lon="9.8353297969071"><ele>677.0</ele><time>2026-04-12T11:07:34Z</time></trkpt><trkpt lat="45.86348366597776" lon="9.835415996247628"><ele>677.0</ele><time>2026-04-12T11:07:35Z</time></trkpt><trkpt lat="45.86341118576663" lon="9.835550326400133"><ele>669.5</ele><time>2026-04-12T11:07:36Z</time></trkpt><trkpt lat="45.863360653367316" lon="9.835736873806463"><ele>662.0</ele><time>2026-04-12T11:07:37Z</time></trkpt><trkpt lat="45.86329562632229" lon="9.835933678546533"><ele>654.5</ele><time>2026-04-12T11:07:38Z</time></trkpt><trkpt lat="45.86324320618837" lon="9.836119750318119"><ele>647.0</ele><time>2026-04-12T11:07:39Z</time></trkpt><trkpt lat="45.86321292344784" lon="9.836297349721413"><ele>647.0</ele><time>2026-04-12T11:07:40Z</time></trkpt><trkpt lat="45.86318334087391" lon="9.836470055957166"><ele>647.0</ele><time>2026-04-12T11:07:41Z</time></trkpt><trkpt lat="45.8631974290674" lon="9.836665892935267"><ele>647.0</ele><time>2026-04-12T11:07:42.001Z</time></trkpt><trkpt lat="45.863207720860466" lon="9.836883667855137"><ele>647.0</ele><time>2026-04-12T11:07:43.001Z</time></trkpt><trkpt lat="45.863228816527105" lon="9.83710198333208"><ele>647.5</ele><time>2026-04-12T11:07:44.001Z</time></trkpt><trkpt lat="45.863254235978154" lon="9.837308379345535"><ele>648.0</ele><time>2026-04-12T11:07:45.001Z</time></trkpt><trkpt lat="45.86329090652651" lon="9.83750710982984"><ele>648.5</ele><time>2026-04-12T11:07:46.001Z</time></trkpt><trkpt lat="45.863324914605414" lon="9.83768854580521"><ele>649.0</ele><time>2026-04-12T11:07:47.001Z</time></trkpt><trkpt lat="45.86334914270787" lon="9.837825095504677"><ele>653.4000000000001</ele><time>2026-04-12T11:07:48.001Z</time></trkpt><trkpt lat="45.86332733404515" lon="9.837984710251304"><ele>657.8</ele><time>2026-04-12T11:07:50.001Z</time></trkpt><trkpt lat="45.86325305798595" lon="9.837984177808979"><ele>662.2</ele><time>2026-04-12T11:07:51.001Z</time></trkpt><trkpt lat="45.863171941805646" lon="9.8379106807009"><ele>666.5999999999999</ele><time>2026-04-12T11:07:52.001Z</time></trkpt><trkpt lat="45.86308953182377" lon="9.837814113910493"><ele>671.0</ele><time>2026-04-12T11:07:53.001Z</time></trkpt><trkpt lat="45.86299224488681" lon="9.837742411817981"><ele>671.0</ele><time>2026-04-12T11:07:54.001Z</time></trkpt><trkpt lat="45.86288259588329" lon="9.837678138579017"><ele>671.0</ele><time>2026-04-12T11:07:55.001Z</time></trkpt><trkpt lat="45.86278067354339" lon="9.837604772692517"><ele>671.0</ele><time>2026-04-12T11:07:56.001Z</time></trkpt><trkpt lat="45.862680570483995" lon="9.837560412282597"><ele>671.0</ele><time>2026-04-12T11:07:57.001Z</time></trkpt><trkpt lat="45.86258579369853" lon="9.837523200878634"><ele>671.0</ele><time>2026-04-12T11:07:58.001Z</time></trkpt><trkpt lat="45.862486139493505" lon="9.837620379117059"><ele>666.0</ele><time>2026-04-12T11:07:59.001Z</time></trkpt><trkpt lat="45.86239230742186" lon="9.83773219257129"><ele>661.0</ele><time>2026-04-12T11:08:00.001Z</time></trkpt><trkpt lat="45.86228270979001" lon="9.837859401860438"><ele>656.0</ele><time>2026-04-12T11:08:01.001Z</time></trkpt><trkpt lat="45.86215069688865" lon="9.837937199984298"><ele>651.0</ele><time>2026-04-12T11:08:02.001Z</time></trkpt><trkpt lat="45.86201639725768" lon="9.838001925854313"><ele>553.0</ele><time>2026-04-12T11:08:03.001Z</time></trkpt><trkpt lat="45.85881867809807" lon="9.847838327246437"><ele>553.0</ele><time>2026-04-12T11:09:04Z</time></trkpt><trkpt lat="45.85880128322693" lon="9.848026038215673"><ele>553.0</ele><time>2026-04-12T11:09:05Z</time></trkpt><trkpt lat="45.858785159459316" lon="9.848216489096155"><ele>553.0</ele><time>2026-04-12T11:09:06Z</time></trkpt><trkpt lat="45.85876658182298" lon="9.848403388163868"><ele>553.0</ele><time>2026-04-12T11:09:07Z</time></trkpt><trkpt lat="45.85874305516124" lon="9.848580806086796"><ele>552.5</ele><time>2026-04-12T11:09:08Z</time></trkpt><trkpt lat="45.85870403308368" lon="9.84874764232522"><ele>552.0</ele><time>2026-04-12T11:09:09Z</time></trkpt><trkpt lat="45.85862488199445" lon="9.848883147371726"><ele>551.5</ele><time>2026-04-12T11:09:10Z</time></trkpt><trkpt lat="45.85857194529912" lon="9.84904223361224"><ele>551.0</ele><time>2026-04-12T11:09:11Z</time></trkpt><trkpt lat="45.858521353694854" lon="9.849209076603872"><ele>553.0</ele><time>2026-04-12T11:09:12Z</time></trkpt><trkpt lat="45.85849491429771" lon="9.849406087247587"><ele>555.0</ele><time>2026-04-12T11:09:13Z</time></trkpt><trkpt lat="45.8584885371974" lon="9.849617064919377"><ele>557.0</ele><time>2026-04-12T11:09:14Z</time></trkpt><trkpt lat="45.858487822107215" lon="9.849845379998543"><ele>559.0</ele><time>2026-04-12T11:09:15Z</time></trkpt><trkpt lat="45.85847810831985" lon="9.850087033526975"><ele>563.0</ele><time>2026-04-12T11:09:16Z</time></trkpt><trkpt lat="45.85846679281891" lon="9.85032105951415"><ele>567.0</ele><time>2026-04-12T11:09:17Z</time></trkpt><trkpt lat="45.85845970145065" lon="9.850548493252482"><ele>571.0</ele><time>2026-04-12T11:09:18Z</time></trkpt><trkpt lat="45.85844692460283" lon="9.850777056274328"><ele>555.3333333333334</ele><time>2026-04-12T11:09:19Z</time></trkpt><trkpt lat="45.8584291780234" lon="9.851005831320899"><ele>539.6666666666666</ele><time>2026-04-12T11:09:20Z</time></trkpt><trkpt lat="45.85841717941343" lon="9.851227562143219"><ele>524.0</ele><time>2026-04-12T11:09:21Z</time></trkpt><trkpt lat="45.85841246973909" lon="9.85144069019023"><ele>524.0</ele><time>2026-04-12T11:09:22Z</time></trkpt><trkpt lat="45.85840767933473" lon="9.851655994593555"><ele>524.0</ele><time>2026-04-12T11:09:23Z</time></trkpt><trkpt lat="45.85840175026914" lon="9.851872998594853"><ele>524.0</ele><time>2026-04-12T11:09:24Z</time></trkpt><trkpt lat="45.85838898642199" lon="9.85210193216004"><ele>522.6666666666666</ele><time>2026-04-12T11:09:25Z</time></trkpt><trkpt lat="45.85839058987463" lon="9.8523222027899"><ele>521.3333333333334</ele><time>2026-04-12T11:09:26Z</time></trkpt><trkpt lat="45.858399444363606" lon="9.852542675185314"><ele>520.0</ele><time>2026-04-12T11:09:27Z</time></trkpt><trkpt lat="45.85840983223463" lon="9.852757348671703"><ele>518.5</ele><time>2026-04-12T11:09:28Z</time></trkpt><trkpt lat="45.85842710727616" lon="9.852965996581872"><ele>517.0</ele><time>2026-04-12T11:09:29Z</time></trkpt><trkpt lat="45.85844633923662" lon="9.853174093463055"><ele>515.5</ele><time>2026-04-12T11:09:30Z</time></trkpt><trkpt lat="45.85846614872031" lon="9.853387990623334"><ele>514.0</ele><time>2026-04-12T11:09:31Z</time></trkpt><trkpt lat="45.85848952975686" lon="9.8535970207027"><ele>520.3333333333334</ele><time>2026-04-12T11:09:32Z</time></trkpt><trkpt lat="45.858523783656835" lon="9.853808810579869"><ele>526.6666666666666</ele><time>2026-04-12T11:09:33Z</time></trkpt><trkpt lat="45.85856673396173" lon="9.854030137227287"><ele>533.0</ele><time>2026-04-12T11:09:34Z</time></trkpt><trkpt lat="45.85861229616063" lon="9.854255994508632"><ele>531.6666666666666</ele><time>2026-04-12T11:09:35Z</time></trkpt><trkpt lat="45.85865183254353" lon="9.854480196191536"><ele>530.3333333333334</ele><time>2026-04-12T11:09:36Z</time></trkpt><trkpt lat="45.858688040957254" lon="9.854695139848237"><ele>529.0</ele><time>2026-04-12T11:09:37Z</time></trkpt><trkpt lat="45.85872413834305" lon="9.85490881396951"><ele>527.0</ele><time>2026-04-12T11:09:38Z</time></trkpt><trkpt lat="45.858753185620294" lon="9.855121630367876"><ele>525.0</ele><time>2026-04-12T11:09:39Z</time></trkpt><trkpt lat="45.858765214377236" lon="9.855333119728284"><ele>523.0</ele><time>2026-04-12T11:09:40Z</time></trkpt><trkpt lat="45.85876019163402" lon="9.855549861869374"><ele>523.0</ele><time>2026-04-12T11:09:41Z</time></trkpt><trkpt lat="45.85873496918383" lon="9.855764791922663"><ele>523.0</ele><time>2026-04-12T11:09:42Z</time></trkpt><trkpt lat="45.85869080347578" lon="9.855987971241467"><ele>523.0</ele><time>2026-04-12T11:09:43Z</time></trkpt><trkpt lat="45.8586454619933" lon="9.856208359079032"><ele>523.25</ele><time>2026-04-12T11:09:44Z</time></trkpt><trkpt lat="45.85860574382032" lon="9.856420593988618"><ele>523.5</ele><time>2026-04-12T11:09:45Z</time></trkpt><trkpt lat="45.858567265793766" lon="9.856628373303723"><ele>523.75</ele><time>2026-04-12T11:09:46Z</time></trkpt><trkpt lat="45.85852708297235" lon="9.85682208448625"><ele>524.0</ele><time>2026-04-12T11:09:47Z</time></trkpt><trkpt lat="45.85849586741974" lon="9.857016727182161"><ele>524.0</ele><time>2026-04-12T11:09:48.001Z</time></trkpt><trkpt lat="45.85848505631222" lon="9.85720689900804"><ele>524.0</ele><time>2026-04-12T11:09:49.001Z</time></trkpt><trkpt lat="45.85849788526796" lon="9.857403302282279"><ele>524.0</ele><time>2026-04-12T11:09:50.001Z</time></trkpt><trkpt lat="45.85853161008818" lon="9.857601951928393"><ele>524.0</ele><time>2026-04-12T11:09:51.001Z</time></trkpt><trkpt lat="45.858603384473994" lon="9.857782583693973"><ele>522.3333333333333</ele><time>2026-04-12T11:09:52.001Z</time></trkpt><trkpt lat="45.85868753808901" lon="9.85797323672258"><ele>520.6666666666666</ele><time>2026-04-12T11:09:53.001Z</time></trkpt><trkpt lat="45.858764196951206" lon="9.85816758376959"><ele>519.0</ele><time>2026-04-12T11:09:54.001Z</time></trkpt><trkpt lat="45.8588349321862" lon="9.85836770221048"><ele>514.6666666666666</ele><time>2026-04-12T11:09:55.001Z</time></trkpt><trkpt lat="45.85889342801966" lon="9.858580431875307"><ele>510.3333333333333</ele><time>2026-04-12T11:09:56.001Z</time></trkpt><trkpt lat="45.85894995846318" lon="9.858800411781777"><ele>506.0</ele><time>2026-04-12T11:09:57.001Z</time></trkpt><trkpt lat="45.859003557139516" lon="9.859025505350132"><ele>506.0</ele><time>2026-04-12T11:09:58.001Z</time></trkpt><trkpt lat="45.85905307336152" lon="9.859257111564236"><ele>506.0</ele><time>2026-04-12T11:09:59.001Z</time></trkpt><trkpt lat="45.85909729219857" lon="9.859495777552354"><ele>506.0</ele><time>2026-04-12T11:10:00.001Z</time></trkpt><trkpt lat="45.85913772543127" lon="9.859742824533807"><ele>503.66666666666663</ele><time>2026-04-12T11:10:01.001Z</time></trkpt><trkpt lat="45.859175079541835" lon="9.859995094464507"><ele>501.33333333333337</ele><time>2026-04-12T11:10:02.001Z</time></trkpt><trkpt lat="45.85921647670719" lon="9.860256850014798"><ele>499.0</ele><time>2026-04-12T11:10:03.001Z</time></trkpt><trkpt lat="45.859485658283866" lon="9.875011314804436"><ele>492.6666666666667</ele><time>2026-04-12T11:11:04.002Z</time></trkpt><trkpt lat="45.85947033336803" lon="9.87523342979155"><ele>486.33333333333337</ele><time>2026-04-12T11:11:05.002Z</time></trkpt><trkpt lat="45.85945401826105" lon="9.875457968884893"><ele>480.0</ele><time>2026-04-12T11:11:06.002Z</time></trkpt><trkpt lat="45.859444708137026" lon="9.875689154561448"><ele>480.0</ele><time>2026-04-12T11:11:07.002Z</time></trkpt><trkpt lat="45.8594306814553" lon="9.875917603382659"><ele>480.0</ele><time>2026-04-12T11:11:08Z</time></trkpt><trkpt lat="45.859413342151115" lon="9.876147778022109"><ele>480.0</ele><time>2026-04-12T11:11:09Z</time></trkpt><trkpt lat="45.85939773041084" lon="9.876373890657531"><ele>482.33333333333337</ele><time>2026-04-12T11:11:10Z</time></trkpt><trkpt lat="45.859383191224715" lon="9.876596550629259"><ele>484.6666666666667</ele><time>2026-04-12T11:11:11Z</time></trkpt><trkpt lat="45.85936813429057" lon="9.876813933327606"><ele>487.0</ele><time>2026-04-12T11:11:12Z</time></trkpt><trkpt lat="45.85935359867215" lon="9.877026843264082"><ele>487.0</ele><time>2026-04-12T11:11:13Z</time></trkpt><trkpt lat="45.85933922129919" lon="9.877235214742447"><ele>487.0</ele><time>2026-04-12T11:11:14Z</time></trkpt><trkpt lat="45.85932521394031" lon="9.877445389023922"><ele>487.0</ele><time>2026-04-12T11:11:15Z</time></trkpt><trkpt lat="45.8593115270776" lon="9.877660687365488"><ele>487.0</ele><time>2026-04-12T11:11:16Z</time></trkpt><trkpt lat="45.859301915792585" lon="9.877880675990768"><ele>485.25</ele><time>2026-04-12T11:11:17Z</time></trkpt><trkpt lat="45.85928908605436" lon="9.878093391844509"><ele>483.5</ele><time>2026-04-12T11:11:18Z</time></trkpt><trkpt lat="45.859276275613894" lon="9.87829213440715"><ele>481.75</ele><time>2026-04-12T11:11:19Z</time></trkpt><trkpt lat="45.859264462796055" lon="9.878478537713777"><ele>480.0</ele><time>2026-04-12T11:11:20Z</time></trkpt><trkpt lat="45.859252631723834" lon="9.878654401576135"><ele>474.2</ele><time>2026-04-12T11:11:21Z</time></trkpt><trkpt lat="45.859244036207166" lon="9.878798891552986"><ele>468.4</ele><time>2026-04-12T11:11:22Z</time></trkpt><trkpt lat="45.85923537439098" lon="9.87890415729305"><ele>462.6</ele><time>2026-04-12T11:11:23Z</time></trkpt><trkpt lat="45.85921997765583" lon="9.879074083060052"><ele>456.8</ele><time>2026-04-12T11:11:25Z</time></trkpt><trkpt lat="45.859212620170574" lon="9.87918121665392"><ele>451.0</ele><time>2026-04-12T11:11:27Z</time></trkpt><trkpt lat="45.859205372771186" lon="9.879303853069754"><ele>450.5</ele><time>2026-04-12T11:11:30Z</time></trkpt><trkpt lat="45.85919664089971" lon="9.879446236034012"><ele>450.0</ele><time>2026-04-12T11:11:33Z</time></trkpt><trkpt lat="45.859359915197686" lon="9.879486971375304"><ele>449.5</ele><time>2026-04-12T11:11:34Z</time></trkpt><trkpt lat="45.85945360914757" lon="9.879513649834776"><ele>449.0</ele><time>2026-04-12T11:11:35Z</time></trkpt><trkpt lat="45.85956164186983" lon="9.879542552572685"><ele>449.0</ele><time>2026-04-12T11:11:36Z</time></trkpt><trkpt lat="45.85966172917067" lon="9.879573624538196"><ele>449.0</ele><time>2026-04-12T11:11:37Z</time></trkpt><trkpt lat="45.859765626677664" lon="9.879610631148896"><ele>449.0</ele><time>2026-04-12T11:11:38Z</time></trkpt><trkpt lat="45.85986927906492" lon="9.879649115621534"><ele>449.0</ele><time>2026-04-12T11:11:39Z</time></trkpt><trkpt lat="45.85997476085746" lon="9.879697455089715"><ele>449.0</ele><time>2026-04-12T11:11:40Z</time></trkpt><trkpt lat="45.86008636905951" lon="9.87975741476236"><ele>451.25</ele><time>2026-04-12T11:11:41Z</time></trkpt><trkpt lat="45.86020216099602" lon="9.879827336939861"><ele>453.5</ele><time>2026-04-12T11:11:42Z</time></trkpt><trkpt lat="45.860324381630925" lon="9.879906048091685"><ele>455.75</ele><time>2026-04-12T11:11:43Z</time></trkpt><trkpt lat="45.860451543151115" lon="9.879995460919355"><ele>458.0</ele><time>2026-04-12T11:11:44Z</time></trkpt><trkpt lat="45.86058383008262" lon="9.880091919508265"><ele>457.0</ele><time>2026-04-12T11:11:45Z</time></trkpt><trkpt lat="45.86072078550164" lon="9.88019432488585"><ele>456.0</ele><time>2026-04-12T11:11:46Z</time></trkpt><trkpt lat="45.8608643757182" lon="9.88030013695819"><ele>455.0</ele><time>2026-04-12T11:11:47Z</time></trkpt><trkpt lat="45.86100098170056" lon="9.880404552365045"><ele>455.0</ele><time>2026-04-12T11:11:48Z</time></trkpt><trkpt lat="45.86113068565113" lon="9.880503421696979"><ele>455.0</ele><time>2026-04-12T11:11:49Z</time></trkpt><trkpt lat="45.861260653729715" lon="9.880602817878517"><ele>455.0</ele><time>2026-04-12T11:11:50Z</time></trkpt><trkpt lat="45.861392725796264" lon="9.88069766162021"><ele>455.0</ele><time>2026-04-12T11:11:51Z</time></trkpt><trkpt lat="45.86151885195539" lon="9.880787046263997"><ele>455.0</ele><time>2026-04-12T11:11:52Z</time></trkpt><trkpt lat="45.86163616761111" lon="9.880872114733068"><ele>455.0</ele><time>2026-04-12T11:11:53Z</time></trkpt><trkpt lat="45.86175208211422" lon="9.880961189125044"><ele>455.0</ele><time>2026-04-12T11:11:54Z</time></trkpt><trkpt lat="45.86186232530424" lon="9.881070024283932"><ele>455.0</ele><time>2026-04-12T11:11:55Z</time></trkpt><trkpt lat="45.861969549259854" lon="9.88118385191879"><ele>455.75</ele><time>2026-04-12T11:11:56Z</time></trkpt><trkpt lat="45.862080625807394" lon="9.881284356254314"><ele>456.5</ele><time>2026-04-12T11:11:57Z</time></trkpt><trkpt lat="45.862183613707415" lon="9.88137307147741"><ele>457.25</ele><time>2026-04-12T11:11:58Z</time></trkpt><trkpt lat="45.86228127439469" lon="9.881455692647354"><ele>458.0</ele><time>2026-04-12T11:11:59.001Z</time></trkpt><trkpt lat="45.8623732578866" lon="9.88152988833041"><ele>458.0</ele><time>2026-04-12T11:12:00.001Z</time></trkpt><trkpt lat="45.86245977057431" lon="9.881599587024313"><ele>458.0</ele><time>2026-04-12T11:12:01.001Z</time></trkpt><trkpt lat="45.86252826295655" lon="9.881681889109222"><ele>458.0</ele><time>2026-04-12T11:12:02.001Z</time></trkpt><trkpt lat="45.86257800583239" lon="9.881774866170087"><ele>458.0</ele><time>2026-04-12T11:12:03.001Z</time></trkpt><trkpt lat="45.86340337073841" lon="9.882603957612478"><ele>455.0</ele><time>2026-04-12T11:13:07.002Z</time></trkpt><trkpt lat="45.863924074138595" lon="9.883475454379408"><ele>454.99999999999994</ele><time>2026-04-12T11:22:07.001Z</time></trkpt><trkpt lat="45.86401958241214" lon="9.883545316180632"><ele>455.0</ele><time>2026-04-12T11:22:08.001Z</time></trkpt><trkpt lat="45.86409783368167" lon="9.883611235932117"><ele>455.0</ele><time>2026-04-12T11:22:09.001Z</time></trkpt><trkpt lat="45.86417353555324" lon="9.883633991280938"><ele>455.0</ele><time>2026-04-12T11:22:10.001Z</time></trkpt><trkpt lat="45.86425711544975" lon="9.8836160011361"><ele>454.99999999999994</ele><time>2026-04-12T11:22:11.001Z</time></trkpt><trkpt lat="45.86433054478886" lon="9.883575701162734"><ele>455.0</ele><time>2026-04-12T11:22:12.001Z</time></trkpt><trkpt lat="45.86440689268772" lon="9.883571910660052"><ele>454.4</ele><time>2026-04-12T11:22:13.001Z</time></trkpt><trkpt lat="45.86446175174066" lon="9.883645825604868"><ele>453.8</ele><time>2026-04-12T11:22:14.001Z</time></trkpt><trkpt lat="45.86454439088785" lon="9.88369621993102"><ele>453.20000000000005</ele><time>2026-04-12T11:22:15.001Z</time></trkpt><trkpt lat="45.86464514842609" lon="9.883726325460989"><ele>452.6</ele><time>2026-04-12T11:22:16.001Z</time></trkpt><trkpt lat="45.864751752802306" lon="9.883694424375141"><ele>452.0</ele><time>2026-04-12T11:22:17.001Z</time></trkpt><trkpt lat="45.86482094281472" lon="9.88360652715736"><ele>452.0</ele><time>2026-04-12T11:22:18.001Z</time></trkpt><trkpt lat="45.864949931633916" lon="9.883710291583343"><ele>452.0</ele><time>2026-04-12T11:22:19.001Z</time></trkpt><trkpt lat="45.865062891837546" lon="9.883782189511551"><ele>452.0</ele><time>2026-04-12T11:22:20.001Z</time></trkpt><trkpt lat="45.865176359809304" lon="9.883848233062967"><ele>452.0</ele><time>2026-04-12T11:22:21.001Z</time></trkpt><trkpt lat="45.865303145691556" lon="9.883926730726397"><ele>453.5</ele><time>2026-04-12T11:22:22.001Z</time></trkpt><trkpt lat="45.86542503597093" lon="9.883997624284941"><ele>455.0</ele><time>2026-04-12T11:22:23.001Z</time></trkpt><trkpt lat="45.86556719287831" lon="9.884075157581682"><ele>456.5</ele><time>2026-04-12T11:22:24.001Z</time></trkpt><trkpt lat="45.86572135025728" lon="9.884113801773676"><ele>458.0</ele><time>2026-04-12T11:22:25.001Z</time></trkpt><trkpt lat="45.865837152070704" lon="9.884166323027124"><ele>458.5</ele><time>2026-04-12T11:22:26.001Z</time></trkpt><trkpt lat="45.86597639711724" lon="9.884195330961498"><ele>459.0</ele><time>2026-04-12T11:22:27.001Z</time></trkpt><trkpt lat="45.866127160774155" lon="9.884224356776114"><ele>459.5</ele><time>2026-04-12T11:22:28.001Z</time></trkpt><trkpt lat="45.86626990567115" lon="9.884254338235001"><ele>460.0</ele><time>2026-04-12T11:22:29.001Z</time></trkpt><trkpt lat="45.866433513902244" lon="9.884275438492672"><ele>459.6666666666667</ele><time>2026-04-12T11:22:30.001Z</time></trkpt><trkpt lat="45.86658404097092" lon="9.884327168866324"><ele>459.33333333333337</ele><time>2026-04-12T11:22:31.001Z</time></trkpt><trkpt lat="45.8667497466915" lon="9.884369636489172"><ele>459.0</ele><time>2026-04-12T11:22:32.001Z</time></trkpt><trkpt lat="45.86690218565178" lon="9.884406371159947"><ele>459.0</ele><time>2026-04-12T11:22:33.001Z</time></trkpt><trkpt lat="45.867053930700614" lon="9.884452375791716"><ele>459.0</ele><time>2026-04-12T11:22:34.001Z</time></trkpt><trkpt lat="45.867215987899115" lon="9.884510702566075"><ele>459.0</ele><time>2026-04-12T11:22:35.001Z</time></trkpt><trkpt lat="45.86736111879347" lon="9.884572739148474"><ele>459.0</ele><time>2026-04-12T11:22:36.001Z</time></trkpt><trkpt lat="45.867490475298254" lon="9.884639588211154"><ele>459.0</ele><time>2026-04-12T11:22:37.001Z</time></trkpt><trkpt lat="45.86762354817229" lon="9.88472377693624"><ele>459.0</ele><time>2026-04-12T11:22:38.001Z</time></trkpt><trkpt lat="45.867738943351156" lon="9.884787193555455"><ele>459.0</ele><time>2026-04-12T11:22:39.001Z</time></trkpt><trkpt lat="45.86785603325763" lon="9.884856696562666"><ele>458.75</ele><time>2026-04-12T11:22:40.001Z</time></trkpt><trkpt lat="45.867950899514916" lon="9.884937276168563"><ele>458.5</ele><time>2026-04-12T11:22:41.001Z</time></trkpt><trkpt lat="45.868105742885604" lon="9.884986337045683"><ele>458.25</ele><time>2026-04-12T11:22:42.001Z</time></trkpt><trkpt lat="45.868215012418396" lon="9.885078569843957"><ele>458.0</ele><time>2026-04-12T11:22:43.001Z</time></trkpt><trkpt lat="45.86832068668688" lon="9.885179889694058"><ele>458.0</ele><time>2026-04-12T11:22:44.001Z</time></trkpt><trkpt lat="45.86842590501581" lon="9.88531467402247"><ele>458.0</ele><time>2026-04-12T11:22:45.001Z</time></trkpt><trkpt lat="45.86851962172727" lon="9.88541011864046"><ele>458.0</ele><time>2026-04-12T11:22:46.001Z</time></trkpt><trkpt lat="45.86861523047369" lon="9.885521505427997"><ele>458.0</ele><time>2026-04-12T11:22:47.001Z</time></trkpt><trkpt lat="45.868680604340675" lon="9.885642611925613"><ele>460.25</ele><time>2026-04-12T11:22:48.001Z</time></trkpt><trkpt lat="45.868737989967826" lon="9.885786951504205"><ele>462.5</ele><time>2026-04-12T11:22:49.001Z</time></trkpt><trkpt lat="45.86879452523286" lon="9.885952310742788"><ele>464.75</ele><time>2026-04-12T11:22:50.001Z</time></trkpt><trkpt lat="45.86884244211991" lon="9.886127060268725"><ele>467.0</ele><time>2026-04-12T11:22:51.001Z</time></trkpt><trkpt lat="45.86889063863418" lon="9.886302724562924"><ele>467.0</ele><time>2026-04-12T11:22:52.001Z</time></trkpt><trkpt lat="45.86894209029185" lon="9.88648051736877"><ele>467.0</ele><time>2026-04-12T11:22:53.001Z</time></trkpt><trkpt lat="45.86899449826374" lon="9.886660126384964"><ele>467.0</ele><time>2026-04-12T11:22:54.001Z</time></trkpt><trkpt lat="45.86904268531625" lon="9.886856960690006"><ele>467.0</ele><time>2026-04-12T11:22:55.001Z</time></trkpt><trkpt lat="45.869089985194975" lon="9.887048981353383"><ele>466.25</ele><time>2026-04-12T11:22:56.001Z</time></trkpt><trkpt lat="45.86914501370579" lon="9.887229209051789"><ele>465.5</ele><time>2026-04-12T11:22:57.001Z</time></trkpt><trkpt lat="45.86919494983764" lon="9.88739243683357"><ele>464.75</ele><time>2026-04-12T11:22:58.001Z</time></trkpt><trkpt lat="45.86923977931028" lon="9.887545210652885"><ele>464.0</ele><time>2026-04-12T11:22:59.001Z</time></trkpt><trkpt lat="45.86926509870251" lon="9.887675880462712"><ele>463.75</ele><time>2026-04-12T11:23:00.001Z</time></trkpt><trkpt lat="45.869279753038896" lon="9.887786330809096"><ele>463.5</ele><time>2026-04-12T11:23:01.001Z</time></trkpt><trkpt lat="45.869277363440894" lon="9.887914451471179"><ele>463.25</ele><time>2026-04-12T11:23:03.001Z</time></trkpt><trkpt lat="45.86929814376803" lon="9.888136267512515"><ele>463.0</ele><time>2026-04-12T11:27:51Z</time></trkpt><trkpt lat="45.86273403205638" lon="9.881754702004855"><ele>461.33333333333337</ele><time>2026-04-12T11:31:03.999Z</time></trkpt><trkpt lat="45.86258774681849" lon="9.88161960535522"><ele>459.66666666666663</ele><time>2026-04-12T11:31:04.999Z</time></trkpt><trkpt lat="45.862451866293036" lon="9.881506255326794"><ele>458.0</ele><time>2026-04-12T11:31:05.999Z</time></trkpt><trkpt lat="45.86232333149219" lon="9.88140382931315"><ele>458.0</ele><time>2026-04-12T11:31:06.999Z</time></trkpt><trkpt lat="45.86220423300615" lon="9.881305777478467"><ele>458.0</ele><time>2026-04-12T11:31:07.999Z</time></trkpt><trkpt lat="45.86208613486739" lon="9.881207947913136"><ele>458.0</ele><time>2026-04-12T11:31:08.999Z</time></trkpt><trkpt lat="45.86196916763178" lon="9.881111971340019"><ele>458.0</ele><time>2026-04-12T11:31:09.999Z</time></trkpt><trkpt lat="45.86185309771702" lon="9.881014976264712"><ele>457.25</ele><time>2026-04-12T11:31:10.999Z</time></trkpt><trkpt lat="45.86173861529257" lon="9.880919796996224"><ele>456.5</ele><time>2026-04-12T11:31:11.999Z</time></trkpt><trkpt lat="45.86162722903259" lon="9.880817321248184"><ele>455.75</ele><time>2026-04-12T11:31:12.999Z</time></trkpt><trkpt lat="45.861509966833644" lon="9.88071832885736"><ele>455.0</ele><time>2026-04-12T11:31:13.999Z</time></trkpt><trkpt lat="45.86139088426753" lon="9.880615589875402"><ele>455.0</ele><time>2026-04-12T11:31:14.999Z</time></trkpt><trkpt lat="45.8612695758601" lon="9.880513635133214"><ele>455.0</ele><time>2026-04-12T11:31:15.999Z</time></trkpt><trkpt lat="45.86114572631941" lon="9.88041479998778"><ele>455.0</ele><time>2026-04-12T11:31:16.999Z</time></trkpt><trkpt lat="45.86102025067033" lon="9.8803183460029"><ele>455.0</ele><time>2026-04-12T11:31:17.999Z</time></trkpt><trkpt lat="45.8608904726178" lon="9.880227411877028"><ele>455.75</ele><time>2026-04-12T11:31:18.999Z</time></trkpt><trkpt lat="45.86076022190543" lon="9.880130890882493"><ele>456.5</ele><time>2026-04-12T11:31:19.999Z</time></trkpt><trkpt lat="45.86063140534354" lon="9.880035890973787"><ele>457.25</ele><time>2026-04-12T11:31:20.999Z</time></trkpt><trkpt lat="45.860508308131934" lon="9.879941947855434"><ele>458.0</ele><time>2026-04-12T11:31:21.999Z</time></trkpt><trkpt lat="45.86038642901905" lon="9.879850455183089"><ele>458.0</ele><time>2026-04-12T11:31:22.999Z</time></trkpt><trkpt lat="45.860264645131046" lon="9.87976278951495"><ele>458.0</ele><time>2026-04-12T11:31:23.999Z</time></trkpt><trkpt lat="45.86014042062306" lon="9.879685827190842"><ele>458.0</ele><time>2026-04-12T11:31:24.999Z</time></trkpt><trkpt lat="45.86001523070436" lon="9.879620376107264"><ele>458.0</ele><time>2026-04-12T11:31:25.998Z</time></trkpt><trkpt lat="45.859893434862165" lon="9.879568394572058"><ele>456.2</ele><time>2026-04-12T11:31:26.998Z</time></trkpt><trkpt lat="45.85978073726083" lon="9.87952868851561"><ele>454.4</ele><time>2026-04-12T11:31:27.998Z</time></trkpt><trkpt lat="45.859676604350206" lon="9.879494926038515"><ele>452.59999999999997</ele><time>2026-04-12T11:31:28.998Z</time></trkpt><trkpt lat="45.85958252839238" lon="9.879466236758"><ele>450.79999999999995</ele><time>2026-04-12T11:31:29.998Z</time></trkpt><trkpt lat="45.8594925687295" lon="9.87944699022622"><ele>449.0</ele><time>2026-04-12T11:31:30.998Z</time></trkpt><trkpt lat="45.8593969398049" lon="9.879418015705903"><ele>448.5</ele><time>2026-04-12T11:31:31.998Z</time></trkpt><trkpt lat="45.85928340692325" lon="9.87938187429127"><ele>448.0</ele><time>2026-04-12T11:31:32.998Z</time></trkpt><trkpt lat="45.85915364604642" lon="9.879350462772694"><ele>447.5</ele><time>2026-04-12T11:31:33.998Z</time></trkpt><trkpt lat="45.85900961914282" lon="9.879314946350528"><ele>447.0</ele><time>2026-04-12T11:31:34.998Z</time></trkpt><trkpt lat="45.85885659405043" lon="9.879275949335543"><ele>448.0</ele><time>2026-04-12T11:31:35.998Z</time></trkpt><trkpt lat="45.858709242633225" lon="9.879237910195297"><ele>449.0</ele><time>2026-04-12T11:31:36.998Z</time></trkpt><trkpt lat="45.8585548802526" lon="9.879200291814925"><ele>450.0</ele><time>2026-04-12T11:31:37.998Z</time></trkpt><trkpt lat="45.8583955958845" lon="9.879158689677944"><ele>450.0</ele><time>2026-04-12T11:31:38.998Z</time></trkpt><trkpt lat="45.858232235738875" lon="9.87911892339047"><ele>450.0</ele><time>2026-04-12T11:31:39.998Z</time></trkpt><trkpt lat="45.85805997080585" lon="9.879110076631745"><ele>450.0</ele><time>2026-04-12T11:31:40.998Z</time></trkpt><trkpt lat="45.857881916067676" lon="9.879145895348623"><ele>450.0</ele><time>2026-04-12T11:31:41.998Z</time></trkpt><trkpt lat="45.85770771947991" lon="9.879220584318736"><ele>450.0</ele><time>2026-04-12T11:31:42.998Z</time></trkpt><trkpt lat="45.8575331148626" lon="9.879321673066405"><ele>450.0</ele><time>2026-04-12T11:31:43.998Z</time></trkpt><trkpt lat="45.85735281264835" lon="9.87941380614292"><ele>447.66666666666663</ele><time>2026-04-12T11:31:44.998Z</time></trkpt><trkpt lat="45.8571676547117" lon="9.879501439296318"><ele>445.3333333333333</ele><time>2026-04-12T11:31:45.998Z</time></trkpt><trkpt lat="45.85698466266169" lon="9.879587219483344"><ele>443.0</ele><time>2026-04-12T11:31:46.998Z</time></trkpt><trkpt lat="45.85680504217101" lon="9.879671485199967"><ele>444.0</ele><time>2026-04-12T11:31:47.999Z</time></trkpt><trkpt lat="45.85661971609573" lon="9.879756400990724"><ele>445.0</ele><time>2026-04-12T11:31:48.999Z</time></trkpt><trkpt lat="45.8564313984611" lon="9.879840862450212"><ele>446.0</ele><time>2026-04-12T11:31:49.999Z</time></trkpt><trkpt lat="45.85623960559093" lon="9.879930065782302"><ele>446.0</ele><time>2026-04-12T11:31:50.999Z</time></trkpt><trkpt lat="45.85604464221043" lon="9.880028250966218"><ele>446.0</ele><time>2026-04-12T11:31:51.999Z</time></trkpt><trkpt lat="45.855845083928585" lon="9.880119669941218"><ele>446.0</ele><time>2026-04-12T11:31:52.999Z</time></trkpt><trkpt lat="45.855640784883285" lon="9.880197400342869"><ele>445.3333333333333</ele><time>2026-04-12T11:31:53.999Z</time></trkpt><trkpt lat="45.855443150364735" lon="9.880254689735136"><ele>444.66666666666663</ele><time>2026-04-12T11:31:54.999Z</time></trkpt><trkpt lat="45.855246745174675" lon="9.880294672978746"><ele>444.0</ele><time>2026-04-12T11:31:55.999Z</time></trkpt><trkpt lat="45.85504855732614" lon="9.880330054269745"><ele>443.33333333333337</ele><time>2026-04-12T11:31:56.999Z</time></trkpt><trkpt lat="45.85485011960416" lon="9.880371581543201"><ele>442.6666666666667</ele><time>2026-04-12T11:31:57.999Z</time></trkpt><trkpt lat="45.85465667582848" lon="9.880432056506372"><ele>442.0</ele><time>2026-04-12T11:31:58.999Z</time></trkpt><trkpt lat="45.85447290491207" lon="9.880516211707976"><ele>442.0</ele><time>2026-04-12T11:31:59.999Z</time></trkpt><trkpt lat="45.85429501848996" lon="9.880616987117438"><ele>442.0</ele><time>2026-04-12T11:32:00.999Z</time></trkpt><trkpt lat="45.85411828330313" lon="9.880733704602362"><ele>442.0</ele><time>2026-04-12T11:32:01.999Z</time></trkpt><trkpt lat="45.85393182733978" lon="9.88085626671519"><ele>436.0</ele><time>2026-04-12T11:32:02.999Z</time></trkpt><trkpt lat="45.84364354716091" lon="9.879853901353325"><ele>436.0</ele><time>2026-04-12T11:33:03.999Z</time></trkpt><trkpt lat="45.84355270018957" lon="9.879711172266743"><ele>436.0</ele><time>2026-04-12T11:33:04.999Z</time></trkpt><trkpt lat="45.84346124159768" lon="9.87955454251485"><ele>436.0</ele><time>2026-04-12T11:33:05.999Z</time></trkpt><trkpt lat="45.84337388303093" lon="9.879379657365135"><ele>436.0</ele><time>2026-04-12T11:33:06.999Z</time></trkpt><trkpt lat="45.84328789042484" lon="9.879196258133932"><ele>436.0</ele><time>2026-04-12T11:33:07.999Z</time></trkpt><trkpt lat="45.84320486933499" lon="9.879005925535315"><ele>436.0</ele><time>2026-04-12T11:33:08.999Z</time></trkpt><trkpt lat="45.84312854386065" lon="9.878805279733381"><ele>436.0</ele><time>2026-04-12T11:33:09.999Z</time></trkpt><trkpt lat="45.84305448458084" lon="9.87859201246663"><ele>434.6666666666667</ele><time>2026-04-12T11:33:10.999Z</time></trkpt><trkpt lat="45.84298451911614" lon="9.878378744285001"><ele>433.33333333333337</ele><time>2026-04-12T11:33:11.999Z</time></trkpt><trkpt lat="45.84292122415886" lon="9.878170192439613"><ele>432.0</ele><time>2026-04-12T11:33:12.999Z</time></trkpt><trkpt lat="45.8428537764725" lon="9.877953236448471"><ele>432.0</ele><time>2026-04-12T11:33:13.999Z</time></trkpt><trkpt lat="45.842783752146445" lon="9.877734011517479"><ele>432.0</ele><time>2026-04-12T11:33:14.999Z</time></trkpt><trkpt lat="45.8427094693052" lon="9.877518868382422"><ele>432.0</ele><time>2026-04-12T11:33:15.999Z</time></trkpt><trkpt lat="45.84264124888172" lon="9.877291635109362"><ele>433.33333333333337</ele><time>2026-04-12T11:33:16.999Z</time></trkpt><trkpt lat="45.84257100154959" lon="9.877065157629422"><ele>434.6666666666667</ele><time>2026-04-12T11:33:17.999Z</time></trkpt><trkpt lat="45.84249192142234" lon="9.876842801228323"><ele>436.0</ele><time>2026-04-12T11:33:18.999Z</time></trkpt><trkpt lat="45.84241742513803" lon="9.876638013939422"><ele>436.0</ele><time>2026-04-12T11:33:19.999Z</time></trkpt><trkpt lat="45.84233223738612" lon="9.876430249149251"><ele>436.0</ele><time>2026-04-12T11:33:20.999Z</time></trkpt><trkpt lat="45.84223538207482" lon="9.876233320057196"><ele>436.0</ele><time>2026-04-12T11:33:21.999Z</time></trkpt><trkpt lat="45.84212557907383" lon="9.876056757379802"><ele>436.6666666666667</ele><time>2026-04-12T11:33:22.999Z</time></trkpt><trkpt lat="45.842009795691155" lon="9.875872745035293"><ele>437.33333333333337</ele><time>2026-04-12T11:33:23.999Z</time></trkpt><trkpt lat="45.841899678728026" lon="9.875718630936586"><ele>438.0</ele><time>2026-04-12T11:33:24.999Z</time></trkpt><trkpt lat="45.84177035288205" lon="9.875552062850232"><ele>438.0</ele><time>2026-04-12T11:33:25.999Z</time></trkpt><trkpt lat="45.84161593692859" lon="9.87546264294164"><ele>438.0</ele><time>2026-04-12T11:33:26.999Z</time></trkpt><trkpt lat="45.84146379770784" lon="9.87534517580534"><ele>438.0</ele><time>2026-04-12T11:33:27.999Z</time></trkpt><trkpt lat="45.841308195174555" lon="9.875228255826984"><ele>438.0</ele><time>2026-04-12T11:33:28.999Z</time></trkpt><trkpt lat="45.84114991452662" lon="9.875110017478649"><ele>438.0</ele><time>2026-04-12T11:33:29.999Z</time></trkpt><trkpt lat="45.84099978276441" lon="9.874983375268837"><ele>438.0</ele><time>2026-04-12T11:33:30.999Z</time></trkpt><trkpt lat="45.84084896809132" lon="9.874853802916476"><ele>436.33333333333337</ele><time>2026-04-12T11:33:31.999Z</time></trkpt><trkpt lat="45.84068814055215" lon="9.874722349873089"><ele>434.6666666666667</ele><time>2026-04-12T11:33:32.999Z</time></trkpt><trkpt lat="45.84052808076421" lon="9.874585654446644"><ele>433.0</ele><time>2026-04-12T11:33:33.999Z</time></trkpt><trkpt lat="45.84038176925597" lon="9.87444705321978"><ele>433.0</ele><time>2026-04-12T11:33:34.999Z</time></trkpt><trkpt lat="45.84023821991122" lon="9.874302031125293"><ele>433.0</ele><time>2026-04-12T11:33:35.999Z</time></trkpt><trkpt lat="45.84010447873311" lon="9.874161805706091"><ele>433.0</ele><time>2026-04-12T11:33:36.999Z</time></trkpt><trkpt lat="45.83998219284538" lon="9.874016579655322"><ele>432.33333333333337</ele><time>2026-04-12T11:33:37.999Z</time></trkpt><trkpt lat="45.839861091739074" lon="9.873865094244998"><ele>431.66666666666663</ele><time>2026-04-12T11:33:38.998Z</time></trkpt><trkpt lat="45.839739129559604" lon="9.873711487251398"><ele>431.0</ele><time>2026-04-12T11:33:39.998Z</time></trkpt><trkpt lat="45.83961898384436" lon="9.873559732856457"><ele>427.66666666666663</ele><time>2026-04-12T11:33:40.998Z</time></trkpt><trkpt lat="45.839497743210316" lon="9.87340676165942"><ele>424.33333333333337</ele><time>2026-04-12T11:33:41.998Z</time></trkpt><trkpt lat="45.83937557010869" lon="9.873255368129831"><ele>421.0</ele><time>2026-04-12T11:33:42.998Z</time></trkpt><trkpt lat="45.83925666229637" lon="9.873096634135578"><ele>422.0</ele><time>2026-04-12T11:33:43.998Z</time></trkpt><trkpt lat="45.83914451622538" lon="9.872931796487538"><ele>423.0</ele><time>2026-04-12T11:33:44.998Z</time></trkpt><trkpt lat="45.83903911926459" lon="9.87276459801909"><ele>424.0</ele><time>2026-04-12T11:33:45.998Z</time></trkpt><trkpt lat="45.83893229415465" lon="9.872600791340732"><ele>424.0</ele><time>2026-04-12T11:33:46.998Z</time></trkpt><trkpt lat="45.83883038514863" lon="9.872435886108565"><ele>424.0</ele><time>2026-04-12T11:33:47.998Z</time></trkpt><trkpt lat="45.83873055671947" lon="9.872282600670285"><ele>424.0</ele><time>2026-04-12T11:33:48.998Z</time></trkpt><trkpt lat="45.83863333084512" lon="9.872131658102013"><ele>424.0</ele><time>2026-04-12T11:33:49.998Z</time></trkpt><trkpt lat="45.838536711728466" lon="9.871981495432673"><ele>425.25</ele><time>2026-04-12T11:33:50.998Z</time></trkpt><trkpt lat="45.83845405211901" lon="9.871818736086789"><ele>426.5</ele><time>2026-04-12T11:33:51.998Z</time></trkpt><trkpt lat="45.83837118433234" lon="9.87165529745425"><ele>427.75</ele><time>2026-04-12T11:33:52.998Z</time></trkpt><trkpt lat="45.838285469649186" lon="9.871494831975848"><ele>429.0</ele><time>2026-04-12T11:33:53.999Z</time></trkpt><trkpt lat="45.83819519892085" lon="9.871345955119745"><ele>429.0</ele><time>2026-04-12T11:33:54.999Z</time></trkpt><trkpt lat="45.838097744019215" lon="9.871197510427479"><ele>429.0</ele><time>2026-04-12T11:33:55.999Z</time></trkpt><trkpt lat="45.83798492433125" lon="9.871066459314882"><ele>429.0</ele><time>2026-04-12T11:33:56.999Z</time></trkpt><trkpt lat="45.83786890169492" lon="9.870936240758288"><ele>429.0</ele><time>2026-04-12T11:33:57.999Z</time></trkpt><trkpt lat="45.837742941214955" lon="9.87081790072488"><ele>429.33333333333337</ele><time>2026-04-12T11:33:58.999Z</time></trkpt><trkpt lat="45.83761225147389" lon="9.870698655342334"><ele>429.6666666666667</ele><time>2026-04-12T11:33:59.999Z</time></trkpt><trkpt lat="45.83747558671334" lon="9.870569780610243"><ele>430.0</ele><time>2026-04-12T11:34:00.999Z</time></trkpt><trkpt lat="45.83734201101756" lon="9.870445103111212"><ele>430.0</ele><time>2026-04-12T11:34:01.999Z</time></trkpt><trkpt lat="45.83720511536531" lon="9.87032061058707"><ele>430.0</ele><time>2026-04-12T11:34:02.999Z</time></trkpt><trkpt lat="45.82756381509605" lon="9.863163508273574"><ele>426.6666666666667</ele><time>2026-04-12T11:35:03.999Z</time></trkpt><trkpt lat="45.8274067300435" lon="9.863044687049998"><ele>423.33333333333337</ele><time>2026-04-12T11:35:04.999Z</time></trkpt><trkpt lat="45.827253615876955" lon="9.862927708174952"><ele>420.0</ele><time>2026-04-12T11:35:05.999Z</time></trkpt><trkpt lat="45.827096989865154" lon="9.862819666406029"><ele>420.0</ele><time>2026-04-12T11:35:06.999Z</time></trkpt><trkpt lat="45.82693821337552" lon="9.862728211002894"><ele>420.0</ele><time>2026-04-12T11:35:07.999Z</time></trkpt><trkpt lat="45.826773458976476" lon="9.862663448922294"><ele>420.0</ele><time>2026-04-12T11:35:08.999Z</time></trkpt><trkpt lat="45.82660271213112" lon="9.86261455329344"><ele>419.0</ele><time>2026-04-12T11:35:09.999Z</time></trkpt><trkpt lat="45.82642822541082" lon="9.86258715119621"><ele>418.0</ele><time>2026-04-12T11:35:10.999Z</time></trkpt><trkpt lat="45.82625152527862" lon="9.862560672065174"><ele>417.0</ele><time>2026-04-12T11:35:11.999Z</time></trkpt><trkpt lat="45.82607021115937" lon="9.862537679395906"><ele>419.0</ele><time>2026-04-12T11:35:12.999Z</time></trkpt><trkpt lat="45.8258916460211" lon="9.862503367563242"><ele>421.0</ele><time>2026-04-12T11:35:13.999Z</time></trkpt><trkpt lat="45.82571316199731" lon="9.86246642224417"><ele>423.0</ele><time>2026-04-12T11:35:14.999Z</time></trkpt><trkpt lat="45.825540836675636" lon="9.862387993866461"><ele>423.0</ele><time>2026-04-12T11:35:15.999Z</time></trkpt><trkpt lat="45.82536091935895" lon="9.862298350071534"><ele>423.0</ele><time>2026-04-12T11:35:16.999Z</time></trkpt><trkpt lat="45.82519002566991" lon="9.862207477543949"><ele>423.0</ele><time>2026-04-12T11:35:17.999Z</time></trkpt><trkpt lat="45.82502498212747" lon="9.862122914573302"><ele>424.66666666666663</ele><time>2026-04-12T11:35:18.999Z</time></trkpt><trkpt lat="45.824856855480725" lon="9.862039273198834"><ele>426.3333333333333</ele><time>2026-04-12T11:35:19.999Z</time></trkpt><trkpt lat="45.82469033145048" lon="9.861956762707171"><ele>428.0</ele><time>2026-04-12T11:35:20.999Z</time></trkpt><trkpt lat="45.824525173472175" lon="9.86187280494131"><ele>428.0</ele><time>2026-04-12T11:35:21.999Z</time></trkpt><trkpt lat="45.82435650242812" lon="9.86178847841004"><ele>428.0</ele><time>2026-04-12T11:35:22.999Z</time></trkpt><trkpt lat="45.82418919434306" lon="9.86170663298669"><ele>428.0</ele><time>2026-04-12T11:35:23.999Z</time></trkpt><trkpt lat="45.824021505985115" lon="9.861622217029593"><ele>424.0</ele><time>2026-04-12T11:35:24.999Z</time></trkpt><trkpt lat="45.82384947394363" lon="9.86153905568901"><ele>420.0</ele><time>2026-04-12T11:35:25.999Z</time></trkpt><trkpt lat="45.82367796610356" lon="9.861460196965268"><ele>416.0</ele><time>2026-04-12T11:35:26.999Z</time></trkpt><trkpt lat="45.823508052252585" lon="9.861385795084322"><ele>421.66666666666663</ele><time>2026-04-12T11:35:27.999Z</time></trkpt><trkpt lat="45.82333367732568" lon="9.861300836753767"><ele>427.33333333333337</ele><time>2026-04-12T11:35:28.999Z</time></trkpt><trkpt lat="45.8231640120343" lon="9.861223935727406"><ele>433.0</ele><time>2026-04-12T11:35:29.999Z</time></trkpt><trkpt lat="45.822995267649965" lon="9.861148313938314"><ele>433.0</ele><time>2026-04-12T11:35:30.999Z</time></trkpt><trkpt lat="45.822822722576745" lon="9.861065110635979"><ele>433.0</ele><time>2026-04-12T11:35:31.999Z</time></trkpt><trkpt lat="45.82264259877357" lon="9.86096276115153"><ele>433.0</ele><time>2026-04-12T11:35:32.999Z</time></trkpt><trkpt lat="45.8224661929554" lon="9.860869488791266"><ele>426.0</ele><time>2026-04-12T11:35:33.999Z</time></trkpt><trkpt lat="45.822290498179605" lon="9.860780135303687"><ele>419.0</ele><time>2026-04-12T11:35:34.999Z</time></trkpt><trkpt lat="45.82211822009075" lon="9.860693306659494"><ele>412.0</ele><time>2026-04-12T11:35:35.999Z</time></trkpt><trkpt lat="45.82195146828232" lon="9.860608003745888"><ele>413.0</ele><time>2026-04-12T11:35:36.999Z</time></trkpt><trkpt lat="45.8217831105897" lon="9.860537726299563"><ele>414.0</ele><time>2026-04-12T11:35:37.999Z</time></trkpt><trkpt lat="45.82161109508515" lon="9.860481797626031"><ele>415.0</ele><time>2026-04-12T11:35:38.999Z</time></trkpt><trkpt lat="45.82143459978705" lon="9.860450848445163"><ele>415.0</ele><time>2026-04-12T11:35:39.999Z</time></trkpt><trkpt lat="45.821252013927925" lon="9.860438993609495"><ele>415.0</ele><time>2026-04-12T11:35:40.999Z</time></trkpt><trkpt lat="45.82107135028059" lon="9.860441485998777"><ele>415.0</ele><time>2026-04-12T11:35:41.999Z</time></trkpt><trkpt lat="45.82089432166341" lon="9.860445236534877"><ele>413.6666666666667</ele><time>2026-04-12T11:35:42.999Z</time></trkpt><trkpt lat="45.82072605315809" lon="9.860443074561472"><ele>412.33333333333337</ele><time>2026-04-12T11:35:43.999Z</time></trkpt><trkpt lat="45.82056445168351" lon="9.860432135084762"><ele>411.0</ele><time>2026-04-12T11:35:44.999Z</time></trkpt><trkpt lat="45.820411859862446" lon="9.860436497900158"><ele>411.0</ele><time>2026-04-12T11:35:45.999Z</time></trkpt><trkpt lat="45.82026244151724" lon="9.86043779418668"><ele>411.0</ele><time>2026-04-12T11:35:46.999Z</time></trkpt><trkpt lat="45.820086325459556" lon="9.860412524029154"><ele>411.0</ele><time>2026-04-12T11:35:47.999Z</time></trkpt><trkpt lat="45.81992969047691" lon="9.86040832709356"><ele>411.5</ele><time>2026-04-12T11:35:48.999Z</time></trkpt><trkpt lat="45.81978649579093" lon="9.86040717707939"><ele>412.0</ele><time>2026-04-12T11:35:49.999Z</time></trkpt><trkpt lat="45.81964009268146" lon="9.860409394224574"><ele>412.5</ele><time>2026-04-12T11:35:50.999Z</time></trkpt><trkpt lat="45.81950178111556" lon="9.860399481620467"><ele>413.0</ele><time>2026-04-12T11:35:51.999Z</time></trkpt><trkpt lat="45.81936553600831" lon="9.860395399399525"><ele>411.5</ele><time>2026-04-12T11:35:52.999Z</time></trkpt><trkpt lat="45.819234145822506" lon="9.86039162813983"><ele>410.0</ele><time>2026-04-12T11:35:53.999Z</time></trkpt><trkpt lat="45.8191022427888" lon="9.860388005501733"><ele>408.5</ele><time>2026-04-12T11:35:54.998Z</time></trkpt><trkpt lat="45.81897338680819" lon="9.860386285458024"><ele>407.0</ele><time>2026-04-12T11:35:55.998Z</time></trkpt><trkpt lat="45.818849942891866" lon="9.860379722047613"><ele>407.0</ele><time>2026-04-12T11:35:56.998Z</time></trkpt><trkpt lat="45.818731988111956" lon="9.860376289773823"><ele>407.0</ele><time>2026-04-12T11:35:57.998Z</time></trkpt><trkpt lat="45.81861875932294" lon="9.860377863287717"><ele>407.0</ele><time>2026-04-12T11:35:58.998Z</time></trkpt><trkpt lat="45.81850733450877" lon="9.860388790418355"><ele>407.0</ele><time>2026-04-12T11:35:59.999Z</time></trkpt><trkpt lat="45.81840880538392" lon="9.860406780088578"><ele>407.0</ele><time>2026-04-12T11:36:00.999Z</time></trkpt><trkpt lat="45.81831656858027" lon="9.860439227407944"><ele>407.5</ele><time>2026-04-12T11:36:01.999Z</time></trkpt><trkpt lat="45.81822277363832" lon="9.860462321125551"><ele>408.0</ele><time>2026-04-12T11:36:02.999Z</time></trkpt><trkpt lat="45.808593215224484" lon="9.857572440749024"><ele>403.0</ele><time>2026-04-12T11:37:03.999Z</time></trkpt><trkpt lat="45.80844820333046" lon="9.85742977630371"><ele>398.0</ele><time>2026-04-12T11:37:04.999Z</time></trkpt><trkpt lat="45.80830260330529" lon="9.85728759023362"><ele>393.0</ele><time>2026-04-12T11:37:05.999Z</time></trkpt><trkpt lat="45.80815700458293" lon="9.857140644489428"><ele>393.0</ele><time>2026-04-12T11:37:06.999Z</time></trkpt><trkpt lat="45.808015460972875" lon="9.85698025717537"><ele>393.0</ele><time>2026-04-12T11:37:07.999Z</time></trkpt><trkpt lat="45.80787720739115" lon="9.856803874203944"><ele>393.0</ele><time>2026-04-12T11:37:08.999Z</time></trkpt><trkpt lat="45.80774099312891" lon="9.856615876048593"><ele>394.66666666666663</ele><time>2026-04-12T11:37:09.999Z</time></trkpt><trkpt lat="45.80761749806728" lon="9.856427881505002"><ele>396.3333333333333</ele><time>2026-04-12T11:37:10.999Z</time></trkpt><trkpt lat="45.80749950919248" lon="9.856241528789209"><ele>398.0</ele><time>2026-04-12T11:37:11.999Z</time></trkpt><trkpt lat="45.80738685560973" lon="9.856064874680284"><ele>397.3333333333333</ele><time>2026-04-12T11:37:12.999Z</time></trkpt><trkpt lat="45.807281366287626" lon="9.855893802945086"><ele>396.66666666666663</ele><time>2026-04-12T11:37:13.999Z</time></trkpt><trkpt lat="45.807182107986044" lon="9.855725884884018"><ele>396.0</ele><time>2026-04-12T11:37:14.999Z</time></trkpt><trkpt lat="45.80708367038503" lon="9.855563711170033"><ele>396.0</ele><time>2026-04-12T11:37:15.999Z</time></trkpt><trkpt lat="45.806991841613865" lon="9.855410848409297"><ele>396.0</ele><time>2026-04-12T11:37:16.999Z</time></trkpt><trkpt lat="45.80690340902256" lon="9.855269900428954"><ele>396.0</ele><time>2026-04-12T11:37:17.999Z</time></trkpt><trkpt lat="45.80682211572104" lon="9.85513716160892"><ele>396.0</ele><time>2026-04-12T11:37:18.999Z</time></trkpt><trkpt lat="45.80675157300047" lon="9.855014036410415"><ele>396.20000000000005</ele><time>2026-04-12T11:37:19.999Z</time></trkpt><trkpt lat="45.80669492646258" lon="9.854896726328064"><ele>396.40000000000003</ele><time>2026-04-12T11:37:20.999Z</time></trkpt><trkpt lat="45.80665620630491" lon="9.854775889399546"><ele>396.6</ele><time>2026-04-12T11:37:21.999Z</time></trkpt><trkpt lat="45.80664293274398" lon="9.854634386482996"><ele>396.8</ele><time>2026-04-12T11:37:22.999Z</time></trkpt><trkpt lat="45.806610154491096" lon="9.854503645012308"><ele>397.0</ele><time>2026-04-12T11:37:23.999Z</time></trkpt><trkpt lat="45.80653689606975" lon="9.854410921340492"><ele>397.0</ele><time>2026-04-12T11:37:24.999Z</time></trkpt><trkpt lat="45.806442956608535" lon="9.854357019074294"><ele>397.0</ele><time>2026-04-12T11:37:25.999Z</time></trkpt><trkpt lat="45.80632825408744" lon="9.854313919329725"><ele>397.0</ele><time>2026-04-12T11:37:26.999Z</time></trkpt><trkpt lat="45.80621894842696" lon="9.854239184689161"><ele>397.0</ele><time>2026-04-12T11:37:27.999Z</time></trkpt><trkpt lat="45.806113288090756" lon="9.854136426454952"><ele>395.6666666666667</ele><time>2026-04-12T11:37:28.999Z</time></trkpt><trkpt lat="45.805988211954656" lon="9.854016728303815"><ele>394.33333333333337</ele><time>2026-04-12T11:37:29.999Z</time></trkpt><trkpt lat="45.80585109105699" lon="9.853871188684703"><ele>393.0</ele><time>2026-04-12T11:37:30.999Z</time></trkpt><trkpt lat="45.805697360527915" lon="9.853694838664525"><ele>393.0</ele><time>2026-04-12T11:37:31.999Z</time></trkpt><trkpt lat="45.805544678035254" lon="9.853459395185599"><ele>393.0</ele><time>2026-04-12T11:37:32.999Z</time></trkpt><trkpt lat="45.8053743435677" lon="9.853259299908265"><ele>393.0</ele><time>2026-04-12T11:37:33.999Z</time></trkpt><trkpt lat="45.80521165818072" lon="9.853066638086945"><ele>392.66666666666663</ele><time>2026-04-12T11:37:34.999Z</time></trkpt><trkpt lat="45.80503773122721" lon="9.852887796072162"><ele>392.3333333333333</ele><time>2026-04-12T11:37:35.999Z</time></trkpt><trkpt lat="45.80487109715291" lon="9.852687760905381"><ele>392.0</ele><time>2026-04-12T11:37:36.999Z</time></trkpt><trkpt lat="45.80470443338535" lon="9.852489696692576"><ele>392.0</ele><time>2026-04-12T11:37:37.999Z</time></trkpt><trkpt lat="45.80453839663046" lon="9.852293184233096"><ele>392.0</ele><time>2026-04-12T11:37:38.999Z</time></trkpt><trkpt lat="45.80437971131346" lon="9.852099923420866"><ele>392.0</ele><time>2026-04-12T11:37:39.999Z</time></trkpt><trkpt lat="45.80422379105512" lon="9.851910286515432"><ele>390.3333333333333</ele><time>2026-04-12T11:37:40.999Z</time></trkpt><trkpt lat="45.804059138163666" lon="9.8517196301223"><ele>388.66666666666663</ele><time>2026-04-12T11:37:41.999Z</time></trkpt><trkpt lat="45.80389541039326" lon="9.851529693196753"><ele>387.0</ele><time>2026-04-12T11:37:42.999Z</time></trkpt><trkpt lat="45.80373557118983" lon="9.851348700735207"><ele>387.0</ele><time>2026-04-12T11:37:43.999Z</time></trkpt><trkpt lat="45.803564066324945" lon="9.85118077587086"><ele>387.0</ele><time>2026-04-12T11:37:44.999Z</time></trkpt><trkpt lat="45.803376435054794" lon="9.851025555420113"><ele>387.0</ele><time>2026-04-12T11:37:45.999Z</time></trkpt><trkpt lat="45.80317413072892" lon="9.850894786274887"><ele>387.0</ele><time>2026-04-12T11:37:46.999Z</time></trkpt><trkpt lat="45.802986319812405" lon="9.850747929047227"><ele>387.0</ele><time>2026-04-12T11:37:47.999Z</time></trkpt><trkpt lat="45.80278383444148" lon="9.850619495184603"><ele>387.0</ele><time>2026-04-12T11:37:48.999Z</time></trkpt><trkpt lat="45.80256448481623" lon="9.85048194467973"><ele>386.5</ele><time>2026-04-12T11:37:49.999Z</time></trkpt><trkpt lat="45.80232838351388" lon="9.850333889624219"><ele>386.0</ele><time>2026-04-12T11:37:50.999Z</time></trkpt><trkpt lat="45.802075060847976" lon="9.850177169115653"><ele>385.5</ele><time>2026-04-12T11:37:51.999Z</time></trkpt><trkpt lat="45.801808345834274" lon="9.8500380514459"><ele>385.0</ele><time>2026-04-12T11:37:52.999Z</time></trkpt><trkpt lat="45.80155474559586" lon="9.849871075685773"><ele>385.0</ele><time>2026-04-12T11:37:53.999Z</time></trkpt><trkpt lat="45.80128947340157" lon="9.849706859093008"><ele>385.0</ele><time>2026-04-12T11:37:54.999Z</time></trkpt><trkpt lat="45.801024053806046" lon="9.84953810890713"><ele>384.5</ele><time>2026-04-12T11:37:55.999Z</time></trkpt><trkpt lat="45.800758994460615" lon="9.849367698009514"><ele>384.0</ele><time>2026-04-12T11:37:56.999Z</time></trkpt><trkpt lat="45.80049346209705" lon="9.849199470303954"><ele>383.5</ele><time>2026-04-12T11:37:57.999Z</time></trkpt><trkpt lat="45.80022251783291" lon="9.849028943829666"><ele>383.0</ele><time>2026-04-12T11:37:58.999Z</time></trkpt><trkpt lat="45.799949379283156" lon="9.84886379000099"><ele>381.0</ele><time>2026-04-12T11:37:59.999Z</time></trkpt><trkpt lat="45.799676364315744" lon="9.848695746996578"><ele>379.0</ele><time>2026-04-12T11:38:00.999Z</time></trkpt><trkpt lat="45.79940534591469" lon="9.848525625339574"><ele>380.5</ele><time>2026-04-12T11:38:01.999Z</time></trkpt><trkpt lat="45.799136216900195" lon="9.848350317136594"><ele>382.0</ele><time>2026-04-12T11:38:02.999Z</time></trkpt><trkpt lat="45.79248850202427" lon="9.832021601002781"><ele>377.66666666666663</ele><time>2026-04-12T11:39:03.999Z</time></trkpt><trkpt lat="45.79231494748787" lon="9.831858213103596"><ele>373.3333333333333</ele><time>2026-04-12T11:39:04.999Z</time></trkpt><trkpt lat="45.79214332165724" lon="9.831692939677685"><ele>369.0</ele><time>2026-04-12T11:39:05.999Z</time></trkpt><trkpt lat="45.791976432648895" lon="9.831519001333936"><ele>368.0</ele><time>2026-04-12T11:39:06.999Z</time></trkpt><trkpt lat="45.791814181737905" lon="9.831328570048598"><ele>367.0</ele><time>2026-04-12T11:39:07.999Z</time></trkpt><trkpt lat="45.791661218188324" lon="9.831126671804894"><ele>366.0</ele><time>2026-04-12T11:39:08.999Z</time></trkpt><trkpt lat="45.79151754420925" lon="9.830921504081502"><ele>366.0</ele><time>2026-04-12T11:39:09.999Z</time></trkpt><trkpt lat="45.79138512538571" lon="9.830705776990369"><ele>366.0</ele><time>2026-04-12T11:39:10.999Z</time></trkpt><trkpt lat="45.791260959218455" lon="9.830475153358316"><ele>366.0</ele><time>2026-04-12T11:39:11.999Z</time></trkpt><trkpt lat="45.791137312664056" lon="9.830239835575536"><ele>366.3333333333333</ele><time>2026-04-12T11:39:12.999Z</time></trkpt><trkpt lat="45.791013979570636" lon="9.829999946405222"><ele>366.66666666666663</ele><time>2026-04-12T11:39:13.999Z</time></trkpt><trkpt lat="45.79089264628099" lon="9.829754220480496"><ele>367.0</ele><time>2026-04-12T11:39:14.999Z</time></trkpt><trkpt lat="45.79077660339459" lon="9.82953003009137"><ele>367.0</ele><time>2026-04-12T11:39:15.999Z</time></trkpt><trkpt lat="45.7906628797481" lon="9.82930903819277"><ele>367.0</ele><time>2026-04-12T11:39:16.999Z</time></trkpt><trkpt lat="45.7905544691146" lon="9.82909088160611"><ele>367.0</ele><time>2026-04-12T11:39:17.999Z</time></trkpt><trkpt lat="45.79045063112544" lon="9.828881655986766"><ele>367.0</ele><time>2026-04-12T11:39:18.999Z</time></trkpt><trkpt lat="45.7903426489986" lon="9.828674743065088"><ele>367.0</ele><time>2026-04-12T11:39:19.999Z</time></trkpt><trkpt lat="45.79023351009389" lon="9.828462183043252"><ele>367.0</ele><time>2026-04-12T11:39:20.999Z</time></trkpt><trkpt lat="45.790124672823985" lon="9.82824389102429"><ele>366.66666666666663</ele><time>2026-04-12T11:39:21.999Z</time></trkpt><trkpt lat="45.79001381801559" lon="9.828025035677832"><ele>366.3333333333333</ele><time>2026-04-12T11:39:22.999Z</time></trkpt><trkpt lat="45.78990313229874" lon="9.827805813188917"><ele>366.0</ele><time>2026-04-12T11:39:23.999Z</time></trkpt><trkpt lat="45.78979351089205" lon="9.827586665209052"><ele>366.0</ele><time>2026-04-12T11:39:24.999Z</time></trkpt><trkpt lat="45.78968097728615" lon="9.827366635994284"><ele>366.0</ele><time>2026-04-12T11:39:25.999Z</time></trkpt><trkpt lat="45.78956211235481" lon="9.8271441253002"><ele>366.0</ele><time>2026-04-12T11:39:26.999Z</time></trkpt><trkpt lat="45.789453527216395" lon="9.82689563705029"><ele>366.3333333333333</ele><time>2026-04-12T11:39:27.999Z</time></trkpt><trkpt lat="45.78932824509797" lon="9.82665467796958"><ele>366.66666666666663</ele><time>2026-04-12T11:39:28.999Z</time></trkpt><trkpt lat="45.78919878041279" lon="9.826408839161294"><ele>367.0</ele><time>2026-04-12T11:39:29.999Z</time></trkpt><trkpt lat="45.78906913280298" lon="9.826164345347868"><ele>366.3333333333333</ele><time>2026-04-12T11:39:30.999Z</time></trkpt><trkpt lat="45.78893865847642" lon="9.825918866655181"><ele>365.6666666666667</ele><time>2026-04-12T11:39:31.999Z</time></trkpt><trkpt lat="45.78880683837547" lon="9.825670595592483"><ele>365.0</ele><time>2026-04-12T11:39:32.999Z</time></trkpt><trkpt lat="45.788677438360835" lon="9.825426114100578"><ele>365.0</ele><time>2026-04-12T11:39:33.999Z</time></trkpt><trkpt lat="45.78853810885678" lon="9.825199615103722"><ele>365.0</ele><time>2026-04-12T11:39:34.999Z</time></trkpt><trkpt lat="45.78841422852009" lon="9.824967001879529"><ele>365.0</ele><time>2026-04-12T11:39:35.999Z</time></trkpt><trkpt lat="45.7882987284731" lon="9.824745836089043"><ele>365.0</ele><time>2026-04-12T11:39:36.999Z</time></trkpt><trkpt lat="45.788186839416916" lon="9.824532667930997"><ele>365.0</ele><time>2026-04-12T11:39:37.999Z</time></trkpt><trkpt lat="45.78807978287367" lon="9.824328703544623"><ele>365.0</ele><time>2026-04-12T11:39:38.999Z</time></trkpt><trkpt lat="45.787978890247814" lon="9.824137587142133"><ele>365.0</ele><time>2026-04-12T11:39:39.999Z</time></trkpt><trkpt lat="45.78788390838472" lon="9.82395981229287"><ele>365.0</ele><time>2026-04-12T11:39:40.999Z</time></trkpt><trkpt lat="45.787794275003506" lon="9.823792977749548"><ele>365.0</ele><time>2026-04-12T11:39:41.999Z</time></trkpt><trkpt lat="45.7877057987909" lon="9.823630399547193"><ele>365.0</ele><time>2026-04-12T11:39:42.999Z</time></trkpt><trkpt lat="45.78760753010362" lon="9.823463457780587"><ele>364.33333333333337</ele><time>2026-04-12T11:39:43.999Z</time></trkpt><trkpt lat="45.78749893076531" lon="9.823294709764102"><ele>363.6666666666667</ele><time>2026-04-12T11:39:44.999Z</time></trkpt><trkpt lat="45.78738090789025" lon="9.823130739485702"><ele>363.0</ele><time>2026-04-12T11:39:45.999Z</time></trkpt><trkpt lat="45.78725227969051" lon="9.82297305152623"><ele>363.0</ele><time>2026-04-12T11:39:46.999Z</time></trkpt><trkpt lat="45.78711292895578" lon="9.822824034513738"><ele>363.0</ele><time>2026-04-12T11:39:47.999Z</time></trkpt><trkpt lat="45.786969569614755" lon="9.822687071993375"><ele>363.0</ele><time>2026-04-12T11:39:48.999Z</time></trkpt><trkpt lat="45.786826725768904" lon="9.822568454992648"><ele>364.0</ele><time>2026-04-12T11:39:49.999Z</time></trkpt><trkpt lat="45.78669038589213" lon="9.822467359384053"><ele>365.0</ele><time>2026-04-12T11:39:50.999Z</time></trkpt><trkpt lat="45.786557379077" lon="9.822380658653609"><ele>366.0</ele><time>2026-04-12T11:39:51.999Z</time></trkpt><trkpt lat="45.78642289327318" lon="9.822292984632737"><ele>367.0</ele><time>2026-04-12T11:39:52.999Z</time></trkpt><trkpt lat="45.78628435426926" lon="9.822204300629497"><ele>367.0</ele><time>2026-04-12T11:39:53.999Z</time></trkpt><trkpt lat="45.78614333827751" lon="9.822118012546898"><ele>367.0</ele><time>2026-04-12T11:39:54.999Z</time></trkpt><trkpt lat="45.786001897973904" lon="9.822034572225508"><ele>367.0</ele><time>2026-04-12T11:39:55.999Z</time></trkpt><trkpt lat="45.78586504499999" lon="9.82195533846177"><ele>365.5</ele><time>2026-04-12T11:39:56.999Z</time></trkpt><trkpt lat="45.78573537047537" lon="9.821879269541974"><ele>364.0</ele><time>2026-04-12T11:39:57.999Z</time></trkpt><trkpt lat="45.78560217404601" lon="9.821815060087044"><ele>362.5</ele><time>2026-04-12T11:39:58.999Z</time></trkpt><trkpt lat="45.78546854980724" lon="9.821755685316145"><ele>361.0</ele><time>2026-04-12T11:39:59.999Z</time></trkpt><trkpt lat="45.78533603020377" lon="9.821713725068737"><ele>362.0</ele><time>2026-04-12T11:40:00.999Z</time></trkpt><trkpt lat="45.78520442235149" lon="9.821668193809291"><ele>363.0</ele><time>2026-04-12T11:40:01.999Z</time></trkpt><trkpt lat="45.78507280929325" lon="9.821624085930301"><ele>364.0</ele><time>2026-04-12T11:40:02.999Z</time></trkpt><trkpt lat="45.7746312772026" lon="9.81631951898863"><ele>359.0</ele><time>2026-04-12T11:41:04Z</time></trkpt><trkpt lat="45.77446364406453" lon="9.816208485751975"><ele>354.0</ele><time>2026-04-12T11:41:05Z</time></trkpt><trkpt lat="45.77429224217916" lon="9.816098476532714"><ele>349.0</ele><time>2026-04-12T11:41:06Z</time></trkpt><trkpt lat="45.77412313301552" lon="9.815990935031639"><ele>348.66666666666663</ele><time>2026-04-12T11:41:07Z</time></trkpt><trkpt lat="45.77395130186575" lon="9.815888071606746"><ele>348.3333333333333</ele><time>2026-04-12T11:41:08Z</time></trkpt><trkpt lat="45.77377521867648" lon="9.815789927856386"><ele>348.0</ele><time>2026-04-12T11:41:09Z</time></trkpt><trkpt lat="45.77359994333901" lon="9.815696898752849"><ele>349.3333333333333</ele><time>2026-04-12T11:41:10Z</time></trkpt><trkpt lat="45.77342928023587" lon="9.815611251298519"><ele>350.66666666666663</ele><time>2026-04-12T11:41:11Z</time></trkpt><trkpt lat="45.77325426636185" lon="9.815523897035995"><ele>352.0</ele><time>2026-04-12T11:41:12Z</time></trkpt><trkpt lat="45.77307618218426" lon="9.815440467842182"><ele>352.0</ele><time>2026-04-12T11:41:13Z</time></trkpt><trkpt lat="45.77289534170942" lon="9.815360732559695"><ele>352.0</ele><time>2026-04-12T11:41:14Z</time></trkpt><trkpt lat="45.7727107188679" lon="9.81528413020208"><ele>352.0</ele><time>2026-04-12T11:41:15Z</time></trkpt><trkpt lat="45.772521137685" lon="9.815182486654258"><ele>351.0</ele><time>2026-04-12T11:41:16Z</time></trkpt><trkpt lat="45.77231900587452" lon="9.815092479724031"><ele>350.0</ele><time>2026-04-12T11:41:17Z</time></trkpt><trkpt lat="45.77211782981697" lon="9.815003702029891"><ele>349.0</ele><time>2026-04-12T11:41:18Z</time></trkpt><trkpt lat="45.77191529939075" lon="9.814914324519213"><ele>347.66666666666663</ele><time>2026-04-12T11:41:19Z</time></trkpt><trkpt lat="45.771710462507656" lon="9.81483863331437"><ele>346.3333333333333</ele><time>2026-04-12T11:41:20Z</time></trkpt><trkpt lat="45.771531158857265" lon="9.814759823899816"><ele>345.0</ele><time>2026-04-12T11:41:21Z</time></trkpt><trkpt lat="45.77136303795949" lon="9.814680262037399"><ele>345.0</ele><time>2026-04-12T11:41:22Z</time></trkpt><trkpt lat="45.771189685185774" lon="9.814610874351985"><ele>345.0</ele><time>2026-04-12T11:41:23Z</time></trkpt><trkpt lat="45.77100917338873" lon="9.814522110922002"><ele>345.0</ele><time>2026-04-12T11:41:24Z</time></trkpt><trkpt lat="45.770813950356484" lon="9.814453631929712"><ele>345.3333333333333</ele><time>2026-04-12T11:41:25Z</time></trkpt><trkpt lat="45.77061057011871" lon="9.814387702508938"><ele>345.66666666666663</ele><time>2026-04-12T11:41:26Z</time></trkpt><trkpt lat="45.77039284246946" lon="9.814340657600756"><ele>346.0</ele><time>2026-04-12T11:41:27Z</time></trkpt><trkpt lat="45.77017585675383" lon="9.814258988691398"><ele>344.0</ele><time>2026-04-12T11:41:28Z</time></trkpt><trkpt lat="45.76995262560025" lon="9.814174472958001"><ele>342.0</ele><time>2026-04-12T11:41:29Z</time></trkpt><trkpt lat="45.769728115374086" lon="9.814073985258672"><ele>342.0</ele><time>2026-04-12T11:41:30Z</time></trkpt><trkpt lat="45.769507110640355" lon="9.813952858879125"><ele>342.0</ele><time>2026-04-12T11:41:31Z</time></trkpt><trkpt lat="45.7692905404477" lon="9.813819756374778"><ele>341.0</ele><time>2026-04-12T11:41:32Z</time></trkpt><trkpt lat="45.769075158086935" lon="9.813672665093032"><ele>340.0</ele><time>2026-04-12T11:41:33Z</time></trkpt><trkpt lat="45.768870184690066" lon="9.813511297279014"><ele>340.0</ele><time>2026-04-12T11:41:34Z</time></trkpt><trkpt lat="45.768669493191766" lon="9.813341742447971"><ele>340.0</ele><time>2026-04-12T11:41:35Z</time></trkpt><trkpt lat="45.76847279239062" lon="9.813171822058216"><ele>340.0</ele><time>2026-04-12T11:41:36Z</time></trkpt><trkpt lat="45.76827423222105" lon="9.813004665503884"><ele>340.0</ele><time>2026-04-12T11:41:37Z</time></trkpt><trkpt lat="45.768077663393264" lon="9.812842270467728"><ele>340.0</ele><time>2026-04-12T11:41:38Z</time></trkpt><trkpt lat="45.76788096681067" lon="9.812688436551058"><ele>340.0</ele><time>2026-04-12T11:41:39Z</time></trkpt><trkpt lat="45.767684634813875" lon="9.812536656856778"><ele>340.0</ele><time>2026-04-12T11:41:40Z</time></trkpt><trkpt lat="45.767488467180826" lon="9.812392713550318"><ele>339.3333333333333</ele><time>2026-04-12T11:41:41Z</time></trkpt><trkpt lat="45.76729446546671" lon="9.812254677432085"><ele>338.6666666666667</ele><time>2026-04-12T11:41:42Z</time></trkpt><trkpt lat="45.76710548897836" lon="9.812128217616618"><ele>338.0</ele><time>2026-04-12T11:41:43Z</time></trkpt><trkpt lat="45.766919421525465" lon="9.812010285081602"><ele>338.0</ele><time>2026-04-12T11:41:44Z</time></trkpt><trkpt lat="45.766733944515046" lon="9.811894406660086"><ele>338.0</ele><time>2026-04-12T11:41:45Z</time></trkpt><trkpt lat="45.76654776174392" lon="9.811781902621975"><ele>338.0</ele><time>2026-04-12T11:41:46Z</time></trkpt><trkpt lat="45.76635795071985" lon="9.811666049342184"><ele>338.0</ele><time>2026-04-12T11:41:47Z</time></trkpt><trkpt lat="45.7661645040379" lon="9.811548996201518"><ele>338.0</ele><time>2026-04-12T11:41:48Z</time></trkpt><trkpt lat="45.76596954739181" lon="9.811429306855544"><ele>338.0</ele><time>2026-04-12T11:41:49Z</time></trkpt><trkpt lat="45.76577223004454" lon="9.811306198543353"><ele>338.0</ele><time>2026-04-12T11:41:50Z</time></trkpt><trkpt lat="45.765576927676626" lon="9.811201607590657"><ele>338.0</ele><time>2026-04-12T11:41:51Z</time></trkpt><trkpt lat="45.76538565477919" lon="9.811113528991864"><ele>338.0</ele><time>2026-04-12T11:41:52Z</time></trkpt><trkpt lat="45.765186159804855" lon="9.811035142783775"><ele>336.6666666666667</ele><time>2026-04-12T11:41:53Z</time></trkpt><trkpt lat="45.764984562355046" lon="9.810972271614022"><ele>335.3333333333333</ele><time>2026-04-12T11:41:54Z</time></trkpt><trkpt lat="45.76478386148915" lon="9.810930921215506"><ele>334.0</ele><time>2026-04-12T11:41:55Z</time></trkpt><trkpt lat="45.76458974061914" lon="9.810915502656991"><ele>334.0</ele><time>2026-04-12T11:41:56Z</time></trkpt><trkpt lat="45.76440330362201" lon="9.810911188773426"><ele>334.0</ele><time>2026-04-12T11:41:57Z</time></trkpt><trkpt lat="45.7642215826753" lon="9.810925448112798"><ele>334.0</ele><time>2026-04-12T11:41:58Z</time></trkpt><trkpt lat="45.764040342871645" lon="9.81095884026151"><ele>335.66666666666663</ele><time>2026-04-12T11:41:59Z</time></trkpt><trkpt lat="45.763862026602034" lon="9.811012762532762"><ele>337.3333333333333</ele><time>2026-04-12T11:42:00Z</time></trkpt><trkpt lat="45.763682977244734" lon="9.811068988093073"><ele>339.0</ele><time>2026-04-12T11:42:01Z</time></trkpt><trkpt lat="45.76351059391461" lon="9.811143230539928"><ele>339.0</ele><time>2026-04-12T11:42:02Z</time></trkpt><trkpt lat="45.76333613725385" lon="9.81122747767884"><ele>339.0</ele><time>2026-04-12T11:42:03Z</time></trkpt><trkpt lat="45.75374461249053" lon="9.793118610987246"><ele>333.6666666666667</ele><time>2026-04-12T11:43:47Z</time></trkpt><trkpt lat="45.753729451140465" lon="9.792867868519373"><ele>328.33333333333337</ele><time>2026-04-12T11:43:48Z</time></trkpt><trkpt lat="45.753734884770275" lon="9.792596799307685"><ele>323.0</ele><time>2026-04-12T11:43:49Z</time></trkpt><trkpt lat="45.75372726672046" lon="9.79233288301443"><ele>322.0</ele><time>2026-04-12T11:43:50Z</time></trkpt><trkpt lat="45.7537160965671" lon="9.792078848267984"><ele>321.0</ele><time>2026-04-12T11:43:51Z</time></trkpt><trkpt lat="45.75370432706125" lon="9.791833360022167"><ele>320.0</ele><time>2026-04-12T11:43:52Z</time></trkpt><trkpt lat="45.75368051405826" lon="9.791589370147841"><ele>319.6666666666667</ele><time>2026-04-12T11:43:53Z</time></trkpt><trkpt lat="45.75366707830578" lon="9.791331966510992"><ele>319.3333333333333</ele><time>2026-04-12T11:43:54Z</time></trkpt><trkpt lat="45.753628506057694" lon="9.791094498643693"><ele>319.0</ele><time>2026-04-12T11:43:55Z</time></trkpt><trkpt lat="45.753592395337854" lon="9.790847884858835"><ele>319.0</ele><time>2026-04-12T11:43:56Z</time></trkpt><trkpt lat="45.753543654916946" lon="9.790595014274105"><ele>319.0</ele><time>2026-04-12T11:43:57Z</time></trkpt><trkpt lat="45.753488287289855" lon="9.790344666655146"><ele>319.0</ele><time>2026-04-12T11:43:58Z</time></trkpt><trkpt lat="45.753435010845635" lon="9.790064057646768"><ele>318.66666666666663</ele><time>2026-04-12T11:43:59Z</time></trkpt><trkpt lat="45.75335568307618" lon="9.789761829201156"><ele>318.3333333333333</ele><time>2026-04-12T11:44:00Z</time></trkpt><trkpt lat="45.753256032560266" lon="9.789477584201482"><ele>318.0</ele><time>2026-04-12T11:44:01Z</time></trkpt><trkpt lat="45.75316755401647" lon="9.789177462027297"><ele>318.0</ele><time>2026-04-12T11:44:02Z</time></trkpt><trkpt lat="45.75307554097361" lon="9.788848112666438"><ele>318.0</ele><time>2026-04-12T11:44:03Z</time></trkpt><trkpt lat="45.748403483572844" lon="9.776343491683525"><ele>314.5</ele><time>2026-04-12T11:45:03.999Z</time></trkpt><trkpt lat="45.748279926492266" lon="9.776043996827964"><ele>311.0</ele><time>2026-04-12T11:45:04.999Z</time></trkpt><trkpt lat="45.74814726833604" lon="9.775742570562906"><ele>311.0</ele><time>2026-04-12T11:45:05.999Z</time></trkpt><trkpt lat="45.748017737079245" lon="9.775450821154614"><ele>311.0</ele><time>2026-04-12T11:45:06.999Z</time></trkpt><trkpt lat="45.74789929932746" lon="9.77516046085988"><ele>311.0</ele><time>2026-04-12T11:45:07.999Z</time></trkpt><trkpt lat="45.74779346573488" lon="9.77489454251453"><ele>311.0</ele><time>2026-04-12T11:45:08.999Z</time></trkpt><trkpt lat="45.74768305028787" lon="9.774630487309091"><ele>311.0</ele><time>2026-04-12T11:45:09.999Z</time></trkpt><trkpt lat="45.74756988705515" lon="9.774373039037535"><ele>310.6666666666667</ele><time>2026-04-12T11:45:10.999Z</time></trkpt><trkpt lat="45.747451444780445" lon="9.774133299114743"><ele>310.3333333333333</ele><time>2026-04-12T11:45:11.999Z</time></trkpt><trkpt lat="45.74732897814542" lon="9.773897440025003"><ele>310.0</ele><time>2026-04-12T11:45:12.999Z</time></trkpt><trkpt lat="45.747210384960276" lon="9.7736734670488"><ele>309.66666666666663</ele><time>2026-04-12T11:45:13.999Z</time></trkpt><trkpt lat="45.7470851132044" lon="9.773456381424934"><ele>309.3333333333333</ele><time>2026-04-12T11:45:14.999Z</time></trkpt><trkpt lat="45.746947388087776" lon="9.773238270757215"><ele>309.0</ele><time>2026-04-12T11:45:15.999Z</time></trkpt><trkpt lat="45.746801471720595" lon="9.773020927146861"><ele>308.0</ele><time>2026-04-12T11:45:16.999Z</time></trkpt><trkpt lat="45.74665347435326" lon="9.772815716662912"><ele>307.0</ele><time>2026-04-12T11:45:17.999Z</time></trkpt><trkpt lat="45.746498682909966" lon="9.77262527126226"><ele>306.0</ele><time>2026-04-12T11:45:18.999Z</time></trkpt><trkpt lat="45.746341047206315" lon="9.772448202850127"><ele>306.0</ele><time>2026-04-12T11:45:19.999Z</time></trkpt><trkpt lat="45.746174662160136" lon="9.772277644545676"><ele>306.0</ele><time>2026-04-12T11:45:20.999Z</time></trkpt><trkpt lat="45.7460121571812" lon="9.772118501489954"><ele>306.0</ele><time>2026-04-12T11:45:21.999Z</time></trkpt><trkpt lat="45.74585331258258" lon="9.771972883985226"><ele>306.3333333333333</ele><time>2026-04-12T11:45:22.999Z</time></trkpt><trkpt lat="45.74569575988468" lon="9.77182472764727"><ele>306.66666666666663</ele><time>2026-04-12T11:45:23.999Z</time></trkpt><trkpt lat="45.74553998908367" lon="9.77167834810153"><ele>307.0</ele><time>2026-04-12T11:45:24.999Z</time></trkpt><trkpt lat="45.745387406278255" lon="9.771538532851931"><ele>307.0</ele><time>2026-04-12T11:45:25.999Z</time></trkpt><trkpt lat="45.74523808359961" lon="9.771403289256057"><ele>307.0</ele><time>2026-04-12T11:45:26.999Z</time></trkpt><trkpt lat="45.7450888570043" lon="9.771270440002628"><ele>307.0</ele><time>2026-04-12T11:45:27.999Z</time></trkpt><trkpt lat="45.74493977491655" lon="9.771138242732267"><ele>307.0</ele><time>2026-04-12T11:45:28.999Z</time></trkpt><trkpt lat="45.744789710112094" lon="9.771000214340889"><ele>307.0</ele><time>2026-04-12T11:45:29.999Z</time></trkpt><trkpt lat="45.74462796709691" lon="9.770855053651594"><ele>307.0</ele><time>2026-04-12T11:45:30.999Z</time></trkpt><trkpt lat="45.744457299843525" lon="9.770680143691928"><ele>305.0</ele><time>2026-04-12T11:45:31.999Z</time></trkpt><trkpt lat="45.744272457589574" lon="9.770511859464962"><ele>303.0</ele><time>2026-04-12T11:45:32.999Z</time></trkpt><trkpt lat="45.74408205700808" lon="9.770339732519156"><ele>301.0</ele><time>2026-04-12T11:45:33.999Z</time></trkpt><trkpt lat="45.74389656236377" lon="9.77019138336142"><ele>301.0</ele><time>2026-04-12T11:45:34.999Z</time></trkpt><trkpt lat="45.74372953734837" lon="9.770034672696287"><ele>301.0</ele><time>2026-04-12T11:45:35.999Z</time></trkpt><trkpt lat="45.74356098460646" lon="9.769883089918126"><ele>301.0</ele><time>2026-04-12T11:45:36.999Z</time></trkpt><trkpt lat="45.74338630114148" lon="9.769729591604323"><ele>301.0</ele><time>2026-04-12T11:45:37.999Z</time></trkpt><trkpt lat="45.74321288754732" lon="9.769551155480688"><ele>301.0</ele><time>2026-04-12T11:45:38.999Z</time></trkpt><trkpt lat="45.74302416990127" lon="9.769380756175881"><ele>301.0</ele><time>2026-04-12T11:45:40Z</time></trkpt><trkpt lat="45.742828995689365" lon="9.769202751271521"><ele>301.0</ele><time>2026-04-12T11:45:41Z</time></trkpt><trkpt lat="45.742628117625905" lon="9.769043663492713"><ele>301.0</ele><time>2026-04-12T11:45:42Z</time></trkpt><trkpt lat="45.74243348154047" lon="9.7688607272439"><ele>301.0</ele><time>2026-04-12T11:45:43Z</time></trkpt><trkpt lat="45.74223322015349" lon="9.768684333317312"><ele>301.0</ele><time>2026-04-12T11:45:44Z</time></trkpt><trkpt lat="45.742042376977935" lon="9.768486268346944"><ele>300.5</ele><time>2026-04-12T11:45:45Z</time></trkpt><trkpt lat="45.74182796622401" lon="9.768292250443755"><ele>300.0</ele><time>2026-04-12T11:45:46Z</time></trkpt><trkpt lat="45.74160143104228" lon="9.768114314077973"><ele>300.0</ele><time>2026-04-12T11:45:47Z</time></trkpt><trkpt lat="45.74140390082607" lon="9.767903066043097"><ele>300.0</ele><time>2026-04-12T11:45:48Z</time></trkpt><trkpt lat="45.741207967542636" lon="9.767709502003932"><ele>300.0</ele><time>2026-04-12T11:45:49Z</time></trkpt><trkpt lat="45.74102344655817" lon="9.767505770294338"><ele>300.0</ele><time>2026-04-12T11:45:50Z</time></trkpt><trkpt lat="45.74085247728824" lon="9.76729889733191"><ele>300.0</ele><time>2026-04-12T11:45:51Z</time></trkpt><trkpt lat="45.74068797223696" lon="9.76710134708063"><ele>300.0</ele><time>2026-04-12T11:45:52Z</time></trkpt><trkpt lat="45.74054113544191" lon="9.766880251274477"><ele>300.0</ele><time>2026-04-12T11:45:53Z</time></trkpt><trkpt lat="45.74040322518736" lon="9.766662645960734"><ele>300.0</ele><time>2026-04-12T11:45:54Z</time></trkpt><trkpt lat="45.74028546594295" lon="9.76641888077308"><ele>300.0</ele><time>2026-04-12T11:45:55Z</time></trkpt><trkpt lat="45.740154140018234" lon="9.766201609470482"><ele>300.0</ele><time>2026-04-12T11:45:56Z</time></trkpt><trkpt lat="45.74004772810518" lon="9.765970133881286"><ele>299.3333333333333</ele><time>2026-04-12T11:45:57Z</time></trkpt><trkpt lat="45.73994978147298" lon="9.765736528395808"><ele>298.66666666666663</ele><time>2026-04-12T11:45:58Z</time></trkpt><trkpt lat="45.739859655359034" lon="9.765495763288467"><ele>298.0</ele><time>2026-04-12T11:45:59Z</time></trkpt><trkpt lat="45.73977699754692" lon="9.765250409612582"><ele>298.3333333333333</ele><time>2026-04-12T11:46:00Z</time></trkpt><trkpt lat="45.739697583321394" lon="9.76499882611849"><ele>298.6666666666667</ele><time>2026-04-12T11:46:01Z</time></trkpt><trkpt lat="45.739626858423705" lon="9.764742437493949"><ele>299.0</ele><time>2026-04-12T11:46:02Z</time></trkpt><trkpt lat="45.73956331377674" lon="9.764483511086304"><ele>289.0</ele><time>2026-04-12T11:46:03Z</time></trkpt><trkpt lat="45.73531875494482" lon="9.749077435368045"><ele>289.0</ele><time>2026-04-12T11:47:03.999Z</time></trkpt><trkpt lat="45.73523119616549" lon="9.748810585282532"><ele>289.0</ele><time>2026-04-12T11:47:04.999Z</time></trkpt><trkpt lat="45.73514421826553" lon="9.748547423753806"><ele>289.0</ele><time>2026-04-12T11:47:05.999Z</time></trkpt><trkpt lat="45.735056761915395" lon="9.748282102884218"><ele>288.0</ele><time>2026-04-12T11:47:06.999Z</time></trkpt><trkpt lat="45.73497358670022" lon="9.7480358678713"><ele>287.0</ele><time>2026-04-12T11:47:07.999Z</time></trkpt><trkpt lat="45.73489697326161" lon="9.747802433125798"><ele>286.0</ele><time>2026-04-12T11:47:08.999Z</time></trkpt><trkpt lat="45.7348273202666" lon="9.74756536561968"><ele>286.0</ele><time>2026-04-12T11:47:09.999Z</time></trkpt><trkpt lat="45.73477195866001" lon="9.747319738361368"><ele>286.0</ele><time>2026-04-12T11:47:10.999Z</time></trkpt><trkpt lat="45.734729691767676" lon="9.747078246232434"><ele>286.0</ele><time>2026-04-12T11:47:11.999Z</time></trkpt><trkpt lat="45.73470039043025" lon="9.746853257599724"><ele>286.0</ele><time>2026-04-12T11:47:12.999Z</time></trkpt><trkpt lat="45.73466717563664" lon="9.746628888816188"><ele>286.0</ele><time>2026-04-12T11:47:13.999Z</time></trkpt><trkpt lat="45.73469737747918" lon="9.746384499687663"><ele>286.0</ele><time>2026-04-12T11:47:14.999Z</time></trkpt><trkpt lat="45.734717543064455" lon="9.746139141986623"><ele>286.66666666666663</ele><time>2026-04-12T11:47:15.999Z</time></trkpt><trkpt lat="45.73477412538724" lon="9.745912493504422"><ele>287.3333333333333</ele><time>2026-04-12T11:47:16.999Z</time></trkpt><trkpt lat="45.73483615855384" lon="9.74569834783411"><ele>288.0</ele><time>2026-04-12T11:47:17.999Z</time></trkpt><trkpt lat="45.734924957701814" lon="9.745479121164122"><ele>288.0</ele><time>2026-04-12T11:47:18.999Z</time></trkpt><trkpt lat="45.73502731057297" lon="9.745275839552255"><ele>288.0</ele><time>2026-04-12T11:47:19.999Z</time></trkpt><trkpt lat="45.735134112829265" lon="9.745072802775566"><ele>288.0</ele><time>2026-04-12T11:47:20.999Z</time></trkpt><trkpt lat="45.73522202380555" lon="9.744849266302081"><ele>288.3333333333333</ele><time>2026-04-12T11:47:21.999Z</time></trkpt><trkpt lat="45.73528759211171" lon="9.744608072830351"><ele>288.66666666666663</ele><time>2026-04-12T11:47:22.999Z</time></trkpt><trkpt lat="45.735340070993544" lon="9.744375066420325"><ele>289.0</ele><time>2026-04-12T11:47:23.999Z</time></trkpt><trkpt lat="45.7353661447446" lon="9.744156830661483"><ele>289.0</ele><time>2026-04-12T11:47:24.999Z</time></trkpt><trkpt lat="45.735347583406956" lon="9.743980104687871"><ele>289.0</ele><time>2026-04-12T11:47:26Z</time></trkpt><trkpt lat="45.73531730381635" lon="9.74377936028797"><ele>289.0</ele><time>2026-04-12T11:47:27Z</time></trkpt><trkpt lat="45.73527072718364" lon="9.743568629041944"><ele>289.0</ele><time>2026-04-12T11:47:28Z</time></trkpt><trkpt lat="45.73520772868201" lon="9.74334702318137"><ele>288.0</ele><time>2026-04-12T11:47:29Z</time></trkpt><trkpt lat="45.73512474765975" lon="9.743132457835703"><ele>287.0</ele><time>2026-04-12T11:47:30Z</time></trkpt><trkpt lat="45.735028280827116" lon="9.742921877919638"><ele>286.0</ele><time>2026-04-12T11:47:31Z</time></trkpt><trkpt lat="45.73490809646802" lon="9.742727240370483"><ele>286.3333333333333</ele><time>2026-04-12T11:47:32Z</time></trkpt><trkpt lat="45.734787713400394" lon="9.74253347344334"><ele>286.6666666666667</ele><time>2026-04-12T11:47:33Z</time></trkpt><trkpt lat="45.734675724730494" lon="9.742356699857758"><ele>287.0</ele><time>2026-04-12T11:47:34Z</time></trkpt><trkpt lat="45.73455474183151" lon="9.742177446649974"><ele>287.0</ele><time>2026-04-12T11:47:35Z</time></trkpt><trkpt lat="45.734428875065696" lon="9.741994072156302"><ele>287.0</ele><time>2026-04-12T11:47:36Z</time></trkpt><trkpt lat="45.734299029596094" lon="9.741804157109211"><ele>287.0</ele><time>2026-04-12T11:47:37Z</time></trkpt><trkpt lat="45.73416480504956" lon="9.741599173854361"><ele>286.33333333333337</ele><time>2026-04-12T11:47:38Z</time></trkpt><trkpt lat="45.73402415398465" lon="9.74139951022051"><ele>285.6666666666667</ele><time>2026-04-12T11:47:39Z</time></trkpt><trkpt lat="45.73389513719571" lon="9.741211482611849"><ele>285.0</ele><time>2026-04-12T11:47:40Z</time></trkpt><trkpt lat="45.73377529162266" lon="9.741032557939041"><ele>284.3333333333333</ele><time>2026-04-12T11:47:41Z</time></trkpt><trkpt lat="45.733656367015605" lon="9.740854383913094"><ele>283.66666666666663</ele><time>2026-04-12T11:47:42Z</time></trkpt><trkpt lat="45.73353166768171" lon="9.740671411289455"><ele>283.0</ele><time>2026-04-12T11:47:43Z</time></trkpt><trkpt lat="45.733402829653485" lon="9.740482321081803"><ele>283.0</ele><time>2026-04-12T11:47:44Z</time></trkpt><trkpt lat="45.73327913479273" lon="9.740293724113007"><ele>283.0</ele><time>2026-04-12T11:47:45Z</time></trkpt><trkpt lat="45.733162691803805" lon="9.74011954320169"><ele>283.0</ele><time>2026-04-12T11:47:46Z</time></trkpt><trkpt lat="45.73304099594199" lon="9.739941195123171"><ele>281.66666666666663</ele><time>2026-04-12T11:47:47Z</time></trkpt><trkpt lat="45.732917679279396" lon="9.739759080468712"><ele>280.3333333333333</ele><time>2026-04-12T11:47:48Z</time></trkpt><trkpt lat="45.7328026348622" lon="9.739559086247665"><ele>279.0</ele><time>2026-04-12T11:47:49Z</time></trkpt><trkpt lat="45.732678750210646" lon="9.739375160169086"><ele>278.6666666666667</ele><time>2026-04-12T11:47:50Z</time></trkpt><trkpt lat="45.73255096883898" lon="9.739185448824545"><ele>278.33333333333337</ele><time>2026-04-12T11:47:51Z</time></trkpt><trkpt lat="45.732427171095416" lon="9.739001651725376"><ele>278.0</ele><time>2026-04-12T11:47:52Z</time></trkpt><trkpt lat="45.732296505812236" lon="9.738837820755743"><ele>278.0</ele><time>2026-04-12T11:47:53Z</time></trkpt><trkpt lat="45.73217878113751" lon="9.738660496892926"><ele>278.0</ele><time>2026-04-12T11:47:54Z</time></trkpt><trkpt lat="45.73206110785785" lon="9.738485721915145"><ele>278.0</ele><time>2026-04-12T11:47:55Z</time></trkpt><trkpt lat="45.73194732064479" lon="9.738313532826206"><ele>279.33333333333337</ele><time>2026-04-12T11:47:56Z</time></trkpt><trkpt lat="45.73183093314578" lon="9.738136507110916"><ele>280.6666666666667</ele><time>2026-04-12T11:47:57Z</time></trkpt><trkpt lat="45.731710554901674" lon="9.73795610013788"><ele>282.0</ele><time>2026-04-12T11:47:58Z</time></trkpt><trkpt lat="45.73158951769511" lon="9.737777406791952"><ele>281.0</ele><time>2026-04-12T11:47:59Z</time></trkpt><trkpt lat="45.73147086883619" lon="9.737599593002702"><ele>280.0</ele><time>2026-04-12T11:48:00Z</time></trkpt><trkpt lat="45.73135273549039" lon="9.737420323258306"><ele>279.0</ele><time>2026-04-12T11:48:01Z</time></trkpt><trkpt lat="45.731229887857886" lon="9.737238168280951"><ele>279.0</ele><time>2026-04-12T11:48:02Z</time></trkpt><trkpt lat="45.731107283397456" lon="9.737052401745276"><ele>279.0</ele><time>2026-04-12T11:48:03Z</time></trkpt><trkpt lat="45.72213022818655" lon="9.724579147331227"><ele>277.3333333333333</ele><time>2026-04-12T11:49:03.999Z</time></trkpt><trkpt lat="45.72197594267734" lon="9.72437743618107"><ele>275.66666666666663</ele><time>2026-04-12T11:49:04.999Z</time></trkpt><trkpt lat="45.72181922789946" lon="9.724172684483149"><ele>274.0</ele><time>2026-04-12T11:49:05.999Z</time></trkpt><trkpt lat="45.72165858519318" lon="9.723964513535407"><ele>274.0</ele><time>2026-04-12T11:49:06.999Z</time></trkpt><trkpt lat="45.721502382087834" lon="9.723764975415033"><ele>274.0</ele><time>2026-04-12T11:49:07.999Z</time></trkpt><trkpt lat="45.721354362002465" lon="9.723571784189613"><ele>274.0</ele><time>2026-04-12T11:49:08.999Z</time></trkpt><trkpt lat="45.72122273908538" lon="9.723360639181948"><ele>274.0</ele><time>2026-04-12T11:49:09.999Z</time></trkpt><trkpt lat="45.721080552042274" lon="9.723166912547697"><ele>274.0</ele><time>2026-04-12T11:49:10.999Z</time></trkpt><trkpt lat="45.72092945606247" lon="9.722995019070817"><ele>274.0</ele><time>2026-04-12T11:49:11.999Z</time></trkpt><trkpt lat="45.72080022181684" lon="9.722807577160266"><ele>275.0</ele><time>2026-04-12T11:49:12.999Z</time></trkpt><trkpt lat="45.720670679936795" lon="9.72261534821846"><ele>276.0</ele><time>2026-04-12T11:49:13.999Z</time></trkpt><trkpt lat="45.72053597468995" lon="9.722414012599973"><ele>277.0</ele><time>2026-04-12T11:49:14.999Z</time></trkpt><trkpt lat="45.72039557352821" lon="9.722207031552651"><ele>277.0</ele><time>2026-04-12T11:49:15.999Z</time></trkpt><trkpt lat="45.72025620075253" lon="9.721998142975973"><ele>277.0</ele><time>2026-04-12T11:49:16.999Z</time></trkpt><trkpt lat="45.7201198184412" lon="9.72179580479817"><ele>277.0</ele><time>2026-04-12T11:49:17.999Z</time></trkpt><trkpt lat="45.71998516603522" lon="9.721597823205192"><ele>277.3333333333333</ele><time>2026-04-12T11:49:18.999Z</time></trkpt><trkpt lat="45.7198585571361" lon="9.721408370700756"><ele>277.6666666666667</ele><time>2026-04-12T11:49:19.999Z</time></trkpt><trkpt lat="45.71973658533912" lon="9.721225320588301"><ele>278.0</ele><time>2026-04-12T11:49:20.999Z</time></trkpt><trkpt lat="45.71961370993327" lon="9.721038449229768"><ele>278.33333333333337</ele><time>2026-04-12T11:49:21.999Z</time></trkpt><trkpt lat="45.71949092096989" lon="9.720849955438894"><ele>278.6666666666667</ele><time>2026-04-12T11:49:22.999Z</time></trkpt><trkpt lat="45.71936339512804" lon="9.720659306793731"><ele>279.0</ele><time>2026-04-12T11:49:23.999Z</time></trkpt><trkpt lat="45.71923479106916" lon="9.720468629426493"><ele>279.0</ele><time>2026-04-12T11:49:24.999Z</time></trkpt><trkpt lat="45.719100625164316" lon="9.7202700472752"><ele>279.0</ele><time>2026-04-12T11:49:25.999Z</time></trkpt><trkpt lat="45.718966168545904" lon="9.720068819588011"><ele>279.0</ele><time>2026-04-12T11:49:26.999Z</time></trkpt><trkpt lat="45.7188317999483" lon="9.719865021557421"><ele>279.0</ele><time>2026-04-12T11:49:27.999Z</time></trkpt><trkpt lat="45.718698505514325" lon="9.719659462830794"><ele>279.0</ele><time>2026-04-12T11:49:28.999Z</time></trkpt><trkpt lat="45.71856512125615" lon="9.719451150594736"><ele>279.0</ele><time>2026-04-12T11:49:29.999Z</time></trkpt><trkpt lat="45.718435001211375" lon="9.719244275925949"><ele>279.0</ele><time>2026-04-12T11:49:30.999Z</time></trkpt><trkpt lat="45.71831186940421" lon="9.719038648150187"><ele>279.0</ele><time>2026-04-12T11:49:31.999Z</time></trkpt><trkpt lat="45.71819476149312" lon="9.718836435221725"><ele>279.0</ele><time>2026-04-12T11:49:32.999Z</time></trkpt><trkpt lat="45.71808234520758" lon="9.718633660238401"><ele>278.6666666666667</ele><time>2026-04-12T11:49:33.999Z</time></trkpt><trkpt lat="45.7179763130108" lon="9.718432962139179"><ele>278.33333333333337</ele><time>2026-04-12T11:49:35Z</time></trkpt><trkpt lat="45.71787696168293" lon="9.718236121906612"><ele>278.0</ele><time>2026-04-12T11:49:36Z</time></trkpt><trkpt lat="45.71778092870975" lon="9.718039217292388"><ele>278.6666666666667</ele><time>2026-04-12T11:49:37Z</time></trkpt><trkpt lat="45.71768462912927" lon="9.717839767104309"><ele>279.3333333333333</ele><time>2026-04-12T11:49:38Z</time></trkpt><trkpt lat="45.717589520115034" lon="9.717641644433083"><ele>280.0</ele><time>2026-04-12T11:49:39Z</time></trkpt><trkpt lat="45.71749562251994" lon="9.717453213168584"><ele>280.0</ele><time>2026-04-12T11:49:40Z</time></trkpt><trkpt lat="45.717404701668706" lon="9.717260110059138"><ele>280.0</ele><time>2026-04-12T11:49:41Z</time></trkpt><trkpt lat="45.71731161937944" lon="9.717064364825246"><ele>280.0</ele><time>2026-04-12T11:49:42Z</time></trkpt><trkpt lat="45.71721912510468" lon="9.71686948391426"><ele>280.0</ele><time>2026-04-12T11:49:43Z</time></trkpt><trkpt lat="45.717126377014225" lon="9.716674738877062"><ele>280.0</ele><time>2026-04-12T11:49:44Z</time></trkpt><trkpt lat="45.71703213370747" lon="9.716477215915942"><ele>280.0</ele><time>2026-04-12T11:49:45Z</time></trkpt><trkpt lat="45.71693643851562" lon="9.716273183053179"><ele>280.0</ele><time>2026-04-12T11:49:46Z</time></trkpt><trkpt lat="45.71683558974704" lon="9.716057058187774"><ele>280.0</ele><time>2026-04-12T11:49:47Z</time></trkpt><trkpt lat="45.71672900916766" lon="9.715836490417834"><ele>280.0</ele><time>2026-04-12T11:49:48Z</time></trkpt><trkpt lat="45.71662089388566" lon="9.715611547652394"><ele>280.0</ele><time>2026-04-12T11:49:49Z</time></trkpt><trkpt lat="45.71651423851095" lon="9.715384227590402"><ele>280.0</ele><time>2026-04-12T11:49:50Z</time></trkpt><trkpt lat="45.7164024574705" lon="9.715152159806578"><ele>280.0</ele><time>2026-04-12T11:49:51Z</time></trkpt><trkpt lat="45.71630276294954" lon="9.714906038374743"><ele>279.3333333333333</ele><time>2026-04-12T11:49:52Z</time></trkpt><trkpt lat="45.71618494078033" lon="9.714655638862745"><ele>278.6666666666667</ele><time>2026-04-12T11:49:53Z</time></trkpt><trkpt lat="45.7160635163028" lon="9.714399604785626"><ele>278.0</ele><time>2026-04-12T11:49:54Z</time></trkpt><trkpt lat="45.71593821432303" lon="9.714137403294636"><ele>277.5</ele><time>2026-04-12T11:49:55Z</time></trkpt><trkpt lat="45.71580968841909" lon="9.713868824649557"><ele>277.0</ele><time>2026-04-12T11:49:56Z</time></trkpt><trkpt lat="45.715673987256864" lon="9.71358075460046"><ele>278.0</ele><time>2026-04-12T11:49:57Z</time></trkpt><trkpt lat="45.71553123736499" lon="9.713279385102869"><ele>279.0</ele><time>2026-04-12T11:49:58Z</time></trkpt><trkpt lat="45.71538536487068" lon="9.712974847630605"><ele>279.5</ele><time>2026-04-12T11:49:59Z</time></trkpt><trkpt lat="45.71524108215117" lon="9.712669988401274"><ele>280.0</ele><time>2026-04-12T11:50:00Z</time></trkpt><trkpt lat="45.71509160250962" lon="9.712395453504508"><ele>280.0</ele><time>2026-04-12T11:50:01Z</time></trkpt><trkpt lat="45.71496976283482" lon="9.712130958009936"><ele>280.0</ele><time>2026-04-12T11:50:02Z</time></trkpt><trkpt lat="45.71486033619762" lon="9.711865494872693"><ele>280.0</ele><time>2026-04-12T11:50:03Z</time></trkpt><trkpt lat="45.70766197801577" lon="9.700022010136799"><ele>276.66666666666663</ele><time>2026-04-12T11:51:04Z</time></trkpt><trkpt lat="45.707531442067506" lon="9.699873546511878"><ele>273.3333333333333</ele><time>2026-04-12T11:51:05Z</time></trkpt><trkpt lat="45.707403749106625" lon="9.699729482148724"><ele>270.0</ele><time>2026-04-12T11:51:06Z</time></trkpt><trkpt lat="45.707278226441034" lon="9.69958316937094"><ele>270.0</ele><time>2026-04-12T11:51:07Z</time></trkpt><trkpt lat="45.707153634272416" lon="9.699429693061164"><ele>270.0</ele><time>2026-04-12T11:51:08Z</time></trkpt><trkpt lat="45.707030596999886" lon="9.699269913498451"><ele>270.0</ele><time>2026-04-12T11:51:09Z</time></trkpt><trkpt lat="45.70690977867822" lon="9.699106178220921"><ele>269.6666666666667</ele><time>2026-04-12T11:51:10Z</time></trkpt><trkpt lat="45.70678452343775" lon="9.698938472789681"><ele>269.33333333333337</ele><time>2026-04-12T11:51:11Z</time></trkpt><trkpt lat="45.70665865861726" lon="9.69876013015424"><ele>269.0</ele><time>2026-04-12T11:51:12Z</time></trkpt><trkpt lat="45.70653498525314" lon="9.69856649865844"><ele>269.0</ele><time>2026-04-12T11:51:13Z</time></trkpt><trkpt lat="45.706415363239266" lon="9.698353442257563"><ele>269.0</ele><time>2026-04-12T11:51:14Z</time></trkpt><trkpt lat="45.70629794162048" lon="9.698131320289258"><ele>269.0</ele><time>2026-04-12T11:51:15Z</time></trkpt><trkpt lat="45.70618234110451" lon="9.697900732551258"><ele>268.0</ele><time>2026-04-12T11:51:16Z</time></trkpt><trkpt lat="45.70605949166581" lon="9.697682838701091"><ele>267.0</ele><time>2026-04-12T11:51:17Z</time></trkpt><trkpt lat="45.70593264830751" lon="9.697467028930316"><ele>266.0</ele><time>2026-04-12T11:51:18Z</time></trkpt><trkpt lat="45.70582219904797" lon="9.697255271440996"><ele>266.0</ele><time>2026-04-12T11:51:19Z</time></trkpt><trkpt lat="45.70571931739919" lon="9.697067442542695"><ele>266.0</ele><time>2026-04-12T11:51:20Z</time></trkpt><trkpt lat="45.705614615109226" lon="9.696887965919414"><ele>266.0</ele><time>2026-04-12T11:51:21Z</time></trkpt><trkpt lat="45.70550141171439" lon="9.696692469718265"><ele>266.0</ele><time>2026-04-12T11:51:22Z</time></trkpt><trkpt lat="45.70538623883045" lon="9.696485317877332"><ele>266.0</ele><time>2026-04-12T11:51:23Z</time></trkpt><trkpt lat="45.70526956123316" lon="9.696273869222477"><ele>266.0</ele><time>2026-04-12T11:51:24Z</time></trkpt><trkpt lat="45.70515028371559" lon="9.696060113245977"><ele>266.0</ele><time>2026-04-12T11:51:25Z</time></trkpt><trkpt lat="45.7050379741392" lon="9.695851384260296"><ele>266.0</ele><time>2026-04-12T11:51:26Z</time></trkpt><trkpt lat="45.704935361148166" lon="9.69566330115904"><ele>266.0</ele><time>2026-04-12T11:51:27Z</time></trkpt><trkpt lat="45.704833587748126" lon="9.695477250623897"><ele>266.0</ele><time>2026-04-12T11:51:28Z</time></trkpt><trkpt lat="45.70473210619984" lon="9.695296649922309"><ele>266.0</ele><time>2026-04-12T11:51:29Z</time></trkpt><trkpt lat="45.704640831692146" lon="9.695130971342493"><ele>266.0</ele><time>2026-04-12T11:51:30Z</time></trkpt><trkpt lat="45.70455036321528" lon="9.694969115080948"><ele>265.75</ele><time>2026-04-12T11:51:31Z</time></trkpt><trkpt lat="45.704458500929114" lon="9.694803538496128"><ele>265.5</ele><time>2026-04-12T11:51:32Z</time></trkpt><trkpt lat="45.70436847548976" lon="9.694648524396758"><ele>265.25</ele><time>2026-04-12T11:51:33Z</time></trkpt><trkpt lat="45.704275614508234" lon="9.694509843846017"><ele>265.0</ele><time>2026-04-12T11:51:34Z</time></trkpt><trkpt lat="45.70416905254841" lon="9.694380778448313"><ele>265.0</ele><time>2026-04-12T11:51:35Z</time></trkpt><trkpt lat="45.704049442843406" lon="9.694263643141516"><ele>265.0</ele><time>2026-04-12T11:51:36Z</time></trkpt><trkpt lat="45.70391730181717" lon="9.694163841906569"><ele>265.0</ele><time>2026-04-12T11:51:37Z</time></trkpt><trkpt lat="45.70377369960464" lon="9.694078540585096"><ele>265.0</ele><time>2026-04-12T11:51:38Z</time></trkpt><trkpt lat="45.7036219715872" lon="9.69401487155612"><ele>265.0</ele><time>2026-04-12T11:51:39Z</time></trkpt><trkpt lat="45.70345883214136" lon="9.693979946334847"><ele>265.0</ele><time>2026-04-12T11:51:40Z</time></trkpt><trkpt lat="45.70328721753613" lon="9.693971801521885"><ele>264.0</ele><time>2026-04-12T11:51:41Z</time></trkpt><trkpt lat="45.703111832991" lon="9.693985162568154"><ele>263.0</ele><time>2026-04-12T11:51:42Z</time></trkpt><trkpt lat="45.70293935340345" lon="9.694037109647846"><ele>262.0</ele><time>2026-04-12T11:51:43Z</time></trkpt><trkpt lat="45.70276841807992" lon="9.69410912769665"><ele>261.3333333333333</ele><time>2026-04-12T11:51:44Z</time></trkpt><trkpt lat="45.70260845647121" lon="9.694197900135494"><ele>260.6666666666667</ele><time>2026-04-12T11:51:45Z</time></trkpt><trkpt lat="45.70246095481219" lon="9.694301295732897"><ele>260.0</ele><time>2026-04-12T11:51:46Z</time></trkpt><trkpt lat="45.702315443942815" lon="9.694413651763117"><ele>260.0</ele><time>2026-04-12T11:51:47Z</time></trkpt><trkpt lat="45.70217838463516" lon="9.694551651521957"><ele>260.0</ele><time>2026-04-12T11:51:48Z</time></trkpt><trkpt lat="45.702043364085526" lon="9.694712198239516"><ele>260.0</ele><time>2026-04-12T11:51:49Z</time></trkpt><trkpt lat="45.701911463506896" lon="9.694895195632599"><ele>260.0</ele><time>2026-04-12T11:51:50Z</time></trkpt><trkpt lat="45.70178411015853" lon="9.695078210516963"><ele>260.0</ele><time>2026-04-12T11:51:51Z</time></trkpt><trkpt lat="45.70166037616676" lon="9.69525357680518"><ele>260.0</ele><time>2026-04-12T11:51:52Z</time></trkpt><trkpt lat="45.70153571994703" lon="9.695409298036461"><ele>261.0</ele><time>2026-04-12T11:51:53Z</time></trkpt><trkpt lat="45.7014055648008" lon="9.695553481284266"><ele>262.0</ele><time>2026-04-12T11:51:54.001Z</time></trkpt><trkpt lat="45.70126572203398" lon="9.69568274509102"><ele>263.0</ele><time>2026-04-12T11:51:55.001Z</time></trkpt><trkpt lat="45.70111448442381" lon="9.695790348262625"><ele>262.33333333333337</ele><time>2026-04-12T11:51:56.001Z</time></trkpt><trkpt lat="45.700952697050646" lon="9.695865281687796"><ele>261.6666666666667</ele><time>2026-04-12T11:51:57.001Z</time></trkpt><trkpt lat="45.700790797254456" lon="9.695925039361681"><ele>261.0</ele><time>2026-04-12T11:51:58.001Z</time></trkpt><trkpt lat="45.70062356375719" lon="9.69596247164793"><ele>261.0</ele><time>2026-04-12T11:51:59.001Z</time></trkpt><trkpt lat="45.70045490156124" lon="9.695976146179492"><ele>261.0</ele><time>2026-04-12T11:52:00.001Z</time></trkpt><trkpt lat="45.70029197815233" lon="9.69596746961143"><ele>261.0</ele><time>2026-04-12T11:52:01.001Z</time></trkpt><trkpt lat="45.70011959140239" lon="9.695942438457951"><ele>262.0</ele><time>2026-04-12T11:52:02.001Z</time></trkpt><trkpt lat="45.69995379630367" lon="9.695865588833321"><ele>263.0</ele><time>2026-04-12T11:52:03.001Z</time></trkpt><trkpt lat="45.688534308497594" lon="9.688007477638507"><ele>256.5</ele><time>2026-04-12T11:53:04Z</time></trkpt><trkpt lat="45.688315162541755" lon="9.687816535135124"><ele>250.0</ele><time>2026-04-12T11:53:05Z</time></trkpt><trkpt lat="45.688098430089084" lon="9.687626628586411"><ele>249.5</ele><time>2026-04-12T11:53:06Z</time></trkpt><trkpt lat="45.68789365497134" lon="9.687443394493018"><ele>249.0</ele><time>2026-04-12T11:53:07Z</time></trkpt><trkpt lat="45.68769310453684" lon="9.687265244562026"><ele>247.5</ele><time>2026-04-12T11:53:08Z</time></trkpt><trkpt lat="45.68749509255122" lon="9.68707438923617"><ele>246.0</ele><time>2026-04-12T11:53:09Z</time></trkpt><trkpt lat="45.687305447790564" lon="9.68688681041663"><ele>246.0</ele><time>2026-04-12T11:53:10Z</time></trkpt><trkpt lat="45.68712173550068" lon="9.686687130147124"><ele>246.0</ele><time>2026-04-12T11:53:11Z</time></trkpt><trkpt lat="45.68695228385964" lon="9.686465796505948"><ele>247.0</ele><time>2026-04-12T11:53:12Z</time></trkpt><trkpt lat="45.68680067733123" lon="9.686221317368535"><ele>248.0</ele><time>2026-04-12T11:53:13Z</time></trkpt><trkpt lat="45.686661645313414" lon="9.685965959726143"><ele>248.0</ele><time>2026-04-12T11:53:14Z</time></trkpt><trkpt lat="45.686528158044" lon="9.68571131525184"><ele>248.0</ele><time>2026-04-12T11:53:15Z</time></trkpt><trkpt lat="45.68638310353038" lon="9.685466401657498"><ele>248.0</ele><time>2026-04-12T11:53:16Z</time></trkpt><trkpt lat="45.68624674171625" lon="9.685226051276125"><ele>248.0</ele><time>2026-04-12T11:53:17Z</time></trkpt><trkpt lat="45.68611502877652" lon="9.68498333576379"><ele>248.0</ele><time>2026-04-12T11:53:18Z</time></trkpt><trkpt lat="45.68598524488061" lon="9.6847464150863"><ele>248.0</ele><time>2026-04-12T11:53:19Z</time></trkpt><trkpt lat="45.68585411046739" lon="9.68451279317809"><ele>246.66666666666669</ele><time>2026-04-12T11:53:20Z</time></trkpt><trkpt lat="45.68572099834485" lon="9.684283701909834"><ele>245.33333333333331</ele><time>2026-04-12T11:53:21Z</time></trkpt><trkpt lat="45.68559518616984" lon="9.684072417685355"><ele>244.0</ele><time>2026-04-12T11:53:22Z</time></trkpt><trkpt lat="45.685476441530724" lon="9.683868321704947"><ele>244.0</ele><time>2026-04-12T11:53:23Z</time></trkpt><trkpt lat="45.68536250181126" lon="9.683673505638033"><ele>244.0</ele><time>2026-04-12T11:53:24Z</time></trkpt><trkpt lat="45.68525305537292" lon="9.683488351632763"><ele>244.0</ele><time>2026-04-12T11:53:25.001Z</time></trkpt><trkpt lat="45.68515235840825" lon="9.683314858259799"><ele>244.33333333333331</ele><time>2026-04-12T11:53:26.001Z</time></trkpt><trkpt lat="45.68504983556488" lon="9.683135172074916"><ele>244.66666666666669</ele><time>2026-04-12T11:53:27.001Z</time></trkpt><trkpt lat="45.684939462320656" lon="9.682941021757477"><ele>245.0</ele><time>2026-04-12T11:53:28.001Z</time></trkpt><trkpt lat="45.68482132873261" lon="9.682742795841927"><ele>244.33333333333334</ele><time>2026-04-12T11:53:29.001Z</time></trkpt><trkpt lat="45.68469881744866" lon="9.682535458366358"><ele>243.66666666666669</ele><time>2026-04-12T11:53:30.001Z</time></trkpt><trkpt lat="45.68457465554696" lon="9.682326375592893"><ele>243.0</ele><time>2026-04-12T11:53:31.001Z</time></trkpt><trkpt lat="45.68445241376689" lon="9.682116946616574"><ele>244.0</ele><time>2026-04-12T11:53:32.001Z</time></trkpt><trkpt lat="45.68433137080829" lon="9.681909024684085"><ele>245.0</ele><time>2026-04-12T11:53:33.001Z</time></trkpt><trkpt lat="45.68421150657835" lon="9.681701878518295"><ele>246.0</ele><time>2026-04-12T11:53:34.001Z</time></trkpt><trkpt lat="45.68409491967834" lon="9.681496910358588"><ele>246.0</ele><time>2026-04-12T11:53:35.001Z</time></trkpt><trkpt lat="45.683976956255016" lon="9.681297281392654"><ele>246.0</ele><time>2026-04-12T11:53:36.001Z</time></trkpt><trkpt lat="45.68386138719326" lon="9.681101068010797"><ele>246.0</ele><time>2026-04-12T11:53:37.001Z</time></trkpt><trkpt lat="45.683746584369054" lon="9.680907929118034"><ele>245.66666666666669</ele><time>2026-04-12T11:53:38.001Z</time></trkpt><trkpt lat="45.68363413249561" lon="9.6807182028622"><ele>245.33333333333334</ele><time>2026-04-12T11:53:39.001Z</time></trkpt><trkpt lat="45.68352246428196" lon="9.680532593232972"><ele>245.0</ele><time>2026-04-12T11:53:40.001Z</time></trkpt><trkpt lat="45.68340964636786" lon="9.680343688597628"><ele>244.0</ele><time>2026-04-12T11:53:41.001Z</time></trkpt><trkpt lat="45.68329563796878" lon="9.680153048656916"><ele>243.0</ele><time>2026-04-12T11:53:42.001Z</time></trkpt><trkpt lat="45.68317994057432" lon="9.67996019831148"><ele>242.0</ele><time>2026-04-12T11:53:43.001Z</time></trkpt><trkpt lat="45.68306416323657" lon="9.679768102203917"><ele>242.0</ele><time>2026-04-12T11:53:44.001Z</time></trkpt><trkpt lat="45.682948586497076" lon="9.679576220898399"><ele>242.0</ele><time>2026-04-12T11:53:45.001Z</time></trkpt><trkpt lat="45.68283351748207" lon="9.6793816978388"><ele>242.0</ele><time>2026-04-12T11:53:46.001Z</time></trkpt><trkpt lat="45.68272089680784" lon="9.679183703024691"><ele>241.66666666666669</ele><time>2026-04-12T11:53:47.001Z</time></trkpt><trkpt lat="45.68261090322926" lon="9.678984888327191"><ele>241.33333333333331</ele><time>2026-04-12T11:53:48.001Z</time></trkpt><trkpt lat="45.68250159866985" lon="9.678782275575838"><ele>241.0</ele><time>2026-04-12T11:53:49.001Z</time></trkpt><trkpt lat="45.68238762005616" lon="9.678579152814091"><ele>240.66666666666666</ele><time>2026-04-12T11:53:50.001Z</time></trkpt><trkpt lat="45.68227386095942" lon="9.678384404209082"><ele>240.33333333333331</ele><time>2026-04-12T11:53:51.001Z</time></trkpt><trkpt lat="45.68216216576321" lon="9.678200274741705"><ele>240.0</ele><time>2026-04-12T11:53:52.001Z</time></trkpt><trkpt lat="45.68205021201176" lon="9.678015754487015"><ele>240.0</ele><time>2026-04-12T11:53:53.001Z</time></trkpt><trkpt lat="45.681937136189056" lon="9.677837267020626"><ele>240.0</ele><time>2026-04-12T11:53:54.001Z</time></trkpt><trkpt lat="45.6818169889311" lon="9.677663980785082"><ele>240.0</ele><time>2026-04-12T11:53:55.001Z</time></trkpt><trkpt lat="45.68170022681033" lon="9.677500319137572"><ele>240.66666666666669</ele><time>2026-04-12T11:53:56.001Z</time></trkpt><trkpt lat="45.681584987382834" lon="9.67733489297756"><ele>241.33333333333334</ele><time>2026-04-12T11:53:57.001Z</time></trkpt><trkpt lat="45.681467707188105" lon="9.677162961794174"><ele>242.0</ele><time>2026-04-12T11:53:58.001Z</time></trkpt><trkpt lat="45.68134415528419" lon="9.676982435447403"><ele>241.66666666666669</ele><time>2026-04-12T11:53:59.001Z</time></trkpt><trkpt lat="45.681218277543486" lon="9.676795345042017"><ele>241.33333333333331</ele><time>2026-04-12T11:54:00.001Z</time></trkpt><trkpt lat="45.681091658954145" lon="9.676595886025252"><ele>241.0</ele><time>2026-04-12T11:54:01.001Z</time></trkpt><trkpt lat="45.68096743911854" lon="9.676386357794588"><ele>241.0</ele><time>2026-04-12T11:54:02.001Z</time></trkpt><trkpt lat="45.68084430863948" lon="9.676171513714134"><ele>241.0</ele><time>2026-04-12T11:54:03.001Z</time></trkpt><trkpt lat="45.680975094980965" lon="9.66867794823078"><ele>239.75</ele><time>2026-04-12T11:55:04Z</time></trkpt><trkpt lat="45.68105700017394" lon="9.668527732402481"><ele>238.5</ele><time>2026-04-12T11:55:05Z</time></trkpt><trkpt lat="45.68114697563216" lon="9.668376792022608"><ele>237.25</ele><time>2026-04-12T11:55:06Z</time></trkpt><trkpt lat="45.68123081113183" lon="9.668229508324535"><ele>236.0</ele><time>2026-04-12T11:55:07Z</time></trkpt><trkpt lat="45.68130695453708" lon="9.668097265064935"><ele>236.00000000000003</ele><time>2026-04-12T11:55:08Z</time></trkpt><trkpt lat="45.681378206775115" lon="9.66797985137769"><ele>236.0</ele><time>2026-04-12T11:55:09Z</time></trkpt><trkpt lat="45.68143540514438" lon="9.667879277664726"><ele>236.0</ele><time>2026-04-12T11:55:10Z</time></trkpt><trkpt lat="45.68148427931088" lon="9.667790787590457"><ele>236.0</ele><time>2026-04-12T11:55:11Z</time></trkpt><trkpt lat="45.68152184255662" lon="9.667716059553253"><ele>236.00000000000003</ele><time>2026-04-12T11:55:12Z</time></trkpt><trkpt lat="45.68158508407614" lon="9.667624256114996"><ele>236.0</ele><time>2026-04-12T11:55:14Z</time></trkpt><trkpt lat="45.68147346253181" lon="9.667467550335164"><ele>236.25</ele><time>2026-04-12T11:55:15Z</time></trkpt><trkpt lat="45.6813950385659" lon="9.6673868694295"><ele>236.5</ele><time>2026-04-12T11:55:16Z</time></trkpt><trkpt lat="45.681311100403036" lon="9.66729166115946"><ele>236.75</ele><time>2026-04-12T11:55:17Z</time></trkpt><trkpt lat="45.68120685801389" lon="9.66717360138392"><ele>237.0</ele><time>2026-04-12T11:55:18Z</time></trkpt><trkpt lat="45.68110133430972" lon="9.667046831978036"><ele>236.5</ele><time>2026-04-12T11:55:19Z</time></trkpt><trkpt lat="45.68100323096692" lon="9.666932752482074"><ele>236.0</ele><time>2026-04-12T11:55:20Z</time></trkpt><trkpt lat="45.680901587236285" lon="9.666817933914544"><ele>235.5</ele><time>2026-04-12T11:55:21Z</time></trkpt><trkpt lat="45.6807972284772" lon="9.66670061413734"><ele>235.0</ele><time>2026-04-12T11:55:22Z</time></trkpt><trkpt lat="45.68068836309931" lon="9.666589224663754"><ele>235.0</ele><time>2026-04-12T11:55:23Z</time></trkpt><trkpt lat="45.68058538123824" lon="9.666470806697877"><ele>235.0</ele><time>2026-04-12T11:55:24Z</time></trkpt><trkpt lat="45.6804819082197" lon="9.6663490879385"><ele>235.0</ele><time>2026-04-12T11:55:25Z</time></trkpt><trkpt lat="45.680373545979364" lon="9.666232690680825"><ele>235.0</ele><time>2026-04-12T11:55:26Z</time></trkpt><trkpt lat="45.6802806853698" lon="9.666127223279723"><ele>234.6</ele><time>2026-04-12T11:55:27Z</time></trkpt><trkpt lat="45.68019317112109" lon="9.666024282748861"><ele>234.2</ele><time>2026-04-12T11:55:28Z</time></trkpt><trkpt lat="45.68011458261169" lon="9.665927794473559"><ele>233.8</ele><time>2026-04-12T11:55:29Z</time></trkpt><trkpt lat="45.68004372459106" lon="9.665835696769951"><ele>233.4</ele><time>2026-04-12T11:55:30.001Z</time></trkpt><trkpt lat="45.6799803442833" lon="9.665757818253953"><ele>233.0</ele><time>2026-04-12T11:55:31.001Z</time></trkpt><trkpt lat="45.679924849677384" lon="9.665681289006068"><ele>233.0</ele><time>2026-04-12T11:55:32.001Z</time></trkpt><trkpt lat="45.679883000514195" lon="9.665594091106714"><ele>233.0</ele><time>2026-04-12T11:55:34.001Z</time></trkpt><trkpt lat="45.679970470358064" lon="9.665399078816979"><ele>233.0</ele><time>2026-04-12T11:55:36.001Z</time></trkpt><trkpt lat="45.68002241039437" lon="9.66530318722396"><ele>233.0</ele><time>2026-04-12T11:55:37.001Z</time></trkpt><trkpt lat="45.68008195257061" lon="9.665196732027649"><ele>233.0</ele><time>2026-04-12T11:55:38.001Z</time></trkpt><trkpt lat="45.68014478633783" lon="9.665085097971051"><ele>233.2</ele><time>2026-04-12T11:55:39.001Z</time></trkpt><trkpt lat="45.680208940206" lon="9.664967613938709"><ele>233.4</ele><time>2026-04-12T11:55:40.001Z</time></trkpt><trkpt lat="45.680268385108036" lon="9.664853581014114"><ele>233.59999999999997</ele><time>2026-04-12T11:55:41.001Z</time></trkpt><trkpt lat="45.680323988541716" lon="9.66474219938931"><ele>233.79999999999998</ele><time>2026-04-12T11:55:42.001Z</time></trkpt><trkpt lat="45.680381833650145" lon="9.664637528228296"><ele>234.0</ele><time>2026-04-12T11:55:43.001Z</time></trkpt><trkpt lat="45.68043902581044" lon="9.66453428243376"><ele>235.0</ele><time>2026-04-12T11:55:44.001Z</time></trkpt><trkpt lat="45.68050245111542" lon="9.664453675328678"><ele>235.0</ele><time>2026-04-12T11:55:45.001Z</time></trkpt><trkpt lat="45.68053630016578" lon="9.664360097238532"><ele>236.0</ele><time>2026-04-12T11:55:46.001Z</time></trkpt><trkpt lat="45.680588519563905" lon="9.664304271648275"><ele>236.0</ele><time>2026-04-12T11:55:47.001Z</time></trkpt><trkpt lat="45.68065083562089" lon="9.664195350783952"><ele>236.0</ele><time>2026-04-12T11:55:49.001Z</time></trkpt></trkseg><trkseg><trkpt lat="45.68054694768753" lon="9.664039057531225"><ele>236.00000000000003</ele><time>2026-04-12T12:44:14.999Z</time></trkpt><trkpt lat="45.68060661057323" lon="9.66407205677342"><ele>236.0</ele><time>2026-04-12T12:44:21.999Z</time></trkpt><trkpt lat="45.680657221020724" lon="9.664132034608002"><ele>236.0</ele><time>2026-04-12T12:44:53.999Z</time></trkpt><trkpt lat="45.6806386455039" lon="9.664252142764099"><ele>236.0</ele><time>2026-04-12T12:44:58.999Z</time></trkpt><trkpt lat="45.680544878754326" lon="9.664374033311036"><ele>236.00000000000003</ele><time>2026-04-12T12:45:00.999Z</time></trkpt><trkpt lat="45.68048708457607" lon="9.664473135619307"><ele>236.0</ele><time>2026-04-12T12:45:01.999Z</time></trkpt><trkpt lat="45.680399641904145" lon="9.664557341656735"><ele>235.8</ele><time>2026-04-12T12:45:02.999Z</time></trkpt><trkpt lat="45.68034216157616" lon="9.664664618126341"><ele>235.60000000000002</ele><time>2026-04-12T12:45:03.999Z</time></trkpt><trkpt lat="45.680281937809205" lon="9.664776301046425"><ele>235.4</ele><time>2026-04-12T12:45:04.999Z</time></trkpt><trkpt lat="45.68022186886193" lon="9.66488765609204"><ele>235.2</ele><time>2026-04-12T12:45:05.999Z</time></trkpt><trkpt lat="45.68016091724797" lon="9.665009688628219"><ele>235.0</ele><time>2026-04-12T12:45:06.999Z</time></trkpt><trkpt lat="45.680096980130955" lon="9.6651270265336"><ele>234.83333333333331</ele><time>2026-04-12T12:45:07.999Z</time></trkpt><trkpt lat="45.68002955531967" lon="9.66524131238396"><ele>234.66666666666666</ele><time>2026-04-12T12:45:08.999Z</time></trkpt><trkpt lat="45.67997789209841" lon="9.665340887646392"><ele>234.5</ele><time>2026-04-12T12:45:09.999Z</time></trkpt><trkpt lat="45.679932468847184" lon="9.665423398404913"><ele>234.33333333333331</ele><time>2026-04-12T12:45:10.999Z</time></trkpt><trkpt lat="45.6798887311685" lon="9.665506026536786"><ele>234.16666666666666</ele><time>2026-04-12T12:45:11.999Z</time></trkpt><trkpt lat="45.67981843570448" lon="9.665623038702988"><ele>234.0</ele><time>2026-04-12T12:45:13.999Z</time></trkpt><trkpt lat="45.679954935903886" lon="9.665799552079685"><ele>233.83333333333334</ele><time>2026-04-12T12:45:15.999Z</time></trkpt><trkpt lat="45.680023693672126" lon="9.665853495997238"><ele>233.66666666666669</ele><time>2026-04-12T12:45:16.999Z</time></trkpt><trkpt lat="45.68008838918411" lon="9.665922661803043"><ele>233.5</ele><time>2026-04-12T12:45:17.999Z</time></trkpt><trkpt lat="45.68015652033053" lon="9.66600437426219"><ele>233.33333333333334</ele><time>2026-04-12T12:45:18.999Z</time></trkpt><trkpt lat="45.680227193735874" lon="9.666090980660805"><ele>233.16666666666669</ele><time>2026-04-12T12:45:19.999Z</time></trkpt><trkpt lat="45.68030617881835" lon="9.666180809278467"><ele>233.0</ele><time>2026-04-12T12:45:20.999Z</time></trkpt><trkpt lat="45.68038741786371" lon="9.66627807614294"><ele>233.5</ele><time>2026-04-12T12:45:21.999Z</time></trkpt><trkpt lat="45.680474502034826" lon="9.666384378280105"><ele>234.0</ele><time>2026-04-12T12:45:22.999Z</time></trkpt><trkpt lat="45.68056854426623" lon="9.666491325211625"><ele>234.5</ele><time>2026-04-12T12:45:23.999Z</time></trkpt><trkpt lat="45.680668609809096" lon="9.666594253565718"><ele>235.0</ele><time>2026-04-12T12:45:24.999Z</time></trkpt><trkpt lat="45.680770360663175" lon="9.666700984231964"><ele>235.0</ele><time>2026-04-12T12:45:25.999Z</time></trkpt><trkpt lat="45.680869361380196" lon="9.666816663133826"><ele>235.0</ele><time>2026-04-12T12:45:26.999Z</time></trkpt><trkpt lat="45.68096767591754" lon="9.666929950816346"><ele>235.0</ele><time>2026-04-12T12:45:27.999Z</time></trkpt><trkpt lat="45.68106288812843" lon="9.667034864847764"><ele>235.0</ele><time>2026-04-12T12:45:28.999Z</time></trkpt><trkpt lat="45.68114854793014" lon="9.667130842736725"><ele>235.4</ele><time>2026-04-12T12:45:29.999Z</time></trkpt><trkpt lat="45.68121936360568" lon="9.667217400451378"><ele>235.8</ele><time>2026-04-12T12:45:30.999Z</time></trkpt><trkpt lat="45.68128482776011" lon="9.667295719293138"><ele>236.2</ele><time>2026-04-12T12:45:31.999Z</time></trkpt><trkpt lat="45.68134072177904" lon="9.667371654118465"><ele>236.6</ele><time>2026-04-12T12:45:32.999Z</time></trkpt><trkpt lat="45.681449530584345" lon="9.667492161309841"><ele>237.0</ele><time>2026-04-12T12:45:34.999Z</time></trkpt><trkpt lat="45.681517474741746" lon="9.667613225355298"><ele>236.8</ele><time>2026-04-12T12:45:36.999Z</time></trkpt><trkpt lat="45.68146231993415" lon="9.667791835488137"><ele>236.6</ele><time>2026-04-12T12:45:39.999Z</time></trkpt><trkpt lat="45.681408153453056" lon="9.667869758361393"><ele>236.40000000000003</ele><time>2026-04-12T12:45:40.999Z</time></trkpt><trkpt lat="45.68135947578064" lon="9.667963777011344"><ele>236.20000000000002</ele><time>2026-04-12T12:45:41.999Z</time></trkpt><trkpt lat="45.68130350254811" lon="9.668063081716221"><ele>236.0</ele><time>2026-04-12T12:45:42.999Z</time></trkpt><trkpt lat="45.681242258380856" lon="9.668178964345776"><ele>236.0</ele><time>2026-04-12T12:45:43.999Z</time></trkpt><trkpt lat="45.68117550176399" lon="9.66829358527916"><ele>236.0</ele><time>2026-04-12T12:45:44.999Z</time></trkpt><trkpt lat="45.68110120911054" lon="9.668417415383344"><ele>236.0</ele><time>2026-04-12T12:45:45.999Z</time></trkpt><trkpt lat="45.68102505158208" lon="9.668553289114417"><ele>236.0</ele><time>2026-04-12T12:45:46.999Z</time></trkpt><trkpt lat="45.680947832365334" lon="9.668695426501378"><ele>235.8</ele><time>2026-04-12T12:45:47.999Z</time></trkpt><trkpt lat="45.680870088779145" lon="9.668839926937592"><ele>235.60000000000002</ele><time>2026-04-12T12:45:48.999Z</time></trkpt><trkpt lat="45.68079290386937" lon="9.668970892997715"><ele>235.4</ele><time>2026-04-12T12:45:49.999Z</time></trkpt><trkpt lat="45.68072731595423" lon="9.669083418383611"><ele>235.2</ele><time>2026-04-12T12:45:50.999Z</time></trkpt><trkpt lat="45.680678440032736" lon="9.669165700713684"><ele>235.0</ele><time>2026-04-12T12:45:51.999Z</time></trkpt><trkpt lat="45.68060480384823" lon="9.669317051763917"><ele>234.99999999999997</ele><time>2026-04-12T12:45:53.999Z</time></trkpt><trkpt lat="45.68058841497964" lon="9.669422556613302"><ele>235.0</ele><time>2026-04-12T12:45:54.999Z</time></trkpt><trkpt lat="45.68058311567944" lon="9.669547025252644"><ele>235.0</ele><time>2026-04-12T12:45:55.999Z</time></trkpt><trkpt lat="45.6805613444572" lon="9.669661427380213"><ele>235.0</ele><time>2026-04-12T12:45:56.999Z</time></trkpt><trkpt lat="45.68051561477921" lon="9.669748756258755"><ele>234.99999999999997</ele><time>2026-04-12T12:45:57.999Z</time></trkpt><trkpt lat="45.680442443016574" lon="9.669825696148266"><ele>235.0</ele><time>2026-04-12T12:45:58.999Z</time></trkpt><trkpt lat="45.68035056943599" lon="9.669892643416526"><ele>235.5</ele><time>2026-04-12T12:45:59.999Z</time></trkpt><trkpt lat="45.68024807824112" lon="9.66995760559647"><ele>236.0</ele><time>2026-04-12T12:46:00.999Z</time></trkpt><trkpt lat="45.68013063710214" lon="9.6699928555011"><ele>236.5</ele><time>2026-04-12T12:46:01.999Z</time></trkpt><trkpt lat="45.68000171411406" lon="9.669979270895695"><ele>237.0</ele><time>2026-04-12T12:46:02.999Z</time></trkpt><trkpt lat="45.67987702433334" lon="9.66994881627562"><ele>237.0</ele><time>2026-04-12T12:46:03.999Z</time></trkpt><trkpt lat="45.67975603924566" lon="9.669914465970768"><ele>237.0</ele><time>2026-04-12T12:46:04.999Z</time></trkpt><trkpt lat="45.67962323111613" lon="9.6698797031685"><ele>237.0</ele><time>2026-04-12T12:46:05.999Z</time></trkpt><trkpt lat="45.67947814352364" lon="9.669854193214691"><ele>237.0</ele><time>2026-04-12T12:46:06.999Z</time></trkpt><trkpt lat="45.679329002643925" lon="9.669827546838919"><ele>236.66666666666669</ele><time>2026-04-12T12:46:07.999Z</time></trkpt><trkpt lat="45.67917484108382" lon="9.669798753723933"><ele>236.33333333333334</ele><time>2026-04-12T12:46:08.999Z</time></trkpt><trkpt lat="45.67901665763106" lon="9.669765412848044"><ele>236.0</ele><time>2026-04-12T12:46:09.999Z</time></trkpt><trkpt lat="45.67885610340068" lon="9.669726206994312"><ele>236.0</ele><time>2026-04-12T12:46:10.999Z</time></trkpt><trkpt lat="45.678699027439315" lon="9.66967758363638"><ele>236.0</ele><time>2026-04-12T12:46:11.999Z</time></trkpt><trkpt lat="45.67854906491432" lon="9.669622270989313"><ele>236.0</ele><time>2026-04-12T12:46:12.999Z</time></trkpt><trkpt lat="45.678409841574044" lon="9.669559366214791"><ele>235.60000000000002</ele><time>2026-04-12T12:46:13.999Z</time></trkpt><trkpt lat="45.67828828681666" lon="9.669495322675765"><ele>235.20000000000002</ele><time>2026-04-12T12:46:14.999Z</time></trkpt><trkpt lat="45.67819023702755" lon="9.669428253170347"><ele>234.79999999999998</ele><time>2026-04-12T12:46:15.999Z</time></trkpt><trkpt lat="45.678118782362084" lon="9.669362455394145"><ele>234.39999999999998</ele><time>2026-04-12T12:46:16.999Z</time></trkpt><trkpt lat="45.67806983927018" lon="9.669286700742235"><ele>234.0</ele><time>2026-04-12T12:46:17.999Z</time></trkpt><trkpt lat="45.67798400670206" lon="9.669197119140897"><ele>234.0</ele><time>2026-04-12T12:46:19.999Z</time></trkpt><trkpt lat="45.677929015532314" lon="9.669139520339403"><ele>233.99999999999997</ele><time>2026-04-12T12:46:20.999Z</time></trkpt><trkpt lat="45.67785390131241" lon="9.669075914850428"><ele>233.99999999999997</ele><time>2026-04-12T12:46:21.999Z</time></trkpt><trkpt lat="45.677809189221264" lon="9.668933760079035"><ele>234.0</ele><time>2026-04-12T12:46:22.999Z</time></trkpt><trkpt lat="45.67775757346504" lon="9.668771995338945"><ele>234.0</ele><time>2026-04-12T12:46:23.999Z</time></trkpt><trkpt lat="45.677693643280776" lon="9.668604173068546"><ele>234.5</ele><time>2026-04-12T12:46:24.999Z</time></trkpt><trkpt lat="45.67761048437988" lon="9.66844144645516"><ele>235.0</ele><time>2026-04-12T12:46:25.999Z</time></trkpt><trkpt lat="45.67752870098085" lon="9.668298924204187"><ele>235.5</ele><time>2026-04-12T12:46:26.999Z</time></trkpt><trkpt lat="45.677438978840556" lon="9.668178453513375"><ele>236.0</ele><time>2026-04-12T12:46:27.999Z</time></trkpt><trkpt lat="45.67733176986401" lon="9.668070733776773"><ele>236.0</ele><time>2026-04-12T12:46:28.999Z</time></trkpt><trkpt lat="45.67721705489125" lon="9.66798413876828"><ele>236.0</ele><time>2026-04-12T12:46:29.999Z</time></trkpt><trkpt lat="45.67710250669499" lon="9.667921666653978"><ele>236.0</ele><time>2026-04-12T12:46:30.999Z</time></trkpt><trkpt lat="45.67698792160718" lon="9.667872079843615"><ele>236.0</ele><time>2026-04-12T12:46:31.999Z</time></trkpt><trkpt lat="45.67687546874903" lon="9.667838027008472"><ele>235.5</ele><time>2026-04-12T12:46:32.999Z</time></trkpt><trkpt lat="45.676756345401735" lon="9.667836322366869"><ele>235.0</ele><time>2026-04-12T12:46:33.999Z</time></trkpt><trkpt lat="45.67662929330607" lon="9.667853393371635"><ele>234.5</ele><time>2026-04-12T12:46:34.999Z</time></trkpt><trkpt lat="45.67650181182928" lon="9.667886483946438"><ele>234.0</ele><time>2026-04-12T12:46:35.999Z</time></trkpt><trkpt lat="45.67637154746629" lon="9.66794316503618"><ele>234.0</ele><time>2026-04-12T12:46:36.999Z</time></trkpt><trkpt lat="45.67624069439077" lon="9.6679878498238"><ele>234.0</ele><time>2026-04-12T12:46:37.999Z</time></trkpt><trkpt lat="45.67611670544142" lon="9.668110347115004"><ele>234.0</ele><time>2026-04-12T12:46:38.999Z</time></trkpt><trkpt lat="45.676014932346845" lon="9.668225207231785"><ele>234.0</ele><time>2026-04-12T12:46:39.999Z</time></trkpt><trkpt lat="45.67590498212429" lon="9.668363987279532"><ele>234.0</ele><time>2026-04-12T12:46:40.999Z</time></trkpt><trkpt lat="45.67582363591326" lon="9.668505791870865"><ele>234.0</ele><time>2026-04-12T12:46:41.999Z</time></trkpt><trkpt lat="45.6757359515741" lon="9.668657791353947"><ele>234.0</ele><time>2026-04-12T12:46:42.999Z</time></trkpt><trkpt lat="45.67567859778071" lon="9.668824414501843"><ele>234.0</ele><time>2026-04-12T12:46:43.999Z</time></trkpt><trkpt lat="45.6755547906834" lon="9.668896323046525"><ele>233.6</ele><time>2026-04-12T12:46:44.999Z</time></trkpt><trkpt lat="45.6754535061254" lon="9.668955747835946"><ele>233.2</ele><time>2026-04-12T12:46:45.999Z</time></trkpt><trkpt lat="45.675350322570154" lon="9.668980117298924"><ele>232.79999999999998</ele><time>2026-04-12T12:46:46.999Z</time></trkpt><trkpt lat="45.67524637263353" lon="9.668989112130753"><ele>232.39999999999998</ele><time>2026-04-12T12:46:47.999Z</time></trkpt><trkpt lat="45.67514605975232" lon="9.668967927348326"><ele>232.0</ele><time>2026-04-12T12:46:48.999Z</time></trkpt><trkpt lat="45.67505058746818" lon="9.668927842128307"><ele>231.8</ele><time>2026-04-12T12:46:49.999Z</time></trkpt><trkpt lat="45.674950372880325" lon="9.668883624801536"><ele>231.6</ele><time>2026-04-12T12:46:50.999Z</time></trkpt><trkpt lat="45.674851790403125" lon="9.668833232543664"><ele>231.40000000000003</ele><time>2026-04-12T12:46:51.999Z</time></trkpt><trkpt lat="45.67476380482881" lon="9.668760003212043"><ele>231.20000000000002</ele><time>2026-04-12T12:46:52.999Z</time></trkpt><trkpt lat="45.6746811206298" lon="9.668684085507355"><ele>231.0</ele><time>2026-04-12T12:46:53.999Z</time></trkpt><trkpt lat="45.67459614103713" lon="9.668595371186926"><ele>231.0</ele><time>2026-04-12T12:46:54.999Z</time></trkpt><trkpt lat="45.674513185629735" lon="9.668549577398577"><ele>231.00000000000003</ele><time>2026-04-12T12:46:55.999Z</time></trkpt><trkpt lat="45.674426586523126" lon="9.668504986716144"><ele>231.00000000000003</ele><time>2026-04-12T12:46:56.999Z</time></trkpt><trkpt lat="45.67435577078753" lon="9.668482194453736"><ele>231.0</ele><time>2026-04-12T12:46:57.999Z</time></trkpt><trkpt lat="45.67422711615338" lon="9.668460533859292"><ele>231.0</ele><time>2026-04-12T12:46:59.999Z</time></trkpt><trkpt lat="45.67415543386457" lon="9.66845514929064"><ele>230.5</ele><time>2026-04-12T12:47:00.999Z</time></trkpt><trkpt lat="45.674087482886094" lon="9.668452396340728"><ele>230.0</ele><time>2026-04-12T12:47:01.999Z</time></trkpt><trkpt lat="45.67400633217325" lon="9.668451255775244"><ele>229.5</ele><time>2026-04-12T12:47:02.999Z</time></trkpt><trkpt lat="45.67391508332148" lon="9.668452388352998"><ele>229.0</ele><time>2026-04-12T12:47:03.999Z</time></trkpt><trkpt lat="45.673821983048775" lon="9.66846226399563"><ele>228.5</ele><time>2026-04-12T12:47:04.999Z</time></trkpt><trkpt lat="45.67371853590388" lon="9.668527443345265"><ele>228.0</ele><time>2026-04-12T12:47:05.999Z</time></trkpt><trkpt lat="45.67362666439194" lon="9.668579623116113"><ele>227.4</ele><time>2026-04-12T12:47:06.999Z</time></trkpt><trkpt lat="45.67353603274005" lon="9.668627274991271"><ele>226.8</ele><time>2026-04-12T12:47:07.999Z</time></trkpt><trkpt lat="45.67344179512332" lon="9.66866722147612"><ele>226.2</ele><time>2026-04-12T12:47:08.999Z</time></trkpt><trkpt lat="45.67334719853522" lon="9.668690740698734"><ele>225.6</ele><time>2026-04-12T12:47:09.999Z</time></trkpt><trkpt lat="45.67325511615189" lon="9.668697074670813"><ele>225.0</ele><time>2026-04-12T12:47:10.999Z</time></trkpt><trkpt lat="45.6731570206211" lon="9.668699917133901"><ele>225.0</ele><time>2026-04-12T12:47:11.999Z</time></trkpt><trkpt lat="45.67305353829795" lon="9.668713474282802"><ele>225.0</ele><time>2026-04-12T12:47:12.999Z</time></trkpt><trkpt lat="45.672946627444325" lon="9.668727315813104"><ele>225.0</ele><time>2026-04-12T12:47:13.999Z</time></trkpt><trkpt lat="45.67283554618528" lon="9.668706995578061"><ele>225.0</ele><time>2026-04-12T12:47:14.999Z</time></trkpt><trkpt lat="45.67272235860232" lon="9.668670723928784"><ele>225.0</ele><time>2026-04-12T12:47:15.999Z</time></trkpt><trkpt lat="45.67262018043876" lon="9.668633399448378"><ele>225.75</ele><time>2026-04-12T12:47:16.999Z</time></trkpt><trkpt lat="45.672506570016985" lon="9.668598430297996"><ele>226.5</ele><time>2026-04-12T12:47:17.999Z</time></trkpt><trkpt lat="45.67237086524364" lon="9.668553976271621"><ele>227.25</ele><time>2026-04-12T12:47:18.999Z</time></trkpt><trkpt lat="45.67221500070827" lon="9.668499826086009"><ele>228.0</ele><time>2026-04-12T12:47:19.999Z</time></trkpt><trkpt lat="45.67204789970511" lon="9.668429935482699"><ele>227.33333333333331</ele><time>2026-04-12T12:47:20.999Z</time></trkpt><trkpt lat="45.671873690176035" lon="9.668355799504049"><ele>226.66666666666666</ele><time>2026-04-12T12:47:21.999Z</time></trkpt><trkpt lat="45.67170390495707" lon="9.66827078803678"><ele>226.0</ele><time>2026-04-12T12:47:22.999Z</time></trkpt><trkpt lat="45.671537576457446" lon="9.668172051642054"><ele>226.0</ele><time>2026-04-12T12:47:23.999Z</time></trkpt><trkpt lat="45.67136526504856" lon="9.668057129257807"><ele>226.0</ele><time>2026-04-12T12:47:24.999Z</time></trkpt><trkpt lat="45.67119345511443" lon="9.667930448977373"><ele>226.0</ele><time>2026-04-12T12:47:25.999Z</time></trkpt><trkpt lat="45.67101920497405" lon="9.667799569455383"><ele>226.66666666666666</ele><time>2026-04-12T12:47:26.999Z</time></trkpt><trkpt lat="45.67084612103954" lon="9.667664200525032"><ele>227.33333333333331</ele><time>2026-04-12T12:47:27.999Z</time></trkpt><trkpt lat="45.67067579931446" lon="9.667526151555949"><ele>228.0</ele><time>2026-04-12T12:47:28.999Z</time></trkpt><trkpt lat="45.67051412861265" lon="9.667390964023951"><ele>228.0</ele><time>2026-04-12T12:47:29.999Z</time></trkpt><trkpt lat="45.67035615042166" lon="9.667254720104664"><ele>228.0</ele><time>2026-04-12T12:47:30.999Z</time></trkpt><trkpt lat="45.670207797169084" lon="9.667120077827922"><ele>228.0</ele><time>2026-04-12T12:47:31.999Z</time></trkpt><trkpt lat="45.67007085603868" lon="9.666982401618913"><ele>228.0</ele><time>2026-04-12T12:47:32.999Z</time></trkpt><trkpt lat="45.66993438765827" lon="9.666829299655708"><ele>228.0</ele><time>2026-04-12T12:47:33.999Z</time></trkpt><trkpt lat="45.66980830653748" lon="9.666665538937576"><ele>228.0</ele><time>2026-04-12T12:47:34.999Z</time></trkpt><trkpt lat="45.669689817882265" lon="9.666487766401966"><ele>228.0</ele><time>2026-04-12T12:47:35.999Z</time></trkpt><trkpt lat="45.669573401755386" lon="9.666307014653569"><ele>228.0</ele><time>2026-04-12T12:47:36.999Z</time></trkpt><trkpt lat="45.66946431208084" lon="9.666111066310956"><ele>228.0</ele><time>2026-04-12T12:47:37.999Z</time></trkpt><trkpt lat="45.66935815762484" lon="9.665909240660675"><ele>227.66666666666669</ele><time>2026-04-12T12:47:38.999Z</time></trkpt><trkpt lat="45.66925597359898" lon="9.665726393218934"><ele>227.33333333333334</ele><time>2026-04-12T12:47:39.999Z</time></trkpt><trkpt lat="45.66914838488897" lon="9.665554556315033"><ele>227.0</ele><time>2026-04-12T12:47:40.999Z</time></trkpt><trkpt lat="45.66903435895297" lon="9.665378226687812"><ele>227.33333333333334</ele><time>2026-04-12T12:47:41.999Z</time></trkpt><trkpt lat="45.66891392782986" lon="9.665191937249118"><ele>227.66666666666669</ele><time>2026-04-12T12:47:42.999Z</time></trkpt><trkpt lat="45.66878833469831" lon="9.664984565014972"><ele>228.0</ele><time>2026-04-12T12:47:43.999Z</time></trkpt><trkpt lat="45.66865952364997" lon="9.664753510055569"><ele>226.5</ele><time>2026-04-12T12:47:44.999Z</time></trkpt><trkpt lat="45.66852312864166" lon="9.664504356935161"><ele>225.0</ele><time>2026-04-12T12:47:45.999Z</time></trkpt><trkpt lat="45.66837840820319" lon="9.664242427257905"><ele>224.5</ele><time>2026-04-12T12:47:46.999Z</time></trkpt><trkpt lat="45.668233110931176" lon="9.663967416020407"><ele>224.0</ele><time>2026-04-12T12:47:47.999Z</time></trkpt><trkpt lat="45.66809197574024" lon="9.663700030249784"><ele>224.0</ele><time>2026-04-12T12:47:48.999Z</time></trkpt><trkpt lat="45.66794463643473" lon="9.663427081468676"><ele>224.0</ele><time>2026-04-12T12:47:49.999Z</time></trkpt><trkpt lat="45.66778944687508" lon="9.663147959125645"><ele>224.5</ele><time>2026-04-12T12:47:50.999Z</time></trkpt><trkpt lat="45.667633985968145" lon="9.662858953257762"><ele>225.0</ele><time>2026-04-12T12:47:51.999Z</time></trkpt><trkpt lat="45.667471037048436" lon="9.662563251404443"><ele>225.0</ele><time>2026-04-12T12:47:52.999Z</time></trkpt><trkpt lat="45.6673024751846" lon="9.662261386598882"><ele>225.0</ele><time>2026-04-12T12:47:53.999Z</time></trkpt><trkpt lat="45.667131665427476" lon="9.661953863598322"><ele>225.0</ele><time>2026-04-12T12:47:54.999Z</time></trkpt><trkpt lat="45.666958172028345" lon="9.66164144868345"><ele>225.0</ele><time>2026-04-12T12:47:55.999Z</time></trkpt><trkpt lat="45.666781796432474" lon="9.661324867916457"><ele>223.5</ele><time>2026-04-12T12:47:56.999Z</time></trkpt><trkpt lat="45.66660913131666" lon="9.661013888027876"><ele>222.0</ele><time>2026-04-12T12:47:57.999Z</time></trkpt><trkpt lat="45.66643768264484" lon="9.660708648889502"><ele>222.0</ele><time>2026-04-12T12:47:58.999Z</time></trkpt><trkpt lat="45.66626245075831" lon="9.660394867114844"><ele>222.0</ele><time>2026-04-12T12:47:59.999Z</time></trkpt><trkpt lat="45.666085858859425" lon="9.660073050442897"><ele>222.0</ele><time>2026-04-12T12:48:00.999Z</time></trkpt><trkpt lat="45.66590864982651" lon="9.659747359649849"><ele>222.0</ele><time>2026-04-12T12:48:01.999Z</time></trkpt><trkpt lat="45.66572996272745" lon="9.659417013171876"><ele>222.0</ele><time>2026-04-12T12:48:02.999Z</time></trkpt><trkpt lat="45.66555017873512" lon="9.659081627783541"><ele>222.0</ele><time>2026-04-12T12:48:03.999Z</time></trkpt><trkpt lat="45.665367086402945" lon="9.658746331562012"><ele>222.0</ele><time>2026-04-12T12:48:04.999Z</time></trkpt><trkpt lat="45.66518018601616" lon="9.658409389058102"><ele>222.0</ele><time>2026-04-12T12:48:05.999Z</time></trkpt><trkpt lat="45.66498986004152" lon="9.658070203111567"><ele>220.5</ele><time>2026-04-12T12:48:06.999Z</time></trkpt><trkpt lat="45.664799273343995" lon="9.657727468636454"><ele>219.0</ele><time>2026-04-12T12:48:07.999Z</time></trkpt><trkpt lat="45.664605307040325" lon="9.657382235059721"><ele>218.5</ele><time>2026-04-12T12:48:08.999Z</time></trkpt><trkpt lat="45.664410785888094" lon="9.657034279295594"><ele>218.0</ele><time>2026-04-12T12:48:09.999Z</time></trkpt><trkpt lat="45.66421791531681" lon="9.656684048051883"><ele>218.0</ele><time>2026-04-12T12:48:10.999Z</time></trkpt><trkpt lat="45.66402612401183" lon="9.656335301820794"><ele>218.0</ele><time>2026-04-12T12:48:11.999Z</time></trkpt><trkpt lat="45.66383382040688" lon="9.655987680783282"><ele>218.0</ele><time>2026-04-12T12:48:12.999Z</time></trkpt><trkpt lat="45.663642773438085" lon="9.655643602913596"><ele>218.0</ele><time>2026-04-12T12:48:13.999Z</time></trkpt><trkpt lat="45.66345453769405" lon="9.655301803895105"><ele>216.5</ele><time>2026-04-12T12:48:14.999Z</time></trkpt><trkpt lat="45.66326778312409" lon="9.654966071224203"><ele>215.0</ele><time>2026-04-12T12:48:15.999Z</time></trkpt><trkpt lat="45.66308318904739" lon="9.654631581855543"><ele>215.5</ele><time>2026-04-12T12:48:16.999Z</time></trkpt><trkpt lat="45.66289886098672" lon="9.654300335395197"><ele>216.0</ele><time>2026-04-12T12:48:17.999Z</time></trkpt><trkpt lat="45.66271710692457" lon="9.653971873552702"><ele>216.0</ele><time>2026-04-12T12:48:18.999Z</time></trkpt><trkpt lat="45.66253704323542" lon="9.653644702023515"><ele>216.0</ele><time>2026-04-12T12:48:19.999Z</time></trkpt><trkpt lat="45.66235686093858" lon="9.653321506668822"><ele>215.5</ele><time>2026-04-12T12:48:20.999Z</time></trkpt><trkpt lat="45.66217772592393" lon="9.652999794281332"><ele>215.0</ele><time>2026-04-12T12:48:21.999Z</time></trkpt><trkpt lat="45.66200126356656" lon="9.652675050876464"><ele>215.5</ele><time>2026-04-12T12:48:22.999Z</time></trkpt><trkpt lat="45.661823445507615" lon="9.652352171906402"><ele>216.0</ele><time>2026-04-12T12:48:23.999Z</time></trkpt><trkpt lat="45.661647311489354" lon="9.652031745532314"><ele>215.5</ele><time>2026-04-12T12:48:24.999Z</time></trkpt><trkpt lat="45.661470711058975" lon="9.65171248903591"><ele>215.0</ele><time>2026-04-12T12:48:25.999Z</time></trkpt><trkpt lat="45.66129376982254" lon="9.651394547122278"><ele>214.5</ele><time>2026-04-12T12:48:26.999Z</time></trkpt><trkpt lat="45.661117029936" lon="9.651074542339432"><ele>214.0</ele><time>2026-04-12T12:48:27.999Z</time></trkpt><trkpt lat="45.66094229759955" lon="9.650753872373869"><ele>214.5</ele><time>2026-04-12T12:48:28.999Z</time></trkpt><trkpt lat="45.66076692949452" lon="9.65043185366442"><ele>215.0</ele><time>2026-04-12T12:48:29.999Z</time></trkpt><trkpt lat="45.66059050500367" lon="9.65010817587574"><ele>215.0</ele><time>2026-04-12T12:48:30.999Z</time></trkpt><trkpt lat="45.66041416759262" lon="9.649786806811418"><ele>215.0</ele><time>2026-04-12T12:48:31.999Z</time></trkpt><trkpt lat="45.66023612157829" lon="9.64946686380198"><ele>211.5</ele><time>2026-04-12T12:48:32.999Z</time></trkpt><trkpt lat="45.66005662842452" lon="9.649147593440357"><ele>208.0</ele><time>2026-04-12T12:48:33.999Z</time></trkpt><trkpt lat="45.65987601315002" lon="9.64882746500739"><ele>207.5</ele><time>2026-04-12T12:48:34.999Z</time></trkpt><trkpt lat="45.65969607220513" lon="9.648505525345438"><ele>207.0</ele><time>2026-04-12T12:48:35.999Z</time></trkpt><trkpt lat="45.65951803277763" lon="9.648180575908908"><ele>207.5</ele><time>2026-04-12T12:48:36.999Z</time></trkpt><trkpt lat="45.65934217791831" lon="9.647855887129616"><ele>208.0</ele><time>2026-04-12T12:48:37.999Z</time></trkpt><trkpt lat="45.65916445635309" lon="9.647530334520184"><ele>208.0</ele><time>2026-04-12T12:48:38.999Z</time></trkpt><trkpt lat="45.65898470122777" lon="9.647204967494636"><ele>208.0</ele><time>2026-04-12T12:48:39.999Z</time></trkpt><trkpt lat="45.65880224784226" lon="9.64687846672836"><ele>207.5</ele><time>2026-04-12T12:48:40.999Z</time></trkpt><trkpt lat="45.658618961104814" lon="9.646549030086646"><ele>207.0</ele><time>2026-04-12T12:48:41.999Z</time></trkpt><trkpt lat="45.65843557016002" lon="9.646217355361443"><ele>207.5</ele><time>2026-04-12T12:48:42.999Z</time></trkpt><trkpt lat="45.65825220388843" lon="9.645884406575771"><ele>208.0</ele><time>2026-04-12T12:48:43.999Z</time></trkpt><trkpt lat="45.658068713563665" lon="9.645551644386096"><ele>208.5</ele><time>2026-04-12T12:48:44.999Z</time></trkpt><trkpt lat="45.657885296057934" lon="9.6452200278837"><ele>209.0</ele><time>2026-04-12T12:48:45.999Z</time></trkpt><trkpt lat="45.657701477237616" lon="9.644884796381305"><ele>209.0</ele><time>2026-04-12T12:48:46.999Z</time></trkpt><trkpt lat="45.65751838403067" lon="9.644558268797258"><ele>209.0</ele><time>2026-04-12T12:48:47.999Z</time></trkpt><trkpt lat="45.657336109815176" lon="9.644231969545901"><ele>208.5</ele><time>2026-04-12T12:48:48.999Z</time></trkpt><trkpt lat="45.65715419980643" lon="9.643907768316817"><ele>208.0</ele><time>2026-04-12T12:48:49.999Z</time></trkpt><trkpt lat="45.656976743368034" lon="9.643584838022013"><ele>208.5</ele><time>2026-04-12T12:48:50.999Z</time></trkpt><trkpt lat="45.65679818667708" lon="9.643263415539058"><ele>209.0</ele><time>2026-04-12T12:48:51.999Z</time></trkpt><trkpt lat="45.6566122933081" lon="9.642939115173448"><ele>208.5</ele><time>2026-04-12T12:48:52.999Z</time></trkpt><trkpt lat="45.65642788413063" lon="9.642615367226933"><ele>208.0</ele><time>2026-04-12T12:48:53.999Z</time></trkpt><trkpt lat="45.656242212758926" lon="9.642294445788133"><ele>208.0</ele><time>2026-04-12T12:48:54.999Z</time></trkpt><trkpt lat="45.65605634173095" lon="9.641973569888233"><ele>208.0</ele><time>2026-04-12T12:48:55.999Z</time></trkpt><trkpt lat="45.655870249507856" lon="9.641652232758299"><ele>208.0</ele><time>2026-04-12T12:48:56.999Z</time></trkpt><trkpt lat="45.65568557567531" lon="9.64132575076078"><ele>208.0</ele><time>2026-04-12T12:48:57.999Z</time></trkpt><trkpt lat="45.655501556540926" lon="9.641005453809397"><ele>208.0</ele><time>2026-04-12T12:48:58.999Z</time></trkpt><trkpt lat="45.65531870198643" lon="9.640677951689721"><ele>208.0</ele><time>2026-04-12T12:48:59.999Z</time></trkpt><trkpt lat="45.65513434277623" lon="9.640348575175208"><ele>206.5</ele><time>2026-04-12T12:49:00.999Z</time></trkpt><trkpt lat="45.654952754576534" lon="9.640017634528498"><ele>205.0</ele><time>2026-04-12T12:49:01.999Z</time></trkpt><trkpt lat="45.654769263146335" lon="9.639686428940905"><ele>205.0</ele><time>2026-04-12T12:49:02.999Z</time></trkpt><trkpt lat="45.654585721349676" lon="9.639356137593486"><ele>205.0</ele><time>2026-04-12T12:49:03.999Z</time></trkpt><trkpt lat="45.65439904026665" lon="9.639023441571373"><ele>205.0</ele><time>2026-04-12T12:49:04.999Z</time></trkpt><trkpt lat="45.654213648413474" lon="9.63869116339069"><ele>205.0</ele><time>2026-04-12T12:49:05.999Z</time></trkpt><trkpt lat="45.65402918253235" lon="9.638358213704914"><ele>205.0</ele><time>2026-04-12T12:49:06.999Z</time></trkpt><trkpt lat="45.65384391857627" lon="9.638027340764319"><ele>205.0</ele><time>2026-04-12T12:49:07.999Z</time></trkpt><trkpt lat="45.653660211329964" lon="9.637698662876865"><ele>203.5</ele><time>2026-04-12T12:49:08.999Z</time></trkpt><trkpt lat="45.65347646775519" lon="9.637365654201403"><ele>202.0</ele><time>2026-04-12T12:49:09.999Z</time></trkpt><trkpt lat="45.65329460408544" lon="9.637032833424827"><ele>202.5</ele><time>2026-04-12T12:49:10.999Z</time></trkpt><trkpt lat="45.65311027738428" lon="9.636695325989137"><ele>203.0</ele><time>2026-04-12T12:49:11.999Z</time></trkpt><trkpt lat="45.652926463209006" lon="9.636359608154978"><ele>203.0</ele><time>2026-04-12T12:49:12.999Z</time></trkpt><trkpt lat="45.652742080210885" lon="9.636023070861707"><ele>203.0</ele><time>2026-04-12T12:49:13.999Z</time></trkpt><trkpt lat="45.65255648071182" lon="9.635689538965908"><ele>203.0</ele><time>2026-04-12T12:49:14.999Z</time></trkpt><trkpt lat="45.65237009390407" lon="9.63535546244634"><ele>203.0</ele><time>2026-04-12T12:49:15.999Z</time></trkpt><trkpt lat="45.65218374889465" lon="9.635023423158694"><ele>203.5</ele><time>2026-04-12T12:49:16.999Z</time></trkpt><trkpt lat="45.651996831251864" lon="9.634693587470805"><ele>204.0</ele><time>2026-04-12T12:49:17.999Z</time></trkpt><trkpt lat="45.6518098706419" lon="9.634364967441805"><ele>203.0</ele><time>2026-04-12T12:49:18.999Z</time></trkpt><trkpt lat="45.65162574143068" lon="9.63403300674567"><ele>202.0</ele><time>2026-04-12T12:49:19.999Z</time></trkpt><trkpt lat="45.651441466569985" lon="9.633700807327077"><ele>202.5</ele><time>2026-04-12T12:49:20.999Z</time></trkpt><trkpt lat="45.65125576766576" lon="9.633362139748279"><ele>203.0</ele><time>2026-04-12T12:49:21.999Z</time></trkpt><trkpt lat="45.65106715661117" lon="9.633019703263148"><ele>201.5</ele><time>2026-04-12T12:49:22.999Z</time></trkpt><trkpt lat="45.65087565629267" lon="9.632668781951917"><ele>200.0</ele><time>2026-04-12T12:49:23.999Z</time></trkpt><trkpt lat="45.6506809050146" lon="9.63231412227495"><ele>200.0</ele><time>2026-04-12T12:49:24.999Z</time></trkpt><trkpt lat="45.65048391804837" lon="9.631958124627337"><ele>200.0</ele><time>2026-04-12T12:49:25.999Z</time></trkpt><trkpt lat="45.650286069435325" lon="9.631606176527622"><ele>200.0</ele><time>2026-04-12T12:49:26.999Z</time></trkpt><trkpt lat="45.6500864702321" lon="9.631254906762969"><ele>200.0</ele><time>2026-04-12T12:49:27.999Z</time></trkpt><trkpt lat="45.649895325360056" lon="9.630908734977588"><ele>200.0</ele><time>2026-04-12T12:49:28.999Z</time></trkpt><trkpt lat="45.649705108124564" lon="9.630565925032597"><ele>200.0</ele><time>2026-04-12T12:49:29.999Z</time></trkpt><trkpt lat="45.64951429377226" lon="9.630223247789388"><ele>200.0</ele><time>2026-04-12T12:49:30.999Z</time></trkpt><trkpt lat="45.64932669182478" lon="9.629885118614244"><ele>200.0</ele><time>2026-04-12T12:49:31.999Z</time></trkpt><trkpt lat="45.649138273833756" lon="9.629541505691774"><ele>200.5</ele><time>2026-04-12T12:49:32.999Z</time></trkpt><trkpt lat="45.648953436016875" lon="9.629196807954987"><ele>201.0</ele><time>2026-04-12T12:49:33.999Z</time></trkpt><trkpt lat="45.6487697407888" lon="9.628852715258613"><ele>200.5</ele><time>2026-04-12T12:49:34.999Z</time></trkpt><trkpt lat="45.6485890807052" lon="9.628508936019566"><ele>200.0</ele><time>2026-04-12T12:49:35.999Z</time></trkpt><trkpt lat="45.648406820917664" lon="9.62816673625051"><ele>200.0</ele><time>2026-04-12T12:49:36.999Z</time></trkpt><trkpt lat="45.648223194643975" lon="9.627829798624205"><ele>200.0</ele><time>2026-04-12T12:49:37.999Z</time></trkpt><trkpt lat="45.64803976034172" lon="9.627493985887147"><ele>200.0</ele><time>2026-04-12T12:49:38.999Z</time></trkpt><trkpt lat="45.647858773837704" lon="9.62716443594227"><ele>200.0</ele><time>2026-04-12T12:49:39.999Z</time></trkpt><trkpt lat="45.64767839320815" lon="9.626838397261297"><ele>199.0</ele><time>2026-04-12T12:49:40.999Z</time></trkpt><trkpt lat="45.64750007822556" lon="9.626516295779442"><ele>198.0</ele><time>2026-04-12T12:49:41.999Z</time></trkpt><trkpt lat="45.64732266986372" lon="9.626192962964401"><ele>198.0</ele><time>2026-04-12T12:49:42.999Z</time></trkpt><trkpt lat="45.64714696103605" lon="9.625874074410023"><ele>198.0</ele><time>2026-04-12T12:49:43.999Z</time></trkpt><trkpt lat="45.64696510933863" lon="9.625546750760723"><ele>198.0</ele><time>2026-04-12T12:49:44.999Z</time></trkpt><trkpt lat="45.64678316607033" lon="9.625220861806781"><ele>198.0</ele><time>2026-04-12T12:49:45.999Z</time></trkpt><trkpt lat="45.646601534760144" lon="9.62489701658537"><ele>198.0</ele><time>2026-04-12T12:49:46.999Z</time></trkpt><trkpt lat="45.6464201627001" lon="9.624569645528668"><ele>198.0</ele><time>2026-04-12T12:49:47.999Z</time></trkpt><trkpt lat="45.646238926966475" lon="9.624244407038098"><ele>198.0</ele><time>2026-04-12T12:49:48.999Z</time></trkpt><trkpt lat="45.64605689128832" lon="9.623919883048972"><ele>198.0</ele><time>2026-04-12T12:49:49.999Z</time></trkpt><trkpt lat="45.645873474547294" lon="9.623591741068868"><ele>199.0</ele><time>2026-04-12T12:49:50.999Z</time></trkpt><trkpt lat="45.64569085613007" lon="9.623263125248124"><ele>200.0</ele><time>2026-04-12T12:49:51.999Z</time></trkpt><trkpt lat="45.645508865918025" lon="9.622930747964618"><ele>200.0</ele><time>2026-04-12T12:49:52.999Z</time></trkpt><trkpt lat="45.645325626364034" lon="9.62259865695233"><ele>200.0</ele><time>2026-04-12T12:49:53.999Z</time></trkpt><trkpt lat="45.645139888609535" lon="9.622264660298857"><ele>199.0</ele><time>2026-04-12T12:49:54.999Z</time></trkpt><trkpt lat="45.64495453567172" lon="9.62193412181155"><ele>198.0</ele><time>2026-04-12T12:49:55.999Z</time></trkpt><trkpt lat="45.64476842159563" lon="9.621602436644846"><ele>198.0</ele><time>2026-04-12T12:49:56.999Z</time></trkpt><trkpt lat="45.64458343977794" lon="9.621270770047833"><ele>198.0</ele><time>2026-04-12T12:49:57.999Z</time></trkpt><trkpt lat="45.64439881688154" lon="9.620940147429039"><ele>197.5</ele><time>2026-04-12T12:49:58.999Z</time></trkpt><trkpt lat="45.644214999053595" lon="9.62060825596474"><ele>197.0</ele><time>2026-04-12T12:49:59.999Z</time></trkpt><trkpt lat="45.644026459546176" lon="9.620270973940185"><ele>198.0</ele><time>2026-04-12T12:50:00.999Z</time></trkpt><trkpt lat="45.64383863731771" lon="9.619938171256445"><ele>199.0</ele><time>2026-04-12T12:50:01.999Z</time></trkpt><trkpt lat="45.64365400563444" lon="9.619603949339478"><ele>198.0</ele><time>2026-04-12T12:50:02.999Z</time></trkpt><trkpt lat="45.64347227132394" lon="9.619268309391138"><ele>197.0</ele><time>2026-04-12T12:50:03.999Z</time></trkpt><trkpt lat="45.64329054295164" lon="9.618934521539083"><ele>197.5</ele><time>2026-04-12T12:50:04.999Z</time></trkpt><trkpt lat="45.643105947859226" lon="9.618605056787468"><ele>198.0</ele><time>2026-04-12T12:50:05.999Z</time></trkpt><trkpt lat="45.64292089499905" lon="9.6182749577569"><ele>197.5</ele><time>2026-04-12T12:50:06.999Z</time></trkpt><trkpt lat="45.64273313516837" lon="9.61794110206879"><ele>197.0</ele><time>2026-04-12T12:50:07.999Z</time></trkpt><trkpt lat="45.64254739106385" lon="9.617611158666787"><ele>198.0</ele><time>2026-04-12T12:50:08.999Z</time></trkpt><trkpt lat="45.642360970018544" lon="9.61727766584212"><ele>199.0</ele><time>2026-04-12T12:50:09.999Z</time></trkpt><trkpt lat="45.642174847402906" lon="9.616948313350415"><ele>199.0</ele><time>2026-04-12T12:50:10.999Z</time></trkpt><trkpt lat="45.64199058528436" lon="9.616617583067196"><ele>199.0</ele><time>2026-04-12T12:50:11.999Z</time></trkpt><trkpt lat="45.64180885240776" lon="9.616287398358274"><ele>199.5</ele><time>2026-04-12T12:50:12.999Z</time></trkpt><trkpt lat="45.641628323810075" lon="9.615958656919295"><ele>200.0</ele><time>2026-04-12T12:50:13.999Z</time></trkpt><trkpt lat="45.64144562799447" lon="9.615630260646958"><ele>199.0</ele><time>2026-04-12T12:50:14.999Z</time></trkpt><trkpt lat="45.641263004775865" lon="9.615303500809112"><ele>198.0</ele><time>2026-04-12T12:50:15.999Z</time></trkpt><trkpt lat="45.64108113623887" lon="9.614976665598702"><ele>197.5</ele><time>2026-04-12T12:50:16.999Z</time></trkpt><trkpt lat="45.64089992400093" lon="9.614649490430889"><ele>197.0</ele><time>2026-04-12T12:50:17.999Z</time></trkpt><trkpt lat="45.64071897893638" lon="9.614324475998771"><ele>197.0</ele><time>2026-04-12T12:50:18.999Z</time></trkpt><trkpt lat="45.64053801368573" lon="9.613997949087587"><ele>197.0</ele><time>2026-04-12T12:50:19.999Z</time></trkpt><trkpt lat="45.64035616287965" lon="9.61366779961992"><ele>197.5</ele><time>2026-04-12T12:50:20.999Z</time></trkpt><trkpt lat="45.64017421337048" lon="9.613339093238162"><ele>198.0</ele><time>2026-04-12T12:50:21.999Z</time></trkpt><trkpt lat="45.639989717461035" lon="9.613012418677057"><ele>197.0</ele><time>2026-04-12T12:50:23Z</time></trkpt><trkpt lat="45.63980644248985" lon="9.61268626209446"><ele>196.0</ele><time>2026-04-12T12:50:24Z</time></trkpt><trkpt lat="45.639625482114624" lon="9.612357625145986"><ele>197.0</ele><time>2026-04-12T12:50:25Z</time></trkpt><trkpt lat="45.63944577778123" lon="9.61202914666619"><ele>198.0</ele><time>2026-04-12T12:50:26Z</time></trkpt><trkpt lat="45.63926548605202" lon="9.611698700860202"><ele>198.0</ele><time>2026-04-12T12:50:27Z</time></trkpt><trkpt lat="45.639082715304156" lon="9.611367233476352"><ele>198.0</ele><time>2026-04-12T12:50:28Z</time></trkpt><trkpt lat="45.63890006699858" lon="9.61104086523942"><ele>198.0</ele><time>2026-04-12T12:50:29Z</time></trkpt><trkpt lat="45.63871911822369" lon="9.610714029852947"><ele>198.0</ele><time>2026-04-12T12:50:30Z</time></trkpt><trkpt lat="45.63853614011834" lon="9.610390384611424"><ele>198.0</ele><time>2026-04-12T12:50:31Z</time></trkpt><trkpt lat="45.63835145717506" lon="9.61005430101754"><ele>198.0</ele><time>2026-04-12T12:50:32Z</time></trkpt><trkpt lat="45.63816456516877" lon="9.609718962530229"><ele>197.5</ele><time>2026-04-12T12:50:33Z</time></trkpt><trkpt lat="45.63797766872358" lon="9.609381015755718"><ele>197.0</ele><time>2026-04-12T12:50:34Z</time></trkpt><trkpt lat="45.637792026505" lon="9.609037969982147"><ele>196.0</ele><time>2026-04-12T12:50:35Z</time></trkpt><trkpt lat="45.637605318497535" lon="9.608697711743929"><ele>195.0</ele><time>2026-04-12T12:50:36Z</time></trkpt><trkpt lat="45.637418968662374" lon="9.608354819369014"><ele>195.0</ele><time>2026-04-12T12:50:37Z</time></trkpt><trkpt lat="45.63723078220484" lon="9.608016815653682"><ele>195.0</ele><time>2026-04-12T12:50:38Z</time></trkpt><trkpt lat="45.63704035009262" lon="9.607678002934371"><ele>197.0</ele><time>2026-04-12T12:50:39Z</time></trkpt><trkpt lat="45.63684684373957" lon="9.60733883434412"><ele>199.0</ele><time>2026-04-12T12:50:40Z</time></trkpt><trkpt lat="45.63665419443729" lon="9.606994015974378"><ele>201.0</ele><time>2026-04-12T12:50:41Z</time></trkpt><trkpt lat="45.636462523688124" lon="9.606648183395386"><ele>203.0</ele><time>2026-04-12T12:50:42Z</time></trkpt><trkpt lat="45.636270187858884" lon="9.606299820708045"><ele>198.5</ele><time>2026-04-12T12:50:43Z</time></trkpt><trkpt lat="45.63607696785789" lon="9.605947138157493"><ele>194.0</ele><time>2026-04-12T12:50:44Z</time></trkpt><trkpt lat="45.63588299655486" lon="9.605597277759028"><ele>195.5</ele><time>2026-04-12T12:50:45Z</time></trkpt><trkpt lat="45.63568681699612" lon="9.605248627190662"><ele>197.0</ele><time>2026-04-12T12:50:46Z</time></trkpt><trkpt lat="45.6354901733799" lon="9.60489659942034"><ele>197.5</ele><time>2026-04-12T12:50:47Z</time></trkpt><trkpt lat="45.635292876658724" lon="9.604538531603579"><ele>198.0</ele><time>2026-04-12T12:50:48Z</time></trkpt><trkpt lat="45.63509870362938" lon="9.604182315640285"><ele>198.0</ele><time>2026-04-12T12:50:49Z</time></trkpt><trkpt lat="45.634901173091166" lon="9.603826052729206"><ele>198.0</ele><time>2026-04-12T12:50:50Z</time></trkpt><trkpt lat="45.63470196010518" lon="9.603474690093552"><ele>199.0</ele><time>2026-04-12T12:50:51Z</time></trkpt><trkpt lat="45.634501884593824" lon="9.603117324013178"><ele>200.0</ele><time>2026-04-12T12:50:52Z</time></trkpt><trkpt lat="45.63430367607564" lon="9.602760562028912"><ele>196.0</ele><time>2026-04-12T12:50:53Z</time></trkpt><trkpt lat="45.634107302117464" lon="9.602407167046326"><ele>192.0</ele><time>2026-04-12T12:50:54Z</time></trkpt><trkpt lat="45.633913663663954" lon="9.602055205499193"><ele>192.0</ele><time>2026-04-12T12:50:55Z</time></trkpt><trkpt lat="45.63371973822327" lon="9.601703954419953"><ele>192.0</ele><time>2026-04-12T12:50:56Z</time></trkpt><trkpt lat="45.63352500790114" lon="9.601354599555687"><ele>190.0</ele><time>2026-04-12T12:50:57Z</time></trkpt><trkpt lat="45.63333154534697" lon="9.601010554669747"><ele>188.0</ele><time>2026-04-12T12:50:58Z</time></trkpt><trkpt lat="45.633138410403006" lon="9.600662635526843"><ele>188.5</ele><time>2026-04-12T12:50:59Z</time></trkpt><trkpt lat="45.63294607084871" lon="9.600318360083696"><ele>189.0</ele><time>2026-04-12T12:51:00Z</time></trkpt><trkpt lat="45.632753091834175" lon="9.599972050722243"><ele>189.0</ele><time>2026-04-12T12:51:01Z</time></trkpt><trkpt lat="45.63256248905246" lon="9.59962444354438"><ele>189.0</ele><time>2026-04-12T12:51:02Z</time></trkpt><trkpt lat="45.63237376147858" lon="9.599275901298515"><ele>189.0</ele><time>2026-04-12T12:51:03Z</time></trkpt><trkpt lat="45.63218450979634" lon="9.59893089716654"><ele>189.0</ele><time>2026-04-12T12:51:04Z</time></trkpt><trkpt lat="45.63199623684425" lon="9.598588475123032"><ele>189.5</ele><time>2026-04-12T12:51:05Z</time></trkpt><trkpt lat="45.63180316347784" lon="9.598245315082165"><ele>190.0</ele><time>2026-04-12T12:51:06Z</time></trkpt><trkpt lat="45.63160955546414" lon="9.597907282928743"><ele>189.0</ele><time>2026-04-12T12:51:07Z</time></trkpt><trkpt lat="45.63141819942042" lon="9.59756837826337"><ele>188.0</ele><time>2026-04-12T12:51:08Z</time></trkpt><trkpt lat="45.63122743525928" lon="9.597229746924052"><ele>189.5</ele><time>2026-04-12T12:51:09Z</time></trkpt><trkpt lat="45.63103360819516" lon="9.59689564900775"><ele>191.0</ele><time>2026-04-12T12:51:10Z</time></trkpt><trkpt lat="45.630838066638916" lon="9.596562551403576"><ele>191.0</ele><time>2026-04-12T12:51:11Z</time></trkpt><trkpt lat="45.63064446229184" lon="9.59622387732601"><ele>191.0</ele><time>2026-04-12T12:51:12Z</time></trkpt><trkpt lat="45.630448513351375" lon="9.595887490430897"><ele>191.0</ele><time>2026-04-12T12:51:13Z</time></trkpt><trkpt lat="45.630255372471936" lon="9.595555274434123"><ele>191.0</ele><time>2026-04-12T12:51:14Z</time></trkpt><trkpt lat="45.63006214561769" lon="9.595219635977607"><ele>191.5</ele><time>2026-04-12T12:51:15Z</time></trkpt><trkpt lat="45.62986776944212" lon="9.594880474167855"><ele>192.0</ele><time>2026-04-12T12:51:16Z</time></trkpt><trkpt lat="45.629676370717306" lon="9.59453988627123"><ele>192.0</ele><time>2026-04-12T12:51:17Z</time></trkpt><trkpt lat="45.62948574568658" lon="9.594194517969001"><ele>192.0</ele><time>2026-04-12T12:51:18Z</time></trkpt><trkpt lat="45.62929583294793" lon="9.593848519619293"><ele>191.5</ele><time>2026-04-12T12:51:19Z</time></trkpt><trkpt lat="45.6291031346063" lon="9.593501206763872"><ele>191.0</ele><time>2026-04-12T12:51:20Z</time></trkpt><trkpt lat="45.62891021836501" lon="9.593151023071904"><ele>191.0</ele><time>2026-04-12T12:51:21Z</time></trkpt><trkpt lat="45.628717412798544" lon="9.592801363587766"><ele>191.0</ele><time>2026-04-12T12:51:22Z</time></trkpt><trkpt lat="45.62852459411389" lon="9.592453550969717"><ele>190.0</ele><time>2026-04-12T12:51:23Z</time></trkpt><trkpt lat="45.62833070126497" lon="9.592106257240939"><ele>189.0</ele><time>2026-04-12T12:51:24Z</time></trkpt><trkpt lat="45.62813851509289" lon="9.591759354084578"><ele>188.5</ele><time>2026-04-12T12:51:25Z</time></trkpt><trkpt lat="45.627943368443105" lon="9.591411980516636"><ele>188.0</ele><time>2026-04-12T12:51:26Z</time></trkpt><trkpt lat="45.627750359317346" lon="9.59106266801891"><ele>188.0</ele><time>2026-04-12T12:51:27Z</time></trkpt><trkpt lat="45.62755519758861" lon="9.590713354110333"><ele>188.0</ele><time>2026-04-12T12:51:28Z</time></trkpt><trkpt lat="45.627363242836886" lon="9.59037100053106"><ele>188.5</ele><time>2026-04-12T12:51:29Z</time></trkpt><trkpt lat="45.62716886214957" lon="9.590019830541621"><ele>189.0</ele><time>2026-04-12T12:51:30Z</time></trkpt><trkpt lat="45.62697584828467" lon="9.589668558533429"><ele>187.5</ele><time>2026-04-12T12:51:31Z</time></trkpt><trkpt lat="45.62678497147647" lon="9.589319604362474"><ele>186.0</ele><time>2026-04-12T12:51:32Z</time></trkpt><trkpt lat="45.626594506368924" lon="9.588970838246627"><ele>186.5</ele><time>2026-04-12T12:51:33Z</time></trkpt><trkpt lat="45.626406155080694" lon="9.588623566459681"><ele>187.0</ele><time>2026-04-12T12:51:34Z</time></trkpt><trkpt lat="45.62621895172685" lon="9.588280781806056"><ele>187.0</ele><time>2026-04-12T12:51:35Z</time></trkpt><trkpt lat="45.6260299252308" lon="9.587936650916646"><ele>187.0</ele><time>2026-04-12T12:51:36Z</time></trkpt><trkpt lat="45.62584293949596" lon="9.58759521473989"><ele>187.0</ele><time>2026-04-12T12:51:37Z</time></trkpt><trkpt lat="45.62565646148938" lon="9.587251390490852"><ele>187.0</ele><time>2026-04-12T12:51:38Z</time></trkpt><trkpt lat="45.6254697662643" lon="9.586905606964155"><ele>186.5</ele><time>2026-04-12T12:51:39Z</time></trkpt><trkpt lat="45.625287658261286" lon="9.586554864183253"><ele>186.0</ele><time>2026-04-12T12:51:40Z</time></trkpt><trkpt lat="45.62510547562085" lon="9.586207473927196"><ele>187.0</ele><time>2026-04-12T12:51:41Z</time></trkpt><trkpt lat="45.62492388403111" lon="9.58586093745648"><ele>188.0</ele><time>2026-04-12T12:51:42Z</time></trkpt><trkpt lat="45.62474346044359" lon="9.585516946425285"><ele>187.5</ele><time>2026-04-12T12:51:43Z</time></trkpt><trkpt lat="45.62456458215408" lon="9.585171019417619"><ele>187.0</ele><time>2026-04-12T12:51:44Z</time></trkpt><trkpt lat="45.624390498353" lon="9.584825105245606"><ele>187.5</ele><time>2026-04-12T12:51:45Z</time></trkpt><trkpt lat="45.62421981597173" lon="9.58447703483745"><ele>188.0</ele><time>2026-04-12T12:51:46Z</time></trkpt><trkpt lat="45.624050617639696" lon="9.58412210866147"><ele>188.0</ele><time>2026-04-12T12:51:47Z</time></trkpt><trkpt lat="45.62388498467426" lon="9.583769643532353"><ele>188.0</ele><time>2026-04-12T12:51:48Z</time></trkpt><trkpt lat="45.62372484657112" lon="9.583412180927494"><ele>186.5</ele><time>2026-04-12T12:51:49Z</time></trkpt><trkpt lat="45.623569507363314" lon="9.583049217871157"><ele>185.0</ele><time>2026-04-12T12:51:50Z</time></trkpt><trkpt lat="45.623416142126146" lon="9.582678008086488"><ele>184.5</ele><time>2026-04-12T12:51:51Z</time></trkpt><trkpt lat="45.62326446752127" lon="9.582309175560777"><ele>184.0</ele><time>2026-04-12T12:51:51.999Z</time></trkpt><trkpt lat="45.623118054795434" lon="9.58193706163034"><ele>184.0</ele><time>2026-04-12T12:51:52.999Z</time></trkpt><trkpt lat="45.622975280741954" lon="9.58156687047921"><ele>184.0</ele><time>2026-04-12T12:51:53.999Z</time></trkpt><trkpt lat="45.62283703599752" lon="9.58118913938289"><ele>184.5</ele><time>2026-04-12T12:51:54.999Z</time></trkpt><trkpt lat="45.622699858139825" lon="9.580812116308149"><ele>185.0</ele><time>2026-04-12T12:51:55.999Z</time></trkpt><trkpt lat="45.62256246718828" lon="9.580447250797803"><ele>185.0</ele><time>2026-04-12T12:51:56.999Z</time></trkpt><trkpt lat="45.622423811067016" lon="9.580078721388288"><ele>185.0</ele><time>2026-04-12T12:51:57.999Z</time></trkpt><trkpt lat="45.622294441033155" lon="9.579701641366293"><ele>186.5</ele><time>2026-04-12T12:51:58.999Z</time></trkpt><trkpt lat="45.62217640310145" lon="9.579318809121915"><ele>188.0</ele><time>2026-04-12T12:51:59.999Z</time></trkpt><trkpt lat="45.62205840739942" lon="9.57893189109726"><ele>185.5</ele><time>2026-04-12T12:52:00.999Z</time></trkpt><trkpt lat="45.62193720427362" lon="9.578547377391105"><ele>183.0</ele><time>2026-04-12T12:52:01.999Z</time></trkpt><trkpt lat="45.62181003783245" lon="9.578164732613725"><ele>182.0</ele><time>2026-04-12T12:52:02.999Z</time></trkpt><trkpt lat="45.621683385034004" lon="9.577783704434225"><ele>181.0</ele><time>2026-04-12T12:52:03.999Z</time></trkpt><trkpt lat="45.621555368964195" lon="9.577398111246177"><ele>182.0</ele><time>2026-04-12T12:52:04.999Z</time></trkpt><trkpt lat="45.62142777290443" lon="9.577015314248841"><ele>183.0</ele><time>2026-04-12T12:52:05.999Z</time></trkpt><trkpt lat="45.62129631067201" lon="9.576632968449946"><ele>183.0</ele><time>2026-04-12T12:52:06.999Z</time></trkpt><trkpt lat="45.621166155252865" lon="9.576249553614192"><ele>183.0</ele><time>2026-04-12T12:52:07.999Z</time></trkpt><trkpt lat="45.62103347897526" lon="9.575862875254991"><ele>183.0</ele><time>2026-04-12T12:52:08.999Z</time></trkpt><trkpt lat="45.62090167464539" lon="9.575473970174972"><ele>183.0</ele><time>2026-04-12T12:52:09.999Z</time></trkpt><trkpt lat="45.62077138224761" lon="9.575087484607444"><ele>183.5</ele><time>2026-04-12T12:52:10.999Z</time></trkpt><trkpt lat="45.620636722861505" lon="9.574697983314893"><ele>184.0</ele><time>2026-04-12T12:52:11.999Z</time></trkpt><trkpt lat="45.62050400838158" lon="9.574311477298679"><ele>184.0</ele><time>2026-04-12T12:52:12.999Z</time></trkpt><trkpt lat="45.62036867585076" lon="9.57392668184697"><ele>184.0</ele><time>2026-04-12T12:52:13.999Z</time></trkpt><trkpt lat="45.62022975246513" lon="9.573546802671217"><ele>183.5</ele><time>2026-04-12T12:52:14.999Z</time></trkpt><trkpt lat="45.6200852887574" lon="9.573166184003954"><ele>183.0</ele><time>2026-04-12T12:52:15.999Z</time></trkpt><trkpt lat="45.61994664031456" lon="9.572786760065624"><ele>182.5</ele><time>2026-04-12T12:52:16.999Z</time></trkpt><trkpt lat="45.61981564563467" lon="9.572407977106456"><ele>182.0</ele><time>2026-04-12T12:52:17.999Z</time></trkpt><trkpt lat="45.61968247413607" lon="9.572028374358464"><ele>181.0</ele><time>2026-04-12T12:52:18.999Z</time></trkpt><trkpt lat="45.61954629815386" lon="9.571642793596862"><ele>180.0</ele><time>2026-04-12T12:52:19.999Z</time></trkpt><trkpt lat="45.61941050828721" lon="9.571257139019679"><ele>180.0</ele><time>2026-04-12T12:52:20.999Z</time></trkpt><trkpt lat="45.619273573701264" lon="9.570870785261826"><ele>180.0</ele><time>2026-04-12T12:52:21.999Z</time></trkpt><trkpt lat="45.619132657222224" lon="9.570478508180038"><ele>180.5</ele><time>2026-04-12T12:52:22.999Z</time></trkpt><trkpt lat="45.61899680806316" lon="9.570087628035271"><ele>181.0</ele><time>2026-04-12T12:52:24Z</time></trkpt><trkpt lat="45.61886150447653" lon="9.569695146706085"><ele>180.5</ele><time>2026-04-12T12:52:25Z</time></trkpt><trkpt lat="45.61872983380722" lon="9.569300486924815"><ele>180.0</ele><time>2026-04-12T12:52:26Z</time></trkpt><trkpt lat="45.618599636095176" lon="9.568904790295086"><ele>180.0</ele><time>2026-04-12T12:52:27Z</time></trkpt><trkpt lat="45.61846687925554" lon="9.568510487454137"><ele>180.0</ele><time>2026-04-12T12:52:28Z</time></trkpt><trkpt lat="45.61833470886446" lon="9.568120104078108"><ele>179.5</ele><time>2026-04-12T12:52:29Z</time></trkpt><trkpt lat="45.61820023257123" lon="9.567728030576896"><ele>179.0</ele><time>2026-04-12T12:52:30Z</time></trkpt><trkpt lat="45.61806790021788" lon="9.567336863662245"><ele>177.5</ele><time>2026-04-12T12:52:31Z</time></trkpt><trkpt lat="45.61793696019085" lon="9.56694608748603"><ele>176.0</ele><time>2026-04-12T12:52:32Z</time></trkpt><trkpt lat="45.617804103479195" lon="9.566554304002056"><ele>177.0</ele><time>2026-04-12T12:52:33Z</time></trkpt><trkpt lat="45.617674826600464" lon="9.566166161215802"><ele>178.0</ele><time>2026-04-12T12:52:34Z</time></trkpt><trkpt lat="45.617545294210025" lon="9.565782792978647"><ele>178.0</ele><time>2026-04-12T12:52:35Z</time></trkpt><trkpt lat="45.61741521263384" lon="9.56539979470989"><ele>178.0</ele><time>2026-04-12T12:52:36Z</time></trkpt><trkpt lat="45.61728398517039" lon="9.565013972505232"><ele>178.0</ele><time>2026-04-12T12:52:37Z</time></trkpt><trkpt lat="45.61715214008727" lon="9.564629644419929"><ele>178.0</ele><time>2026-04-12T12:52:38Z</time></trkpt><trkpt lat="45.61702018921498" lon="9.564243845558961"><ele>177.0</ele><time>2026-04-12T12:52:39Z</time></trkpt><trkpt lat="45.6168896880767" lon="9.563859829904"><ele>176.0</ele><time>2026-04-12T12:52:40Z</time></trkpt><trkpt lat="45.61676365739403" lon="9.563489038127116"><ele>176.0</ele><time>2026-04-12T12:52:41Z</time></trkpt><trkpt lat="45.61664440268673" lon="9.563134257692004"><ele>176.0</ele><time>2026-04-12T12:52:42Z</time></trkpt><trkpt lat="45.61652977702915" lon="9.562786873723542"><ele>176.0</ele><time>2026-04-12T12:52:43Z</time></trkpt><trkpt lat="45.6164139059433" lon="9.56243551575334"><ele>176.0</ele><time>2026-04-12T12:52:44Z</time></trkpt><trkpt lat="45.61629751961543" lon="9.562069739020053"><ele>175.5</ele><time>2026-04-12T12:52:45Z</time></trkpt><trkpt lat="45.616179598450465" lon="9.561698983984941"><ele>175.0</ele><time>2026-04-12T12:52:46Z</time></trkpt><trkpt lat="45.61605739379838" lon="9.56132827183468"><ele>174.0</ele><time>2026-04-12T12:52:47Z</time></trkpt><trkpt lat="45.61593104635463" lon="9.560960835523774"><ele>173.0</ele><time>2026-04-12T12:52:48Z</time></trkpt><trkpt lat="45.61580165435007" lon="9.560591498437969"><ele>172.0</ele><time>2026-04-12T12:52:49Z</time></trkpt><trkpt lat="45.61567210625414" lon="9.560224197128491"><ele>171.0</ele><time>2026-04-12T12:52:50Z</time></trkpt><trkpt lat="45.61554390507556" lon="9.55984889681175"><ele>171.5</ele><time>2026-04-12T12:52:51Z</time></trkpt><trkpt lat="45.615420963128045" lon="9.559482273122427"><ele>172.0</ele><time>2026-04-12T12:52:52Z</time></trkpt><trkpt lat="45.615297296454486" lon="9.559110545587565"><ele>173.5</ele><time>2026-04-12T12:52:53Z</time></trkpt><trkpt lat="45.61517133667915" lon="9.558739812316773"><ele>175.0</ele><time>2026-04-12T12:52:54Z</time></trkpt><trkpt lat="45.61504532432479" lon="9.558366673099801"><ele>175.0</ele><time>2026-04-12T12:52:55Z</time></trkpt><trkpt lat="45.61492060079493" lon="9.557997755395547"><ele>175.0</ele><time>2026-04-12T12:52:56Z</time></trkpt><trkpt lat="45.61479958098038" lon="9.557624903038713"><ele>177.0</ele><time>2026-04-12T12:52:57Z</time></trkpt><trkpt lat="45.61467835771854" lon="9.55725087064216"><ele>179.0</ele><time>2026-04-12T12:52:58Z</time></trkpt><trkpt lat="45.61455900207254" lon="9.556879496243617"><ele>178.0</ele><time>2026-04-12T12:52:59Z</time></trkpt><trkpt lat="45.61444470336326" lon="9.556502174550596"><ele>177.0</ele><time>2026-04-12T12:53:00Z</time></trkpt><trkpt lat="45.61432802199399" lon="9.556130112995282"><ele>177.0</ele><time>2026-04-12T12:53:01Z</time></trkpt><trkpt lat="45.61421259342294" lon="9.555762719141796"><ele>177.0</ele><time>2026-04-12T12:53:02Z</time></trkpt><trkpt lat="45.614096118175105" lon="9.555391106935625"><ele>179.5</ele><time>2026-04-12T12:53:03Z</time></trkpt><trkpt lat="45.61397879775548" lon="9.555020137151043"><ele>182.0</ele><time>2026-04-12T12:53:04Z</time></trkpt><trkpt lat="45.61385663565125" lon="9.554650036155959"><ele>183.0</ele><time>2026-04-12T12:53:05Z</time></trkpt><trkpt lat="45.613729588439156" lon="9.554281648308125"><ele>184.0</ele><time>2026-04-12T12:53:06Z</time></trkpt><trkpt lat="45.61360300118956" lon="9.553913917497898"><ele>181.5</ele><time>2026-04-12T12:53:07Z</time></trkpt><trkpt lat="45.613480625180195" lon="9.553546014632216"><ele>179.0</ele><time>2026-04-12T12:53:08Z</time></trkpt><trkpt lat="45.6133561954132" lon="9.55317427229716"><ele>179.5</ele><time>2026-04-12T12:53:09Z</time></trkpt><trkpt lat="45.6132308373866" lon="9.552806199460347"><ele>180.0</ele><time>2026-04-12T12:53:10Z</time></trkpt><trkpt lat="45.61310619175892" lon="9.552436443420042"><ele>180.0</ele><time>2026-04-12T12:53:11Z</time></trkpt><trkpt lat="45.61298138181842" lon="9.552065841871205"><ele>180.0</ele><time>2026-04-12T12:53:12Z</time></trkpt><trkpt lat="45.61285762300628" lon="9.551690028594765"><ele>180.0</ele><time>2026-04-12T12:53:13Z</time></trkpt><trkpt lat="45.61273546234108" lon="9.55131300773029"><ele>180.0</ele><time>2026-04-12T12:53:14Z</time></trkpt><trkpt lat="45.612613121293094" lon="9.550939193112164"><ele>180.0</ele><time>2026-04-12T12:53:15Z</time></trkpt><trkpt lat="45.612489115953665" lon="9.55056959745015"><ele>180.0</ele><time>2026-04-12T12:53:16Z</time></trkpt><trkpt lat="45.61236117886705" lon="9.550203370667768"><ele>179.0</ele><time>2026-04-12T12:53:17Z</time></trkpt><trkpt lat="45.61223695356617" lon="9.54982994088776"><ele>178.0</ele><time>2026-04-12T12:53:18Z</time></trkpt><trkpt lat="45.61211218272614" lon="9.54945096238047"><ele>178.0</ele><time>2026-04-12T12:53:19Z</time></trkpt><trkpt lat="45.611992414931386" lon="9.54906999081348"><ele>178.0</ele><time>2026-04-12T12:53:20Z</time></trkpt><trkpt lat="45.6118710144263" lon="9.54868921494858"><ele>179.0</ele><time>2026-04-12T12:53:21Z</time></trkpt><trkpt lat="45.61174696785931" lon="9.548311999382763"><ele>180.0</ele><time>2026-04-12T12:53:22Z</time></trkpt><trkpt lat="45.61161942259852" lon="9.547934635601695"><ele>179.5</ele><time>2026-04-12T12:53:23Z</time></trkpt><trkpt lat="45.61149279960796" lon="9.547558776101992"><ele>179.0</ele><time>2026-04-12T12:53:24Z</time></trkpt><trkpt lat="45.611366151555764" lon="9.547183478106804"><ele>179.0</ele><time>2026-04-12T12:53:25Z</time></trkpt><trkpt lat="45.611236859974476" lon="9.546806289202406"><ele>179.0</ele><time>2026-04-12T12:53:26Z</time></trkpt><trkpt lat="45.61111057299091" lon="9.546439919281092"><ele>180.0</ele><time>2026-04-12T12:53:27Z</time></trkpt><trkpt lat="45.6109849537547" lon="9.546071926404544"><ele>181.0</ele><time>2026-04-12T12:53:28Z</time></trkpt><trkpt lat="45.6108590937135" lon="9.545706444879096"><ele>179.5</ele><time>2026-04-12T12:53:29Z</time></trkpt><trkpt lat="45.61073119242825" lon="9.545341296779904"><ele>178.0</ele><time>2026-04-12T12:53:30Z</time></trkpt><trkpt lat="45.61060136094816" lon="9.544975578067701"><ele>178.0</ele><time>2026-04-12T12:53:31Z</time></trkpt><trkpt lat="45.61047089035303" lon="9.544606158776487"><ele>178.0</ele><time>2026-04-12T12:53:32Z</time></trkpt><trkpt lat="45.610343061699325" lon="9.544235275866496"><ele>179.0</ele><time>2026-04-12T12:53:33Z</time></trkpt><trkpt lat="45.61021808940229" lon="9.543861882731605"><ele>180.0</ele><time>2026-04-12T12:53:34Z</time></trkpt><trkpt lat="45.61008685110136" lon="9.543492669560088"><ele>180.5</ele><time>2026-04-12T12:53:35Z</time></trkpt><trkpt lat="45.609956720268265" lon="9.543118642055544"><ele>181.0</ele><time>2026-04-12T12:53:36Z</time></trkpt><trkpt lat="45.60983326086745" lon="9.542745230489503"><ele>181.5</ele><time>2026-04-12T12:53:37Z</time></trkpt><trkpt lat="45.6097053733254" lon="9.542370769474738"><ele>182.0</ele><time>2026-04-12T12:53:38Z</time></trkpt><trkpt lat="45.609581707879805" lon="9.541993247957587"><ele>182.5</ele><time>2026-04-12T12:53:39Z</time></trkpt><trkpt lat="45.60945559240227" lon="9.541618592866554"><ele>183.0</ele><time>2026-04-12T12:53:40Z</time></trkpt><trkpt lat="45.60932937781094" lon="9.541245776163658"><ele>182.5</ele><time>2026-04-12T12:53:41Z</time></trkpt><trkpt lat="45.60920386455521" lon="9.540868585661354"><ele>182.0</ele><time>2026-04-12T12:53:42Z</time></trkpt><trkpt lat="45.60907864250294" lon="9.540489259656583"><ele>182.0</ele><time>2026-04-12T12:53:43Z</time></trkpt><trkpt lat="45.60895157494911" lon="9.540111099175885"><ele>182.0</ele><time>2026-04-12T12:53:44Z</time></trkpt><trkpt lat="45.608824016804135" lon="9.539734670854289"><ele>182.0</ele><time>2026-04-12T12:53:45Z</time></trkpt><trkpt lat="45.608696368033826" lon="9.539355456283497"><ele>182.0</ele><time>2026-04-12T12:53:46Z</time></trkpt><trkpt lat="45.608569154064305" lon="9.538977094773138"><ele>183.0</ele><time>2026-04-12T12:53:47Z</time></trkpt><trkpt lat="45.608444385987404" lon="9.538598893494111"><ele>184.0</ele><time>2026-04-12T12:53:48Z</time></trkpt><trkpt lat="45.608319688269766" lon="9.538226296427645"><ele>184.5</ele><time>2026-04-12T12:53:49Z</time></trkpt><trkpt lat="45.60819379229743" lon="9.537847660253172"><ele>185.0</ele><time>2026-04-12T12:53:50Z</time></trkpt><trkpt lat="45.60806775824075" lon="9.537462031411996"><ele>185.0</ele><time>2026-04-12T12:53:51Z</time></trkpt><trkpt lat="45.60794015112335" lon="9.537083224060297"><ele>185.0</ele><time>2026-04-12T12:53:52Z</time></trkpt><trkpt lat="45.607812340253055" lon="9.536704827483584"><ele>184.5</ele><time>2026-04-12T12:53:53Z</time></trkpt><trkpt lat="45.60768408015862" lon="9.536325566317506"><ele>184.0</ele><time>2026-04-12T12:53:54Z</time></trkpt><trkpt lat="45.6075547729706" lon="9.535947739275255"><ele>184.0</ele><time>2026-04-12T12:53:55Z</time></trkpt><trkpt lat="45.607425304093624" lon="9.535570643792576"><ele>184.0</ele><time>2026-04-12T12:53:56Z</time></trkpt><trkpt lat="45.607296164303435" lon="9.535194971328504"><ele>184.0</ele><time>2026-04-12T12:53:57Z</time></trkpt><trkpt lat="45.60716668291461" lon="9.53481991139003"><ele>184.0</ele><time>2026-04-12T12:53:57.999Z</time></trkpt><trkpt lat="45.6070377000755" lon="9.534442979165838"><ele>184.5</ele><time>2026-04-12T12:53:58.999Z</time></trkpt><trkpt lat="45.60690730116786" lon="9.534064918061441"><ele>185.0</ele><time>2026-04-12T12:53:59.999Z</time></trkpt><trkpt lat="45.60677577449958" lon="9.533689493316553"><ele>185.0</ele><time>2026-04-12T12:54:00.999Z</time></trkpt><trkpt lat="45.60664262652293" lon="9.533312182826219"><ele>185.0</ele><time>2026-04-12T12:54:01.999Z</time></trkpt><trkpt lat="45.60650837657929" lon="9.532935908878441"><ele>184.5</ele><time>2026-04-12T12:54:02.999Z</time></trkpt><trkpt lat="45.60637410637138" lon="9.532560979965556"><ele>184.0</ele><time>2026-04-12T12:54:03.999Z</time></trkpt><trkpt lat="45.60623856000526" lon="9.532185233087299"><ele>183.0</ele><time>2026-04-12T12:54:04.999Z</time></trkpt><trkpt lat="45.606104060845574" lon="9.531810104014697"><ele>182.0</ele><time>2026-04-12T12:54:05.999Z</time></trkpt><trkpt lat="45.605975575279395" lon="9.531430253832253"><ele>181.5</ele><time>2026-04-12T12:54:06.999Z</time></trkpt><trkpt lat="45.60584334537782" lon="9.531048767984391"><ele>181.0</ele><time>2026-04-12T12:54:07.999Z</time></trkpt><trkpt lat="45.60571182372213" lon="9.530664781019846"><ele>182.0</ele><time>2026-04-12T12:54:08.999Z</time></trkpt><trkpt lat="45.605580879468974" lon="9.53028079472636"><ele>183.0</ele><time>2026-04-12T12:54:09.999Z</time></trkpt><trkpt lat="45.60544954983171" lon="9.529902028112781"><ele>171.0</ele><time>2026-04-12T12:54:10.999Z</time></trkpt><trkpt lat="45.60532013484121" lon="9.529526203616292"><ele>159.0</ele><time>2026-04-12T12:54:11.999Z</time></trkpt><trkpt lat="45.605193650137274" lon="9.529149413294025"><ele>159.0</ele><time>2026-04-12T12:54:12.999Z</time></trkpt><trkpt lat="45.60507073147344" lon="9.52877485672273"><ele>159.0</ele><time>2026-04-12T12:54:13.999Z</time></trkpt><trkpt lat="45.604946136506484" lon="9.528398191266588"><ele>161.0</ele><time>2026-04-12T12:54:14.999Z</time></trkpt><trkpt lat="45.60482260387869" lon="9.528022250854738"><ele>163.0</ele><time>2026-04-12T12:54:15.999Z</time></trkpt><trkpt lat="45.604696718012356" lon="9.527645970552372"><ele>163.0</ele><time>2026-04-12T12:54:16.999Z</time></trkpt><trkpt lat="45.60457129715545" lon="9.5272783414051"><ele>163.0</ele><time>2026-04-12T12:54:17.999Z</time></trkpt><trkpt lat="45.6044470718155" lon="9.526905723640246"><ele>171.0</ele><time>2026-04-12T12:54:19Z</time></trkpt><trkpt lat="45.60432824719213" lon="9.52654204239447"><ele>179.0</ele><time>2026-04-12T12:54:20Z</time></trkpt><trkpt lat="45.604213340096834" lon="9.526181558765375"><ele>179.0</ele><time>2026-04-12T12:54:21Z</time></trkpt><trkpt lat="45.604094048409294" lon="9.525820794120085"><ele>179.0</ele><time>2026-04-12T12:54:22Z</time></trkpt><trkpt lat="45.60397621746061" lon="9.525461749126354"><ele>179.0</ele><time>2026-04-12T12:54:23Z</time></trkpt><trkpt lat="45.60385628248793" lon="9.525107715714164"><ele>179.0</ele><time>2026-04-12T12:54:24Z</time></trkpt><trkpt lat="45.603739860550284" lon="9.52474775003923"><ele>179.0</ele><time>2026-04-12T12:54:25Z</time></trkpt><trkpt lat="45.603621676717225" lon="9.52437997881099"><ele>179.0</ele><time>2026-04-12T12:54:26Z</time></trkpt><trkpt lat="45.603503885464434" lon="9.524014721005972"><ele>179.0</ele><time>2026-04-12T12:54:27Z</time></trkpt><trkpt lat="45.60338495899402" lon="9.523645202491082"><ele>179.0</ele><time>2026-04-12T12:54:28Z</time></trkpt><trkpt lat="45.60326314321522" lon="9.523277607281262"><ele>179.0</ele><time>2026-04-12T12:54:29Z</time></trkpt><trkpt lat="45.603138841874696" lon="9.52291069811207"><ele>179.0</ele><time>2026-04-12T12:54:30Z</time></trkpt><trkpt lat="45.6030166013451" lon="9.522539816926722"><ele>179.5</ele><time>2026-04-12T12:54:31Z</time></trkpt><trkpt lat="45.60289122737894" lon="9.52217119733218"><ele>180.0</ele><time>2026-04-12T12:54:32Z</time></trkpt><trkpt lat="45.60276264036061" lon="9.521800768555687"><ele>180.5</ele><time>2026-04-12T12:54:33Z</time></trkpt><trkpt lat="45.60263257371439" lon="9.521435794685113"><ele>181.0</ele><time>2026-04-12T12:54:34Z</time></trkpt><trkpt lat="45.60250427235247" lon="9.521079027397118"><ele>180.5</ele><time>2026-04-12T12:54:35Z</time></trkpt><trkpt lat="45.60237758475751" lon="9.520716192161384"><ele>180.0</ele><time>2026-04-12T12:54:36Z</time></trkpt><trkpt lat="45.60224863136861" lon="9.520343972247279"><ele>180.0</ele><time>2026-04-12T12:54:37Z</time></trkpt><trkpt lat="45.60212351163243" lon="9.51997489926273"><ele>180.0</ele><time>2026-04-12T12:54:38Z</time></trkpt><trkpt lat="45.60200113435667" lon="9.519605543750451"><ele>179.5</ele><time>2026-04-12T12:54:39Z</time></trkpt><trkpt lat="45.601878314676334" lon="9.519236097934229"><ele>179.0</ele><time>2026-04-12T12:54:40Z</time></trkpt><trkpt lat="45.60175883630914" lon="9.51886292134923"><ele>178.5</ele><time>2026-04-12T12:54:41Z</time></trkpt><trkpt lat="45.60164074807051" lon="9.518489124484939"><ele>178.0</ele><time>2026-04-12T12:54:42Z</time></trkpt><trkpt lat="45.60152123125561" lon="9.51811499378019"><ele>178.5</ele><time>2026-04-12T12:54:43Z</time></trkpt><trkpt lat="45.60140302367241" lon="9.517740975996276"><ele>179.0</ele><time>2026-04-12T12:54:44Z</time></trkpt><trkpt lat="45.60128430837502" lon="9.517367397812269"><ele>179.5</ele><time>2026-04-12T12:54:45Z</time></trkpt><trkpt lat="45.6011630428904" lon="9.516992891955208"><ele>180.0</ele><time>2026-04-12T12:54:46Z</time></trkpt><trkpt lat="45.601036798710666" lon="9.51662124224692"><ele>180.0</ele><time>2026-04-12T12:54:47Z</time></trkpt><trkpt lat="45.60090893949227" lon="9.516245754254964"><ele>180.0</ele><time>2026-04-12T12:54:48Z</time></trkpt><trkpt lat="45.60077926626336" lon="9.515865826157192"><ele>180.0</ele><time>2026-04-12T12:54:49Z</time></trkpt><trkpt lat="45.60064826002876" lon="9.515482026134254"><ele>180.0</ele><time>2026-04-12T12:54:50Z</time></trkpt><trkpt lat="45.60051992541182" lon="9.51509626530217"><ele>180.0</ele><time>2026-04-12T12:54:51Z</time></trkpt><trkpt lat="45.60039126788795" lon="9.514711855994044"><ele>180.0</ele><time>2026-04-12T12:54:52Z</time></trkpt><trkpt lat="45.600259979089394" lon="9.514328019878734"><ele>179.0</ele><time>2026-04-12T12:54:53Z</time></trkpt><trkpt lat="45.60012791756402" lon="9.513940774235149"><ele>178.0</ele><time>2026-04-12T12:54:54Z</time></trkpt><trkpt lat="45.599994821361086" lon="9.513553559328901"><ele>178.0</ele><time>2026-04-12T12:54:55Z</time></trkpt><trkpt lat="45.59986038952913" lon="9.513164822227132"><ele>178.0</ele><time>2026-04-12T12:54:56Z</time></trkpt><trkpt lat="45.59972629944691" lon="9.512775372426855"><ele>178.0</ele><time>2026-04-12T12:54:57Z</time></trkpt><trkpt lat="45.599592877815994" lon="9.51238453477084"><ele>178.0</ele><time>2026-04-12T12:54:58Z</time></trkpt><trkpt lat="45.599460973220324" lon="9.511992300000289"><ele>178.0</ele><time>2026-04-12T12:54:59Z</time></trkpt><trkpt lat="45.599329455688085" lon="9.511603252510698"><ele>178.0</ele><time>2026-04-12T12:55:00Z</time></trkpt><trkpt lat="45.59919781687041" lon="9.511215608943235"><ele>179.0</ele><time>2026-04-12T12:55:01Z</time></trkpt><trkpt lat="45.599067399969954" lon="9.510828274006071"><ele>180.0</ele><time>2026-04-12T12:55:02Z</time></trkpt><trkpt lat="45.59893639372304" lon="9.510443235526736"><ele>179.5</ele><time>2026-04-12T12:55:03Z</time></trkpt><trkpt lat="45.59880474967832" lon="9.510057820987031"><ele>179.0</ele><time>2026-04-12T12:55:04Z</time></trkpt><trkpt lat="45.59867602636192" lon="9.509674308691514"><ele>178.0</ele><time>2026-04-12T12:55:05Z</time></trkpt><trkpt lat="45.598545846445404" lon="9.509295713501812"><ele>177.0</ele><time>2026-04-12T12:55:06Z</time></trkpt><trkpt lat="45.59841698018166" lon="9.508913350970168"><ele>178.5</ele><time>2026-04-12T12:55:07Z</time></trkpt><trkpt lat="45.59829000620499" lon="9.508525693110947"><ele>180.0</ele><time>2026-04-12T12:55:08Z</time></trkpt><trkpt lat="45.59816380551118" lon="9.508135012911696"><ele>182.0</ele><time>2026-04-12T12:55:09Z</time></trkpt><trkpt lat="45.59804312511483" lon="9.507746627013205"><ele>184.0</ele><time>2026-04-12T12:55:10Z</time></trkpt><trkpt lat="45.59792179645661" lon="9.507361815838731"><ele>182.0</ele><time>2026-04-12T12:55:11Z</time></trkpt><trkpt lat="45.59779697384124" lon="9.506980942502434"><ele>180.0</ele><time>2026-04-12T12:55:12Z</time></trkpt><trkpt lat="45.5976689512746" lon="9.506602224249095"><ele>179.5</ele><time>2026-04-12T12:55:13Z</time></trkpt><trkpt lat="45.59754117043078" lon="9.506227505249536"><ele>179.0</ele><time>2026-04-12T12:55:14Z</time></trkpt><trkpt lat="45.59741592559178" lon="9.505859127467668"><ele>179.0</ele><time>2026-04-12T12:55:15Z</time></trkpt><trkpt lat="45.59729404323823" lon="9.505499597264835"><ele>179.0</ele><time>2026-04-12T12:55:16Z</time></trkpt><trkpt lat="45.59717442360513" lon="9.505144924774116"><ele>179.5</ele><time>2026-04-12T12:55:17Z</time></trkpt><trkpt lat="45.59705322595813" lon="9.504794588420184"><ele>180.0</ele><time>2026-04-12T12:55:18Z</time></trkpt><trkpt lat="45.596932915709175" lon="9.504446053333481"><ele>179.0</ele><time>2026-04-12T12:55:19Z</time></trkpt><trkpt lat="45.596810657404944" lon="9.504096951949212"><ele>178.0</ele><time>2026-04-12T12:55:20Z</time></trkpt><trkpt lat="45.59668455455565" lon="9.503747757548965"><ele>178.0</ele><time>2026-04-12T12:55:21Z</time></trkpt><trkpt lat="45.59655672889492" lon="9.503392753253271"><ele>178.0</ele><time>2026-04-12T12:55:22Z</time></trkpt><trkpt lat="45.59642847499957" lon="9.503024151699194"><ele>178.0</ele><time>2026-04-12T12:55:23Z</time></trkpt><trkpt lat="45.59630316668874" lon="9.502646154352338"><ele>178.0</ele><time>2026-04-12T12:55:24Z</time></trkpt><trkpt lat="45.59618004302404" lon="9.502258278035333"><ele>178.0</ele><time>2026-04-12T12:55:25Z</time></trkpt><trkpt lat="45.596052812816865" lon="9.501863287825648"><ele>178.0</ele><time>2026-04-12T12:55:26Z</time></trkpt><trkpt lat="45.59592213643644" lon="9.501467764248263"><ele>178.0</ele><time>2026-04-12T12:55:27Z</time></trkpt><trkpt lat="45.59578905443088" lon="9.501073018609926"><ele>178.0</ele><time>2026-04-12T12:55:28Z</time></trkpt><trkpt lat="45.59565781413071" lon="9.500679549503218"><ele>179.0</ele><time>2026-04-12T12:55:29Z</time></trkpt><trkpt lat="45.5955303318282" lon="9.50028896218813"><ele>180.0</ele><time>2026-04-12T12:55:30Z</time></trkpt><trkpt lat="45.59541030703155" lon="9.499912975562317"><ele>180.5</ele><time>2026-04-12T12:55:31Z</time></trkpt><trkpt lat="45.595293783428986" lon="9.499544113979736"><ele>181.0</ele><time>2026-04-12T12:55:32Z</time></trkpt><trkpt lat="45.59518509202491" lon="9.499170413147727"><ele>181.0</ele><time>2026-04-12T12:55:33Z</time></trkpt><trkpt lat="45.595081595848555" lon="9.498787841107232"><ele>181.0</ele><time>2026-04-12T12:55:34Z</time></trkpt><trkpt lat="45.59497770487494" lon="9.49839435157367"><ele>180.5</ele><time>2026-04-12T12:55:35Z</time></trkpt><trkpt lat="45.59487527540808" lon="9.497987167773351"><ele>180.0</ele><time>2026-04-12T12:55:36Z</time></trkpt><trkpt lat="45.59477414763099" lon="9.497566362533771"><ele>179.5</ele><time>2026-04-12T12:55:37Z</time></trkpt><trkpt lat="45.5946761552186" lon="9.497134314697457"><ele>179.0</ele><time>2026-04-12T12:55:38Z</time></trkpt><trkpt lat="45.59458341021243" lon="9.49668953055268"><ele>179.5</ele><time>2026-04-12T12:55:39Z</time></trkpt><trkpt lat="45.59449797300813" lon="9.49624031316162"><ele>180.0</ele><time>2026-04-12T12:55:40Z</time></trkpt><trkpt lat="45.59441196584317" lon="9.495784947177816"><ele>180.5</ele><time>2026-04-12T12:55:41Z</time></trkpt><trkpt lat="45.59432737322273" lon="9.49532794497668"><ele>181.0</ele><time>2026-04-12T12:55:42Z</time></trkpt><trkpt lat="45.594240170260356" lon="9.494870226837524"><ele>181.5</ele><time>2026-04-12T12:55:43Z</time></trkpt><trkpt lat="45.59415082882256" lon="9.494413190680339"><ele>182.0</ele><time>2026-04-12T12:55:44Z</time></trkpt><trkpt lat="45.59405922584508" lon="9.493956241912782"><ele>180.5</ele><time>2026-04-12T12:55:45Z</time></trkpt><trkpt lat="45.59396948291383" lon="9.493501705410681"><ele>179.0</ele><time>2026-04-12T12:55:46Z</time></trkpt><trkpt lat="45.593887775464154" lon="9.493051196126933"><ele>179.5</ele><time>2026-04-12T12:55:47Z</time></trkpt><trkpt lat="45.59380785114797" lon="9.492600467010709"><ele>180.0</ele><time>2026-04-12T12:55:48Z</time></trkpt><trkpt lat="45.59373078017783" lon="9.49215425723509"><ele>180.5</ele><time>2026-04-12T12:55:49Z</time></trkpt><trkpt lat="45.59365417953097" lon="9.491710340765467"><ele>181.0</ele><time>2026-04-12T12:55:50Z</time></trkpt><trkpt lat="45.59357214109055" lon="9.491264034838819"><ele>181.0</ele><time>2026-04-12T12:55:51Z</time></trkpt><trkpt lat="45.59349014131251" lon="9.490820909728772"><ele>181.0</ele><time>2026-04-12T12:55:52Z</time></trkpt><trkpt lat="45.593407823776964" lon="9.49038025344524"><ele>180.5</ele><time>2026-04-12T12:55:53.001Z</time></trkpt><trkpt lat="45.59332372966395" lon="9.48993957394314"><ele>180.0</ele><time>2026-04-12T12:55:54.001Z</time></trkpt><trkpt lat="45.59323836820683" lon="9.48950435039522"><ele>180.0</ele><time>2026-04-12T12:55:55.001Z</time></trkpt><trkpt lat="45.59315454779782" lon="9.489059863651205"><ele>180.0</ele><time>2026-04-12T12:55:56.001Z</time></trkpt><trkpt lat="45.59307214435221" lon="9.488612929596613"><ele>180.0</ele><time>2026-04-12T12:55:57.001Z</time></trkpt><trkpt lat="45.59298985127388" lon="9.488165539166266"><ele>180.0</ele><time>2026-04-12T12:55:58.001Z</time></trkpt><trkpt lat="45.592906303278255" lon="9.48771937153398"><ele>180.0</ele><time>2026-04-12T12:55:59.001Z</time></trkpt><trkpt lat="45.5928206314976" lon="9.487271380217765"><ele>180.0</ele><time>2026-04-12T12:56:00.001Z</time></trkpt><trkpt lat="45.59273492812461" lon="9.486820387287697"><ele>179.5</ele><time>2026-04-12T12:56:01.001Z</time></trkpt><trkpt lat="45.5926497842846" lon="9.48636988888988"><ele>179.0</ele><time>2026-04-12T12:56:02.001Z</time></trkpt><trkpt lat="45.59256343263864" lon="9.485922926021562"><ele>179.0</ele><time>2026-04-12T12:56:03.001Z</time></trkpt><trkpt lat="45.59247640098033" lon="9.485477724210144"><ele>179.0</ele><time>2026-04-12T12:56:03.999Z</time></trkpt><trkpt lat="45.59239095608081" lon="9.48503016110662"><ele>180.0</ele><time>2026-04-12T12:56:04.999Z</time></trkpt><trkpt lat="45.59230368247958" lon="9.484582257864563"><ele>181.0</ele><time>2026-04-12T12:56:05.999Z</time></trkpt><trkpt lat="45.59221514873054" lon="9.484129553693242"><ele>182.0</ele><time>2026-04-12T12:56:06.999Z</time></trkpt><trkpt lat="45.59212791971998" lon="9.483675073615391"><ele>183.0</ele><time>2026-04-12T12:56:07.999Z</time></trkpt><trkpt lat="45.592042065390814" lon="9.483216916474776"><ele>183.0</ele><time>2026-04-12T12:56:08.999Z</time></trkpt><trkpt lat="45.59195689331295" lon="9.482760330452964"><ele>183.0</ele><time>2026-04-12T12:56:09.999Z</time></trkpt><trkpt lat="45.59187204755287" lon="9.482306135368257"><ele>182.5</ele><time>2026-04-12T12:56:10.999Z</time></trkpt><trkpt lat="45.59178770830818" lon="9.481851903194192"><ele>182.0</ele><time>2026-04-12T12:56:11.999Z</time></trkpt><trkpt lat="45.591701882720656" lon="9.481401090647044"><ele>182.0</ele><time>2026-04-12T12:56:12.999Z</time></trkpt><trkpt lat="45.59161695814311" lon="9.480952332371068"><ele>182.0</ele><time>2026-04-12T12:56:13.999Z</time></trkpt><trkpt lat="45.59153302730716" lon="9.48051046596017"><ele>182.5</ele><time>2026-04-12T12:56:14.999Z</time></trkpt><trkpt lat="45.59144863817146" lon="9.480069169836566"><ele>183.0</ele><time>2026-04-12T12:56:15.999Z</time></trkpt><trkpt lat="45.59136538955548" lon="9.479627740449473"><ele>181.5</ele><time>2026-04-12T12:56:16.999Z</time></trkpt><trkpt lat="45.591281534626724" lon="9.479185138243711"><ele>180.0</ele><time>2026-04-12T12:56:17.999Z</time></trkpt><trkpt lat="45.59119341296442" lon="9.47874245551506"><ele>179.0</ele><time>2026-04-12T12:56:18.999Z</time></trkpt><trkpt lat="45.59110895259929" lon="9.47830139574404"><ele>178.0</ele><time>2026-04-12T12:56:19.999Z</time></trkpt><trkpt lat="45.591025116923184" lon="9.477861336062482"><ele>178.0</ele><time>2026-04-12T12:56:20.999Z</time></trkpt><trkpt lat="45.59094268605355" lon="9.477418997805147"><ele>178.0</ele><time>2026-04-12T12:56:21.999Z</time></trkpt><trkpt lat="45.590857588126255" lon="9.476975197617655"><ele>179.0</ele><time>2026-04-12T12:56:22.999Z</time></trkpt><trkpt lat="45.59077407075984" lon="9.476530235583708"><ele>180.0</ele><time>2026-04-12T12:56:23.999Z</time></trkpt><trkpt lat="45.59069186781088" lon="9.476086838981475"><ele>180.5</ele><time>2026-04-12T12:56:25Z</time></trkpt><trkpt lat="45.59060856419419" lon="9.475643496733266"><ele>181.0</ele><time>2026-04-12T12:56:26Z</time></trkpt><trkpt lat="45.59052476859536" lon="9.475202018148535"><ele>181.0</ele><time>2026-04-12T12:56:27Z</time></trkpt><trkpt lat="45.59044069150662" lon="9.474763132972148"><ele>181.0</ele><time>2026-04-12T12:56:28Z</time></trkpt><trkpt lat="45.59035523832241" lon="9.47432663174397"><ele>181.0</ele><time>2026-04-12T12:56:29Z</time></trkpt><trkpt lat="45.590269277583" lon="9.473889849874755"><ele>181.0</ele><time>2026-04-12T12:56:30Z</time></trkpt><trkpt lat="45.590184355061865" lon="9.473452366952428"><ele>181.0</ele><time>2026-04-12T12:56:31Z</time></trkpt><trkpt lat="45.59009986897162" lon="9.47301658260715"><ele>181.0</ele><time>2026-04-12T12:56:32Z</time></trkpt><trkpt lat="45.590018024972785" lon="9.472580021317691"><ele>180.0</ele><time>2026-04-12T12:56:33Z</time></trkpt><trkpt lat="45.589935366326685" lon="9.472137160649146"><ele>179.0</ele><time>2026-04-12T12:56:34Z</time></trkpt><trkpt lat="45.58985137754804" lon="9.471693002826928"><ele>179.0</ele><time>2026-04-12T12:56:35Z</time></trkpt><trkpt lat="45.58977027532018" lon="9.471248026559472"><ele>179.0</ele><time>2026-04-12T12:56:36Z</time></trkpt><trkpt lat="45.589693902533355" lon="9.470799754202678"><ele>179.0</ele><time>2026-04-12T12:56:37Z</time></trkpt><trkpt lat="45.58962050729566" lon="9.470349933802243"><ele>179.0</ele><time>2026-04-12T12:56:38Z</time></trkpt><trkpt lat="45.58953835275418" lon="9.469904281636197"><ele>179.5</ele><time>2026-04-12T12:56:39Z</time></trkpt><trkpt lat="45.58945269752458" lon="9.469461224891688"><ele>180.0</ele><time>2026-04-12T12:56:40Z</time></trkpt><trkpt lat="45.589367867661444" lon="9.469019235471436"><ele>181.0</ele><time>2026-04-12T12:56:41Z</time></trkpt><trkpt lat="45.589279648445824" lon="9.468572353031812"><ele>182.0</ele><time>2026-04-12T12:56:42Z</time></trkpt><trkpt lat="45.589195265964555" lon="9.46812782013912"><ele>182.5</ele><time>2026-04-12T12:56:43Z</time></trkpt><trkpt lat="45.589113911767726" lon="9.467681121646416"><ele>183.0</ele><time>2026-04-12T12:56:44Z</time></trkpt><trkpt lat="45.589028254203456" lon="9.467235029745998"><ele>182.5</ele><time>2026-04-12T12:56:45Z</time></trkpt><trkpt lat="45.588945231069125" lon="9.466787736430064"><ele>182.0</ele><time>2026-04-12T12:56:46Z</time></trkpt><trkpt lat="45.58885872204704" lon="9.466342206525226"><ele>180.5</ele><time>2026-04-12T12:56:47Z</time></trkpt><trkpt lat="45.58877141682579" lon="9.465895866805383"><ele>179.0</ele><time>2026-04-12T12:56:48Z</time></trkpt><trkpt lat="45.58868511128735" lon="9.4654483931947"><ele>178.5</ele><time>2026-04-12T12:56:49Z</time></trkpt><trkpt lat="45.58860130403899" lon="9.464999097602522"><ele>178.0</ele><time>2026-04-12T12:56:50Z</time></trkpt><trkpt lat="45.588518208929926" lon="9.464548463321062"><ele>178.0</ele><time>2026-04-12T12:56:51Z</time></trkpt><trkpt lat="45.58843364057192" lon="9.464098026769415"><ele>178.0</ele><time>2026-04-12T12:56:52Z</time></trkpt><trkpt lat="45.58834682484004" lon="9.463647960623986"><ele>178.5</ele><time>2026-04-12T12:56:53Z</time></trkpt><trkpt lat="45.588258894170586" lon="9.46319372029158"><ele>179.0</ele><time>2026-04-12T12:56:54Z</time></trkpt><trkpt lat="45.588170452812534" lon="9.462739379952678"><ele>179.5</ele><time>2026-04-12T12:56:55Z</time></trkpt><trkpt lat="45.588080610369666" lon="9.46228318622569"><ele>180.0</ele><time>2026-04-12T12:56:56Z</time></trkpt><trkpt lat="45.58799232812227" lon="9.461824433521887"><ele>180.5</ele><time>2026-04-12T12:56:57Z</time></trkpt><trkpt lat="45.5879037927592" lon="9.461364162968742"><ele>181.0</ele><time>2026-04-12T12:56:58Z</time></trkpt><trkpt lat="45.587816919211384" lon="9.460903643267738"><ele>180.0</ele><time>2026-04-12T12:56:59Z</time></trkpt><trkpt lat="45.58773020045532" lon="9.46044316755827"><ele>179.0</ele><time>2026-04-12T12:57:00Z</time></trkpt><trkpt lat="45.58764234370009" lon="9.459979373859698"><ele>177.5</ele><time>2026-04-12T12:57:01Z</time></trkpt><trkpt lat="45.58755361281326" lon="9.459519895161948"><ele>176.0</ele><time>2026-04-12T12:57:02Z</time></trkpt><trkpt lat="45.58746319377801" lon="9.45906349577974"><ele>176.0</ele><time>2026-04-12T12:57:03Z</time></trkpt><trkpt lat="45.58737321780341" lon="9.458595111896402"><ele>176.0</ele><time>2026-04-12T12:57:04Z</time></trkpt><trkpt lat="45.587282847766396" lon="9.458130386352614"><ele>176.5</ele><time>2026-04-12T12:57:05Z</time></trkpt><trkpt lat="45.58719391286769" lon="9.457670969024592"><ele>177.0</ele><time>2026-04-12T12:57:06Z</time></trkpt><trkpt lat="45.587103590492546" lon="9.457208364953168"><ele>177.0</ele><time>2026-04-12T12:57:07Z</time></trkpt><trkpt lat="45.587012831830265" lon="9.456746354518152"><ele>177.0</ele><time>2026-04-12T12:57:08Z</time></trkpt><trkpt lat="45.58692372682015" lon="9.4562823855996"><ele>177.0</ele><time>2026-04-12T12:57:09Z</time></trkpt><trkpt lat="45.5868348878625" lon="9.45581740920122"><ele>177.0</ele><time>2026-04-12T12:57:10Z</time></trkpt><trkpt lat="45.58674693363357" lon="9.455356462382362"><ele>176.5</ele><time>2026-04-12T12:57:11Z</time></trkpt><trkpt lat="45.58665733193919" lon="9.454900877481057"><ele>176.0</ele><time>2026-04-12T12:57:12Z</time></trkpt><trkpt lat="45.58657129123539" lon="9.454450571416707"><ele>175.5</ele><time>2026-04-12T12:57:13Z</time></trkpt><trkpt lat="45.586487036240484" lon="9.453999434180881"><ele>175.0</ele><time>2026-04-12T12:57:14Z</time></trkpt><trkpt lat="45.58640357523077" lon="9.453557041766532"><ele>176.0</ele><time>2026-04-12T12:57:15Z</time></trkpt><trkpt lat="45.586316405188875" lon="9.453116654311113"><ele>177.0</ele><time>2026-04-12T12:57:16Z</time></trkpt><trkpt lat="45.58622944069282" lon="9.4526841758942"><ele>175.5</ele><time>2026-04-12T12:57:17Z</time></trkpt><trkpt lat="45.58614517653272" lon="9.452252038106726"><ele>174.0</ele><time>2026-04-12T12:57:18Z</time></trkpt><trkpt lat="45.586061650366815" lon="9.451823673888908"><ele>174.0</ele><time>2026-04-12T12:57:19Z</time></trkpt><trkpt lat="45.58598009049915" lon="9.451397583751145"><ele>174.0</ele><time>2026-04-12T12:57:20Z</time></trkpt><trkpt lat="45.58590235575143" lon="9.450971904387275"><ele>174.0</ele><time>2026-04-12T12:57:21Z</time></trkpt><trkpt lat="45.58582636006988" lon="9.450545007712188"><ele>174.0</ele><time>2026-04-12T12:57:22Z</time></trkpt><trkpt lat="45.58575390484744" lon="9.450114730517733"><ele>174.0</ele><time>2026-04-12T12:57:23Z</time></trkpt><trkpt lat="45.585677862138766" lon="9.449679888549982"><ele>174.0</ele><time>2026-04-12T12:57:24Z</time></trkpt><trkpt lat="45.58559681703289" lon="9.44924174147011"><ele>174.0</ele><time>2026-04-12T12:57:25Z</time></trkpt><trkpt lat="45.585514003952426" lon="9.448796748766835"><ele>174.0</ele><time>2026-04-12T12:57:26Z</time></trkpt><trkpt lat="45.58542727990512" lon="9.448347441675486"><ele>173.5</ele><time>2026-04-12T12:57:27Z</time></trkpt><trkpt lat="45.585339358040635" lon="9.447897379632783"><ele>173.0</ele><time>2026-04-12T12:57:28Z</time></trkpt><trkpt lat="45.585246189525186" lon="9.447448691334102"><ele>173.5</ele><time>2026-04-12T12:57:29Z</time></trkpt><trkpt lat="45.58515028453694" lon="9.446997768872773"><ele>174.0</ele><time>2026-04-12T12:57:30Z</time></trkpt><trkpt lat="45.58505338155378" lon="9.446545604596855"><ele>175.0</ele><time>2026-04-12T12:57:31Z</time></trkpt><trkpt lat="45.58495971064598" lon="9.446094007553615"><ele>176.0</ele><time>2026-04-12T12:57:32Z</time></trkpt><trkpt lat="45.58487157737625" lon="9.44563741746339"><ele>177.5</ele><time>2026-04-12T12:57:33Z</time></trkpt><trkpt lat="45.58478577157555" lon="9.445180811456721"><ele>179.0</ele><time>2026-04-12T12:57:34Z</time></trkpt><trkpt lat="45.58469787963733" lon="9.444725345503874"><ele>178.5</ele><time>2026-04-12T12:57:35Z</time></trkpt><trkpt lat="45.58461003362216" lon="9.444267190890491"><ele>178.0</ele><time>2026-04-12T12:57:36Z</time></trkpt><trkpt lat="45.58452217958958" lon="9.443803606057525"><ele>175.5</ele><time>2026-04-12T12:57:37Z</time></trkpt><trkpt lat="45.584434351324475" lon="9.443345553569165"><ele>173.0</ele><time>2026-04-12T12:57:38Z</time></trkpt><trkpt lat="45.584346217878505" lon="9.442890682346011"><ele>173.0</ele><time>2026-04-12T12:57:39.001Z</time></trkpt><trkpt lat="45.584255697314475" lon="9.44242924543387"><ele>173.0</ele><time>2026-04-12T12:57:40.001Z</time></trkpt><trkpt lat="45.58416454908899" lon="9.4419669158233"><ele>173.0</ele><time>2026-04-12T12:57:41.001Z</time></trkpt><trkpt lat="45.584074392035575" lon="9.441503410572803"><ele>173.0</ele><time>2026-04-12T12:57:42.001Z</time></trkpt><trkpt lat="45.58398650187841" lon="9.441038442951482"><ele>173.0</ele><time>2026-04-12T12:57:43.001Z</time></trkpt><trkpt lat="45.58389708052482" lon="9.440572259786036"><ele>173.0</ele><time>2026-04-12T12:57:44.001Z</time></trkpt><trkpt lat="45.58380892655361" lon="9.440106121798124"><ele>172.5</ele><time>2026-04-12T12:57:45.001Z</time></trkpt><trkpt lat="45.58372124608924" lon="9.43963914759137"><ele>172.0</ele><time>2026-04-12T12:57:46.001Z</time></trkpt><trkpt lat="45.58363319082823" lon="9.439172387630709"><ele>171.5</ele><time>2026-04-12T12:57:47.001Z</time></trkpt><trkpt lat="45.58354317750736" lon="9.438705968233444"><ele>171.0</ele><time>2026-04-12T12:57:48.001Z</time></trkpt><trkpt lat="45.58345261990597" lon="9.438238755131078"><ele>172.0</ele><time>2026-04-12T12:57:49.001Z</time></trkpt><trkpt lat="45.58336252650629" lon="9.437772083027408"><ele>173.0</ele><time>2026-04-12T12:57:50.001Z</time></trkpt><trkpt lat="45.58327455318821" lon="9.4373045103959"><ele>173.0</ele><time>2026-04-12T12:57:51.001Z</time></trkpt><trkpt lat="45.58318703484783" lon="9.43683736496973"><ele>173.0</ele><time>2026-04-12T12:57:52.001Z</time></trkpt><trkpt lat="45.583098523750664" lon="9.436371287858204"><ele>173.5</ele><time>2026-04-12T12:57:53.001Z</time></trkpt><trkpt lat="45.583009428012176" lon="9.435912425790475"><ele>174.0</ele><time>2026-04-12T12:57:54.001Z</time></trkpt><trkpt lat="45.58291960450893" lon="9.435466263132943"><ele>172.0</ele><time>2026-04-12T12:57:55.001Z</time></trkpt><trkpt lat="45.58283388532918" lon="9.435027781606639"><ele>170.0</ele><time>2026-04-12T12:57:56.001Z</time></trkpt><trkpt lat="45.58274712925808" lon="9.434591242901924"><ele>170.0</ele><time>2026-04-12T12:57:57.001Z</time></trkpt><trkpt lat="45.582661639763046" lon="9.434153176332257"><ele>170.0</ele><time>2026-04-12T12:57:58.001Z</time></trkpt><trkpt lat="45.58257646845147" lon="9.43371538613038"><ele>170.5</ele><time>2026-04-12T12:57:59.001Z</time></trkpt><trkpt lat="45.58248752379336" lon="9.433280097128447"><ele>171.0</ele><time>2026-04-12T12:58:00.001Z</time></trkpt><trkpt lat="45.58239761552967" lon="9.43284290606756"><ele>171.0</ele><time>2026-04-12T12:58:01.001Z</time></trkpt><trkpt lat="45.58230883505019" lon="9.432400434198907"><ele>171.0</ele><time>2026-04-12T12:58:02.001Z</time></trkpt><trkpt lat="45.582220755345844" lon="9.431949096054247"><ele>171.5</ele><time>2026-04-12T12:58:03.001Z</time></trkpt><trkpt lat="45.58213894021591" lon="9.431501432254429"><ele>172.0</ele><time>2026-04-12T12:58:04.001Z</time></trkpt><trkpt lat="45.58205776804124" lon="9.431046473559288"><ele>169.5</ele><time>2026-04-12T12:58:05.001Z</time></trkpt><trkpt lat="45.58197509732093" lon="9.430586646196646"><ele>167.0</ele><time>2026-04-12T12:58:06.001Z</time></trkpt><trkpt lat="45.581892745170016" lon="9.430127621335373"><ele>167.0</ele><time>2026-04-12T12:58:07.001Z</time></trkpt><trkpt lat="45.581807466465555" lon="9.429673638275581"><ele>167.0</ele><time>2026-04-12T12:58:08.001Z</time></trkpt><trkpt lat="45.58172350127414" lon="9.429232977047663"><ele>169.0</ele><time>2026-04-12T12:58:09.001Z</time></trkpt><trkpt lat="45.58163884090877" lon="9.42880207799979"><ele>171.0</ele><time>2026-04-12T12:58:09.999Z</time></trkpt><trkpt lat="45.581550757597725" lon="9.428372596590577"><ele>170.5</ele><time>2026-04-12T12:58:10.999Z</time></trkpt><trkpt lat="45.581460787649256" lon="9.42794241002457"><ele>170.0</ele><time>2026-04-12T12:58:11.999Z</time></trkpt><trkpt lat="45.58137052675354" lon="9.427512387540403"><ele>171.0</ele><time>2026-04-12T12:58:12.999Z</time></trkpt><trkpt lat="45.581284483186906" lon="9.427076056798333"><ele>172.0</ele><time>2026-04-12T12:58:13.999Z</time></trkpt><trkpt lat="45.581198851039645" lon="9.426635724813872"><ele>171.0</ele><time>2026-04-12T12:58:15Z</time></trkpt><trkpt lat="45.58111449128229" lon="9.426191171162246"><ele>170.0</ele><time>2026-04-12T12:58:16Z</time></trkpt><trkpt lat="45.58102718335374" lon="9.42574374957892"><ele>170.0</ele><time>2026-04-12T12:58:17Z</time></trkpt><trkpt lat="45.58093627247549" lon="9.425290254014183"><ele>170.0</ele><time>2026-04-12T12:58:18Z</time></trkpt><trkpt lat="45.580846338897544" lon="9.424836019911131"><ele>169.5</ele><time>2026-04-12T12:58:19Z</time></trkpt><trkpt lat="45.58075667303664" lon="9.424380942420221"><ele>169.0</ele><time>2026-04-12T12:58:20Z</time></trkpt><trkpt lat="45.58066975839434" lon="9.423921971107958"><ele>168.0</ele><time>2026-04-12T12:58:21Z</time></trkpt><trkpt lat="45.58058409976693" lon="9.423463759953572"><ele>167.0</ele><time>2026-04-12T12:58:22Z</time></trkpt><trkpt lat="45.58049791574604" lon="9.423003663433077"><ele>167.0</ele><time>2026-04-12T12:58:23Z</time></trkpt><trkpt lat="45.58040871594879" lon="9.422544801922655"><ele>167.0</ele><time>2026-04-12T12:58:24Z</time></trkpt><trkpt lat="45.58031835623729" lon="9.422087512564975"><ele>167.0</ele><time>2026-04-12T12:58:25Z</time></trkpt><trkpt lat="45.58022591535839" lon="9.421629763274291"><ele>167.0</ele><time>2026-04-12T12:58:26Z</time></trkpt><trkpt lat="45.58013190235193" lon="9.42117228474006"><ele>167.5</ele><time>2026-04-12T12:58:27Z</time></trkpt><trkpt lat="45.58003596718555" lon="9.420714251591486"><ele>168.0</ele><time>2026-04-12T12:58:28Z</time></trkpt><trkpt lat="45.57994053585893" lon="9.420255567623316"><ele>168.5</ele><time>2026-04-12T12:58:29Z</time></trkpt><trkpt lat="45.57984426606881" lon="9.419797654275278"><ele>169.0</ele><time>2026-04-12T12:58:30Z</time></trkpt><trkpt lat="45.579749507437754" lon="9.419337874804524"><ele>169.0</ele><time>2026-04-12T12:58:31Z</time></trkpt><trkpt lat="45.57965370805651" lon="9.418879335900279"><ele>169.0</ele><time>2026-04-12T12:58:32Z</time></trkpt><trkpt lat="45.579559715976444" lon="9.41841815283332"><ele>167.5</ele><time>2026-04-12T12:58:33Z</time></trkpt><trkpt lat="45.579466876615" lon="9.417958865743612"><ele>166.0</ele><time>2026-04-12T12:58:34Z</time></trkpt><trkpt lat="45.57937398259742" lon="9.417494115356055"><ele>165.5</ele><time>2026-04-12T12:58:35Z</time></trkpt><trkpt lat="45.5792854438187" lon="9.417028700116083"><ele>165.0</ele><time>2026-04-12T12:58:36Z</time></trkpt><trkpt lat="45.57919663950817" lon="9.416560692259006"><ele>166.0</ele><time>2026-04-12T12:58:37Z</time></trkpt><trkpt lat="45.57910560470414" lon="9.416090293434593"><ele>167.0</ele><time>2026-04-12T12:58:38Z</time></trkpt><trkpt lat="45.57901651914671" lon="9.415622016313385"><ele>168.0</ele><time>2026-04-12T12:58:39Z</time></trkpt><trkpt lat="45.57892908624772" lon="9.415150688952886"><ele>169.0</ele><time>2026-04-12T12:58:40Z</time></trkpt><trkpt lat="45.5788393491579" lon="9.4146864107063"><ele>169.0</ele><time>2026-04-12T12:58:41Z</time></trkpt><trkpt lat="45.57875124630878" lon="9.41420237427446"><ele>169.0</ele><time>2026-04-12T12:58:42Z</time></trkpt><trkpt lat="45.578658981779405" lon="9.413728380774414"><ele>168.0</ele><time>2026-04-12T12:58:43Z</time></trkpt><trkpt lat="45.578570483038305" lon="9.413251015952596"><ele>167.0</ele><time>2026-04-12T12:58:44Z</time></trkpt><trkpt lat="45.5784813679348" lon="9.412771092423666"><ele>167.0</ele><time>2026-04-12T12:58:45Z</time></trkpt><trkpt lat="45.57839196796434" lon="9.412289649708908"><ele>167.0</ele><time>2026-04-12T12:58:46Z</time></trkpt><trkpt lat="45.57830430301012" lon="9.411805472018441"><ele>167.0</ele><time>2026-04-12T12:58:47Z</time></trkpt><trkpt lat="45.57821943869942" lon="9.411316882401598"><ele>167.0</ele><time>2026-04-12T12:58:48Z</time></trkpt><trkpt lat="45.57813633837132" lon="9.410834817824194"><ele>167.0</ele><time>2026-04-12T12:58:49Z</time></trkpt><trkpt lat="45.578052447095054" lon="9.410351301269852"><ele>167.0</ele><time>2026-04-12T12:58:50Z</time></trkpt><trkpt lat="45.57796234295809" lon="9.409870399636027"><ele>167.5</ele><time>2026-04-12T12:58:51Z</time></trkpt><trkpt lat="45.577866327713245" lon="9.409390599651509"><ele>168.0</ele><time>2026-04-12T12:58:52Z</time></trkpt><trkpt lat="45.5777639869475" lon="9.408912715554584"><ele>166.0</ele><time>2026-04-12T12:58:53Z</time></trkpt><trkpt lat="45.57766179660878" lon="9.408432995927384"><ele>164.0</ele><time>2026-04-12T12:58:54Z</time></trkpt><trkpt lat="45.57756826456745" lon="9.407954897451702"><ele>164.0</ele><time>2026-04-12T12:58:55Z</time></trkpt><trkpt lat="45.577477140659184" lon="9.407486813372774"><ele>164.0</ele><time>2026-04-12T12:58:56Z</time></trkpt><trkpt lat="45.577393893312006" lon="9.407046204981766"><ele>164.5</ele><time>2026-04-12T12:58:57Z</time></trkpt><trkpt lat="45.57730704948756" lon="9.406601511250276"><ele>165.0</ele><time>2026-04-12T12:58:58Z</time></trkpt><trkpt lat="45.57722895162331" lon="9.406166763199362"><ele>165.0</ele><time>2026-04-12T12:58:59Z</time></trkpt><trkpt lat="45.577149426505244" lon="9.405725409625651"><ele>165.0</ele><time>2026-04-12T12:59:00Z</time></trkpt><trkpt lat="45.577062360448494" lon="9.405287807822983"><ele>164.5</ele><time>2026-04-12T12:59:01Z</time></trkpt><trkpt lat="45.5769728805608" lon="9.404842651406728"><ele>164.0</ele><time>2026-04-12T12:59:02Z</time></trkpt><trkpt lat="45.57688756642847" lon="9.404392477469829"><ele>164.0</ele><time>2026-04-12T12:59:03Z</time></trkpt><trkpt lat="45.57680067002632" lon="9.403938870451046"><ele>164.0</ele><time>2026-04-12T12:59:04Z</time></trkpt><trkpt lat="45.57671494222154" lon="9.403483839666775"><ele>164.5</ele><time>2026-04-12T12:59:05Z</time></trkpt><trkpt lat="45.576625905349196" lon="9.403024855842759"><ele>165.0</ele><time>2026-04-12T12:59:06Z</time></trkpt><trkpt lat="45.576536762138446" lon="9.402564346443013"><ele>165.5</ele><time>2026-04-12T12:59:07Z</time></trkpt><trkpt lat="45.57644902005696" lon="9.402097855040509"><ele>166.0</ele><time>2026-04-12T12:59:08Z</time></trkpt><trkpt lat="45.57635852637182" lon="9.4016267251331"><ele>166.0</ele><time>2026-04-12T12:59:09Z</time></trkpt><trkpt lat="45.57627392661403" lon="9.401155792920914"><ele>166.0</ele><time>2026-04-12T12:59:10Z</time></trkpt><trkpt lat="45.57618816498595" lon="9.400681822512357"><ele>166.0</ele><time>2026-04-12T12:59:11Z</time></trkpt><trkpt lat="45.57610055670571" lon="9.400208046711104"><ele>166.0</ele><time>2026-04-12T12:59:12Z</time></trkpt><trkpt lat="45.57601459515857" lon="9.399740729885613"><ele>166.5</ele><time>2026-04-12T12:59:13Z</time></trkpt><trkpt lat="45.575927389807504" lon="9.399272063168134"><ele>167.0</ele><time>2026-04-12T12:59:14Z</time></trkpt><trkpt lat="45.57583863242518" lon="9.398802570298576"><ele>165.5</ele><time>2026-04-12T12:59:15Z</time></trkpt><trkpt lat="45.57574691138889" lon="9.398335882927308"><ele>164.0</ele><time>2026-04-12T12:59:16Z</time></trkpt><trkpt lat="45.575655842794504" lon="9.397864900147225"><ele>164.0</ele><time>2026-04-12T12:59:17Z</time></trkpt><trkpt lat="45.57556657126775" lon="9.397396987369246"><ele>164.0</ele><time>2026-04-12T12:59:18Z</time></trkpt><trkpt lat="45.57547933839112" lon="9.39693284732772"><ele>164.0</ele><time>2026-04-12T12:59:19Z</time></trkpt><trkpt lat="45.575392989968144" lon="9.396466476420333"><ele>164.0</ele><time>2026-04-12T12:59:20Z</time></trkpt><trkpt lat="45.57530382579517" lon="9.396000817596864"><ele>164.0</ele><time>2026-04-12T12:59:21Z</time></trkpt><trkpt lat="45.575212937017525" lon="9.395536688162133"><ele>164.0</ele><time>2026-04-12T12:59:22Z</time></trkpt><trkpt lat="45.57512187320299" lon="9.395071692737918"><ele>163.5</ele><time>2026-04-12T12:59:23Z</time></trkpt><trkpt lat="45.575031873010744" lon="9.394608587106779"><ele>163.0</ele><time>2026-04-12T12:59:24Z</time></trkpt><trkpt lat="45.57494119249003" lon="9.394148915952467"><ele>162.5</ele><time>2026-04-12T12:59:25Z</time></trkpt><trkpt lat="45.574852071630495" lon="9.39368883732969"><ele>162.0</ele><time>2026-04-12T12:59:26Z</time></trkpt><trkpt lat="45.57476423026057" lon="9.39323068838091"><ele>162.0</ele><time>2026-04-12T12:59:27Z</time></trkpt><trkpt lat="45.5746770686085" lon="9.392778960151858"><ele>162.0</ele><time>2026-04-12T12:59:28Z</time></trkpt><trkpt lat="45.574591005953614" lon="9.392324888654935"><ele>162.5</ele><time>2026-04-12T12:59:29Z</time></trkpt><trkpt lat="45.57450456556733" lon="9.391873698318014"><ele>163.0</ele><time>2026-04-12T12:59:30Z</time></trkpt><trkpt lat="45.5744170825677" lon="9.391424879091948"><ele>163.0</ele><time>2026-04-12T12:59:31Z</time></trkpt><trkpt lat="45.574335527282365" lon="9.39097179156213"><ele>163.0</ele><time>2026-04-12T12:59:32Z</time></trkpt><trkpt lat="45.574255550391605" lon="9.390517811735522"><ele>163.0</ele><time>2026-04-12T12:59:33Z</time></trkpt><trkpt lat="45.57418200153518" lon="9.390060335013278"><ele>163.0</ele><time>2026-04-12T12:59:34Z</time></trkpt><trkpt lat="45.57411141624217" lon="9.389603556095642"><ele>163.5</ele><time>2026-04-12T12:59:35Z</time></trkpt><trkpt lat="45.57404189201063" lon="9.389146200649588"><ele>164.0</ele><time>2026-04-12T12:59:36Z</time></trkpt><trkpt lat="45.573974821596195" lon="9.388688248035646"><ele>163.0</ele><time>2026-04-12T12:59:37Z</time></trkpt><trkpt lat="45.573909229694095" lon="9.38822889787823"><ele>162.0</ele><time>2026-04-12T12:59:38Z</time></trkpt><trkpt lat="45.57384450346012" lon="9.387768416379288"><ele>162.0</ele><time>2026-04-12T12:59:39Z</time></trkpt><trkpt lat="45.57377751971933" lon="9.38730575156118"><ele>162.0</ele><time>2026-04-12T12:59:40Z</time></trkpt><trkpt lat="45.57370986980835" lon="9.386844556641778"><ele>161.5</ele><time>2026-04-12T12:59:41Z</time></trkpt><trkpt lat="45.57364085041697" lon="9.386383901906763"><ele>161.0</ele><time>2026-04-12T12:59:42Z</time></trkpt><trkpt lat="45.57357108582374" lon="9.385920761209691"><ele>162.5</ele><time>2026-04-12T12:59:43Z</time></trkpt><trkpt lat="45.573503608748176" lon="9.385456568363386"><ele>164.0</ele><time>2026-04-12T12:59:44Z</time></trkpt><trkpt lat="45.573436681721574" lon="9.38498841721201"><ele>164.0</ele><time>2026-04-12T12:59:45Z</time></trkpt><trkpt lat="45.57336954680812" lon="9.384518508394097"><ele>164.0</ele><time>2026-04-12T12:59:46Z</time></trkpt><trkpt lat="45.5733023036741" lon="9.384052339257742"><ele>162.0</ele><time>2026-04-12T12:59:47Z</time></trkpt><trkpt lat="45.573234326032285" lon="9.383582832592092"><ele>160.0</ele><time>2026-04-12T12:59:48Z</time></trkpt><trkpt lat="45.57316383428522" lon="9.383111753215225"><ele>160.5</ele><time>2026-04-12T12:59:49Z</time></trkpt><trkpt lat="45.573093159509575" lon="9.382643043345825"><ele>161.0</ele><time>2026-04-12T12:59:50Z</time></trkpt><trkpt lat="45.57302547089475" lon="9.382176997219938"><ele>162.5</ele><time>2026-04-12T12:59:51Z</time></trkpt><trkpt lat="45.57295743291158" lon="9.381707927153665"><ele>164.0</ele><time>2026-04-12T12:59:52Z</time></trkpt><trkpt lat="45.572888691155185" lon="9.38124309142299"><ele>163.5</ele><time>2026-04-12T12:59:53Z</time></trkpt><trkpt lat="45.57281789653072" lon="9.380779591828224"><ele>163.0</ele><time>2026-04-12T12:59:54Z</time></trkpt><trkpt lat="45.57274677601453" lon="9.380319807045105"><ele>162.5</ele><time>2026-04-12T12:59:55Z</time></trkpt><trkpt lat="45.57267867591045" lon="9.379862693525615"><ele>162.0</ele><time>2026-04-12T12:59:56Z</time></trkpt><trkpt lat="45.57261190250287" lon="9.37939996089025"><ele>162.0</ele><time>2026-04-12T12:59:57Z</time></trkpt><trkpt lat="45.5725437046201" lon="9.37893588679751"><ele>162.0</ele><time>2026-04-12T12:59:58Z</time></trkpt><trkpt lat="45.572474724702836" lon="9.378482646034643"><ele>162.0</ele><time>2026-04-12T12:59:59Z</time></trkpt><trkpt lat="45.57240826316864" lon="9.378033789318655"><ele>162.0</ele><time>2026-04-12T13:00:00.001Z</time></trkpt><trkpt lat="45.57234453842554" lon="9.377582841632142"><ele>162.0</ele><time>2026-04-12T13:00:01.001Z</time></trkpt><trkpt lat="45.572281073697155" lon="9.377134374999374"><ele>162.0</ele><time>2026-04-12T13:00:02.001Z</time></trkpt><trkpt lat="45.57221712262475" lon="9.376689339204214"><ele>162.5</ele><time>2026-04-12T13:00:03.001Z</time></trkpt><trkpt lat="45.572150931401055" lon="9.376243326558699"><ele>163.0</ele><time>2026-04-12T13:00:04.001Z</time></trkpt><trkpt lat="45.57208654162206" lon="9.375801330117358"><ele>163.0</ele><time>2026-04-12T13:00:05.001Z</time></trkpt><trkpt lat="45.572021485211316" lon="9.375357299298415"><ele>163.0</ele><time>2026-04-12T13:00:06.001Z</time></trkpt><trkpt lat="45.57195400702381" lon="9.3749145402617"><ele>162.0</ele><time>2026-04-12T13:00:07.001Z</time></trkpt><trkpt lat="45.57188776761311" lon="9.37447304832677"><ele>161.0</ele><time>2026-04-12T13:00:08.001Z</time></trkpt><trkpt lat="45.57182325090389" lon="9.374028502285135"><ele>162.0</ele><time>2026-04-12T13:00:09.001Z</time></trkpt><trkpt lat="45.57175794521144" lon="9.373580102200426"><ele>163.0</ele><time>2026-04-12T13:00:10.001Z</time></trkpt><trkpt lat="45.57169068234873" lon="9.373133033754373"><ele>163.5</ele><time>2026-04-12T13:00:11.001Z</time></trkpt><trkpt lat="45.571624336317036" lon="9.372684486085625"><ele>164.0</ele><time>2026-04-12T13:00:12.001Z</time></trkpt><trkpt lat="45.571558933617254" lon="9.372238220285011"><ele>164.0</ele><time>2026-04-12T13:00:13.001Z</time></trkpt><trkpt lat="45.571492060007735" lon="9.371790564128673"><ele>164.0</ele><time>2026-04-12T13:00:14.001Z</time></trkpt><trkpt lat="45.57142263410042" lon="9.371346070957363"><ele>164.0</ele><time>2026-04-12T13:00:15.001Z</time></trkpt><trkpt lat="45.571352735002016" lon="9.370910243476692"><ele>164.0</ele><time>2026-04-12T13:00:15.999Z</time></trkpt><trkpt lat="45.5712834550577" lon="9.370484403502239"><ele>164.0</ele><time>2026-04-12T13:00:16.999Z</time></trkpt><trkpt lat="45.571213890841875" lon="9.370060299957585"><ele>164.0</ele><time>2026-04-12T13:00:17.999Z</time></trkpt><trkpt lat="45.5711468288907" lon="9.36963983670597"><ele>164.0</ele><time>2026-04-12T13:00:18.999Z</time></trkpt><trkpt lat="45.5710793287148" lon="9.369219460020794"><ele>164.0</ele><time>2026-04-12T13:00:19.999Z</time></trkpt><trkpt lat="45.57101452436377" lon="9.36880360106005"><ele>164.0</ele><time>2026-04-12T13:00:20.999Z</time></trkpt><trkpt lat="45.57094812760578" lon="9.368386835458514"><ele>164.0</ele><time>2026-04-12T13:00:21.999Z</time></trkpt><trkpt lat="45.57088370176363" lon="9.367973548198464"><ele>164.0</ele><time>2026-04-12T13:00:22.999Z</time></trkpt><trkpt lat="45.570819476647394" lon="9.367556452838603"><ele>164.0</ele><time>2026-04-12T13:00:24Z</time></trkpt><trkpt lat="45.57075899381216" lon="9.367145342007388"><ele>164.5</ele><time>2026-04-12T13:00:25Z</time></trkpt><trkpt lat="45.57069890035174" lon="9.366734357807502"><ele>165.0</ele><time>2026-04-12T13:00:26Z</time></trkpt><trkpt lat="45.57063965143716" lon="9.366324314691296"><ele>165.5</ele><time>2026-04-12T13:00:27Z</time></trkpt><trkpt lat="45.57058002989708" lon="9.365917646696612"><ele>166.0</ele><time>2026-04-12T13:00:28Z</time></trkpt><trkpt lat="45.57052223202272" lon="9.365510039433309"><ele>165.0</ele><time>2026-04-12T13:00:29Z</time></trkpt><trkpt lat="45.570462824207" lon="9.365102056320197"><ele>164.0</ele><time>2026-04-12T13:00:30Z</time></trkpt><trkpt lat="45.57040351512294" lon="9.364695492726252"><ele>163.0</ele><time>2026-04-12T13:00:31Z</time></trkpt><trkpt lat="45.57034257723869" lon="9.364284522700602"><ele>162.0</ele><time>2026-04-12T13:00:32Z</time></trkpt><trkpt lat="45.57028281665528" lon="9.363871410286652"><ele>162.0</ele><time>2026-04-12T13:00:33Z</time></trkpt><trkpt lat="45.57022189422443" lon="9.36345127985498"><ele>162.0</ele><time>2026-04-12T13:00:34Z</time></trkpt><trkpt lat="45.57015462063154" lon="9.363024594680772"><ele>162.0</ele><time>2026-04-12T13:00:35Z</time></trkpt><trkpt lat="45.57008306601187" lon="9.362595603040207"><ele>162.0</ele><time>2026-04-12T13:00:36Z</time></trkpt><trkpt lat="45.570011587193385" lon="9.362160445001688"><ele>161.0</ele><time>2026-04-12T13:00:37Z</time></trkpt><trkpt lat="45.569942272071266" lon="9.361710083307416"><ele>160.0</ele><time>2026-04-12T13:00:38Z</time></trkpt><trkpt lat="45.56987547597503" lon="9.361250158442948"><ele>160.0</ele><time>2026-04-12T13:00:39Z</time></trkpt><trkpt lat="45.56980856947741" lon="9.360781855242077"><ele>160.0</ele><time>2026-04-12T13:00:40Z</time></trkpt><trkpt lat="45.5697374244118" lon="9.36031150937167"><ele>160.5</ele><time>2026-04-12T13:00:41Z</time></trkpt><trkpt lat="45.56966493419639" lon="9.359839319259864"><ele>161.0</ele><time>2026-04-12T13:00:42Z</time></trkpt><trkpt lat="45.569592862486545" lon="9.359363237865733"><ele>161.0</ele><time>2026-04-12T13:00:43Z</time></trkpt><trkpt lat="45.56952168717809" lon="9.35888711383046"><ele>161.0</ele><time>2026-04-12T13:00:44Z</time></trkpt><trkpt lat="45.569455277515786" lon="9.358407004960856"><ele>159.5</ele><time>2026-04-12T13:00:45Z</time></trkpt><trkpt lat="45.5693854830568" lon="9.357929336450928"><ele>158.0</ele><time>2026-04-12T13:00:46Z</time></trkpt><trkpt lat="45.569318799667926" lon="9.357493272660115"><ele>158.5</ele><time>2026-04-12T13:00:47Z</time></trkpt><trkpt lat="45.56925381058478" lon="9.357063236389202"><ele>159.0</ele><time>2026-04-12T13:00:48Z</time></trkpt><trkpt lat="45.56919400962431" lon="9.35665360497196"><ele>159.5</ele><time>2026-04-12T13:00:49Z</time></trkpt><trkpt lat="45.56913710137025" lon="9.356256924076884"><ele>160.0</ele><time>2026-04-12T13:00:50Z</time></trkpt><trkpt lat="45.56908156516385" lon="9.355850545597967"><ele>160.5</ele><time>2026-04-12T13:00:51Z</time></trkpt><trkpt lat="45.56902694433105" lon="9.355446480707576"><ele>161.0</ele><time>2026-04-12T13:00:52Z</time></trkpt><trkpt lat="45.568972123421425" lon="9.35504029236221"><ele>162.0</ele><time>2026-04-12T13:00:53Z</time></trkpt><trkpt lat="45.56891268051586" lon="9.354631447731169"><ele>163.0</ele><time>2026-04-12T13:00:54Z</time></trkpt><trkpt lat="45.56885504216021" lon="9.354219580275204"><ele>162.5</ele><time>2026-04-12T13:00:55Z</time></trkpt><trkpt lat="45.56879467648194" lon="9.35380763147325"><ele>162.0</ele><time>2026-04-12T13:00:56Z</time></trkpt><trkpt lat="45.56873556711326" lon="9.353394598624497"><ele>160.5</ele><time>2026-04-12T13:00:57Z</time></trkpt><trkpt lat="45.56867414799906" lon="9.352975806474056"><ele>159.0</ele><time>2026-04-12T13:00:58Z</time></trkpt><trkpt lat="45.56860839956071" lon="9.35254792328404"><ele>159.5</ele><time>2026-04-12T13:00:59Z</time></trkpt><trkpt lat="45.568536692784306" lon="9.352112497192609"><ele>160.0</ele><time>2026-04-12T13:01:00Z</time></trkpt><trkpt lat="45.56846345193773" lon="9.351674318435382"><ele>160.5</ele><time>2026-04-12T13:01:01Z</time></trkpt><trkpt lat="45.56839358188372" lon="9.351225669230988"><ele>161.0</ele><time>2026-04-12T13:01:02Z</time></trkpt><trkpt lat="45.5683240510397" lon="9.350771444726414"><ele>161.5</ele><time>2026-04-12T13:01:03Z</time></trkpt><trkpt lat="45.568256280269175" lon="9.350316834480555"><ele>162.0</ele><time>2026-04-12T13:01:04Z</time></trkpt><trkpt lat="45.568192597502964" lon="9.349858411029393"><ele>161.0</ele><time>2026-04-12T13:01:05Z</time></trkpt><trkpt lat="45.56813057157203" lon="9.34939344295899"><ele>160.0</ele><time>2026-04-12T13:01:06Z</time></trkpt><trkpt lat="45.5680683177816" lon="9.348927312599802"><ele>160.0</ele><time>2026-04-12T13:01:07Z</time></trkpt><trkpt lat="45.568005816415976" lon="9.348461324461697"><ele>160.0</ele><time>2026-04-12T13:01:08Z</time></trkpt><trkpt lat="45.567944386162516" lon="9.347997570129444"><ele>160.0</ele><time>2026-04-12T13:01:09Z</time></trkpt><trkpt lat="45.567884469199825" lon="9.347539186847763"><ele>160.0</ele><time>2026-04-12T13:01:10Z</time></trkpt><trkpt lat="45.56782454750679" lon="9.347089966517654"><ele>160.0</ele><time>2026-04-12T13:01:11Z</time></trkpt><trkpt lat="45.567760573435244" lon="9.346642124916908"><ele>160.0</ele><time>2026-04-12T13:01:12Z</time></trkpt><trkpt lat="45.56770005678835" lon="9.346196602781923"><ele>159.0</ele><time>2026-04-12T13:01:13Z</time></trkpt><trkpt lat="45.567634744692036" lon="9.345751357837988"><ele>158.0</ele><time>2026-04-12T13:01:14Z</time></trkpt><trkpt lat="45.56756449502505" lon="9.345306516081514"><ele>157.5</ele><time>2026-04-12T13:01:15Z</time></trkpt><trkpt lat="45.56749662985918" lon="9.344859192492061"><ele>157.0</ele><time>2026-04-12T13:01:16Z</time></trkpt><trkpt lat="45.567427376973455" lon="9.344407758186634"><ele>156.5</ele><time>2026-04-12T13:01:17Z</time></trkpt><trkpt lat="45.567359012597855" lon="9.34395362307647"><ele>156.0</ele><time>2026-04-12T13:01:18Z</time></trkpt><trkpt lat="45.56729143982247" lon="9.34349779325821"><ele>156.0</ele><time>2026-04-12T13:01:19Z</time></trkpt><trkpt lat="45.56722237021494" lon="9.343040529542165"><ele>156.0</ele><time>2026-04-12T13:01:20Z</time></trkpt><trkpt lat="45.567160166985175" lon="9.342601730473255"><ele>156.0</ele><time>2026-04-12T13:01:21.001Z</time></trkpt><trkpt lat="45.567100383800316" lon="9.342178689365943"><ele>156.0</ele><time>2026-04-12T13:01:22.001Z</time></trkpt><trkpt lat="45.567036867445914" lon="9.34175757192245"><ele>157.0</ele><time>2026-04-12T13:01:23.001Z</time></trkpt><trkpt lat="45.566974352994755" lon="9.341360393803175"><ele>158.0</ele><time>2026-04-12T13:01:24.001Z</time></trkpt><trkpt lat="45.5669204670323" lon="9.34097554792278"><ele>158.0</ele><time>2026-04-12T13:01:25.001Z</time></trkpt><trkpt lat="45.56686310024523" lon="9.340592711563609"><ele>158.0</ele><time>2026-04-12T13:01:26.001Z</time></trkpt><trkpt lat="45.566810629459944" lon="9.340210461448704"><ele>158.0</ele><time>2026-04-12T13:01:27.001Z</time></trkpt><trkpt lat="45.566759933934215" lon="9.339829484732357"><ele>158.0</ele><time>2026-04-12T13:01:28.001Z</time></trkpt><trkpt lat="45.566712270375476" lon="9.339451456252217"><ele>157.5</ele><time>2026-04-12T13:01:29.001Z</time></trkpt><trkpt lat="45.566669320291666" lon="9.339074688475243"><ele>157.0</ele><time>2026-04-12T13:01:30.001Z</time></trkpt><trkpt lat="45.56662523140298" lon="9.338697265619608"><ele>157.0</ele><time>2026-04-12T13:01:31.001Z</time></trkpt><trkpt lat="45.566574440344176" lon="9.338317256590022"><ele>157.0</ele><time>2026-04-12T13:01:32.001Z</time></trkpt><trkpt lat="45.56652202772277" lon="9.337932942781038"><ele>157.5</ele><time>2026-04-12T13:01:33.001Z</time></trkpt><trkpt lat="45.566471061428096" lon="9.337542416870852"><ele>158.0</ele><time>2026-04-12T13:01:34.001Z</time></trkpt><trkpt lat="45.5664182643904" lon="9.337155148529765"><ele>158.0</ele><time>2026-04-12T13:01:35.001Z</time></trkpt><trkpt lat="45.566366789559986" lon="9.33677218621688"><ele>158.0</ele><time>2026-04-12T13:01:36.001Z</time></trkpt><trkpt lat="45.56631281219711" lon="9.336382205866332"><ele>158.0</ele><time>2026-04-12T13:01:37.001Z</time></trkpt><trkpt lat="45.56625605404624" lon="9.33598851763424"><ele>158.0</ele><time>2026-04-12T13:01:38.001Z</time></trkpt><trkpt lat="45.56619464650621" lon="9.335589978672646"><ele>158.5</ele><time>2026-04-12T13:01:39.001Z</time></trkpt><trkpt lat="45.56614464281029" lon="9.335179008923179"><ele>159.0</ele><time>2026-04-12T13:01:40.001Z</time></trkpt><trkpt lat="45.5660878551728" lon="9.334786976294113"><ele>159.0</ele><time>2026-04-12T13:01:41.001Z</time></trkpt><trkpt lat="45.56603178991998" lon="9.334391111452128"><ele>159.0</ele><time>2026-04-12T13:01:42.001Z</time></trkpt><trkpt lat="45.565977405425784" lon="9.333972185952986"><ele>157.5</ele><time>2026-04-12T13:01:43.001Z</time></trkpt><trkpt lat="45.56592024178477" lon="9.333540330239881"><ele>156.0</ele><time>2026-04-12T13:01:44.001Z</time></trkpt><trkpt lat="45.56585761811174" lon="9.333100721655354"><ele>156.0</ele><time>2026-04-12T13:01:45.001Z</time></trkpt><trkpt lat="45.56579249521645" lon="9.332652313410753"><ele>156.0</ele><time>2026-04-12T13:01:46.001Z</time></trkpt><trkpt lat="45.56572248418838" lon="9.332197337133474"><ele>156.5</ele><time>2026-04-12T13:01:47.001Z</time></trkpt><trkpt lat="45.56565070728624" lon="9.331737882851709"><ele>157.0</ele><time>2026-04-12T13:01:48.001Z</time></trkpt><trkpt lat="45.565581054504" lon="9.331272648233135"><ele>155.5</ele><time>2026-04-12T13:01:49.001Z</time></trkpt><trkpt lat="45.56551126576599" lon="9.330804387545745"><ele>154.0</ele><time>2026-04-12T13:01:50.001Z</time></trkpt><trkpt lat="45.56544241570879" lon="9.330334280078427"><ele>154.0</ele><time>2026-04-12T13:01:51.001Z</time></trkpt><trkpt lat="45.56537374593147" lon="9.329865433233728"><ele>154.0</ele><time>2026-04-12T13:01:52.001Z</time></trkpt><trkpt lat="45.565304802949306" lon="9.329393783179539"><ele>153.5</ele><time>2026-04-12T13:01:53.001Z</time></trkpt><trkpt lat="45.565234835930816" lon="9.328925415155686"><ele>153.0</ele><time>2026-04-12T13:01:54.001Z</time></trkpt><trkpt lat="45.56516426458497" lon="9.328455078810242"><ele>154.0</ele><time>2026-04-12T13:01:55.001Z</time></trkpt><trkpt lat="45.56509368928881" lon="9.327981982800585"><ele>155.0</ele><time>2026-04-12T13:01:56.001Z</time></trkpt><trkpt lat="45.565021481592176" lon="9.327512063090278"><ele>154.0</ele><time>2026-04-12T13:01:57.001Z</time></trkpt><trkpt lat="45.56495008808772" lon="9.327044857759812"><ele>153.0</ele><time>2026-04-12T13:01:58.001Z</time></trkpt><trkpt lat="45.56487666129541" lon="9.326571149117932"><ele>153.5</ele><time>2026-04-12T13:01:59.001Z</time></trkpt><trkpt lat="45.5648018239772" lon="9.326097709005095"><ele>154.0</ele><time>2026-04-12T13:02:00.001Z</time></trkpt><trkpt lat="45.56472527674747" lon="9.325623999785924"><ele>154.5</ele><time>2026-04-12T13:02:01.001Z</time></trkpt><trkpt lat="45.564650538488536" lon="9.325154796172836"><ele>155.0</ele><time>2026-04-12T13:02:02.001Z</time></trkpt><trkpt lat="45.56457874874096" lon="9.324682697378718"><ele>153.5</ele><time>2026-04-12T13:02:03.001Z</time></trkpt><trkpt lat="45.56451066961271" lon="9.324213234968328"><ele>152.0</ele><time>2026-04-12T13:02:04.001Z</time></trkpt><trkpt lat="45.564440830097055" lon="9.323746498621864"><ele>152.0</ele><time>2026-04-12T13:02:05.001Z</time></trkpt><trkpt lat="45.56437136252525" lon="9.323283164947345"><ele>152.0</ele><time>2026-04-12T13:02:06.001Z</time></trkpt><trkpt lat="45.564302574443566" lon="9.322819678871184"><ele>152.0</ele><time>2026-04-12T13:02:07.001Z</time></trkpt><trkpt lat="45.56423371585911" lon="9.322356449304616"><ele>152.0</ele><time>2026-04-12T13:02:08.001Z</time></trkpt><trkpt lat="45.56416835169264" lon="9.321879880483712"><ele>152.0</ele><time>2026-04-12T13:02:09.001Z</time></trkpt><trkpt lat="45.564094772154824" lon="9.32143119450422"><ele>152.0</ele><time>2026-04-12T13:02:10.001Z</time></trkpt><trkpt lat="45.564030335080695" lon="9.320988965467354"><ele>152.5</ele><time>2026-04-12T13:02:11.001Z</time></trkpt><trkpt lat="45.563967736109284" lon="9.320563046233493"><ele>153.0</ele><time>2026-04-12T13:02:12.001Z</time></trkpt><trkpt lat="45.5639013882762" lon="9.320133200991233"><ele>152.5</ele><time>2026-04-12T13:02:13.001Z</time></trkpt><trkpt lat="45.56383426699576" lon="9.319695314084685"><ele>152.0</ele><time>2026-04-12T13:02:14.001Z</time></trkpt><trkpt lat="45.56376561338097" lon="9.31925572707054"><ele>152.5</ele><time>2026-04-12T13:02:15.001Z</time></trkpt><trkpt lat="45.563689111493986" lon="9.31880382283061"><ele>153.0</ele><time>2026-04-12T13:02:16.001Z</time></trkpt><trkpt lat="45.56360958500442" lon="9.318343575863421"><ele>152.5</ele><time>2026-04-12T13:02:17.001Z</time></trkpt><trkpt lat="45.563535316433246" lon="9.317874572294073"><ele>152.0</ele><time>2026-04-12T13:02:18.001Z</time></trkpt><trkpt lat="45.56346448765513" lon="9.31740014892765"><ele>151.0</ele><time>2026-04-12T13:02:19.001Z</time></trkpt><trkpt lat="45.563392840992556" lon="9.316930061531174"><ele>150.0</ele><time>2026-04-12T13:02:20.001Z</time></trkpt><trkpt lat="45.563316038901476" lon="9.316464359695315"><ele>150.0</ele><time>2026-04-12T13:02:21.001Z</time></trkpt><trkpt lat="45.563236171342105" lon="9.315999491499289"><ele>150.0</ele><time>2026-04-12T13:02:21.999Z</time></trkpt><trkpt lat="45.56316185485445" lon="9.315531453484038"><ele>150.0</ele><time>2026-04-12T13:02:22.999Z</time></trkpt><trkpt lat="45.56309389951102" lon="9.315060478140126"><ele>150.0</ele><time>2026-04-12T13:02:23.999Z</time></trkpt><trkpt lat="45.56302859729733" lon="9.314587707146195"><ele>150.0</ele><time>2026-04-12T13:02:24.999Z</time></trkpt><trkpt lat="45.56296055368339" lon="9.31411906493835"><ele>150.0</ele><time>2026-04-12T13:02:25.999Z</time></trkpt><trkpt lat="45.56289187905666" lon="9.313655169281954"><ele>150.5</ele><time>2026-04-12T13:02:26.999Z</time></trkpt><trkpt lat="45.56282227199809" lon="9.313193187985341"><ele>151.0</ele><time>2026-04-12T13:02:27.999Z</time></trkpt><trkpt lat="45.56275428493806" lon="9.312730507129496"><ele>152.0</ele><time>2026-04-12T13:02:28.999Z</time></trkpt><trkpt lat="45.562686356923905" lon="9.312268151323941"><ele>153.0</ele><time>2026-04-12T13:02:29.999Z</time></trkpt><trkpt lat="45.56261758879497" lon="9.311800050341363"><ele>152.5</ele><time>2026-04-12T13:02:30.999Z</time></trkpt><trkpt lat="45.56254757044753" lon="9.311333221439135"><ele>152.0</ele><time>2026-04-12T13:02:31.999Z</time></trkpt><trkpt lat="45.56247803185943" lon="9.310871154242966"><ele>151.0</ele><time>2026-04-12T13:02:32.999Z</time></trkpt><trkpt lat="45.562408928666635" lon="9.310403507009912"><ele>150.0</ele><time>2026-04-12T13:02:33.999Z</time></trkpt><trkpt lat="45.56234203705964" lon="9.309934924618567"><ele>150.5</ele><time>2026-04-12T13:02:35Z</time></trkpt><trkpt lat="45.56227351850355" lon="9.309460401442008"><ele>151.0</ele><time>2026-04-12T13:02:36Z</time></trkpt><trkpt lat="45.562205284738695" lon="9.308991283809808"><ele>151.5</ele><time>2026-04-12T13:02:37Z</time></trkpt><trkpt lat="45.562129057663306" lon="9.308520216405272"><ele>152.0</ele><time>2026-04-12T13:02:38Z</time></trkpt><trkpt lat="45.5620561730386" lon="9.308048888813804"><ele>151.5</ele><time>2026-04-12T13:02:39Z</time></trkpt><trkpt lat="45.56198300496343" lon="9.3075803351094"><ele>151.0</ele><time>2026-04-12T13:02:40Z</time></trkpt><trkpt lat="45.56191158320537" lon="9.307110366265341"><ele>150.5</ele><time>2026-04-12T13:02:41Z</time></trkpt><trkpt lat="45.56184468160515" lon="9.30664219853953"><ele>150.0</ele><time>2026-04-12T13:02:42Z</time></trkpt><trkpt lat="45.56177862573159" lon="9.306171810630408"><ele>150.0</ele><time>2026-04-12T13:02:43Z</time></trkpt><trkpt lat="45.561713784210994" lon="9.305700404976655"><ele>150.0</ele><time>2026-04-12T13:02:44Z</time></trkpt><trkpt lat="45.56164801597573" lon="9.305226349549448"><ele>150.5</ele><time>2026-04-12T13:02:45Z</time></trkpt><trkpt lat="45.561583063969714" lon="9.304750742216497"><ele>151.0</ele><time>2026-04-12T13:02:46Z</time></trkpt><trkpt lat="45.5615127732882" lon="9.304270409887087"><ele>152.0</ele><time>2026-04-12T13:02:47Z</time></trkpt><trkpt lat="45.5614417075369" lon="9.303791161292175"><ele>153.0</ele><time>2026-04-12T13:02:48Z</time></trkpt><trkpt lat="45.561365806144124" lon="9.30330732003679"><ele>152.5</ele><time>2026-04-12T13:02:49Z</time></trkpt><trkpt lat="45.56128925699398" lon="9.302821823688136"><ele>152.0</ele><time>2026-04-12T13:02:50Z</time></trkpt><trkpt lat="45.561212609567804" lon="9.302335130432455"><ele>150.5</ele><time>2026-04-12T13:02:51Z</time></trkpt><trkpt lat="45.56113218514981" lon="9.301844572261043"><ele>149.0</ele><time>2026-04-12T13:02:52Z</time></trkpt><trkpt lat="45.56104901993852" lon="9.301350566860606"><ele>149.0</ele><time>2026-04-12T13:02:53Z</time></trkpt><trkpt lat="45.56096425617306" lon="9.300854049612797"><ele>149.0</ele><time>2026-04-12T13:02:54Z</time></trkpt><trkpt lat="45.56087896052993" lon="9.300353228824417"><ele>149.0</ele><time>2026-04-12T13:02:55Z</time></trkpt><trkpt lat="45.56079478175708" lon="9.299854562185025"><ele>149.0</ele><time>2026-04-12T13:02:56Z</time></trkpt><trkpt lat="45.560713747812564" lon="9.299343319219064"><ele>151.0</ele><time>2026-04-12T13:02:57Z</time></trkpt><trkpt lat="45.56063247846653" lon="9.298835121392733"><ele>153.0</ele><time>2026-04-12T13:02:58Z</time></trkpt><trkpt lat="45.56055901571529" lon="9.298334326569403"><ele>152.0</ele><time>2026-04-12T13:02:59Z</time></trkpt><trkpt lat="45.56047767183968" lon="9.297827908360697"><ele>151.0</ele><time>2026-04-12T13:03:00Z</time></trkpt><trkpt lat="45.56039787331451" lon="9.297309936056658"><ele>150.5</ele><time>2026-04-12T13:03:01Z</time></trkpt><trkpt lat="45.560319096810986" lon="9.296794928662598"><ele>150.0</ele><time>2026-04-12T13:03:02Z</time></trkpt><trkpt lat="45.56024601070622" lon="9.296277928140523"><ele>149.5</ele><time>2026-04-12T13:03:03Z</time></trkpt><trkpt lat="45.5601703606072" lon="9.295756574276322"><ele>149.0</ele><time>2026-04-12T13:03:04Z</time></trkpt><trkpt lat="45.56008765637759" lon="9.295234770934734"><ele>148.0</ele><time>2026-04-12T13:03:05Z</time></trkpt><trkpt lat="45.5600146551226" lon="9.294708779414268"><ele>147.0</ele><time>2026-04-12T13:03:06Z</time></trkpt><trkpt lat="45.55993827320716" lon="9.29418159622423"><ele>147.0</ele><time>2026-04-12T13:03:07Z</time></trkpt><trkpt lat="45.55986764731177" lon="9.293659677305515"><ele>147.0</ele><time>2026-04-12T13:03:08Z</time></trkpt><trkpt lat="45.55978792176938" lon="9.293144285536297"><ele>146.5</ele><time>2026-04-12T13:03:09Z</time></trkpt><trkpt lat="45.55971546247748" lon="9.292624082022325"><ele>146.0</ele><time>2026-04-12T13:03:10Z</time></trkpt><trkpt lat="45.559639386372126" lon="9.292104238346248"><ele>147.0</ele><time>2026-04-12T13:03:11Z</time></trkpt><trkpt lat="45.55956134987836" lon="9.291588198249146"><ele>148.0</ele><time>2026-04-12T13:03:12Z</time></trkpt><trkpt lat="45.55948574153378" lon="9.291074542954401"><ele>149.0</ele><time>2026-04-12T13:03:13Z</time></trkpt><trkpt lat="45.55941036497705" lon="9.290559146145052"><ele>150.0</ele><time>2026-04-12T13:03:14Z</time></trkpt><trkpt lat="45.5593338608649" lon="9.290046604800162"><ele>148.0</ele><time>2026-04-12T13:03:15Z</time></trkpt><trkpt lat="45.55926179897189" lon="9.289536125251663"><ele>146.0</ele><time>2026-04-12T13:03:16Z</time></trkpt><trkpt lat="45.559186893941636" lon="9.2890301621387"><ele>145.5</ele><time>2026-04-12T13:03:17Z</time></trkpt><trkpt lat="45.5591166349132" lon="9.288527431623583"><ele>145.0</ele><time>2026-04-12T13:03:18Z</time></trkpt><trkpt lat="45.5590390477304" lon="9.288022900339904"><ele>146.0</ele><time>2026-04-12T13:03:19Z</time></trkpt><trkpt lat="45.5589562317335" lon="9.287517497653463"><ele>147.0</ele><time>2026-04-12T13:03:20Z</time></trkpt><trkpt lat="45.558879378527315" lon="9.28701779030925"><ele>148.0</ele><time>2026-04-12T13:03:21Z</time></trkpt><trkpt lat="45.55881405032092" lon="9.286512661585713"><ele>149.0</ele><time>2026-04-12T13:03:22Z</time></trkpt><trkpt lat="45.558735494816695" lon="9.286010974037369"><ele>149.0</ele><time>2026-04-12T13:03:23Z</time></trkpt><trkpt lat="45.558666237659814" lon="9.28550417820437"><ele>149.0</ele><time>2026-04-12T13:03:24Z</time></trkpt><trkpt lat="45.5585884392443" lon="9.285007609769092"><ele>148.5</ele><time>2026-04-12T13:03:25Z</time></trkpt><trkpt lat="45.55851734094383" lon="9.284498107647218"><ele>148.0</ele><time>2026-04-12T13:03:26Z</time></trkpt><trkpt lat="45.55843356454113" lon="9.283994604119842"><ele>147.5</ele><time>2026-04-12T13:03:27Z</time></trkpt><trkpt lat="45.55835795132236" lon="9.283484254383056"><ele>147.0</ele><time>2026-04-12T13:03:28Z</time></trkpt><trkpt lat="45.558289162699666" lon="9.28297749308899"><ele>146.5</ele><time>2026-04-12T13:03:29.001Z</time></trkpt><trkpt lat="45.55821184454632" lon="9.282474605000235"><ele>146.0</ele><time>2026-04-12T13:03:30.001Z</time></trkpt><trkpt lat="45.55813783941468" lon="9.281962258140805"><ele>146.0</ele><time>2026-04-12T13:03:31.001Z</time></trkpt><trkpt lat="45.55806257363318" lon="9.28145798872167"><ele>146.0</ele><time>2026-04-12T13:03:32.001Z</time></trkpt><trkpt lat="45.55798333757738" lon="9.280953857117662"><ele>145.5</ele><time>2026-04-12T13:03:33.001Z</time></trkpt><trkpt lat="45.557914392624646" lon="9.280457895460554"><ele>145.0</ele><time>2026-04-12T13:03:34.001Z</time></trkpt><trkpt lat="45.55784791714236" lon="9.279966091135638"><ele>145.0</ele><time>2026-04-12T13:03:35.001Z</time></trkpt><trkpt lat="45.55777610135924" lon="9.279483498696008"><ele>145.0</ele><time>2026-04-12T13:03:36.001Z</time></trkpt><trkpt lat="45.55769993634878" lon="9.279013696694326"><ele>145.0</ele><time>2026-04-12T13:03:37.001Z</time></trkpt><trkpt lat="45.557627438297324" lon="9.2785604736078"><ele>145.0</ele><time>2026-04-12T13:03:38.001Z</time></trkpt><trkpt lat="45.55755965200182" lon="9.278116002855896"><ele>145.5</ele><time>2026-04-12T13:03:39.001Z</time></trkpt><trkpt lat="45.55750109327274" lon="9.27771976814896"><ele>146.0</ele><time>2026-04-12T13:03:40.001Z</time></trkpt><trkpt lat="45.55744687672585" lon="9.277333561519674"><ele>145.5</ele><time>2026-04-12T13:03:41.001Z</time></trkpt><trkpt lat="45.55738667097582" lon="9.276960240304172"><ele>145.0</ele><time>2026-04-12T13:03:42.001Z</time></trkpt><trkpt lat="45.55733103856055" lon="9.27660366758783"><ele>145.5</ele><time>2026-04-12T13:03:43.001Z</time></trkpt><trkpt lat="45.557267956788024" lon="9.2762188277472"><ele>146.0</ele><time>2026-04-12T13:03:44.001Z</time></trkpt><trkpt lat="45.557223102090155" lon="9.275877762724129"><ele>146.5</ele><time>2026-04-12T13:03:45.001Z</time></trkpt><trkpt lat="45.55717325755573" lon="9.275540722446214"><ele>147.0</ele><time>2026-04-12T13:03:46.001Z</time></trkpt><trkpt lat="45.557123579516876" lon="9.275213772244824"><ele>147.0</ele><time>2026-04-12T13:03:47.001Z</time></trkpt><trkpt lat="45.5570763937252" lon="9.274897251146015"><ele>147.0</ele><time>2026-04-12T13:03:48.001Z</time></trkpt><trkpt lat="45.55702703688336" lon="9.274580248203307"><ele>147.66666666666666</ele><time>2026-04-12T13:03:49.001Z</time></trkpt><trkpt lat="45.5569812208721" lon="9.274275656573996"><ele>148.33333333333331</ele><time>2026-04-12T13:03:50.001Z</time></trkpt><trkpt lat="45.55693730739163" lon="9.273977105166667"><ele>149.0</ele><time>2026-04-12T13:03:51.001Z</time></trkpt><trkpt lat="45.55689369403511" lon="9.273680259489648"><ele>147.66666666666666</ele><time>2026-04-12T13:03:52.001Z</time></trkpt><trkpt lat="45.55685006977184" lon="9.273393565824279"><ele>146.33333333333334</ele><time>2026-04-12T13:03:53.001Z</time></trkpt><trkpt lat="45.55680753088628" lon="9.273110328131997"><ele>145.0</ele><time>2026-04-12T13:03:54.001Z</time></trkpt><trkpt lat="45.55676641521619" lon="9.272825611840839"><ele>144.66666666666669</ele><time>2026-04-12T13:03:55.001Z</time></trkpt><trkpt lat="45.55672598991514" lon="9.272540423147081"><ele>144.33333333333334</ele><time>2026-04-12T13:03:56.001Z</time></trkpt><trkpt lat="45.556684750762926" lon="9.272259870711235"><ele>144.0</ele><time>2026-04-12T13:03:57.001Z</time></trkpt><trkpt lat="45.55664515580799" lon="9.271980902631368"><ele>144.0</ele><time>2026-04-12T13:03:58.001Z</time></trkpt><trkpt lat="45.55660473108527" lon="9.271709436266834"><ele>144.0</ele><time>2026-04-12T13:03:59.001Z</time></trkpt><trkpt lat="45.55656999882242" lon="9.271448975977446"><ele>144.0</ele><time>2026-04-12T13:04:00.001Z</time></trkpt><trkpt lat="45.556533104710404" lon="9.271201935401033"><ele>143.66666666666666</ele><time>2026-04-12T13:04:01.001Z</time></trkpt><trkpt lat="45.556487941476455" lon="9.270962491998265"><ele>143.33333333333331</ele><time>2026-04-12T13:04:02.001Z</time></trkpt><trkpt lat="45.55647327549521" lon="9.27072259069388"><ele>143.0</ele><time>2026-04-12T13:04:03.001Z</time></trkpt><trkpt lat="45.556476678601165" lon="9.270511102528934"><ele>143.75</ele><time>2026-04-12T13:04:04.001Z</time></trkpt><trkpt lat="45.55648842805797" lon="9.270309129285726"><ele>144.5</ele><time>2026-04-12T13:04:05.001Z</time></trkpt><trkpt lat="45.55650161511586" lon="9.270093999977359"><ele>145.25</ele><time>2026-04-12T13:04:06.001Z</time></trkpt><trkpt lat="45.55650924096823" lon="9.269903547525471"><ele>146.0</ele><time>2026-04-12T13:04:07.001Z</time></trkpt><trkpt lat="45.5565080080345" lon="9.269685257603932"><ele>146.25</ele><time>2026-04-12T13:04:08.001Z</time></trkpt><trkpt lat="45.55649289621606" lon="9.269473149061827"><ele>146.5</ele><time>2026-04-12T13:04:09.001Z</time></trkpt><trkpt lat="45.55647156288685" lon="9.269279229683855"><ele>146.75</ele><time>2026-04-12T13:04:10.001Z</time></trkpt><trkpt lat="45.55644935763674" lon="9.269110949405505"><ele>147.0</ele><time>2026-04-12T13:04:11.001Z</time></trkpt><trkpt lat="45.55642823555378" lon="9.268964555457027"><ele>146.66666666666666</ele><time>2026-04-12T13:04:12.001Z</time></trkpt><trkpt lat="45.55640824248829" lon="9.268831311351509"><ele>146.33333333333334</ele><time>2026-04-12T13:04:13.001Z</time></trkpt><trkpt lat="45.556389380751504" lon="9.2687068045442"><ele>146.0</ele><time>2026-04-12T13:04:14.001Z</time></trkpt><trkpt lat="45.55637094340745" lon="9.268585359995694"><ele>145.66666666666669</ele><time>2026-04-12T13:04:15.001Z</time></trkpt><trkpt lat="45.55635625347208" lon="9.268488599152677"><ele>145.33333333333334</ele><time>2026-04-12T13:04:16.001Z</time></trkpt><trkpt lat="45.55633952525507" lon="9.26837767999038"><ele>145.0</ele><time>2026-04-12T13:05:33.001Z</time></trkpt><trkpt lat="45.55631788893101" lon="9.268233378635744"><ele>145.0</ele><time>2026-04-12T13:05:35.001Z</time></trkpt><trkpt lat="45.55630243703735" lon="9.268131468298675"><ele>145.0</ele><time>2026-04-12T13:05:36.001Z</time></trkpt><trkpt lat="45.55628537556158" lon="9.268019761039394"><ele>145.0</ele><time>2026-04-12T13:05:37.001Z</time></trkpt><trkpt lat="45.55626408018088" lon="9.267883757437163"><ele>145.0</ele><time>2026-04-12T13:05:38.001Z</time></trkpt><trkpt lat="45.55624344330784" lon="9.267759320703043"><ele>145.0</ele><time>2026-04-12T13:05:39.001Z</time></trkpt><trkpt lat="45.55621517901533" lon="9.267598257084051"><ele>144.75</ele><time>2026-04-12T13:05:40.001Z</time></trkpt><trkpt lat="45.55616484595908" lon="9.26740154773903"><ele>144.5</ele><time>2026-04-12T13:05:41.001Z</time></trkpt><trkpt lat="45.55608939718834" lon="9.267207124267326"><ele>144.25</ele><time>2026-04-12T13:05:42.001Z</time></trkpt><trkpt lat="45.55603341192147" lon="9.267069088170127"><ele>144.0</ele><time>2026-04-12T13:05:43.001Z</time></trkpt><trkpt lat="45.55598000977056" lon="9.266907810193146"><ele>144.5</ele><time>2026-04-12T13:05:44.001Z</time></trkpt><trkpt lat="45.55592771567497" lon="9.266734437476421"><ele>145.0</ele><time>2026-04-12T13:05:45.001Z</time></trkpt><trkpt lat="45.555873049386925" lon="9.266547669432828"><ele>145.5</ele><time>2026-04-12T13:05:46.001Z</time></trkpt><trkpt lat="45.55581591101809" lon="9.266345501348718"><ele>146.0</ele><time>2026-04-12T13:05:47.001Z</time></trkpt><trkpt lat="45.555769671716256" lon="9.266113008066645"><ele>146.0</ele><time>2026-04-12T13:05:48.001Z</time></trkpt><trkpt lat="45.55573185966332" lon="9.265866012731776"><ele>146.0</ele><time>2026-04-12T13:05:49.001Z</time></trkpt><trkpt lat="45.55569805983318" lon="9.265612894728541"><ele>146.0</ele><time>2026-04-12T13:05:50.001Z</time></trkpt><trkpt lat="45.55566325277005" lon="9.265366184865517"><ele>145.66666666666666</ele><time>2026-04-12T13:05:51.001Z</time></trkpt><trkpt lat="45.555623389121344" lon="9.265119143868365"><ele>145.33333333333334</ele><time>2026-04-12T13:05:52.001Z</time></trkpt><trkpt lat="45.55558522469483" lon="9.264867765628107"><ele>145.0</ele><time>2026-04-12T13:05:53.001Z</time></trkpt><trkpt lat="45.55554664913869" lon="9.264612573415702"><ele>144.33333333333334</ele><time>2026-04-12T13:05:54.001Z</time></trkpt><trkpt lat="45.555512001836036" lon="9.264354539025641"><ele>143.66666666666666</ele><time>2026-04-12T13:05:55.001Z</time></trkpt><trkpt lat="45.55547283462211" lon="9.26409837596296"><ele>143.0</ele><time>2026-04-12T13:05:56.001Z</time></trkpt><trkpt lat="45.55543348137807" lon="9.263841365245966"><ele>143.0</ele><time>2026-04-12T13:05:57.001Z</time></trkpt><trkpt lat="45.55539112531962" lon="9.263580417471392"><ele>143.0</ele><time>2026-04-12T13:05:58.001Z</time></trkpt><trkpt lat="45.55535352095936" lon="9.263318119221067"><ele>143.0</ele><time>2026-04-12T13:05:59.001Z</time></trkpt><trkpt lat="45.555311178108596" lon="9.263045941836403"><ele>143.33333333333331</ele><time>2026-04-12T13:06:00.001Z</time></trkpt><trkpt lat="45.55526799880095" lon="9.262764839017532"><ele>143.66666666666666</ele><time>2026-04-12T13:06:01.001Z</time></trkpt><trkpt lat="45.555223579385554" lon="9.26247153372639"><ele>144.0</ele><time>2026-04-12T13:06:02.001Z</time></trkpt><trkpt lat="45.55517676947124" lon="9.26216904000709"><ele>144.33333333333334</ele><time>2026-04-12T13:06:03.001Z</time></trkpt><trkpt lat="45.55513185093427" lon="9.261855334771193"><ele>144.66666666666669</ele><time>2026-04-12T13:06:04.001Z</time></trkpt><trkpt lat="45.555081777083934" lon="9.261542946049925"><ele>145.0</ele><time>2026-04-12T13:06:05.001Z</time></trkpt><trkpt lat="45.55503340231016" lon="9.261235950856118"><ele>146.5</ele><time>2026-04-12T13:06:06.001Z</time></trkpt><trkpt lat="45.554988892072124" lon="9.260915335593603"><ele>148.0</ele><time>2026-04-12T13:06:07.001Z</time></trkpt><trkpt lat="45.5549390912017" lon="9.260596073556885"><ele>148.0</ele><time>2026-04-12T13:06:08.001Z</time></trkpt><trkpt lat="45.55487549577609" lon="9.260257177329345"><ele>148.0</ele><time>2026-04-12T13:06:09.001Z</time></trkpt><trkpt lat="45.554840704771614" lon="9.25990815882964"><ele>148.0</ele><time>2026-04-12T13:06:10.001Z</time></trkpt><trkpt lat="45.5547897627524" lon="9.259563083576564"><ele>148.0</ele><time>2026-04-12T13:06:11.001Z</time></trkpt><trkpt lat="45.554737565516135" lon="9.25922655871536"><ele>148.0</ele><time>2026-04-12T13:06:12.001Z</time></trkpt><trkpt lat="45.55468665723004" lon="9.258886978972821"><ele>148.0</ele><time>2026-04-12T13:06:13.001Z</time></trkpt><trkpt lat="45.55463581289106" lon="9.258540034603328"><ele>148.0</ele><time>2026-04-12T13:06:14.001Z</time></trkpt><trkpt lat="45.55458560768722" lon="9.258182769926263"><ele>148.0</ele><time>2026-04-12T13:06:15.001Z</time></trkpt><trkpt lat="45.554532007256945" lon="9.257827248476474"><ele>147.5</ele><time>2026-04-12T13:06:16.001Z</time></trkpt><trkpt lat="45.55447884643822" lon="9.257466787705948"><ele>147.0</ele><time>2026-04-12T13:06:17.001Z</time></trkpt><trkpt lat="45.5544252694499" lon="9.25711169816773"><ele>147.0</ele><time>2026-04-12T13:06:18.001Z</time></trkpt><trkpt lat="45.55437362845922" lon="9.256754180097598"><ele>147.0</ele><time>2026-04-12T13:06:19.001Z</time></trkpt><trkpt lat="45.55432126176036" lon="9.256408613008663"><ele>147.5</ele><time>2026-04-12T13:06:20.001Z</time></trkpt><trkpt lat="45.55427388986272" lon="9.256071193540155"><ele>148.0</ele><time>2026-04-12T13:06:21.001Z</time></trkpt><trkpt lat="45.55422509295768" lon="9.255739859803855"><ele>148.0</ele><time>2026-04-12T13:06:22.001Z</time></trkpt><trkpt lat="45.55417343456248" lon="9.255406969967954"><ele>148.0</ele><time>2026-04-12T13:06:23.001Z</time></trkpt><trkpt lat="45.554120552870515" lon="9.255080424225232"><ele>148.5</ele><time>2026-04-12T13:06:24.001Z</time></trkpt><trkpt lat="45.55406014831156" lon="9.254743735450628"><ele>149.0</ele><time>2026-04-12T13:06:25.001Z</time></trkpt><trkpt lat="45.5540007755005" lon="9.254397874837256"><ele>149.0</ele><time>2026-04-12T13:06:26.001Z</time></trkpt><trkpt lat="45.55394274683047" lon="9.254045699128016"><ele>149.0</ele><time>2026-04-12T13:06:27.001Z</time></trkpt><trkpt lat="45.55388917881937" lon="9.253684974722646"><ele>148.5</ele><time>2026-04-12T13:06:28.001Z</time></trkpt><trkpt lat="45.55383550501852" lon="9.25332291186695"><ele>148.0</ele><time>2026-04-12T13:06:29.001Z</time></trkpt><trkpt lat="45.553782106912664" lon="9.252960471534127"><ele>149.0</ele><time>2026-04-12T13:06:30.001Z</time></trkpt><trkpt lat="45.553730807963944" lon="9.252608309252697"><ele>150.0</ele><time>2026-04-12T13:06:31.001Z</time></trkpt><trkpt lat="45.55367954842049" lon="9.2522681394952"><ele>150.0</ele><time>2026-04-12T13:06:32.001Z</time></trkpt><trkpt lat="45.55362835464394" lon="9.251927613687675"><ele>150.0</ele><time>2026-04-12T13:06:33.002Z</time></trkpt><trkpt lat="45.55357888157338" lon="9.251591912062652"><ele>150.5</ele><time>2026-04-12T13:06:34Z</time></trkpt><trkpt lat="45.55353286274527" lon="9.251262940013564"><ele>151.0</ele><time>2026-04-12T13:06:35Z</time></trkpt><trkpt lat="45.55348463359029" lon="9.250937449917577"><ele>152.0</ele><time>2026-04-12T13:06:36Z</time></trkpt><trkpt lat="45.553433613360646" lon="9.250608546793002"><ele>153.0</ele><time>2026-04-12T13:06:37Z</time></trkpt><trkpt lat="45.55338270237879" lon="9.250275865859239"><ele>153.0</ele><time>2026-04-12T13:06:38Z</time></trkpt><trkpt lat="45.55333216505826" lon="9.24994435701449"><ele>153.0</ele><time>2026-04-12T13:06:39Z</time></trkpt><trkpt lat="45.55328039160617" lon="9.249608527568581"><ele>152.5</ele><time>2026-04-12T13:06:40Z</time></trkpt><trkpt lat="45.55322852101176" lon="9.24927493554347"><ele>152.0</ele><time>2026-04-12T13:06:41Z</time></trkpt><trkpt lat="45.55317844141047" lon="9.24893189561621"><ele>151.5</ele><time>2026-04-12T13:06:42Z</time></trkpt><trkpt lat="45.55312444929891" lon="9.248577376924692"><ele>151.0</ele><time>2026-04-12T13:06:43Z</time></trkpt><trkpt lat="45.55306653385151" lon="9.248216037651895"><ele>152.0</ele><time>2026-04-12T13:06:44Z</time></trkpt><trkpt lat="45.553007353105436" lon="9.247846809228973"><ele>153.0</ele><time>2026-04-12T13:06:45Z</time></trkpt><trkpt lat="45.55294853453584" lon="9.247472201330902"><ele>153.0</ele><time>2026-04-12T13:06:46Z</time></trkpt><trkpt lat="45.552890411560035" lon="9.247090961324233"><ele>153.0</ele><time>2026-04-12T13:06:47Z</time></trkpt><trkpt lat="45.5528289185053" lon="9.246702873484816"><ele>151.5</ele><time>2026-04-12T13:06:48Z</time></trkpt><trkpt lat="45.55276767306094" lon="9.24630853238775"><ele>150.0</ele><time>2026-04-12T13:06:49Z</time></trkpt><trkpt lat="45.55270697853424" lon="9.245908425016246"><ele>149.0</ele><time>2026-04-12T13:06:50Z</time></trkpt><trkpt lat="45.552647293822105" lon="9.245505995872705"><ele>148.0</ele><time>2026-04-12T13:06:51Z</time></trkpt><trkpt lat="45.55258673456567" lon="9.245105803044893"><ele>150.0</ele><time>2026-04-12T13:06:52Z</time></trkpt><trkpt lat="45.55253024224687" lon="9.244699361503953"><ele>152.0</ele><time>2026-04-12T13:06:53Z</time></trkpt><trkpt lat="45.552467036896026" lon="9.244295166489188"><ele>152.0</ele><time>2026-04-12T13:06:54Z</time></trkpt><trkpt lat="45.5524038639473" lon="9.243890482884817"><ele>152.0</ele><time>2026-04-12T13:06:55Z</time></trkpt><trkpt lat="45.55234352000601" lon="9.24348689229586"><ele>151.5</ele><time>2026-04-12T13:06:56Z</time></trkpt><trkpt lat="45.55228438336512" lon="9.243085389379996"><ele>151.0</ele><time>2026-04-12T13:06:57Z</time></trkpt><trkpt lat="45.552225159424054" lon="9.242684631394415"><ele>151.0</ele><time>2026-04-12T13:06:58Z</time></trkpt><trkpt lat="45.552164700526816" lon="9.242284281360904"><ele>151.0</ele><time>2026-04-12T13:06:59Z</time></trkpt><trkpt lat="45.55210326615562" lon="9.241881285562705"><ele>151.0</ele><time>2026-04-12T13:07:00Z</time></trkpt><trkpt lat="45.55204301184248" lon="9.241477812551812"><ele>151.0</ele><time>2026-04-12T13:07:01Z</time></trkpt><trkpt lat="45.55198289233278" lon="9.241076564854408"><ele>151.0</ele><time>2026-04-12T13:07:02Z</time></trkpt><trkpt lat="45.5519309232625" lon="9.24069531690567"><ele>151.0</ele><time>2026-04-12T13:07:03Z</time></trkpt><trkpt lat="45.551875344111046" lon="9.240319083955425"><ele>151.0</ele><time>2026-04-12T13:07:04Z</time></trkpt><trkpt lat="45.55181719869269" lon="9.239938476664056"><ele>151.0</ele><time>2026-04-12T13:07:05Z</time></trkpt><trkpt lat="45.55176485095603" lon="9.239549153440787"><ele>151.0</ele><time>2026-04-12T13:07:06Z</time></trkpt><trkpt lat="45.551716156182316" lon="9.239155277630815"><ele>151.0</ele><time>2026-04-12T13:07:07Z</time></trkpt><trkpt lat="45.551665642299895" lon="9.23876229404272"><ele>151.0</ele><time>2026-04-12T13:07:08Z</time></trkpt><trkpt lat="45.55161711284734" lon="9.23839056192331"><ele>151.0</ele><time>2026-04-12T13:07:09Z</time></trkpt><trkpt lat="45.55156685624561" lon="9.238038347671958"><ele>150.0</ele><time>2026-04-12T13:07:10Z</time></trkpt><trkpt lat="45.55152092862507" lon="9.23769156954449"><ele>149.0</ele><time>2026-04-12T13:07:11Z</time></trkpt><trkpt lat="45.5514754156074" lon="9.23735003521706"><ele>148.5</ele><time>2026-04-12T13:07:12Z</time></trkpt><trkpt lat="45.55142336796578" lon="9.237017690975133"><ele>148.0</ele><time>2026-04-12T13:07:13Z</time></trkpt><trkpt lat="45.55137505346268" lon="9.236720663612443"><ele>148.33333333333334</ele><time>2026-04-12T13:07:14Z</time></trkpt><trkpt lat="45.551321586562665" lon="9.236445815754399"><ele>148.66666666666666</ele><time>2026-04-12T13:07:15Z</time></trkpt><trkpt lat="45.551262032130744" lon="9.236158636270373"><ele>149.0</ele><time>2026-04-12T13:07:16Z</time></trkpt><trkpt lat="45.55120447717563" lon="9.235843972621982"><ele>151.0</ele><time>2026-04-12T13:07:17Z</time></trkpt><trkpt lat="45.55115991025061" lon="9.235503461704877"><ele>153.0</ele><time>2026-04-12T13:07:18Z</time></trkpt><trkpt lat="45.55111932320237" lon="9.235143425269554"><ele>153.5</ele><time>2026-04-12T13:07:19Z</time></trkpt><trkpt lat="45.55107629341173" lon="9.234772376266632"><ele>154.0</ele><time>2026-04-12T13:07:20.017Z</time></trkpt><trkpt lat="45.551034526438166" lon="9.234425029123415"><ele>154.0</ele><time>2026-04-12T13:07:21.016Z</time></trkpt><trkpt lat="45.550986415293025" lon="9.234084173086119"><ele>154.0</ele><time>2026-04-12T13:07:22.023Z</time></trkpt><trkpt lat="45.55093696460016" lon="9.233751798891722"><ele>153.0</ele><time>2026-04-12T13:07:23.015Z</time></trkpt><trkpt lat="45.550888222274885" lon="9.23342860791268"><ele>152.0</ele><time>2026-04-12T13:07:24.015Z</time></trkpt><trkpt lat="45.55083833633296" lon="9.233106343837857"><ele>149.0</ele><time>2026-04-12T13:07:25.014Z</time></trkpt><trkpt lat="45.55050734900455" lon="9.230539016434205"><ele>149.0</ele><time>2026-04-12T13:07:34.001Z</time></trkpt><trkpt lat="45.550463919734575" lon="9.230255631692414"><ele>149.0</ele><time>2026-04-12T13:07:35.001Z</time></trkpt><trkpt lat="45.55039693456373" lon="9.229968840352747"><ele>149.0</ele><time>2026-04-12T13:07:36.001Z</time></trkpt><trkpt lat="45.55035482003252" lon="9.229667607947855"><ele>149.0</ele><time>2026-04-12T13:07:37.001Z</time></trkpt><trkpt lat="45.55030963718414" lon="9.229372777661238"><ele>149.0</ele><time>2026-04-12T13:07:38.001Z</time></trkpt><trkpt lat="45.550263062861596" lon="9.229078683283875"><ele>149.0</ele><time>2026-04-12T13:07:39.001Z</time></trkpt><trkpt lat="45.55021707377163" lon="9.228777179920892"><ele>148.66666666666666</ele><time>2026-04-12T13:07:40.001Z</time></trkpt><trkpt lat="45.550165831501346" lon="9.22847770834325"><ele>148.33333333333334</ele><time>2026-04-12T13:07:41.001Z</time></trkpt><trkpt lat="45.55011140056572" lon="9.228172681953788"><ele>148.0</ele><time>2026-04-12T13:07:42.001Z</time></trkpt><trkpt lat="45.55005886717096" lon="9.22785984122046"><ele>147.5</ele><time>2026-04-12T13:07:43.001Z</time></trkpt><trkpt lat="45.55000369059299" lon="9.22753713730513"><ele>147.0</ele><time>2026-04-12T13:07:44.001Z</time></trkpt><trkpt lat="45.549955181116204" lon="9.227203472988045"><ele>148.5</ele><time>2026-04-12T13:07:45.001Z</time></trkpt><trkpt lat="45.549905242319525" lon="9.22686617920414"><ele>150.0</ele><time>2026-04-12T13:07:46.001Z</time></trkpt><trkpt lat="45.54984954482818" lon="9.226517731323614"><ele>150.0</ele><time>2026-04-12T13:07:47.001Z</time></trkpt><trkpt lat="45.549788780447166" lon="9.226170557638605"><ele>150.0</ele><time>2026-04-12T13:07:48.001Z</time></trkpt><trkpt lat="45.549728401827345" lon="9.225820773683449"><ele>149.5</ele><time>2026-04-12T13:07:49.001Z</time></trkpt><trkpt lat="45.54967338186576" lon="9.225474420665675"><ele>149.0</ele><time>2026-04-12T13:07:50.001Z</time></trkpt><trkpt lat="45.54961961142548" lon="9.225127266017498"><ele>148.5</ele><time>2026-04-12T13:07:51.001Z</time></trkpt><trkpt lat="45.549566931016734" lon="9.224782480213895"><ele>148.0</ele><time>2026-04-12T13:07:52.001Z</time></trkpt><trkpt lat="45.54951895673636" lon="9.224442727444666"><ele>148.0</ele><time>2026-04-12T13:07:53.001Z</time></trkpt><trkpt lat="45.54947735875359" lon="9.224107782457887"><ele>148.0</ele><time>2026-04-12T13:07:54.001Z</time></trkpt><trkpt lat="45.54944066334926" lon="9.22377640129552"><ele>148.0</ele><time>2026-04-12T13:07:55.001Z</time></trkpt><trkpt lat="45.54940744289267" lon="9.223444668277084"><ele>148.0</ele><time>2026-04-12T13:07:56.001Z</time></trkpt><trkpt lat="45.549375216806496" lon="9.223099761955128"><ele>148.5</ele><time>2026-04-12T13:07:57.001Z</time></trkpt><trkpt lat="45.549341874176626" lon="9.222744528843918"><ele>149.0</ele><time>2026-04-12T13:07:58.001Z</time></trkpt><trkpt lat="45.54929469816018" lon="9.222381853641808"><ele>149.5</ele><time>2026-04-12T13:07:59.001Z</time></trkpt><trkpt lat="45.549231518060445" lon="9.222002705368853"><ele>150.0</ele><time>2026-04-12T13:08:00.001Z</time></trkpt><trkpt lat="45.5491662745467" lon="9.221608397636874"><ele>149.5</ele><time>2026-04-12T13:08:01.001Z</time></trkpt><trkpt lat="45.54910523632781" lon="9.221202728796195"><ele>149.0</ele><time>2026-04-12T13:08:02.001Z</time></trkpt><trkpt lat="45.549048077666896" lon="9.220790432777921"><ele>150.0</ele><time>2026-04-12T13:08:03.001Z</time></trkpt><trkpt lat="45.548998314752005" lon="9.220366059989844"><ele>151.0</ele><time>2026-04-12T13:08:04.001Z</time></trkpt><trkpt lat="45.54895320921796" lon="9.219931118697007"><ele>151.5</ele><time>2026-04-12T13:08:05.001Z</time></trkpt><trkpt lat="45.548910743978674" lon="9.219486421055757"><ele>152.0</ele><time>2026-04-12T13:08:06.001Z</time></trkpt><trkpt lat="45.54887415215921" lon="9.21904080852929"><ele>151.5</ele><time>2026-04-12T13:08:07.001Z</time></trkpt><trkpt lat="45.54884560736219" lon="9.21859015253818"><ele>151.0</ele><time>2026-04-12T13:08:08.001Z</time></trkpt><trkpt lat="45.54882128751455" lon="9.218137923776649"><ele>151.0</ele><time>2026-04-12T13:08:09.001Z</time></trkpt><trkpt lat="45.548805538423416" lon="9.217690306728715"><ele>151.0</ele><time>2026-04-12T13:08:10.001Z</time></trkpt><trkpt lat="45.54879066240006" lon="9.21725405228666"><ele>150.5</ele><time>2026-04-12T13:08:11.001Z</time></trkpt><trkpt lat="45.54877600670923" lon="9.216826673355888"><ele>150.0</ele><time>2026-04-12T13:08:12.001Z</time></trkpt><trkpt lat="45.548763640414485" lon="9.216414478262255"><ele>150.0</ele><time>2026-04-12T13:08:13.001Z</time></trkpt><trkpt lat="45.54874943598189" lon="9.216010480222131"><ele>150.0</ele><time>2026-04-12T13:08:14.001Z</time></trkpt><trkpt lat="45.54873770301801" lon="9.215607136653038"><ele>149.0</ele><time>2026-04-12T13:08:15.001Z</time></trkpt><trkpt lat="45.548726971231524" lon="9.215214907504086"><ele>148.0</ele><time>2026-04-12T13:08:16.001Z</time></trkpt><trkpt lat="45.54871757557364" lon="9.21483316959691"><ele>147.0</ele><time>2026-04-12T13:08:17.001Z</time></trkpt><trkpt lat="45.54870862013678" lon="9.214465021029543"><ele>146.0</ele><time>2026-04-12T13:08:18.001Z</time></trkpt><trkpt lat="45.548698635984536" lon="9.214098869235379"><ele>146.0</ele><time>2026-04-12T13:08:19.001Z</time></trkpt><trkpt lat="45.54868955001634" lon="9.213729811079961"><ele>146.0</ele><time>2026-04-12T13:08:20.001Z</time></trkpt><trkpt lat="45.54868361056231" lon="9.213359391613606"><ele>147.5</ele><time>2026-04-12T13:08:21.001Z</time></trkpt><trkpt lat="45.5486786235699" lon="9.21298510722892"><ele>149.0</ele><time>2026-04-12T13:08:22.001Z</time></trkpt><trkpt lat="45.548668961802825" lon="9.21260202541029"><ele>148.5</ele><time>2026-04-12T13:08:23.001Z</time></trkpt><trkpt lat="45.54865400199674" lon="9.21220577587143"><ele>148.0</ele><time>2026-04-12T13:08:24.001Z</time></trkpt><trkpt lat="45.54864261106746" lon="9.2117897435496"><ele>148.5</ele><time>2026-04-12T13:08:25.001Z</time></trkpt><trkpt lat="45.548624336273484" lon="9.211362066301458"><ele>149.0</ele><time>2026-04-12T13:08:26.001Z</time></trkpt><trkpt lat="45.54860556431557" lon="9.210922447843203"><ele>149.5</ele><time>2026-04-12T13:08:27.001Z</time></trkpt><trkpt lat="45.54859161775988" lon="9.210471954535537"><ele>150.0</ele><time>2026-04-12T13:08:28.001Z</time></trkpt><trkpt lat="45.54858028171552" lon="9.210026386286048"><ele>149.5</ele><time>2026-04-12T13:08:29.002Z</time></trkpt><trkpt lat="45.548564481158984" lon="9.209596013064838"><ele>149.0</ele><time>2026-04-12T13:08:30.002Z</time></trkpt><trkpt lat="45.548546891348444" lon="9.209191488607871"><ele>149.5</ele><time>2026-04-12T13:08:31.002Z</time></trkpt><trkpt lat="45.548528952132884" lon="9.208799871646988"><ele>150.0</ele><time>2026-04-12T13:08:32.002Z</time></trkpt><trkpt lat="45.548515350414235" lon="9.208412316543674"><ele>149.5</ele><time>2026-04-12T13:08:33.002Z</time></trkpt><trkpt lat="45.5485039030361" lon="9.208036137856002"><ele>149.0</ele><time>2026-04-12T13:08:34.002Z</time></trkpt><trkpt lat="45.54849122790572" lon="9.207668672795517"><ele>149.0</ele><time>2026-04-12T13:08:35.002Z</time></trkpt><trkpt lat="45.548481009984634" lon="9.207304430528918"><ele>149.0</ele><time>2026-04-12T13:08:36.002Z</time></trkpt><trkpt lat="45.54846990438561" lon="9.206935411633967"><ele>149.0</ele><time>2026-04-12T13:08:37.002Z</time></trkpt><trkpt lat="45.548458182213764" lon="9.20656185553471"><ele>149.0</ele><time>2026-04-12T13:08:38.002Z</time></trkpt><trkpt lat="45.548446569439186" lon="9.20618338091601"><ele>149.0</ele><time>2026-04-12T13:08:39.002Z</time></trkpt><trkpt lat="45.548435412565055" lon="9.20580263415076"><ele>149.0</ele><time>2026-04-12T13:08:40Z</time></trkpt><trkpt lat="45.548423134046764" lon="9.20541594720444"><ele>149.0</ele><time>2026-04-12T13:08:41Z</time></trkpt><trkpt lat="45.548405450219136" lon="9.205020583551711"><ele>149.0</ele><time>2026-04-12T13:08:42Z</time></trkpt><trkpt lat="45.54838379898334" lon="9.204613969180192"><ele>149.0</ele><time>2026-04-12T13:08:43Z</time></trkpt><trkpt lat="45.5483607851417" lon="9.204203366539266"><ele>149.0</ele><time>2026-04-12T13:08:44Z</time></trkpt><trkpt lat="45.54834082340032" lon="9.203792495320055"><ele>148.5</ele><time>2026-04-12T13:08:45Z</time></trkpt><trkpt lat="45.54831469000008" lon="9.203388227240007"><ele>148.0</ele><time>2026-04-12T13:08:46Z</time></trkpt><trkpt lat="45.54828258572445" lon="9.202993195445229"><ele>147.5</ele><time>2026-04-12T13:08:47Z</time></trkpt><trkpt lat="45.54824225539427" lon="9.202604415071587"><ele>147.0</ele><time>2026-04-12T13:08:48Z</time></trkpt><trkpt lat="45.54819370131242" lon="9.202218584768278"><ele>148.0</ele><time>2026-04-12T13:08:49Z</time></trkpt><trkpt lat="45.5481428686339" lon="9.20184192717208"><ele>149.0</ele><time>2026-04-12T13:08:50Z</time></trkpt><trkpt lat="45.54809094126131" lon="9.201472549386049"><ele>149.0</ele><time>2026-04-12T13:08:51Z</time></trkpt><trkpt lat="45.54803522081083" lon="9.20110586088271"><ele>149.0</ele><time>2026-04-12T13:08:52Z</time></trkpt><trkpt lat="45.54797868328208" lon="9.200737818649085"><ele>148.5</ele><time>2026-04-12T13:08:53Z</time></trkpt><trkpt lat="45.547915939129894" lon="9.200364777412494"><ele>148.0</ele><time>2026-04-12T13:08:54Z</time></trkpt><trkpt lat="45.54784529514894" lon="9.19998730551935"><ele>148.0</ele><time>2026-04-12T13:08:55Z</time></trkpt><trkpt lat="45.547763535823556" lon="9.199614807476657"><ele>148.0</ele><time>2026-04-12T13:08:56Z</time></trkpt><trkpt lat="45.547677938935" lon="9.199238900903396"><ele>147.5</ele><time>2026-04-12T13:08:57Z</time></trkpt><trkpt lat="45.54758795910151" lon="9.19886486897152"><ele>147.0</ele><time>2026-04-12T13:08:58Z</time></trkpt><trkpt lat="45.54749521634759" lon="9.198491642786426"><ele>148.0</ele><time>2026-04-12T13:08:59Z</time></trkpt><trkpt lat="45.54740115704979" lon="9.198115926768391"><ele>149.0</ele><time>2026-04-12T13:09:00Z</time></trkpt><trkpt lat="45.54730705853176" lon="9.197742381144415"><ele>149.0</ele><time>2026-04-12T13:09:01Z</time></trkpt><trkpt lat="45.547211142438975" lon="9.19736887672728"><ele>149.0</ele><time>2026-04-12T13:09:02Z</time></trkpt><trkpt lat="45.547113079298114" lon="9.196999291379088"><ele>148.5</ele><time>2026-04-12T13:09:03Z</time></trkpt><trkpt lat="45.54701768400441" lon="9.196629190557521"><ele>148.0</ele><time>2026-04-12T13:09:04Z</time></trkpt><trkpt lat="45.5469250088818" lon="9.196261540738199"><ele>148.0</ele><time>2026-04-12T13:09:05Z</time></trkpt><trkpt lat="45.54683119139091" lon="9.195895007849765"><ele>148.0</ele><time>2026-04-12T13:09:06Z</time></trkpt><trkpt lat="45.54673738768406" lon="9.195525106050631"><ele>148.5</ele><time>2026-04-12T13:09:07Z</time></trkpt><trkpt lat="45.54664819658786" lon="9.195145156168618"><ele>149.0</ele><time>2026-04-12T13:09:08Z</time></trkpt><trkpt lat="45.546557578081135" lon="9.194763937105835"><ele>149.5</ele><time>2026-04-12T13:09:09Z</time></trkpt><trkpt lat="45.546459621062745" lon="9.194385158491732"><ele>150.0</ele><time>2026-04-12T13:09:10Z</time></trkpt><trkpt lat="45.54636442087213" lon="9.194003790753419"><ele>150.0</ele><time>2026-04-12T13:09:11Z</time></trkpt><trkpt lat="45.54626545375272" lon="9.193620385437683"><ele>150.0</ele><time>2026-04-12T13:09:12Z</time></trkpt><trkpt lat="45.54616545692188" lon="9.193238356277611"><ele>150.0</ele><time>2026-04-12T13:09:13Z</time></trkpt><trkpt lat="45.54606917715153" lon="9.192862427596053"><ele>150.0</ele><time>2026-04-12T13:09:14Z</time></trkpt><trkpt lat="45.54597386097953" lon="9.192492027266706"><ele>150.0</ele><time>2026-04-12T13:09:15Z</time></trkpt><trkpt lat="45.54587972331764" lon="9.192128309934546"><ele>150.0</ele><time>2026-04-12T13:09:16Z</time></trkpt><trkpt lat="45.54578777797876" lon="9.191766803717185"><ele>151.5</ele><time>2026-04-12T13:09:17Z</time></trkpt><trkpt lat="45.54569880341742" lon="9.191401678803453"><ele>153.0</ele><time>2026-04-12T13:09:18Z</time></trkpt><trkpt lat="45.545614407684106" lon="9.191027892390732"><ele>153.0</ele><time>2026-04-12T13:09:19Z</time></trkpt><trkpt lat="45.54552638051627" lon="9.190652718685792"><ele>153.0</ele><time>2026-04-12T13:09:20Z</time></trkpt><trkpt lat="45.545435261973495" lon="9.190278044489055"><ele>152.0</ele><time>2026-04-12T13:09:21Z</time></trkpt><trkpt lat="45.54533755029832" lon="9.18990555024183"><ele>151.0</ele><time>2026-04-12T13:09:22Z</time></trkpt><trkpt lat="45.54523748714855" lon="9.189531938925446"><ele>151.0</ele><time>2026-04-12T13:09:23Z</time></trkpt><trkpt lat="45.545135142317214" lon="9.18916498698885"><ele>151.0</ele><time>2026-04-12T13:09:24Z</time></trkpt><trkpt lat="45.54503836126937" lon="9.188814130487934"><ele>151.0</ele><time>2026-04-12T13:09:25Z</time></trkpt><trkpt lat="45.54494553551446" lon="9.188472235195462"><ele>151.0</ele><time>2026-04-12T13:09:26Z</time></trkpt><trkpt lat="45.544852194314124" lon="9.188128874870511"><ele>150.5</ele><time>2026-04-12T13:09:27Z</time></trkpt><trkpt lat="45.54475819188211" lon="9.187787021326729"><ele>150.0</ele><time>2026-04-12T13:09:28Z</time></trkpt><trkpt lat="45.5446630973727" lon="9.187444075152731"><ele>150.0</ele><time>2026-04-12T13:09:29Z</time></trkpt><trkpt lat="45.54457010759831" lon="9.187096626212448"><ele>150.0</ele><time>2026-04-12T13:09:30Z</time></trkpt><trkpt lat="45.54447888302686" lon="9.186748750781478"><ele>150.5</ele><time>2026-04-12T13:09:31Z</time></trkpt><trkpt lat="45.54438923425184" lon="9.186393720974392"><ele>151.0</ele><time>2026-04-12T13:09:32.001Z</time></trkpt><trkpt lat="45.54429607467339" lon="9.18603247797285"><ele>150.0</ele><time>2026-04-12T13:09:33.001Z</time></trkpt><trkpt lat="45.544202374196075" lon="9.185672184603163"><ele>149.0</ele><time>2026-04-12T13:09:34.001Z</time></trkpt><trkpt lat="45.544109008692516" lon="9.18531173384215"><ele>149.0</ele><time>2026-04-12T13:09:35.001Z</time></trkpt><trkpt lat="45.54400863580745" lon="9.184952401472247"><ele>149.0</ele><time>2026-04-12T13:09:36.001Z</time></trkpt><trkpt lat="45.54390717675891" lon="9.184579100909641"><ele>149.0</ele><time>2026-04-12T13:09:37.001Z</time></trkpt><trkpt lat="45.543805087263934" lon="9.184184915347377"><ele>149.0</ele><time>2026-04-12T13:09:38.001Z</time></trkpt><trkpt lat="45.54370059416659" lon="9.18377691685138"><ele>149.0</ele><time>2026-04-12T13:09:39.001Z</time></trkpt><trkpt lat="45.543591217612345" lon="9.183358535772795"><ele>149.0</ele><time>2026-04-12T13:09:40.001Z</time></trkpt><trkpt lat="45.54347851587987" lon="9.182931408136422"><ele>148.5</ele><time>2026-04-12T13:09:41.001Z</time></trkpt><trkpt lat="45.543360409911486" lon="9.182486661483525"><ele>148.0</ele><time>2026-04-12T13:09:42.001Z</time></trkpt><trkpt lat="45.54323991294968" lon="9.182026786723918"><ele>147.5</ele><time>2026-04-12T13:09:43.001Z</time></trkpt><trkpt lat="45.54311333157876" lon="9.181553101995155"><ele>147.0</ele><time>2026-04-12T13:09:44.001Z</time></trkpt><trkpt lat="45.54298612490819" lon="9.181073269596425"><ele>148.5</ele><time>2026-04-12T13:09:45.001Z</time></trkpt><trkpt lat="45.542855992858684" lon="9.180576842471716"><ele>150.0</ele><time>2026-04-12T13:09:46.001Z</time></trkpt><trkpt lat="45.542723136578445" lon="9.180037566384671"><ele>150.0</ele><time>2026-04-12T13:09:47.001Z</time></trkpt><trkpt lat="45.54258299144029" lon="9.17946801083394"><ele>150.0</ele><time>2026-04-12T13:09:48.001Z</time></trkpt><trkpt lat="45.54243271249513" lon="9.178878502287265"><ele>150.0</ele><time>2026-04-12T13:09:49.001Z</time></trkpt><trkpt lat="45.542307007078634" lon="9.178550424405566"><ele>150.0</ele><time>2026-04-12T13:09:50.001Z</time></trkpt><trkpt lat="45.5421499805373" lon="9.178021957409147"><ele>149.5</ele><time>2026-04-12T13:09:51.001Z</time></trkpt><trkpt lat="45.54199689698712" lon="9.177500767341945"><ele>149.0</ele><time>2026-04-12T13:09:52.001Z</time></trkpt><trkpt lat="45.54184275204971" lon="9.176985360362897"><ele>149.0</ele><time>2026-04-12T13:09:53.001Z</time></trkpt><trkpt lat="45.541698769774435" lon="9.17651059111044"><ele>149.0</ele><time>2026-04-12T13:09:54.001Z</time></trkpt><trkpt lat="45.541576539236615" lon="9.176056897552673"><ele>151.0</ele><time>2026-04-12T13:09:55.001Z</time></trkpt><trkpt lat="45.54145557431913" lon="9.175621769903037"><ele>153.0</ele><time>2026-04-12T13:09:56.001Z</time></trkpt><trkpt lat="45.54132907678391" lon="9.17518839411348"><ele>151.0</ele><time>2026-04-12T13:09:57.001Z</time></trkpt><trkpt lat="45.5412118480594" lon="9.174782255514081"><ele>149.0</ele><time>2026-04-12T13:09:58.001Z</time></trkpt><trkpt lat="45.54109939346629" lon="9.17438290253237"><ele>149.5</ele><time>2026-04-12T13:09:59.001Z</time></trkpt><trkpt lat="45.54098584604763" lon="9.173983140536057"><ele>150.0</ele><time>2026-04-12T13:10:00.001Z</time></trkpt><trkpt lat="45.54086677552028" lon="9.17358916589181"><ele>150.0</ele><time>2026-04-12T13:10:01.001Z</time></trkpt><trkpt lat="45.540745652477895" lon="9.17319154265404"><ele>150.0</ele><time>2026-04-12T13:10:02.001Z</time></trkpt><trkpt lat="45.540614176085796" lon="9.172794029170593"><ele>149.5</ele><time>2026-04-12T13:10:03.001Z</time></trkpt><trkpt lat="45.54047320294809" lon="9.17239390535446"><ele>149.0</ele><time>2026-04-12T13:10:04.001Z</time></trkpt><trkpt lat="45.540331703916024" lon="9.171988920497807"><ele>149.0</ele><time>2026-04-12T13:10:05.001Z</time></trkpt><trkpt lat="45.54017882212123" lon="9.17159072470412"><ele>149.0</ele><time>2026-04-12T13:10:06.001Z</time></trkpt><trkpt lat="45.54002962673306" lon="9.171193233394401"><ele>149.0</ele><time>2026-04-12T13:10:07.001Z</time></trkpt><trkpt lat="45.5398749283094" lon="9.17079730266236"><ele>149.0</ele><time>2026-04-12T13:10:08.001Z</time></trkpt><trkpt lat="45.539719529443325" lon="9.170410503586304"><ele>149.5</ele><time>2026-04-12T13:10:09.001Z</time></trkpt><trkpt lat="45.53956946872994" lon="9.170022355252996"><ele>150.0</ele><time>2026-04-12T13:10:10.001Z</time></trkpt><trkpt lat="45.539421056467596" lon="9.169642125861845"><ele>150.0</ele><time>2026-04-12T13:10:11.001Z</time></trkpt><trkpt lat="45.53927046240613" lon="9.169273996619502"><ele>150.0</ele><time>2026-04-12T13:10:12.001Z</time></trkpt><trkpt lat="45.53911791770131" lon="9.168901058319548"><ele>150.0</ele><time>2026-04-12T13:10:13.001Z</time></trkpt><trkpt lat="45.538947440484584" lon="9.16853123662734"><ele>150.0</ele><time>2026-04-12T13:10:14.001Z</time></trkpt><trkpt lat="45.53877173059787" lon="9.16816331420044"><ele>150.5</ele><time>2026-04-12T13:10:15.001Z</time></trkpt><trkpt lat="45.53860310867679" lon="9.167792093746826"><ele>151.0</ele><time>2026-04-12T13:10:16.001Z</time></trkpt><trkpt lat="45.53844232666529" lon="9.16742416310471"><ele>150.5</ele><time>2026-04-12T13:10:17.001Z</time></trkpt><trkpt lat="45.53828218370695" lon="9.167074007457115"><ele>150.0</ele><time>2026-04-12T13:10:18.001Z</time></trkpt><trkpt lat="45.53812535568826" lon="9.166735091382547"><ele>149.0</ele><time>2026-04-12T13:10:19.001Z</time></trkpt><trkpt lat="45.537967008639846" lon="9.166398962798473"><ele>148.0</ele><time>2026-04-12T13:10:20.001Z</time></trkpt><trkpt lat="45.537804065655976" lon="9.166066033056511"><ele>147.5</ele><time>2026-04-12T13:10:21.001Z</time></trkpt><trkpt lat="45.537637365084386" lon="9.16573609100561"><ele>147.0</ele><time>2026-04-12T13:10:22.001Z</time></trkpt><trkpt lat="45.53747628483872" lon="9.165402890505957"><ele>147.0</ele><time>2026-04-12T13:10:23.001Z</time></trkpt><trkpt lat="45.537313003419705" lon="9.165064203558254"><ele>147.0</ele><time>2026-04-12T13:10:24.001Z</time></trkpt><trkpt lat="45.53716494713668" lon="9.164739799803836"><ele>146.5</ele><time>2026-04-12T13:10:25.001Z</time></trkpt><trkpt lat="45.53700754674092" lon="9.16441043432744"><ele>146.0</ele><time>2026-04-12T13:10:26.001Z</time></trkpt><trkpt lat="45.53684856262658" lon="9.164090957315416"><ele>146.5</ele><time>2026-04-12T13:10:27.001Z</time></trkpt><trkpt lat="45.53668255173207" lon="9.163742604100847"><ele>147.0</ele><time>2026-04-12T13:10:28.001Z</time></trkpt><trkpt lat="45.53652542161588" lon="9.16341668770817"><ele>146.5</ele><time>2026-04-12T13:10:29.001Z</time></trkpt><trkpt lat="45.53637314470222" lon="9.163088074881573"><ele>146.0</ele><time>2026-04-12T13:10:30.001Z</time></trkpt><trkpt lat="45.536220134865104" lon="9.162759587852806"><ele>146.0</ele><time>2026-04-12T13:10:31.001Z</time></trkpt><trkpt lat="45.53605999355532" lon="9.162432548311354"><ele>146.0</ele><time>2026-04-12T13:10:32.001Z</time></trkpt><trkpt lat="45.5358971432346" lon="9.162105990610327"><ele>146.0</ele><time>2026-04-12T13:10:33.002Z</time></trkpt><trkpt lat="45.53573694023911" lon="9.161776831587588"><ele>146.0</ele><time>2026-04-12T13:10:34.002Z</time></trkpt><trkpt lat="45.53558006546026" lon="9.161450302790866"><ele>146.0</ele><time>2026-04-12T13:10:35.002Z</time></trkpt><trkpt lat="45.53541457702926" lon="9.16111808751111"><ele>146.0</ele><time>2026-04-12T13:10:36.002Z</time></trkpt><trkpt lat="45.535255504921736" lon="9.160784088953248"><ele>147.0</ele><time>2026-04-12T13:10:37.002Z</time></trkpt><trkpt lat="45.535094579903976" lon="9.160456137787632"><ele>148.0</ele><time>2026-04-12T13:10:38.002Z</time></trkpt><trkpt lat="45.53493273821699" lon="9.1601184349154"><ele>148.0</ele><time>2026-04-12T13:10:39.002Z</time></trkpt><trkpt lat="45.53477030513456" lon="9.159777735319793"><ele>148.0</ele><time>2026-04-12T13:10:40.002Z</time></trkpt><trkpt lat="45.534609859732875" lon="9.159442388756654"><ele>147.0</ele><time>2026-04-12T13:10:41.002Z</time></trkpt><trkpt lat="45.53445262810288" lon="9.159105561755963"><ele>146.0</ele><time>2026-04-12T13:10:42.002Z</time></trkpt><trkpt lat="45.5342904506167" lon="9.158781010773668"><ele>146.0</ele><time>2026-04-12T13:10:43.002Z</time></trkpt><trkpt lat="45.53414864823836" lon="9.158451970188937"><ele>146.0</ele><time>2026-04-12T13:10:44.002Z</time></trkpt><trkpt lat="45.53398990509312" lon="9.158111888768007"><ele>146.5</ele><time>2026-04-12T13:10:45.002Z</time></trkpt><trkpt lat="45.5338295535453" lon="9.157776053034802"><ele>147.0</ele><time>2026-04-12T13:10:45.999Z</time></trkpt><trkpt lat="45.533672789328016" lon="9.157425635262518"><ele>146.0</ele><time>2026-04-12T13:10:46.999Z</time></trkpt><trkpt lat="45.533499346974324" lon="9.157060667858383"><ele>145.0</ele><time>2026-04-12T13:10:48Z</time></trkpt><trkpt lat="45.533329273239026" lon="9.156705606887614"><ele>146.0</ele><time>2026-04-12T13:10:49Z</time></trkpt><trkpt lat="45.533143662537555" lon="9.156319609153023"><ele>147.0</ele><time>2026-04-12T13:10:50Z</time></trkpt><trkpt lat="45.53295320905245" lon="9.155928447121681"><ele>147.5</ele><time>2026-04-12T13:10:51Z</time></trkpt><trkpt lat="45.53275486205369" lon="9.1555309317317"><ele>148.0</ele><time>2026-04-12T13:10:52Z</time></trkpt><trkpt lat="45.53255689066856" lon="9.155122814431811"><ele>147.5</ele><time>2026-04-12T13:10:53Z</time></trkpt><trkpt lat="45.53235366207157" lon="9.154716742032052"><ele>147.0</ele><time>2026-04-12T13:10:54Z</time></trkpt><trkpt lat="45.532148613450694" lon="9.154310059142777"><ele>145.5</ele><time>2026-04-12T13:10:55Z</time></trkpt><trkpt lat="45.531944478930875" lon="9.153894794270455"><ele>144.0</ele><time>2026-04-12T13:10:56Z</time></trkpt><trkpt lat="45.53174598944242" lon="9.15347496753719"><ele>144.5</ele><time>2026-04-12T13:10:57Z</time></trkpt><trkpt lat="45.531548678298" lon="9.153051176285635"><ele>145.0</ele><time>2026-04-12T13:10:58Z</time></trkpt><trkpt lat="45.531350122683826" lon="9.152629977837616"><ele>145.0</ele><time>2026-04-12T13:10:59Z</time></trkpt><trkpt lat="45.531146746273556" lon="9.15220952921606"><ele>145.0</ele><time>2026-04-12T13:11:00Z</time></trkpt><trkpt lat="45.53094499309662" lon="9.151793241605533"><ele>145.0</ele><time>2026-04-12T13:11:01Z</time></trkpt><trkpt lat="45.53074051981565" lon="9.151381905215192"><ele>145.0</ele><time>2026-04-12T13:11:02Z</time></trkpt><trkpt lat="45.53053368234306" lon="9.15096720705949"><ele>144.0</ele><time>2026-04-12T13:11:03Z</time></trkpt><trkpt lat="45.530328175723085" lon="9.150551637292224"><ele>143.0</ele><time>2026-04-12T13:11:04Z</time></trkpt><trkpt lat="45.530124120161354" lon="9.15013683650256"><ele>143.5</ele><time>2026-04-12T13:11:05Z</time></trkpt><trkpt lat="45.52992029320883" lon="9.149729260737645"><ele>144.0</ele><time>2026-04-12T13:11:06Z</time></trkpt><trkpt lat="45.5297208108271" lon="9.149327584670388"><ele>143.5</ele><time>2026-04-12T13:11:07Z</time></trkpt><trkpt lat="45.52952510198655" lon="9.148929855169264"><ele>143.0</ele><time>2026-04-12T13:11:08Z</time></trkpt><trkpt lat="45.52933009490859" lon="9.148540040233444"><ele>143.0</ele><time>2026-04-12T13:11:09Z</time></trkpt><trkpt lat="45.529140621001716" lon="9.14815563609318"><ele>143.0</ele><time>2026-04-12T13:11:10Z</time></trkpt><trkpt lat="45.528774389951714" lon="9.14740571618195"><ele>143.0</ele><time>2026-04-12T13:11:12Z</time></trkpt><trkpt lat="45.52860284898353" lon="9.14704504649287"><ele>143.0</ele><time>2026-04-12T13:11:13Z</time></trkpt><trkpt lat="45.528454854152024" lon="9.146704645554326"><ele>143.0</ele><time>2026-04-12T13:11:14Z</time></trkpt><trkpt lat="45.52827065051539" lon="9.146362599974708"><ele>143.0</ele><time>2026-04-12T13:11:15Z</time></trkpt><trkpt lat="45.528107653164525" lon="9.146013350700933"><ele>143.5</ele><time>2026-04-12T13:11:16Z</time></trkpt><trkpt lat="45.52795145669582" lon="9.145670357609635"><ele>144.0</ele><time>2026-04-12T13:11:17Z</time></trkpt><trkpt lat="45.527799251792764" lon="9.145325488085362"><ele>143.5</ele><time>2026-04-12T13:11:18Z</time></trkpt><trkpt lat="45.527650613598716" lon="9.144987348840303"><ele>143.0</ele><time>2026-04-12T13:11:19Z</time></trkpt><trkpt lat="45.52750208539128" lon="9.144667514168738"><ele>143.0</ele><time>2026-04-12T13:11:20Z</time></trkpt><trkpt lat="45.52734972257693" lon="9.144354283536204"><ele>143.0</ele><time>2026-04-12T13:11:21Z</time></trkpt><trkpt lat="45.52720759511723" lon="9.14405838591108"><ele>143.0</ele><time>2026-04-12T13:11:22Z</time></trkpt><trkpt lat="45.527071562740474" lon="9.14377494743889"><ele>143.0</ele><time>2026-04-12T13:11:23Z</time></trkpt><trkpt lat="45.52693205116908" lon="9.143493024403744"><ele>142.5</ele><time>2026-04-12T13:11:24Z</time></trkpt><trkpt lat="45.52679612555274" lon="9.143215612660223"><ele>142.0</ele><time>2026-04-12T13:11:25Z</time></trkpt><trkpt lat="45.52665567778556" lon="9.142928531898656"><ele>143.0</ele><time>2026-04-12T13:11:26Z</time></trkpt><trkpt lat="45.526512101248564" lon="9.142647560036755"><ele>144.0</ele><time>2026-04-12T13:11:27Z</time></trkpt><trkpt lat="45.526367073789054" lon="9.142360454232517"><ele>144.0</ele><time>2026-04-12T13:11:28Z</time></trkpt><trkpt lat="45.526235697795805" lon="9.142093712800207"><ele>144.0</ele><time>2026-04-12T13:11:29Z</time></trkpt><trkpt lat="45.52610497981291" lon="9.141821413763678"><ele>143.5</ele><time>2026-04-12T13:11:30Z</time></trkpt><trkpt lat="45.52597138484855" lon="9.14154987993756"><ele>143.0</ele><time>2026-04-12T13:11:31Z</time></trkpt><trkpt lat="45.525835519370574" lon="9.141271795153886"><ele>144.0</ele><time>2026-04-12T13:11:32Z</time></trkpt><trkpt lat="45.525698313915235" lon="9.14098735426627"><ele>145.0</ele><time>2026-04-12T13:11:33Z</time></trkpt><trkpt lat="45.5255655091592" lon="9.140707482469338"><ele>145.0</ele><time>2026-04-12T13:11:34Z</time></trkpt><trkpt lat="45.5254307882691" lon="9.14043350203452"><ele>145.0</ele><time>2026-04-12T13:11:35Z</time></trkpt><trkpt lat="45.525294923369266" lon="9.140153303592339"><ele>144.0</ele><time>2026-04-12T13:11:36Z</time></trkpt><trkpt lat="45.525160799273394" lon="9.13987252347373"><ele>143.0</ele><time>2026-04-12T13:11:37Z</time></trkpt><trkpt lat="45.52502252318666" lon="9.139584712818834"><ele>143.0</ele><time>2026-04-12T13:11:38Z</time></trkpt><trkpt lat="45.52487992973262" lon="9.139300595654081"><ele>143.0</ele><time>2026-04-12T13:11:39Z</time></trkpt><trkpt lat="45.52473963775804" lon="9.139008928778724"><ele>143.0</ele><time>2026-04-12T13:11:40.001Z</time></trkpt><trkpt lat="45.52460110844508" lon="9.138727431429134"><ele>143.0</ele><time>2026-04-12T13:11:41.001Z</time></trkpt><trkpt lat="45.52446610596582" lon="9.138446256599524"><ele>142.5</ele><time>2026-04-12T13:11:42.001Z</time></trkpt><trkpt lat="45.52432982537743" lon="9.138162064311667"><ele>142.0</ele><time>2026-04-12T13:11:43.001Z</time></trkpt><trkpt lat="45.52419327305824" lon="9.13787192155713"><ele>142.0</ele><time>2026-04-12T13:11:44.001Z</time></trkpt><trkpt lat="45.52405635000222" lon="9.137586519099877"><ele>142.0</ele><time>2026-04-12T13:11:45.001Z</time></trkpt><trkpt lat="45.52392388298328" lon="9.13730534219316"><ele>142.0</ele><time>2026-04-12T13:11:46.001Z</time></trkpt><trkpt lat="45.52379072987295" lon="9.13702246088017"><ele>142.0</ele><time>2026-04-12T13:11:47.001Z</time></trkpt><trkpt lat="45.52366310832939" lon="9.136744351172606"><ele>142.0</ele><time>2026-04-12T13:11:48.001Z</time></trkpt><trkpt lat="45.52353917895433" lon="9.136467127963158"><ele>142.0</ele><time>2026-04-12T13:11:49.001Z</time></trkpt><trkpt lat="45.52341272282698" lon="9.136188549162085"><ele>142.0</ele><time>2026-04-12T13:11:50.001Z</time></trkpt><trkpt lat="45.52328511372289" lon="9.13590555876843"><ele>142.0</ele><time>2026-04-12T13:11:51.001Z</time></trkpt><trkpt lat="45.52315993983152" lon="9.13563374365229"><ele>142.33333333333334</ele><time>2026-04-12T13:11:52.001Z</time></trkpt><trkpt lat="45.523035955799266" lon="9.135373272760269"><ele>142.66666666666666</ele><time>2026-04-12T13:11:53.001Z</time></trkpt><trkpt lat="45.52291328431975" lon="9.135120895500599"><ele>143.0</ele><time>2026-04-12T13:11:54.001Z</time></trkpt><trkpt lat="45.52278380305016" lon="9.13486264961016"><ele>143.0</ele><time>2026-04-12T13:11:55.001Z</time></trkpt><trkpt lat="45.52264812084125" lon="9.134594007669671"><ele>143.0</ele><time>2026-04-12T13:11:56.001Z</time></trkpt><trkpt lat="45.522510639295255" lon="9.13431564477355"><ele>141.5</ele><time>2026-04-12T13:11:57.001Z</time></trkpt><trkpt lat="45.52238871502323" lon="9.13402447299548"><ele>140.0</ele><time>2026-04-12T13:11:58.001Z</time></trkpt><trkpt lat="45.52223635528149" lon="9.133754277834486"><ele>140.0</ele><time>2026-04-12T13:11:59.001Z</time></trkpt><trkpt lat="45.52209031894422" lon="9.133475826481018"><ele>140.0</ele><time>2026-04-12T13:12:00.001Z</time></trkpt><trkpt lat="45.52194604070324" lon="9.133185247388047"><ele>140.0</ele><time>2026-04-12T13:12:01.001Z</time></trkpt><trkpt lat="45.52179512125149" lon="9.13289156365636"><ele>140.0</ele><time>2026-04-12T13:12:02.001Z</time></trkpt><trkpt lat="45.52164586747873" lon="9.132596351750777"><ele>140.0</ele><time>2026-04-12T13:12:03.001Z</time></trkpt><trkpt lat="45.52150956204001" lon="9.1323083408769"><ele>140.0</ele><time>2026-04-12T13:12:04.001Z</time></trkpt><trkpt lat="45.52136158982516" lon="9.132002727370438"><ele>141.0</ele><time>2026-04-12T13:12:05.001Z</time></trkpt><trkpt lat="45.52121366891948" lon="9.131700154323331"><ele>142.0</ele><time>2026-04-12T13:12:06.001Z</time></trkpt><trkpt lat="45.52106386492195" lon="9.131394740942225"><ele>142.0</ele><time>2026-04-12T13:12:07.001Z</time></trkpt><trkpt lat="45.520915154333736" lon="9.131089105177855"><ele>142.0</ele><time>2026-04-12T13:12:08.001Z</time></trkpt><trkpt lat="45.52076538864061" lon="9.130781891637826"><ele>141.5</ele><time>2026-04-12T13:12:09.001Z</time></trkpt><trkpt lat="45.52061314804417" lon="9.130473428898648"><ele>141.0</ele><time>2026-04-12T13:12:10.001Z</time></trkpt><trkpt lat="45.52046561578431" lon="9.130164548923364"><ele>140.5</ele><time>2026-04-12T13:12:11.001Z</time></trkpt><trkpt lat="45.52030861597196" lon="9.129843332781833"><ele>140.0</ele><time>2026-04-12T13:12:12.001Z</time></trkpt><trkpt lat="45.520145329516595" lon="9.129512020486997"><ele>140.0</ele><time>2026-04-12T13:12:13.001Z</time></trkpt><trkpt lat="45.51998661168769" lon="9.129170575094921"><ele>140.0</ele><time>2026-04-12T13:12:14.001Z</time></trkpt><trkpt lat="45.519819246904426" lon="9.128826860478387"><ele>139.5</ele><time>2026-04-12T13:12:15.001Z</time></trkpt><trkpt lat="45.51965118962988" lon="9.12847051245954"><ele>139.0</ele><time>2026-04-12T13:12:16.001Z</time></trkpt><trkpt lat="45.519476637606196" lon="9.128112807990323"><ele>140.0</ele><time>2026-04-12T13:12:17.001Z</time></trkpt><trkpt lat="45.519303742333875" lon="9.127764324888162"><ele>141.0</ele><time>2026-04-12T13:12:18.001Z</time></trkpt><trkpt lat="45.519143427530175" lon="9.12742891061104"><ele>141.5</ele><time>2026-04-12T13:12:19.001Z</time></trkpt><trkpt lat="45.51897653768584" lon="9.127098182392844"><ele>142.0</ele><time>2026-04-12T13:12:20.001Z</time></trkpt><trkpt lat="45.51881231218242" lon="9.126772229284583"><ele>141.5</ele><time>2026-04-12T13:12:21.001Z</time></trkpt><trkpt lat="45.51864699173566" lon="9.126475016077356"><ele>141.0</ele><time>2026-04-12T13:12:22.001Z</time></trkpt><trkpt lat="45.51848178584949" lon="9.126204251911927"><ele>141.0</ele><time>2026-04-12T13:12:23.001Z</time></trkpt><trkpt lat="45.5183175411829" lon="9.125930349931656"><ele>141.0</ele><time>2026-04-12T13:12:24.001Z</time></trkpt><trkpt lat="45.518148187148455" lon="9.125665983109807"><ele>141.5</ele><time>2026-04-12T13:12:25.001Z</time></trkpt><trkpt lat="45.51796934788948" lon="9.125397913696045"><ele>142.0</ele><time>2026-04-12T13:12:26.001Z</time></trkpt><trkpt lat="45.51778243575792" lon="9.125122004329913"><ele>140.5</ele><time>2026-04-12T13:12:27.001Z</time></trkpt><trkpt lat="45.51758854401096" lon="9.124841377442428"><ele>139.0</ele><time>2026-04-12T13:12:28.001Z</time></trkpt><trkpt lat="45.51739040518994" lon="9.124543723950167"><ele>139.0</ele><time>2026-04-12T13:12:29.001Z</time></trkpt><trkpt lat="45.51718945580642" lon="9.124237842754853"><ele>139.0</ele><time>2026-04-12T13:12:30.001Z</time></trkpt><trkpt lat="45.51698666062242" lon="9.123923202197988"><ele>138.5</ele><time>2026-04-12T13:12:31.001Z</time></trkpt><trkpt lat="45.51678458041257" lon="9.123599528533619"><ele>138.0</ele><time>2026-04-12T13:12:32.001Z</time></trkpt><trkpt lat="45.516591766640964" lon="9.123252964266486"><ele>138.5</ele><time>2026-04-12T13:12:33.001Z</time></trkpt><trkpt lat="45.51641459872249" lon="9.122871092226607"><ele>139.0</ele><time>2026-04-12T13:12:34.001Z</time></trkpt><trkpt lat="45.516244264033936" lon="9.122497943116164"><ele>139.0</ele><time>2026-04-12T13:12:35.001Z</time></trkpt><trkpt lat="45.51608542416032" lon="9.122099172693503"><ele>139.0</ele><time>2026-04-12T13:12:36.001Z</time></trkpt><trkpt lat="45.51594105160478" lon="9.121689187240547"><ele>138.0</ele><time>2026-04-12T13:12:37.002Z</time></trkpt><trkpt lat="45.51582361992978" lon="9.121269923335122"><ele>137.0</ele><time>2026-04-12T13:12:38.002Z</time></trkpt><trkpt lat="45.51572626486593" lon="9.120843589862895"><ele>138.5</ele><time>2026-04-12T13:12:39.002Z</time></trkpt><trkpt lat="45.51565457878896" lon="9.12041199515601"><ele>140.0</ele><time>2026-04-12T13:12:40.002Z</time></trkpt><trkpt lat="45.51561907923803" lon="9.119984971056024"><ele>140.0</ele><time>2026-04-12T13:12:41.002Z</time></trkpt><trkpt lat="45.51559513645019" lon="9.119544249666937"><ele>140.0</ele><time>2026-04-12T13:12:42.002Z</time></trkpt><trkpt lat="45.51558141433383" lon="9.11910112817826"><ele>138.5</ele><time>2026-04-12T13:12:43.002Z</time></trkpt><trkpt lat="45.515565383907216" lon="9.118655556678632"><ele>137.0</ele><time>2026-04-12T13:12:44.002Z</time></trkpt><trkpt lat="45.51554591021858" lon="9.118213148118796"><ele>136.5</ele><time>2026-04-12T13:12:45.002Z</time></trkpt><trkpt lat="45.51552524008142" lon="9.117773937953709"><ele>136.0</ele><time>2026-04-12T13:12:46.002Z</time></trkpt><trkpt lat="45.51550266865258" lon="9.117341216417714"><ele>136.0</ele><time>2026-04-12T13:12:47.002Z</time></trkpt><trkpt lat="45.5154813324622" lon="9.116903497988721"><ele>136.0</ele><time>2026-04-12T13:12:48.002Z</time></trkpt><trkpt lat="45.51546165583587" lon="9.116466912317048"><ele>136.0</ele><time>2026-04-12T13:12:49.002Z</time></trkpt><trkpt lat="45.51544077779094" lon="9.11602682384659"><ele>136.0</ele><time>2026-04-12T13:12:50.002Z</time></trkpt><trkpt lat="45.51542220616091" lon="9.115579896636895"><ele>135.5</ele><time>2026-04-12T13:12:51.002Z</time></trkpt><trkpt lat="45.51540415501687" lon="9.115134828490806"><ele>135.0</ele><time>2026-04-12T13:12:52Z</time></trkpt><trkpt lat="45.51538570145202" lon="9.11468750734999"><ele>136.0</ele><time>2026-04-12T13:12:53Z</time></trkpt><trkpt lat="45.51536800664063" lon="9.114236990497306"><ele>137.0</ele><time>2026-04-12T13:12:54Z</time></trkpt><trkpt lat="45.51534997701304" lon="9.11378430598292"><ele>137.0</ele><time>2026-04-12T13:12:55Z</time></trkpt><trkpt lat="45.515331181202505" lon="9.113327798533986"><ele>137.0</ele><time>2026-04-12T13:12:56Z</time></trkpt><trkpt lat="45.515308612956765" lon="9.112872616950202"><ele>137.0</ele><time>2026-04-12T13:12:57Z</time></trkpt><trkpt lat="45.51528438422617" lon="9.112404455109978"><ele>137.0</ele><time>2026-04-12T13:12:58Z</time></trkpt><trkpt lat="45.515271072318136" lon="9.111939080443511"><ele>139.5</ele><time>2026-04-12T13:12:59Z</time></trkpt><trkpt lat="45.51525074550758" lon="9.111479616184157"><ele>142.0</ele><time>2026-04-12T13:13:00Z</time></trkpt><trkpt lat="45.515233111391744" lon="9.111012805145037"><ele>142.5</ele><time>2026-04-12T13:13:01Z</time></trkpt><trkpt lat="45.51521530500736" lon="9.110537442573943"><ele>143.0</ele><time>2026-04-12T13:13:02Z</time></trkpt><trkpt lat="45.515196460549404" lon="9.110057084852397"><ele>142.0</ele><time>2026-04-12T13:13:03Z</time></trkpt><trkpt lat="45.51517618041856" lon="9.1095718231335"><ele>141.0</ele><time>2026-04-12T13:13:04Z</time></trkpt><trkpt lat="45.51515483915831" lon="9.10907794201643"><ele>141.5</ele><time>2026-04-12T13:13:05Z</time></trkpt><trkpt lat="45.5151312357354" lon="9.108580051932611"><ele>142.0</ele><time>2026-04-12T13:13:06Z</time></trkpt><trkpt lat="45.515109383946594" lon="9.10807657396621"><ele>142.0</ele><time>2026-04-12T13:13:07Z</time></trkpt><trkpt lat="45.51509079873461" lon="9.10757169150014"><ele>142.0</ele><time>2026-04-12T13:13:08Z</time></trkpt><trkpt lat="45.51507232445291" lon="9.107065648709066"><ele>141.0</ele><time>2026-04-12T13:13:09Z</time></trkpt><trkpt lat="45.51505256076371" lon="9.106555420871922"><ele>140.0</ele><time>2026-04-12T13:13:10Z</time></trkpt><trkpt lat="45.51502859365641" lon="9.10603709546174"><ele>140.5</ele><time>2026-04-12T13:13:11Z</time></trkpt><trkpt lat="45.515002936675174" lon="9.105529151577082"><ele>141.0</ele><time>2026-04-12T13:13:12Z</time></trkpt><trkpt lat="45.5149771675307" lon="9.105029505216324"><ele>141.5</ele><time>2026-04-12T13:13:13Z</time></trkpt><trkpt lat="45.51494371035587" lon="9.104556946807856"><ele>142.0</ele><time>2026-04-12T13:13:14Z</time></trkpt><trkpt lat="45.51493614792099" lon="9.10399078537367"><ele>142.5</ele><time>2026-04-12T13:13:15Z</time></trkpt><trkpt lat="45.51491711998916" lon="9.103466066096383"><ele>143.0</ele><time>2026-04-12T13:13:16Z</time></trkpt><trkpt lat="45.51490054686675" lon="9.102932810616654"><ele>142.0</ele><time>2026-04-12T13:13:17Z</time></trkpt><trkpt lat="45.5148825248312" lon="9.102412922938852"><ele>141.0</ele><time>2026-04-12T13:13:18Z</time></trkpt><trkpt lat="45.51486676015029" lon="9.101881789936732"><ele>141.5</ele><time>2026-04-12T13:13:19Z</time></trkpt><trkpt lat="45.51484614530528" lon="9.101345509414667"><ele>142.0</ele><time>2026-04-12T13:13:20Z</time></trkpt><trkpt lat="45.51482719369553" lon="9.100812327609399"><ele>142.0</ele><time>2026-04-12T13:13:21Z</time></trkpt><trkpt lat="45.51480583251383" lon="9.100279186156307"><ele>142.0</ele><time>2026-04-12T13:13:22Z</time></trkpt><trkpt lat="45.51478379364772" lon="9.099746987392564"><ele>142.5</ele><time>2026-04-12T13:13:23Z</time></trkpt><trkpt lat="45.51476056436411" lon="9.099213924724815"><ele>143.0</ele><time>2026-04-12T13:13:24Z</time></trkpt><trkpt lat="45.51473961439905" lon="9.098687502878148"><ele>142.0</ele><time>2026-04-12T13:13:25Z</time></trkpt><trkpt lat="45.51481799406643" lon="9.098160563685479"><ele>141.0</ele><time>2026-04-12T13:13:26Z</time></trkpt><trkpt lat="45.51480336790274" lon="9.097648888883269"><ele>141.5</ele><time>2026-04-12T13:13:27Z</time></trkpt><trkpt lat="45.51482419637049" lon="9.09715653048284"><ele>142.0</ele><time>2026-04-12T13:13:28Z</time></trkpt><trkpt lat="45.51486217972781" lon="9.096667416946971"><ele>142.0</ele><time>2026-04-12T13:13:29Z</time></trkpt><trkpt lat="45.514897173674626" lon="9.096170036078489"><ele>142.0</ele><time>2026-04-12T13:13:30Z</time></trkpt><trkpt lat="45.514917212252634" lon="9.095671086052906"><ele>143.0</ele><time>2026-04-12T13:13:31Z</time></trkpt><trkpt lat="45.51460894764445" lon="9.095133556830161"><ele>143.0</ele><time>2026-04-12T13:13:32Z</time></trkpt><trkpt lat="45.514585277315504" lon="9.094637958091305"><ele>143.0</ele><time>2026-04-12T13:13:33Z</time></trkpt><trkpt lat="45.51456211182379" lon="9.094147101860061"><ele>143.0</ele><time>2026-04-12T13:13:34Z</time></trkpt><trkpt lat="45.51454162803474" lon="9.093659251314497"><ele>143.0</ele><time>2026-04-12T13:13:35Z</time></trkpt><trkpt lat="45.51451533016529" lon="9.093183030992845"><ele>143.0</ele><time>2026-04-12T13:13:36Z</time></trkpt><trkpt lat="45.51448577480329" lon="9.09270927155593"><ele>143.0</ele><time>2026-04-12T13:13:37Z</time></trkpt><trkpt lat="45.51445701030018" lon="9.092241409543048"><ele>142.5</ele><time>2026-04-12T13:13:38.001Z</time></trkpt><trkpt lat="45.51442985738141" lon="9.091777315257936"><ele>142.0</ele><time>2026-04-12T13:13:39.001Z</time></trkpt><trkpt lat="45.514405941288004" lon="9.091323350004746"><ele>141.5</ele><time>2026-04-12T13:13:40.001Z</time></trkpt><trkpt lat="45.514384033050234" lon="9.090865542207482"><ele>141.0</ele><time>2026-04-12T13:13:41.001Z</time></trkpt><trkpt lat="45.51437194106239" lon="9.09039866048886"><ele>141.0</ele><time>2026-04-12T13:13:42.001Z</time></trkpt><trkpt lat="45.514358281482174" lon="9.089939136958874"><ele>141.0</ele><time>2026-04-12T13:13:43.001Z</time></trkpt><trkpt lat="45.51435158034111" lon="9.089469574596112"><ele>141.5</ele><time>2026-04-12T13:13:44.001Z</time></trkpt><trkpt lat="45.5143453345509" lon="9.08900510620646"><ele>142.0</ele><time>2026-04-12T13:13:45.001Z</time></trkpt><trkpt lat="45.51432804778144" lon="9.088533309663283"><ele>143.0</ele><time>2026-04-12T13:13:46.001Z</time></trkpt><trkpt lat="45.51430373350311" lon="9.08806339758039"><ele>144.0</ele><time>2026-04-12T13:13:47.001Z</time></trkpt><trkpt lat="45.514282556575644" lon="9.08758691400366"><ele>144.5</ele><time>2026-04-12T13:13:48.001Z</time></trkpt><trkpt lat="45.51425775304284" lon="9.0871171061141"><ele>145.0</ele><time>2026-04-12T13:13:49.001Z</time></trkpt><trkpt lat="45.51423324760635" lon="9.086647480390234"><ele>144.5</ele><time>2026-04-12T13:13:50.001Z</time></trkpt><trkpt lat="45.51420822458317" lon="9.086178622459249"><ele>144.0</ele><time>2026-04-12T13:13:51.001Z</time></trkpt><trkpt lat="45.51418508888964" lon="9.08571129100775"><ele>143.5</ele><time>2026-04-12T13:13:52.001Z</time></trkpt><trkpt lat="45.51416058672174" lon="9.085242759485512"><ele>143.0</ele><time>2026-04-12T13:13:53.001Z</time></trkpt><trkpt lat="45.51413996343777" lon="9.084771327196636"><ele>143.0</ele><time>2026-04-12T13:13:54.001Z</time></trkpt><trkpt lat="45.514121205103145" lon="9.084302651935118"><ele>143.0</ele><time>2026-04-12T13:13:55.001Z</time></trkpt><trkpt lat="45.51409908578105" lon="9.083832007350802"><ele>143.0</ele><time>2026-04-12T13:13:56.001Z</time></trkpt><trkpt lat="45.51408114359856" lon="9.0833662677583"><ele>143.0</ele><time>2026-04-12T13:13:57.001Z</time></trkpt><trkpt lat="45.51405764244236" lon="9.0829028156026"><ele>143.0</ele><time>2026-04-12T13:13:58.001Z</time></trkpt><trkpt lat="45.51403193599611" lon="9.082442733671066"><ele>143.0</ele><time>2026-04-12T13:13:59.001Z</time></trkpt><trkpt lat="45.514003937946924" lon="9.081988115386686"><ele>143.0</ele><time>2026-04-12T13:14:00.001Z</time></trkpt><trkpt lat="45.51398122776512" lon="9.081539756101423"><ele>143.0</ele><time>2026-04-12T13:14:01.001Z</time></trkpt><trkpt lat="45.513961999009844" lon="9.08109606414521"><ele>143.5</ele><time>2026-04-12T13:14:02.001Z</time></trkpt><trkpt lat="45.51394479492401" lon="9.080647468273977"><ele>144.0</ele><time>2026-04-12T13:14:03.001Z</time></trkpt><trkpt lat="45.51392347334646" lon="9.08019909863112"><ele>145.0</ele><time>2026-04-12T13:14:04.001Z</time></trkpt><trkpt lat="45.513896172584396" lon="9.079755670384218"><ele>146.0</ele><time>2026-04-12T13:14:05.001Z</time></trkpt><trkpt lat="45.51387243903658" lon="9.079303898008224"><ele>146.0</ele><time>2026-04-12T13:14:06.001Z</time></trkpt><trkpt lat="45.51384789503009" lon="9.078846888284964"><ele>146.0</ele><time>2026-04-12T13:14:07.001Z</time></trkpt><trkpt lat="45.51381937384269" lon="9.078389398159297"><ele>146.0</ele><time>2026-04-12T13:14:08.001Z</time></trkpt><trkpt lat="45.51379135106384" lon="9.077939211696698"><ele>146.0</ele><time>2026-04-12T13:14:09.001Z</time></trkpt><trkpt lat="45.51376548587973" lon="9.077501959343687"><ele>146.0</ele><time>2026-04-12T13:14:10.001Z</time></trkpt><trkpt lat="45.51374180097081" lon="9.077075353435971"><ele>146.0</ele><time>2026-04-12T13:14:11.001Z</time></trkpt><trkpt lat="45.513721053170926" lon="9.076661660032594"><ele>145.0</ele><time>2026-04-12T13:14:12.001Z</time></trkpt><trkpt lat="45.51370309393961" lon="9.076245838419725"><ele>144.0</ele><time>2026-04-12T13:14:13.001Z</time></trkpt><trkpt lat="45.513685776321545" lon="9.075837106654438"><ele>143.5</ele><time>2026-04-12T13:14:14.001Z</time></trkpt><trkpt lat="45.513666709739695" lon="9.07542773341462"><ele>143.0</ele><time>2026-04-12T13:14:15.001Z</time></trkpt><trkpt lat="45.51364515906709" lon="9.075024120262645"><ele>143.5</ele><time>2026-04-12T13:14:16.001Z</time></trkpt><trkpt lat="45.51362512456331" lon="9.074615899365954"><ele>144.0</ele><time>2026-04-12T13:14:17.001Z</time></trkpt><trkpt lat="45.5135992118316" lon="9.074201822167042"><ele>143.5</ele><time>2026-04-12T13:14:18.001Z</time></trkpt><trkpt lat="45.513573108394496" lon="9.07379129822273"><ele>143.0</ele><time>2026-04-12T13:14:19.001Z</time></trkpt><trkpt lat="45.513541478547126" lon="9.073369152356868"><ele>143.0</ele><time>2026-04-12T13:14:20.001Z</time></trkpt><trkpt lat="45.513514399736074" lon="9.072968751996592"><ele>143.0</ele><time>2026-04-12T13:14:21.001Z</time></trkpt><trkpt lat="45.51349003862206" lon="9.072550642057848"><ele>143.0</ele><time>2026-04-12T13:14:22.001Z</time></trkpt><trkpt lat="45.51345757424495" lon="9.072183380807417"><ele>143.0</ele><time>2026-04-12T13:14:23.001Z</time></trkpt><trkpt lat="45.5134294743438" lon="9.071795798731738"><ele>142.5</ele><time>2026-04-12T13:14:24.001Z</time></trkpt><trkpt lat="45.513398431666616" lon="9.07142364875815"><ele>142.0</ele><time>2026-04-12T13:14:25.001Z</time></trkpt><trkpt lat="45.513362318228474" lon="9.071037653879932"><ele>142.5</ele><time>2026-04-12T13:14:26.001Z</time></trkpt><trkpt lat="45.51331749211925" lon="9.070641163048549"><ele>143.0</ele><time>2026-04-12T13:14:27.001Z</time></trkpt><trkpt lat="45.5132741984709" lon="9.070236606700373"><ele>143.5</ele><time>2026-04-12T13:14:28.001Z</time></trkpt><trkpt lat="45.51323525866145" lon="9.069824490391195"><ele>144.0</ele><time>2026-04-12T13:14:29.001Z</time></trkpt><trkpt lat="45.51320038089189" lon="9.069409379610422"><ele>144.0</ele><time>2026-04-12T13:14:30.001Z</time></trkpt><trkpt lat="45.513170548795394" lon="9.068999987297069"><ele>144.0</ele><time>2026-04-12T13:14:31.001Z</time></trkpt><trkpt lat="45.513144101290194" lon="9.068611044263204"><ele>144.5</ele><time>2026-04-12T13:14:32.001Z</time></trkpt><trkpt lat="45.51311666208156" lon="9.06823867796395"><ele>145.0</ele><time>2026-04-12T13:14:33.001Z</time></trkpt><trkpt lat="45.513087992642674" lon="9.067889096919798"><ele>145.0</ele><time>2026-04-12T13:14:34.002Z</time></trkpt><trkpt lat="45.513057412588886" lon="9.067551088576057"><ele>145.0</ele><time>2026-04-12T13:14:35.002Z</time></trkpt><trkpt lat="45.51302864176897" lon="9.067228757252234"><ele>145.0</ele><time>2026-04-12T13:14:36.002Z</time></trkpt><trkpt lat="45.513002251553665" lon="9.066924936426604"><ele>145.0</ele><time>2026-04-12T13:14:37.002Z</time></trkpt><trkpt lat="45.51297104558824" lon="9.06662556554542"><ele>145.0</ele><time>2026-04-12T13:14:38.002Z</time></trkpt><trkpt lat="45.51294479163368" lon="9.066331652864534"><ele>145.0</ele><time>2026-04-12T13:14:39.002Z</time></trkpt><trkpt lat="45.51292337873564" lon="9.06605625583266"><ele>145.0</ele><time>2026-04-12T13:14:40.002Z</time></trkpt><trkpt lat="45.5129005400271" lon="9.065767972586126"><ele>145.0</ele><time>2026-04-12T13:14:41.002Z</time></trkpt><trkpt lat="45.51287085720865" lon="9.065503035285026"><ele>145.66666666666669</ele><time>2026-04-12T13:14:42.002Z</time></trkpt><trkpt lat="45.512838204660206" lon="9.065229718195075"><ele>146.33333333333334</ele><time>2026-04-12T13:14:43.002Z</time></trkpt><trkpt lat="45.51282212104598" lon="9.064987428021492"><ele>147.0</ele><time>2026-04-12T13:14:44.002Z</time></trkpt><trkpt lat="45.51279542439342" lon="9.064744809286205"><ele>147.0</ele><time>2026-04-12T13:14:45.002Z</time></trkpt><trkpt lat="45.51277095155697" lon="9.064509060425175"><ele>147.0</ele><time>2026-04-12T13:14:46.002Z</time></trkpt><trkpt lat="45.51274807521213" lon="9.064293075986614"><ele>147.0</ele><time>2026-04-12T13:14:47.002Z</time></trkpt><trkpt lat="45.5127265793392" lon="9.06406280906732"><ele>147.0</ele><time>2026-04-12T13:14:48.002Z</time></trkpt><trkpt lat="45.51271417350398" lon="9.063839913193197"><ele>147.0</ele><time>2026-04-12T13:14:49.002Z</time></trkpt><trkpt lat="45.512704984528874" lon="9.063642824353831"><ele>147.0</ele><time>2026-04-12T13:14:50.002Z</time></trkpt><trkpt lat="45.512697137503324" lon="9.063419889094716"><ele>147.0</ele><time>2026-04-12T13:14:51.002Z</time></trkpt><trkpt lat="45.51273249782414" lon="9.063211793013853"><ele>147.0</ele><time>2026-04-12T13:14:52.002Z</time></trkpt><trkpt lat="45.512796539387864" lon="9.063012562575633"><ele>147.0</ele><time>2026-04-12T13:14:53.002Z</time></trkpt><trkpt lat="45.512889609305944" lon="9.062834130721635"><ele>147.0</ele><time>2026-04-12T13:14:54.002Z</time></trkpt><trkpt lat="45.512971846329165" lon="9.062662782552954"><ele>147.0</ele><time>2026-04-12T13:14:55.002Z</time></trkpt><trkpt lat="45.51304274389823" lon="9.06249511675315"><ele>147.0</ele><time>2026-04-12T13:14:56.002Z</time></trkpt><trkpt lat="45.513108634818124" lon="9.06232886056615"><ele>147.0</ele><time>2026-04-12T13:14:57.002Z</time></trkpt><trkpt lat="45.51317182992102" lon="9.062176847016657"><ele>146.75</ele><time>2026-04-12T13:14:58Z</time></trkpt><trkpt lat="45.513235296051825" lon="9.062031567038591"><ele>146.5</ele><time>2026-04-12T13:14:59Z</time></trkpt><trkpt lat="45.51330067963162" lon="9.061893478405304"><ele>146.25</ele><time>2026-04-12T13:15:00Z</time></trkpt><trkpt lat="45.51338111611847" lon="9.061776049871078"><ele>146.0</ele><time>2026-04-12T13:15:01Z</time></trkpt><trkpt lat="45.51348572954194" lon="9.061710116954934"><ele>146.0</ele><time>2026-04-12T13:15:02Z</time></trkpt><trkpt lat="45.51360048040419" lon="9.061701627323098"><ele>146.0</ele><time>2026-04-12T13:15:03Z</time></trkpt><trkpt lat="45.51371376480634" lon="9.061734501983029"><ele>146.0</ele><time>2026-04-12T13:15:04Z</time></trkpt><trkpt lat="45.51382275354213" lon="9.061803228914268"><ele>146.0</ele><time>2026-04-12T13:15:05Z</time></trkpt><trkpt lat="45.5139166930443" lon="9.061919278144702"><ele>146.25</ele><time>2026-04-12T13:15:06Z</time></trkpt><trkpt lat="45.51397811250553" lon="9.062069910499718"><ele>146.5</ele><time>2026-04-12T13:15:07Z</time></trkpt><trkpt lat="45.51400636375267" lon="9.062233917305287"><ele>146.75</ele><time>2026-04-12T13:15:08Z</time></trkpt><trkpt lat="45.514011537799796" lon="9.062398291250851"><ele>147.0</ele><time>2026-04-12T13:15:09Z</time></trkpt><trkpt lat="45.51398416221747" lon="9.062561530667441"><ele>147.0</ele><time>2026-04-12T13:15:10Z</time></trkpt><trkpt lat="45.51392988583615" lon="9.062721435637583"><ele>147.0</ele><time>2026-04-12T13:15:11Z</time></trkpt><trkpt lat="45.51385644712208" lon="9.062869514942232"><ele>147.0</ele><time>2026-04-12T13:15:12Z</time></trkpt><trkpt lat="45.513769899483535" lon="9.063005125048754"><ele>147.0</ele><time>2026-04-12T13:15:13Z</time></trkpt><trkpt lat="45.51367369606101" lon="9.063118732621684"><ele>147.0</ele><time>2026-04-12T13:15:14Z</time></trkpt><trkpt lat="45.513567245376535" lon="9.063220215177463"><ele>147.0</ele><time>2026-04-12T13:15:15Z</time></trkpt><trkpt lat="45.51345117892126" lon="9.06330856127273"><ele>147.0</ele><time>2026-04-12T13:15:16Z</time></trkpt><trkpt lat="45.51332461554541" lon="9.06339634938945"><ele>147.0</ele><time>2026-04-12T13:15:17Z</time></trkpt><trkpt lat="45.5131912467624" lon="9.063477594313033"><ele>147.0</ele><time>2026-04-12T13:15:18Z</time></trkpt><trkpt lat="45.51304778709294" lon="9.063556763337115"><ele>147.0</ele><time>2026-04-12T13:15:19Z</time></trkpt><trkpt lat="45.5129044088699" lon="9.063631326091189"><ele>147.0</ele><time>2026-04-12T13:15:20Z</time></trkpt><trkpt lat="45.512762307319015" lon="9.063693156208828"><ele>147.0</ele><time>2026-04-12T13:15:21Z</time></trkpt><trkpt lat="45.51262712361516" lon="9.063746808322424"><ele>147.0</ele><time>2026-04-12T13:15:22Z</time></trkpt><trkpt lat="45.512492225478226" lon="9.06379123377157"><ele>147.0</ele><time>2026-04-12T13:15:23Z</time></trkpt><trkpt lat="45.5123567243327" lon="9.063834253568936"><ele>147.0</ele><time>2026-04-12T13:15:24Z</time></trkpt><trkpt lat="45.512227099400405" lon="9.063875137127932"><ele>147.0</ele><time>2026-04-12T13:15:25Z</time></trkpt><trkpt lat="45.512101739123594" lon="9.063910458764687"><ele>147.0</ele><time>2026-04-12T13:15:26Z</time></trkpt><trkpt lat="45.51196805476971" lon="9.063940806757625"><ele>147.0</ele><time>2026-04-12T13:15:27Z</time></trkpt><trkpt lat="45.511830007710195" lon="9.06395552439231"><ele>147.0</ele><time>2026-04-12T13:15:28Z</time></trkpt><trkpt lat="45.511689299983246" lon="9.063964958875953"><ele>147.0</ele><time>2026-04-12T13:15:29Z</time></trkpt><trkpt lat="45.51154438973589" lon="9.06396490910452"><ele>147.0</ele><time>2026-04-12T13:15:30Z</time></trkpt><trkpt lat="45.511396533614146" lon="9.063961210967669"><ele>147.0</ele><time>2026-04-12T13:15:31Z</time></trkpt><trkpt lat="45.511243506680536" lon="9.063955021648354"><ele>147.0</ele><time>2026-04-12T13:15:32Z</time></trkpt><trkpt lat="45.511086579444346" lon="9.063943057245297"><ele>147.0</ele><time>2026-04-12T13:15:33Z</time></trkpt><trkpt lat="45.510921402765405" lon="9.063919957388334"><ele>147.0</ele><time>2026-04-12T13:15:34.001Z</time></trkpt><trkpt lat="45.51074931383748" lon="9.063885393456898"><ele>147.0</ele><time>2026-04-12T13:15:35.001Z</time></trkpt><trkpt lat="45.510574026838704" lon="9.06384169151839"><ele>145.66666666666666</ele><time>2026-04-12T13:15:36.001Z</time></trkpt><trkpt lat="45.510392738857746" lon="9.063790189016164"><ele>144.33333333333331</ele><time>2026-04-12T13:15:37.001Z</time></trkpt><trkpt lat="45.51021616222704" lon="9.063731404388559"><ele>143.0</ele><time>2026-04-12T13:15:38.001Z</time></trkpt><trkpt lat="45.510043119765" lon="9.06367008586618"><ele>143.0</ele><time>2026-04-12T13:15:39.001Z</time></trkpt><trkpt lat="45.50987289204097" lon="9.063620492737993"><ele>143.0</ele><time>2026-04-12T13:15:40.001Z</time></trkpt><trkpt lat="45.50969859052871" lon="9.063568709224825"><ele>143.0</ele><time>2026-04-12T13:15:41.001Z</time></trkpt><trkpt lat="45.509527517374636" lon="9.063536384880443"><ele>144.0</ele><time>2026-04-12T13:15:42.001Z</time></trkpt><trkpt lat="45.50935795444245" lon="9.063497535516655"><ele>145.0</ele><time>2026-04-12T13:15:43.001Z</time></trkpt><trkpt lat="45.5091909931277" lon="9.063459338398241"><ele>146.0</ele><time>2026-04-12T13:15:44.001Z</time></trkpt><trkpt lat="45.50902754403543" lon="9.063436640026787"><ele>146.0</ele><time>2026-04-12T13:15:45.001Z</time></trkpt><trkpt lat="45.50884081134687" lon="9.06340187728634"><ele>146.0</ele><time>2026-04-12T13:15:46.001Z</time></trkpt><trkpt lat="45.508652138756844" lon="9.063391906306949"><ele>146.0</ele><time>2026-04-12T13:15:47.001Z</time></trkpt><trkpt lat="45.5084607079543" lon="9.063403972653932"><ele>146.0</ele><time>2026-04-12T13:15:48.001Z</time></trkpt><trkpt lat="45.50827400008218" lon="9.063456885636695"><ele>146.0</ele><time>2026-04-12T13:15:49.001Z</time></trkpt><trkpt lat="45.508089491873434" lon="9.063497861383192"><ele>146.0</ele><time>2026-04-12T13:15:50.001Z</time></trkpt><trkpt lat="45.50789304243918" lon="9.063541538448694"><ele>145.0</ele><time>2026-04-12T13:15:51.001Z</time></trkpt><trkpt lat="45.507704978805826" lon="9.063587576917019"><ele>144.0</ele><time>2026-04-12T13:15:52.001Z</time></trkpt><trkpt lat="45.507519394161235" lon="9.063630795527075"><ele>143.0</ele><time>2026-04-12T13:15:53.001Z</time></trkpt><trkpt lat="45.507339867071686" lon="9.063675022584809"><ele>143.0</ele><time>2026-04-12T13:15:54.001Z</time></trkpt><trkpt lat="45.507164860833896" lon="9.063733060532606"><ele>143.0</ele><time>2026-04-12T13:15:55.001Z</time></trkpt><trkpt lat="45.50698949884543" lon="9.063788370013668"><ele>143.0</ele><time>2026-04-12T13:15:56.001Z</time></trkpt><trkpt lat="45.50681666536675" lon="9.063851218617186"><ele>143.0</ele><time>2026-04-12T13:15:57.001Z</time></trkpt><trkpt lat="45.50665836394196" lon="9.063915633995899"><ele>143.0</ele><time>2026-04-12T13:15:58.001Z</time></trkpt><trkpt lat="45.50650607817772" lon="9.063982901644781"><ele>143.0</ele><time>2026-04-12T13:15:59.001Z</time></trkpt><trkpt lat="45.50635579853942" lon="9.064056957486285"><ele>143.33333333333331</ele><time>2026-04-12T13:16:00.001Z</time></trkpt><trkpt lat="45.50620519080362" lon="9.064137669099106"><ele>143.66666666666666</ele><time>2026-04-12T13:16:01.001Z</time></trkpt><trkpt lat="45.50605122289149" lon="9.064228289762452"><ele>144.0</ele><time>2026-04-12T13:16:02.001Z</time></trkpt><trkpt lat="45.505898501616585" lon="9.064320567232441"><ele>144.0</ele><time>2026-04-12T13:16:03.001Z</time></trkpt><trkpt lat="45.505742203773345" lon="9.0644234316136"><ele>144.0</ele><time>2026-04-12T13:16:04.001Z</time></trkpt><trkpt lat="45.50558187667067" lon="9.064531043766156"><ele>144.0</ele><time>2026-04-12T13:16:05.001Z</time></trkpt><trkpt lat="45.50540999546906" lon="9.064633721120545"><ele>143.0</ele><time>2026-04-12T13:16:06.001Z</time></trkpt><trkpt lat="45.50522536369902" lon="9.064737729478745"><ele>142.0</ele><time>2026-04-12T13:16:07.001Z</time></trkpt><trkpt lat="45.50503168486161" lon="9.064851488873664"><ele>141.0</ele><time>2026-04-12T13:16:08.001Z</time></trkpt><trkpt lat="45.50482918722177" lon="9.064959082736683"><ele>141.0</ele><time>2026-04-12T13:16:09.001Z</time></trkpt><trkpt lat="45.504622277659344" lon="9.065065841011476"><ele>141.0</ele><time>2026-04-12T13:16:10.001Z</time></trkpt><trkpt lat="45.504405323994234" lon="9.065181334662357"><ele>140.0</ele><time>2026-04-12T13:16:11.001Z</time></trkpt><trkpt lat="45.504168395490794" lon="9.065302840650121"><ele>139.0</ele><time>2026-04-12T13:16:12.001Z</time></trkpt><trkpt lat="45.503930797914734" lon="9.065416672549668"><ele>140.5</ele><time>2026-04-12T13:16:13.001Z</time></trkpt><trkpt lat="45.50367634777077" lon="9.065535336398238"><ele>142.0</ele><time>2026-04-12T13:16:14.001Z</time></trkpt><trkpt lat="45.503408940036046" lon="9.065650916396175"><ele>142.0</ele><time>2026-04-12T13:16:15.001Z</time></trkpt><trkpt lat="45.50313725136044" lon="9.06576909831508"><ele>142.0</ele><time>2026-04-12T13:16:16.001Z</time></trkpt><trkpt lat="45.502847102293124" lon="9.065893766396952"><ele>141.5</ele><time>2026-04-12T13:16:17.001Z</time></trkpt><trkpt lat="45.502553881148344" lon="9.066017116412564"><ele>141.0</ele><time>2026-04-12T13:16:18.001Z</time></trkpt><trkpt lat="45.50227291004997" lon="9.066137065119955"><ele>139.5</ele><time>2026-04-12T13:16:19.001Z</time></trkpt><trkpt lat="45.501985480803235" lon="9.06626004995645"><ele>138.0</ele><time>2026-04-12T13:16:20.001Z</time></trkpt><trkpt lat="45.50168954436749" lon="9.066382370673967"><ele>138.0</ele><time>2026-04-12T13:16:21.001Z</time></trkpt><trkpt lat="45.50138685903972" lon="9.06648729161579"><ele>138.0</ele><time>2026-04-12T13:16:22.001Z</time></trkpt><trkpt lat="45.50107669256705" lon="9.066573150427223"><ele>137.5</ele><time>2026-04-12T13:16:23.001Z</time></trkpt><trkpt lat="45.50076493649606" lon="9.066646944987843"><ele>137.0</ele><time>2026-04-12T13:16:24.001Z</time></trkpt><trkpt lat="45.500448701746485" lon="9.066704828563642"><ele>137.5</ele><time>2026-04-12T13:16:25.001Z</time></trkpt><trkpt lat="45.500130705367134" lon="9.06674715748185"><ele>138.0</ele><time>2026-04-12T13:16:26.001Z</time></trkpt><trkpt lat="45.49981237422958" lon="9.066774383537203"><ele>136.5</ele><time>2026-04-12T13:16:27.001Z</time></trkpt><trkpt lat="45.49948869721199" lon="9.066789882255833"><ele>135.0</ele><time>2026-04-12T13:16:28.001Z</time></trkpt><trkpt lat="45.4991585802851" lon="9.06679834819747"><ele>137.0</ele><time>2026-04-12T13:16:29.001Z</time></trkpt><trkpt lat="45.497469740982304" lon="9.06675784549471"><ele>136.0</ele><time>2026-04-12T13:16:34.002Z</time></trkpt><trkpt lat="45.4960944505082" lon="9.066846840544917"><ele>136.0</ele><time>2026-04-12T13:16:38.002Z</time></trkpt><trkpt lat="45.49576851644829" lon="9.066671407849766"><ele>136.0</ele><time>2026-04-12T13:16:39.002Z</time></trkpt><trkpt lat="45.495422962241165" lon="9.066656391329442"><ele>135.5</ele><time>2026-04-12T13:16:40.002Z</time></trkpt><trkpt lat="45.49507774992917" lon="9.06664651491506"><ele>135.0</ele><time>2026-04-12T13:16:41.002Z</time></trkpt><trkpt lat="45.49473275422807" lon="9.066630158456913"><ele>135.0</ele><time>2026-04-12T13:16:42.002Z</time></trkpt><trkpt lat="45.49438173412048" lon="9.066613535112214"><ele>135.0</ele><time>2026-04-12T13:16:43.002Z</time></trkpt><trkpt lat="45.49402915997364" lon="9.066605917355627"><ele>135.5</ele><time>2026-04-12T13:16:44.002Z</time></trkpt><trkpt lat="45.493678137991324" lon="9.066590832566668"><ele>136.0</ele><time>2026-04-12T13:16:45.002Z</time></trkpt><trkpt lat="45.493323568797216" lon="9.066580021019332"><ele>136.0</ele><time>2026-04-12T13:16:46.002Z</time></trkpt><trkpt lat="45.49296928394301" lon="9.066565853145713"><ele>136.0</ele><time>2026-04-12T13:16:47.002Z</time></trkpt><trkpt lat="45.49261263277831" lon="9.066552572286286"><ele>135.0</ele><time>2026-04-12T13:16:48.002Z</time></trkpt><trkpt lat="45.492259653120506" lon="9.066541472481475"><ele>134.0</ele><time>2026-04-12T13:16:49.002Z</time></trkpt><trkpt lat="45.49190993013258" lon="9.066526186153675"><ele>134.0</ele><time>2026-04-12T13:16:50.002Z</time></trkpt><trkpt lat="45.49156631775805" lon="9.066511788441115"><ele>134.0</ele><time>2026-04-12T13:16:51.002Z</time></trkpt><trkpt lat="45.491228092881556" lon="9.066503434075871"><ele>134.0</ele><time>2026-04-12T13:16:52.002Z</time></trkpt><trkpt lat="45.49089089024522" lon="9.066501312469267"><ele>134.0</ele><time>2026-04-12T13:16:53.002Z</time></trkpt><trkpt lat="45.49055913998613" lon="9.066509993867546"><ele>134.0</ele><time>2026-04-12T13:16:54.002Z</time></trkpt><trkpt lat="45.490229405813594" lon="9.06654256090092"><ele>134.0</ele><time>2026-04-12T13:16:55.002Z</time></trkpt><trkpt lat="45.48990162181138" lon="9.066587137359232"><ele>135.0</ele><time>2026-04-12T13:16:56.002Z</time></trkpt><trkpt lat="45.4895753014332" lon="9.066645452480305"><ele>136.0</ele><time>2026-04-12T13:16:57.002Z</time></trkpt><trkpt lat="45.4892535319744" lon="9.066717532112774"><ele>136.0</ele><time>2026-04-12T13:16:58.002Z</time></trkpt><trkpt lat="45.48893808873872" lon="9.06680461317121"><ele>136.0</ele><time>2026-04-12T13:16:59.002Z</time></trkpt><trkpt lat="45.48862650002919" lon="9.066905431062795"><ele>136.0</ele><time>2026-04-12T13:17:00.002Z</time></trkpt><trkpt lat="45.488313045564915" lon="9.067019510367798"><ele>136.0</ele><time>2026-04-12T13:17:01.002Z</time></trkpt><trkpt lat="45.48800782611143" lon="9.06715799664629"><ele>136.0</ele><time>2026-04-12T13:17:02.002Z</time></trkpt><trkpt lat="45.48769972550335" lon="9.067303943025738"><ele>136.0</ele><time>2026-04-12T13:17:03.002Z</time></trkpt><trkpt lat="45.48739611581915" lon="9.067457035781564"><ele>135.0</ele><time>2026-04-12T13:17:03.999Z</time></trkpt><trkpt lat="45.48708893765284" lon="9.067625168758992"><ele>134.0</ele><time>2026-04-12T13:17:04.999Z</time></trkpt><trkpt lat="45.48679649875045" lon="9.067798836770912"><ele>134.0</ele><time>2026-04-12T13:17:05.999Z</time></trkpt><trkpt lat="45.48650543150853" lon="9.067989612668157"><ele>134.0</ele><time>2026-04-12T13:17:06.999Z</time></trkpt><trkpt lat="45.48621457482112" lon="9.06819143200108"><ele>133.0</ele><time>2026-04-12T13:17:07.999Z</time></trkpt><trkpt lat="45.4859238654664" lon="9.068407711376684"><ele>132.0</ele><time>2026-04-12T13:17:08.999Z</time></trkpt><trkpt lat="45.485639648283716" lon="9.068640780186445"><ele>131.5</ele><time>2026-04-12T13:17:09.999Z</time></trkpt><trkpt lat="45.485361234454935" lon="9.068879365282585"><ele>131.0</ele><time>2026-04-12T13:17:10.999Z</time></trkpt><trkpt lat="45.48509127604695" lon="9.06912722290617"><ele>131.0</ele><time>2026-04-12T13:17:11.999Z</time></trkpt><trkpt lat="45.48482456871831" lon="9.069381146344345"><ele>131.0</ele><time>2026-04-12T13:17:12.999Z</time></trkpt><trkpt lat="45.48456590170043" lon="9.069633813455033"><ele>131.0</ele><time>2026-04-12T13:17:13.999Z</time></trkpt><trkpt lat="45.484317358022366" lon="9.06987885700096"><ele>131.0</ele><time>2026-04-12T13:17:14.999Z</time></trkpt><trkpt lat="45.4840705985015" lon="9.070112755602928"><ele>130.0</ele><time>2026-04-12T13:17:15.999Z</time></trkpt><trkpt lat="45.48383292423024" lon="9.070339049669741"><ele>129.0</ele><time>2026-04-12T13:17:16.999Z</time></trkpt><trkpt lat="45.483601763662286" lon="9.07056038508437"><ele>129.0</ele><time>2026-04-12T13:17:17.999Z</time></trkpt><trkpt lat="45.48338400666774" lon="9.070761266828722"><ele>129.0</ele><time>2026-04-12T13:17:18.999Z</time></trkpt><trkpt lat="45.4831664243349" lon="9.070960345272514"><ele>129.5</ele><time>2026-04-12T13:17:19.999Z</time></trkpt><trkpt lat="45.48294223304761" lon="9.071161125293568"><ele>130.0</ele><time>2026-04-12T13:17:20.999Z</time></trkpt><trkpt lat="45.4827166832162" lon="9.071365905691462"><ele>130.0</ele><time>2026-04-12T13:17:21.999Z</time></trkpt><trkpt lat="45.48248838308371" lon="9.071576587886385"><ele>130.0</ele><time>2026-04-12T13:17:22.999Z</time></trkpt><trkpt lat="45.48225838198898" lon="9.07178783650452"><ele>130.0</ele><time>2026-04-12T13:17:23.999Z</time></trkpt><trkpt lat="45.48202601063521" lon="9.071996586363205"><ele>130.0</ele><time>2026-04-12T13:17:25Z</time></trkpt><trkpt lat="45.48178576188368" lon="9.072212765782977"><ele>130.0</ele><time>2026-04-12T13:17:26Z</time></trkpt><trkpt lat="45.48154776560569" lon="9.072432088976095"><ele>130.0</ele><time>2026-04-12T13:17:27Z</time></trkpt><trkpt lat="45.48130633463661" lon="9.072659701383435"><ele>129.5</ele><time>2026-04-12T13:17:28Z</time></trkpt><trkpt lat="45.48106621534857" lon="9.072890344585666"><ele>129.0</ele><time>2026-04-12T13:17:29Z</time></trkpt><trkpt lat="45.48082384685324" lon="9.073123549505084"><ele>129.0</ele><time>2026-04-12T13:17:30Z</time></trkpt><trkpt lat="45.48057665124364" lon="9.07335772934714"><ele>129.0</ele><time>2026-04-12T13:17:31Z</time></trkpt><trkpt lat="45.48033095455548" lon="9.07358992259236"><ele>130.5</ele><time>2026-04-12T13:17:32Z</time></trkpt><trkpt lat="45.48008443627177" lon="9.07382310418023"><ele>132.0</ele><time>2026-04-12T13:17:33Z</time></trkpt><trkpt lat="45.47983637369867" lon="9.074064255840353"><ele>133.0</ele><time>2026-04-12T13:17:34Z</time></trkpt><trkpt lat="45.479590479502455" lon="9.074299992460972"><ele>134.0</ele><time>2026-04-12T13:17:35Z</time></trkpt><trkpt lat="45.47934235932431" lon="9.074539443181916"><ele>134.0</ele><time>2026-04-12T13:17:36Z</time></trkpt><trkpt lat="45.47909348473886" lon="9.07477597515966"><ele>134.0</ele><time>2026-04-12T13:17:37Z</time></trkpt><trkpt lat="45.47884759261072" lon="9.075012527613932"><ele>133.0</ele><time>2026-04-12T13:17:38Z</time></trkpt><trkpt lat="45.478597013702476" lon="9.075250526761943"><ele>132.0</ele><time>2026-04-12T13:17:39Z</time></trkpt><trkpt lat="45.478350531852286" lon="9.075484331610337"><ele>132.0</ele><time>2026-04-12T13:17:40Z</time></trkpt><trkpt lat="45.47810588060927" lon="9.075718067998366"><ele>132.0</ele><time>2026-04-12T13:17:41Z</time></trkpt><trkpt lat="45.477863801399636" lon="9.075949277385618"><ele>131.5</ele><time>2026-04-12T13:17:42Z</time></trkpt><trkpt lat="45.47762110061172" lon="9.076185101354096"><ele>131.0</ele><time>2026-04-12T13:17:43Z</time></trkpt><trkpt lat="45.47738094338819" lon="9.076415950649528"><ele>131.0</ele><time>2026-04-12T13:17:44Z</time></trkpt><trkpt lat="45.47714350599407" lon="9.076645147090602"><ele>131.0</ele><time>2026-04-12T13:17:45Z</time></trkpt><trkpt lat="45.47690437386034" lon="9.076873242898055"><ele>130.5</ele><time>2026-04-12T13:17:46Z</time></trkpt><trkpt lat="45.476665551242256" lon="9.077106938512152"><ele>130.0</ele><time>2026-04-12T13:17:47Z</time></trkpt><trkpt lat="45.47642592576139" lon="9.0773358897102"><ele>130.5</ele><time>2026-04-12T13:17:48Z</time></trkpt><trkpt lat="45.476184884713234" lon="9.0775628117206"><ele>131.0</ele><time>2026-04-12T13:17:49Z</time></trkpt><trkpt lat="45.47594427129872" lon="9.077791594415926"><ele>131.0</ele><time>2026-04-12T13:17:50Z</time></trkpt><trkpt lat="45.475707776205745" lon="9.078016390565258"><ele>131.0</ele><time>2026-04-12T13:17:51Z</time></trkpt><trkpt lat="45.475468231582035" lon="9.078244928359737"><ele>131.5</ele><time>2026-04-12T13:17:52Z</time></trkpt><trkpt lat="45.475229692517374" lon="9.078464164313687"><ele>132.0</ele><time>2026-04-12T13:17:53Z</time></trkpt><trkpt lat="45.474989200181746" lon="9.07867095911678"><ele>132.0</ele><time>2026-04-12T13:17:54Z</time></trkpt><trkpt lat="45.47474525938253" lon="9.078875139801719"><ele>132.0</ele><time>2026-04-12T13:17:55Z</time></trkpt><trkpt lat="45.47449274560528" lon="9.079032671671767"><ele>131.0</ele><time>2026-04-12T13:17:56Z</time></trkpt><trkpt lat="45.47423723530593" lon="9.079172712350708"><ele>130.0</ele><time>2026-04-12T13:17:57Z</time></trkpt><trkpt lat="45.473976383016506" lon="9.079296654786328"><ele>130.0</ele><time>2026-04-12T13:17:58Z</time></trkpt><trkpt lat="45.47371269099629" lon="9.079396290476446"><ele>130.0</ele><time>2026-04-12T13:17:59Z</time></trkpt><trkpt lat="45.4734449857462" lon="9.079483865564134"><ele>130.0</ele><time>2026-04-12T13:18:00Z</time></trkpt><trkpt lat="45.473171611228025" lon="9.079553391322182"><ele>130.0</ele><time>2026-04-12T13:18:01Z</time></trkpt><trkpt lat="45.4728932980537" lon="9.07960957139634"><ele>129.0</ele><time>2026-04-12T13:18:02Z</time></trkpt><trkpt lat="45.47261044196149" lon="9.079651536954186"><ele>128.0</ele><time>2026-04-12T13:18:03Z</time></trkpt><trkpt lat="45.47232060880302" lon="9.079655921316046"><ele>128.0</ele><time>2026-04-12T13:18:04Z</time></trkpt><trkpt lat="45.472031307140476" lon="9.079630463475869"><ele>128.0</ele><time>2026-04-12T13:18:05Z</time></trkpt><trkpt lat="45.47174200318004" lon="9.0795861833865"><ele>128.0</ele><time>2026-04-12T13:18:06Z</time></trkpt><trkpt lat="45.47145677529938" lon="9.079521877343659"><ele>128.0</ele><time>2026-04-12T13:18:07.001Z</time></trkpt><trkpt lat="45.47117116634827" lon="9.07943357181907"><ele>128.0</ele><time>2026-04-12T13:18:08.001Z</time></trkpt><trkpt lat="45.47089027119225" lon="9.079324622163625"><ele>128.0</ele><time>2026-04-12T13:18:09.001Z</time></trkpt><trkpt lat="45.47060987728355" lon="9.07919951922447"><ele>128.0</ele><time>2026-04-12T13:18:10.001Z</time></trkpt><trkpt lat="45.47033395446205" lon="9.07905425372784"><ele>128.0</ele><time>2026-04-12T13:18:11.001Z</time></trkpt><trkpt lat="45.470064792363495" lon="9.078895600623653"><ele>128.0</ele><time>2026-04-12T13:18:12.001Z</time></trkpt><trkpt lat="45.46979660274459" lon="9.078736222144887"><ele>128.0</ele><time>2026-04-12T13:18:13.001Z</time></trkpt><trkpt lat="45.469531660698344" lon="9.078579583684574"><ele>129.0</ele><time>2026-04-12T13:18:14.001Z</time></trkpt><trkpt lat="45.46927522522679" lon="9.078429033784598"><ele>130.0</ele><time>2026-04-12T13:18:15.001Z</time></trkpt><trkpt lat="45.46902446053188" lon="9.078282120011709"><ele>128.5</ele><time>2026-04-12T13:18:16.001Z</time></trkpt><trkpt lat="45.46877427228377" lon="9.07813386205598"><ele>127.0</ele><time>2026-04-12T13:18:17.001Z</time></trkpt><trkpt lat="45.46852136399835" lon="9.077990979813334"><ele>127.0</ele><time>2026-04-12T13:18:18.001Z</time></trkpt><trkpt lat="45.46826836188771" lon="9.07785318328284"><ele>127.0</ele><time>2026-04-12T13:18:19.001Z</time></trkpt><trkpt lat="45.468018350817445" lon="9.07771034448902"><ele>126.5</ele><time>2026-04-12T13:18:20.001Z</time></trkpt><trkpt lat="45.46777172465588" lon="9.077571821872294"><ele>126.0</ele><time>2026-04-12T13:18:21.001Z</time></trkpt><trkpt lat="45.46752601544484" lon="9.07743308870018"><ele>126.0</ele><time>2026-04-12T13:18:22.001Z</time></trkpt><trkpt lat="45.46727762176133" lon="9.07729263188706"><ele>126.0</ele><time>2026-04-12T13:18:23.001Z</time></trkpt><trkpt lat="45.467027694008074" lon="9.077140196151728"><ele>127.0</ele><time>2026-04-12T13:18:24.001Z</time></trkpt><trkpt lat="45.4667741049174" lon="9.076987570920148"><ele>128.0</ele><time>2026-04-12T13:18:25.001Z</time></trkpt><trkpt lat="45.466515048158" lon="9.076840485089061"><ele>127.5</ele><time>2026-04-12T13:18:26.001Z</time></trkpt><trkpt lat="45.46625568562541" lon="9.076692626753175"><ele>127.0</ele><time>2026-04-12T13:18:27.001Z</time></trkpt><trkpt lat="45.46599097339698" lon="9.076558569045313"><ele>127.0</ele><time>2026-04-12T13:18:28.001Z</time></trkpt><trkpt lat="45.465725792038555" lon="9.076441184810458"><ele>127.0</ele><time>2026-04-12T13:18:29.001Z</time></trkpt><trkpt lat="45.46545848951706" lon="9.076340313999467"><ele>128.5</ele><time>2026-04-12T13:18:30.001Z</time></trkpt><trkpt lat="45.465192157091934" lon="9.076257333931311"><ele>130.0</ele><time>2026-04-12T13:18:31.001Z</time></trkpt><trkpt lat="45.464922589032206" lon="9.076189101152869"><ele>130.0</ele><time>2026-04-12T13:18:32.001Z</time></trkpt><trkpt lat="45.4646571591235" lon="9.076131890603664"><ele>130.0</ele><time>2026-04-12T13:18:33.001Z</time></trkpt><trkpt lat="45.46439383491764" lon="9.076096617624735"><ele>130.0</ele><time>2026-04-12T13:18:34.001Z</time></trkpt><trkpt lat="45.46412889370242" lon="9.076080979011067"><ele>130.0</ele><time>2026-04-12T13:18:35.001Z</time></trkpt><trkpt lat="45.46386051839731" lon="9.076080351630264"><ele>129.5</ele><time>2026-04-12T13:18:36.001Z</time></trkpt><trkpt lat="45.46358539457594" lon="9.076087383458319"><ele>129.0</ele><time>2026-04-12T13:18:37.001Z</time></trkpt><trkpt lat="45.46330545873475" lon="9.076106278392153"><ele>129.0</ele><time>2026-04-12T13:18:38.001Z</time></trkpt><trkpt lat="45.46302479142545" lon="9.076135177737147"><ele>129.0</ele><time>2026-04-12T13:18:39.001Z</time></trkpt><trkpt lat="45.46274279997651" lon="9.076177409961465"><ele>128.0</ele><time>2026-04-12T13:18:40.001Z</time></trkpt><trkpt lat="45.462455049038525" lon="9.076239100600459"><ele>127.0</ele><time>2026-04-12T13:18:41.001Z</time></trkpt><trkpt lat="45.46216359389342" lon="9.076312745373539"><ele>126.5</ele><time>2026-04-12T13:18:42.001Z</time></trkpt><trkpt lat="45.461870475404275" lon="9.076394880427017"><ele>126.0</ele><time>2026-04-12T13:18:43.001Z</time></trkpt><trkpt lat="45.4615717660652" lon="9.076479182637522"><ele>125.5</ele><time>2026-04-12T13:18:44.001Z</time></trkpt><trkpt lat="45.46127065782799" lon="9.076559028653506"><ele>125.0</ele><time>2026-04-12T13:18:45.001Z</time></trkpt><trkpt lat="45.4609655345362" lon="9.076637810194725"><ele>126.0</ele><time>2026-04-12T13:18:46.001Z</time></trkpt><trkpt lat="45.46066090843216" lon="9.07671991022635"><ele>127.0</ele><time>2026-04-12T13:18:47.001Z</time></trkpt><trkpt lat="45.460353008339986" lon="9.076806274984985"><ele>127.0</ele><time>2026-04-12T13:18:48.001Z</time></trkpt><trkpt lat="45.46004175136355" lon="9.076894050316845"><ele>127.0</ele><time>2026-04-12T13:18:49.001Z</time></trkpt><trkpt lat="45.45972811721003" lon="9.076979979583212"><ele>127.0</ele><time>2026-04-12T13:18:50.001Z</time></trkpt><trkpt lat="45.459415765637964" lon="9.077064763234127"><ele>127.0</ele><time>2026-04-12T13:18:51.001Z</time></trkpt><trkpt lat="45.45910515649879" lon="9.077147939062069"><ele>127.0</ele><time>2026-04-12T13:18:52.001Z</time></trkpt><trkpt lat="45.458800994623395" lon="9.077229267872113"><ele>127.0</ele><time>2026-04-12T13:18:53.001Z</time></trkpt><trkpt lat="45.45849587107968" lon="9.07730579703637"><ele>127.5</ele><time>2026-04-12T13:18:54.001Z</time></trkpt><trkpt lat="45.458188245545195" lon="9.077371931506418"><ele>128.0</ele><time>2026-04-12T13:18:55.001Z</time></trkpt><trkpt lat="45.45788091064855" lon="9.077416379089092"><ele>126.5</ele><time>2026-04-12T13:18:56.001Z</time></trkpt><trkpt lat="45.45757131720314" lon="9.07744854288276"><ele>125.0</ele><time>2026-04-12T13:18:57.001Z</time></trkpt><trkpt lat="45.45726208130729" lon="9.077460905241104"><ele>125.5</ele><time>2026-04-12T13:18:58.001Z</time></trkpt><trkpt lat="45.45695750631926" lon="9.077457645332005"><ele>126.0</ele><time>2026-04-12T13:18:59.001Z</time></trkpt><trkpt lat="45.456653924751166" lon="9.077433704865115"><ele>124.5</ele><time>2026-04-12T13:19:00.002Z</time></trkpt><trkpt lat="45.456350226031056" lon="9.077396458031027"><ele>123.0</ele><time>2026-04-12T13:19:01.002Z</time></trkpt><trkpt lat="45.45605380959879" lon="9.077343627095047"><ele>123.0</ele><time>2026-04-12T13:19:02.002Z</time></trkpt><trkpt lat="45.4557578318185" lon="9.077282357831512"><ele>123.0</ele><time>2026-04-12T13:19:03.002Z</time></trkpt><trkpt lat="45.45545963411392" lon="9.077211539733135"><ele>122.5</ele><time>2026-04-12T13:19:04.002Z</time></trkpt><trkpt lat="45.4551677262737" lon="9.07712755372076"><ele>122.0</ele><time>2026-04-12T13:19:05.002Z</time></trkpt><trkpt lat="45.45489726834699" lon="9.077042544417795"><ele>122.0</ele><time>2026-04-12T13:19:06.002Z</time></trkpt><trkpt lat="45.454639513929045" lon="9.0769672730875"><ele>122.0</ele><time>2026-04-12T13:19:07.002Z</time></trkpt><trkpt lat="45.454394822980724" lon="9.07688904605711"><ele>122.5</ele><time>2026-04-12T13:19:08.002Z</time></trkpt><trkpt lat="45.454147753860134" lon="9.07680837784988"><ele>123.0</ele><time>2026-04-12T13:19:09.002Z</time></trkpt><trkpt lat="45.45390203545064" lon="9.076729456333153"><ele>123.0</ele><time>2026-04-12T13:19:09.998Z</time></trkpt><trkpt lat="45.45365625415905" lon="9.076653473601443"><ele>123.0</ele><time>2026-04-12T13:19:10.998Z</time></trkpt><trkpt lat="45.453411105374116" lon="9.076585863300847"><ele>122.5</ele><time>2026-04-12T13:19:11.998Z</time></trkpt><trkpt lat="45.45316469502014" lon="9.07651101952744"><ele>122.0</ele><time>2026-04-12T13:19:12.998Z</time></trkpt><trkpt lat="45.452914216705054" lon="9.076430943993413"><ele>122.0</ele><time>2026-04-12T13:19:13.998Z</time></trkpt><trkpt lat="45.452663351547564" lon="9.076344717907132"><ele>122.0</ele><time>2026-04-12T13:19:14.998Z</time></trkpt><trkpt lat="45.45241266672898" lon="9.07624555310588"><ele>122.0</ele><time>2026-04-12T13:19:15.998Z</time></trkpt><trkpt lat="45.45215399630385" lon="9.076159019436213"><ele>122.0</ele><time>2026-04-12T13:19:16.998Z</time></trkpt><trkpt lat="45.45190218835113" lon="9.076081918977192"><ele>122.0</ele><time>2026-04-12T13:19:17.998Z</time></trkpt><trkpt lat="45.451639379847926" lon="9.075998360141597"><ele>122.0</ele><time>2026-04-12T13:19:18.998Z</time></trkpt><trkpt lat="45.45137689235003" lon="9.07591865756911"><ele>122.0</ele><time>2026-04-12T13:19:19.998Z</time></trkpt><trkpt lat="45.45112628177705" lon="9.075841241414597"><ele>122.0</ele><time>2026-04-12T13:19:20.998Z</time></trkpt><trkpt lat="45.45088731474121" lon="9.075775306020317"><ele>122.0</ele><time>2026-04-12T13:19:21.998Z</time></trkpt><trkpt lat="45.450655522054234" lon="9.075709240475076"><ele>122.0</ele><time>2026-04-12T13:19:22.998Z</time></trkpt><trkpt lat="45.450425875307744" lon="9.075642441354171"><ele>122.0</ele><time>2026-04-12T13:19:23.998Z</time></trkpt><trkpt lat="45.45019508629244" lon="9.075578399096338"><ele>122.0</ele><time>2026-04-12T13:19:24.998Z</time></trkpt><trkpt lat="45.44995618391975" lon="9.075515083896656"><ele>122.0</ele><time>2026-04-12T13:19:25.998Z</time></trkpt><trkpt lat="45.4497107453417" lon="9.075440359093598"><ele>122.0</ele><time>2026-04-12T13:19:26.999Z</time></trkpt><trkpt lat="45.44946127642229" lon="9.07535772910558"><ele>122.0</ele><time>2026-04-12T13:19:27.999Z</time></trkpt><trkpt lat="45.44920585404737" lon="9.07527360502964"><ele>122.0</ele><time>2026-04-12T13:19:28.999Z</time></trkpt><trkpt lat="45.44895511515019" lon="9.075191591719527"><ele>121.5</ele><time>2026-04-12T13:19:29.999Z</time></trkpt><trkpt lat="45.448690930338024" lon="9.075110790233435"><ele>121.0</ele><time>2026-04-12T13:19:30.999Z</time></trkpt><trkpt lat="45.4484169592755" lon="9.07503291379066"><ele>121.0</ele><time>2026-04-12T13:19:31.999Z</time></trkpt><trkpt lat="45.4481375173282" lon="9.074959333388065"><ele>121.0</ele><time>2026-04-12T13:19:32.999Z</time></trkpt><trkpt lat="45.44785256306045" lon="9.074879616824713"><ele>120.5</ele><time>2026-04-12T13:19:33.999Z</time></trkpt><trkpt lat="45.44756997765676" lon="9.074793771126519"><ele>120.0</ele><time>2026-04-12T13:19:34.999Z</time></trkpt><trkpt lat="45.44729051274449" lon="9.074710805994098"><ele>120.5</ele><time>2026-04-12T13:19:35.999Z</time></trkpt><trkpt lat="45.44701452684179" lon="9.074631431652028"><ele>121.0</ele><time>2026-04-12T13:19:36.999Z</time></trkpt><trkpt lat="45.446738139899885" lon="9.074556560275616"><ele>121.0</ele><time>2026-04-12T13:19:37.999Z</time></trkpt><trkpt lat="45.446462295051205" lon="9.074482366259984"><ele>121.0</ele><time>2026-04-12T13:19:38.999Z</time></trkpt><trkpt lat="45.44618436424141" lon="9.074411000233157"><ele>121.5</ele><time>2026-04-12T13:19:39.999Z</time></trkpt><trkpt lat="45.44590499732686" lon="9.07433649834546"><ele>122.0</ele><time>2026-04-12T13:19:40.999Z</time></trkpt><trkpt lat="45.44562506810649" lon="9.074256056391583"><ele>122.0</ele><time>2026-04-12T13:19:41.999Z</time></trkpt><trkpt lat="45.44534497600145" lon="9.074177222271278"><ele>122.0</ele><time>2026-04-12T13:19:42.999Z</time></trkpt><trkpt lat="45.44505944708312" lon="9.074099722968684"><ele>122.0</ele><time>2026-04-12T13:19:43.999Z</time></trkpt><trkpt lat="45.444772536103486" lon="9.074031237546581"><ele>122.0</ele><time>2026-04-12T13:19:45Z</time></trkpt><trkpt lat="45.44448491095189" lon="9.073969748161836"><ele>121.5</ele><time>2026-04-12T13:19:46Z</time></trkpt><trkpt lat="45.44419626126777" lon="9.07391273971867"><ele>121.0</ele><time>2026-04-12T13:19:47Z</time></trkpt><trkpt lat="45.44390543194814" lon="9.073860752907606"><ele>120.0</ele><time>2026-04-12T13:19:48Z</time></trkpt><trkpt lat="45.443615503282615" lon="9.073811399278345"><ele>119.0</ele><time>2026-04-12T13:19:49Z</time></trkpt><trkpt lat="45.44332646083738" lon="9.073764416160913"><ele>119.0</ele><time>2026-04-12T13:19:50Z</time></trkpt><trkpt lat="45.443036453059236" lon="9.073722853470441"><ele>119.0</ele><time>2026-04-12T13:19:51Z</time></trkpt><trkpt lat="45.44274646181438" lon="9.073691656969949"><ele>117.5</ele><time>2026-04-12T13:19:52Z</time></trkpt><trkpt lat="45.4424538020322" lon="9.073672365948543"><ele>116.0</ele><time>2026-04-12T13:19:53Z</time></trkpt><trkpt lat="45.44216235405662" lon="9.073661148200934"><ele>118.5</ele><time>2026-04-12T13:19:54Z</time></trkpt><trkpt lat="45.441869683519336" lon="9.073654872869147"><ele>121.0</ele><time>2026-04-12T13:19:55Z</time></trkpt><trkpt lat="45.441576151682916" lon="9.073657621579947"><ele>120.0</ele><time>2026-04-12T13:19:56Z</time></trkpt><trkpt lat="45.441281586654775" lon="9.07366526345613"><ele>119.0</ele><time>2026-04-12T13:19:57Z</time></trkpt><trkpt lat="45.440988095418625" lon="9.07368457053365"><ele>119.0</ele><time>2026-04-12T13:19:58Z</time></trkpt><trkpt lat="45.44069335529216" lon="9.073708306394737"><ele>119.0</ele><time>2026-04-12T13:19:59Z</time></trkpt><trkpt lat="45.44039682216086" lon="9.073736097152706"><ele>118.5</ele><time>2026-04-12T13:20:00Z</time></trkpt><trkpt lat="45.440102682469885" lon="9.07376639779668"><ele>118.0</ele><time>2026-04-12T13:20:01Z</time></trkpt><trkpt lat="45.43980630428761" lon="9.073799187147898"><ele>117.0</ele><time>2026-04-12T13:20:02Z</time></trkpt><trkpt lat="45.43951323200384" lon="9.07382861522779"><ele>116.0</ele><time>2026-04-12T13:20:03Z</time></trkpt><trkpt lat="45.439224593896526" lon="9.07385733741007"><ele>116.0</ele><time>2026-04-12T13:20:04Z</time></trkpt><trkpt lat="45.43894336175457" lon="9.07388788416047"><ele>116.0</ele><time>2026-04-12T13:20:05Z</time></trkpt><trkpt lat="45.4386657332301" lon="9.073915130258701"><ele>116.5</ele><time>2026-04-12T13:20:06Z</time></trkpt><trkpt lat="45.4383897804479" lon="9.073944003418772"><ele>117.0</ele><time>2026-04-12T13:20:07Z</time></trkpt><trkpt lat="45.43811509944799" lon="9.073974024875172"><ele>116.5</ele><time>2026-04-12T13:20:08Z</time></trkpt><trkpt lat="45.43784190454176" lon="9.074004513573867"><ele>116.0</ele><time>2026-04-12T13:20:09Z</time></trkpt><trkpt lat="45.43757028166135" lon="9.074036173909493"><ele>116.0</ele><time>2026-04-12T13:20:10Z</time></trkpt><trkpt lat="45.43730002231858" lon="9.074067495046727"><ele>116.0</ele><time>2026-04-12T13:20:11Z</time></trkpt><trkpt lat="45.43703316249763" lon="9.074095973055355"><ele>115.5</ele><time>2026-04-12T13:20:12Z</time></trkpt><trkpt lat="45.436769406078135" lon="9.074125366405429"><ele>115.0</ele><time>2026-04-12T13:20:13Z</time></trkpt><trkpt lat="45.43650595112067" lon="9.0741537226142"><ele>116.5</ele><time>2026-04-12T13:20:14Z</time></trkpt><trkpt lat="45.43624165888282" lon="9.074180916087789"><ele>118.0</ele><time>2026-04-12T13:20:15Z</time></trkpt><trkpt lat="45.43597914253821" lon="9.074208670880937"><ele>118.0</ele><time>2026-04-12T13:20:16Z</time></trkpt><trkpt lat="45.43571853230169" lon="9.07423615895152"><ele>118.0</ele><time>2026-04-12T13:20:17.001Z</time></trkpt><trkpt lat="45.43546197118586" lon="9.074263340053623"><ele>118.0</ele><time>2026-04-12T13:20:18.001Z</time></trkpt><trkpt lat="45.43520685994828" lon="9.074290337534517"><ele>118.0</ele><time>2026-04-12T13:20:19.001Z</time></trkpt><trkpt lat="45.43494740911359" lon="9.074316679093622"><ele>118.0</ele><time>2026-04-12T13:20:20.001Z</time></trkpt><trkpt lat="45.43468813276201" lon="9.074351352855388"><ele>118.0</ele><time>2026-04-12T13:20:21.001Z</time></trkpt><trkpt lat="45.434431197302615" lon="9.074386341924612"><ele>117.5</ele><time>2026-04-12T13:20:22.001Z</time></trkpt><trkpt lat="45.43418280281763" lon="9.074415334812452"><ele>117.0</ele><time>2026-04-12T13:20:23.001Z</time></trkpt><trkpt lat="45.433933078998535" lon="9.074437187807579"><ele>117.5</ele><time>2026-04-12T13:20:24.001Z</time></trkpt><trkpt lat="45.4336827101783" lon="9.074455786347901"><ele>118.0</ele><time>2026-04-12T13:20:25.001Z</time></trkpt><trkpt lat="45.43343087189714" lon="9.074470564135808"><ele>118.0</ele><time>2026-04-12T13:20:26.001Z</time></trkpt><trkpt lat="45.43317755687606" lon="9.074488397034731"><ele>118.0</ele><time>2026-04-12T13:20:27.001Z</time></trkpt><trkpt lat="45.432920374717916" lon="9.074516878902143"><ele>116.0</ele><time>2026-04-12T13:20:28.001Z</time></trkpt><trkpt lat="45.43265990962737" lon="9.074557755226945"><ele>114.0</ele><time>2026-04-12T13:20:29.001Z</time></trkpt><trkpt lat="45.432400781476346" lon="9.07460883631384"><ele>115.0</ele><time>2026-04-12T13:20:30.001Z</time></trkpt><trkpt lat="45.43213919743814" lon="9.07466469535602"><ele>116.0</ele><time>2026-04-12T13:20:31.001Z</time></trkpt><trkpt lat="45.431882328289134" lon="9.074730887713791"><ele>116.0</ele><time>2026-04-12T13:20:32.001Z</time></trkpt><trkpt lat="45.43162583790117" lon="9.074811118826094"><ele>116.0</ele><time>2026-04-12T13:20:33.001Z</time></trkpt><trkpt lat="45.431372501211946" lon="9.0748918970391"><ele>116.0</ele><time>2026-04-12T13:20:34.001Z</time></trkpt><trkpt lat="45.431119428865095" lon="9.074980498765857"><ele>116.0</ele><time>2026-04-12T13:20:35.001Z</time></trkpt><trkpt lat="45.430863838964605" lon="9.075073178939292"><ele>116.0</ele><time>2026-04-12T13:20:36.001Z</time></trkpt><trkpt lat="45.43060875524893" lon="9.075168572555413"><ele>116.0</ele><time>2026-04-12T13:20:37.001Z</time></trkpt><trkpt lat="45.430353440401866" lon="9.075271079415174"><ele>116.5</ele><time>2026-04-12T13:20:38.001Z</time></trkpt><trkpt lat="45.43010031661131" lon="9.075375181594044"><ele>117.0</ele><time>2026-04-12T13:20:39.001Z</time></trkpt><trkpt lat="45.429850059191075" lon="9.075488527320168"><ele>117.0</ele><time>2026-04-12T13:20:40.001Z</time></trkpt><trkpt lat="45.42960265705402" lon="9.075606599113467"><ele>117.0</ele><time>2026-04-12T13:20:41.001Z</time></trkpt><trkpt lat="45.42935750007546" lon="9.075730381057038"><ele>117.5</ele><time>2026-04-12T13:20:42.001Z</time></trkpt><trkpt lat="45.42911631940721" lon="9.075861517284038"><ele>118.0</ele><time>2026-04-12T13:20:43.001Z</time></trkpt><trkpt lat="45.428878969455425" lon="9.075995817005525"><ele>116.5</ele><time>2026-04-12T13:20:44.001Z</time></trkpt><trkpt lat="45.42864395920994" lon="9.076136455876194"><ele>115.0</ele><time>2026-04-12T13:20:45.001Z</time></trkpt><trkpt lat="45.42841068399958" lon="9.07627532840284"><ele>115.0</ele><time>2026-04-12T13:20:46.001Z</time></trkpt><trkpt lat="45.42818664514024" lon="9.076417723154886"><ele>115.0</ele><time>2026-04-12T13:20:47.001Z</time></trkpt><trkpt lat="45.42796908808262" lon="9.076558100422503"><ele>116.33333333333334</ele><time>2026-04-12T13:20:48.001Z</time></trkpt><trkpt lat="45.42776717586612" lon="9.076695750144996"><ele>117.66666666666666</ele><time>2026-04-12T13:20:49.001Z</time></trkpt><trkpt lat="45.42757071480545" lon="9.076822895784685"><ele>119.0</ele><time>2026-04-12T13:20:50.001Z</time></trkpt><trkpt lat="45.42738069599783" lon="9.07693896549292"><ele>119.0</ele><time>2026-04-12T13:20:51.001Z</time></trkpt><trkpt lat="45.42719234634606" lon="9.077046117603734"><ele>119.0</ele><time>2026-04-12T13:20:52.001Z</time></trkpt><trkpt lat="45.42699883588352" lon="9.077154752010944"><ele>119.0</ele><time>2026-04-12T13:20:53.001Z</time></trkpt><trkpt lat="45.426804807967684" lon="9.077269332649067"><ele>119.0</ele><time>2026-04-12T13:20:54.001Z</time></trkpt><trkpt lat="45.42661408556819" lon="9.077385002548763"><ele>119.0</ele><time>2026-04-12T13:20:55.002Z</time></trkpt><trkpt lat="45.426422658408676" lon="9.077503933266305"><ele>119.0</ele><time>2026-04-12T13:20:56.002Z</time></trkpt><trkpt lat="45.42623021162096" lon="9.077626126522304"><ele>118.66666666666666</ele><time>2026-04-12T13:20:57.002Z</time></trkpt><trkpt lat="45.42603495713051" lon="9.077750125363234"><ele>118.33333333333334</ele><time>2026-04-12T13:20:58.002Z</time></trkpt><trkpt lat="45.42583520163245" lon="9.077870221714514"><ele>118.0</ele><time>2026-04-12T13:20:59.002Z</time></trkpt><trkpt lat="45.42563525011376" lon="9.077990692202963"><ele>118.0</ele><time>2026-04-12T13:21:00.002Z</time></trkpt><trkpt lat="45.42543262100298" lon="9.078117195789515"><ele>118.0</ele><time>2026-04-12T13:21:01.002Z</time></trkpt><trkpt lat="45.42523751654797" lon="9.078236513905408"><ele>118.0</ele><time>2026-04-12T13:21:02.002Z</time></trkpt><trkpt lat="45.42504109547411" lon="9.078357882434123"><ele>118.33333333333334</ele><time>2026-04-12T13:21:03.002Z</time></trkpt><trkpt lat="45.42484384503154" lon="9.078476618861789"><ele>118.66666666666666</ele><time>2026-04-12T13:21:04.002Z</time></trkpt><trkpt lat="45.42464438316212" lon="9.07859544287923"><ele>119.0</ele><time>2026-04-12T13:21:05.002Z</time></trkpt><trkpt lat="45.42444450091599" lon="9.078709306966845"><ele>117.66666666666666</ele><time>2026-04-12T13:21:06.002Z</time></trkpt><trkpt lat="45.42424694373881" lon="9.078817659438311"><ele>116.33333333333334</ele><time>2026-04-12T13:21:07.002Z</time></trkpt><trkpt lat="45.42404918462919" lon="9.07893600208619"><ele>115.0</ele><time>2026-04-12T13:21:08.002Z</time></trkpt><trkpt lat="45.42384852452844" lon="9.0790572505304"><ele>114.33333333333334</ele><time>2026-04-12T13:21:09.002Z</time></trkpt><trkpt lat="45.42364784011763" lon="9.079177856712935"><ele>113.66666666666666</ele><time>2026-04-12T13:21:10.002Z</time></trkpt><trkpt lat="45.42344618039934" lon="9.079300819024995"><ele>113.0</ele><time>2026-04-12T13:21:11.002Z</time></trkpt><trkpt lat="45.42324457829381" lon="9.079429252961102"><ele>113.0</ele><time>2026-04-12T13:21:12.002Z</time></trkpt><trkpt lat="45.42304006533869" lon="9.079553136642334"><ele>113.0</ele><time>2026-04-12T13:21:13.002Z</time></trkpt><trkpt lat="45.42283260344076" lon="9.079681331048507"><ele>113.0</ele><time>2026-04-12T13:21:14.002Z</time></trkpt><trkpt lat="45.422623387500735" lon="9.079808859294626"><ele>114.5</ele><time>2026-04-12T13:21:15.002Z</time></trkpt><trkpt lat="45.422414354903786" lon="9.079938568686948"><ele>116.0</ele><time>2026-04-12T13:21:16Z</time></trkpt><trkpt lat="45.42220236181598" lon="9.080067665984544"><ele>116.5</ele><time>2026-04-12T13:21:17Z</time></trkpt><trkpt lat="45.42199141076755" lon="9.080196529258979"><ele>117.0</ele><time>2026-04-12T13:21:18Z</time></trkpt><trkpt lat="45.42178006321164" lon="9.080332272639588"><ele>117.0</ele><time>2026-04-12T13:21:19Z</time></trkpt><trkpt lat="45.421569915434574" lon="9.080460301813446"><ele>117.0</ele><time>2026-04-12T13:21:20Z</time></trkpt><trkpt lat="45.42136375396292" lon="9.080587662331125"><ele>116.66666666666666</ele><time>2026-04-12T13:21:21Z</time></trkpt><trkpt lat="45.42116033992663" lon="9.080715506840804"><ele>116.33333333333333</ele><time>2026-04-12T13:21:22Z</time></trkpt><trkpt lat="45.420960738419716" lon="9.08084815392031"><ele>116.0</ele><time>2026-04-12T13:21:23Z</time></trkpt><trkpt lat="45.42076252894768" lon="9.080979773117788"><ele>116.0</ele><time>2026-04-12T13:21:24Z</time></trkpt><trkpt lat="45.42057330297869" lon="9.081113575768905"><ele>116.0</ele><time>2026-04-12T13:21:25Z</time></trkpt><trkpt lat="45.42039668700254" lon="9.081254347799247"><ele>116.0</ele><time>2026-04-12T13:21:26Z</time></trkpt><trkpt lat="45.42023401298119" lon="9.081384792291374"><ele>115.33333333333333</ele><time>2026-04-12T13:21:27Z</time></trkpt><trkpt lat="45.42009016021638" lon="9.081508208682077"><ele>114.66666666666666</ele><time>2026-04-12T13:21:28Z</time></trkpt><trkpt lat="45.419956152194175" lon="9.08162820982669"><ele>114.0</ele><time>2026-04-12T13:21:29Z</time></trkpt><trkpt lat="45.419836380109444" lon="9.08173464378673"><ele>114.0</ele><time>2026-04-12T13:21:30Z</time></trkpt><trkpt lat="45.41974156222656" lon="9.081839183890471"><ele>114.0</ele><time>2026-04-12T13:21:31Z</time></trkpt><trkpt lat="45.41963386939478" lon="9.081864269895243"><ele>114.0</ele><time>2026-04-12T13:21:32Z</time></trkpt><trkpt lat="45.41954726242258" lon="9.081867329990676"><ele>114.0</ele><time>2026-04-12T13:21:33Z</time></trkpt><trkpt lat="45.41946988994475" lon="9.08182733367851"><ele>114.0</ele><time>2026-04-12T13:21:34Z</time></trkpt><trkpt lat="45.419408841950855" lon="9.081740989106361"><ele>114.0</ele><time>2026-04-12T13:21:35Z</time></trkpt><trkpt lat="45.419385245373775" lon="9.081616551436555"><ele>114.0</ele><time>2026-04-12T13:21:36Z</time></trkpt><trkpt lat="45.419406860076975" lon="9.081486796747372"><ele>114.0</ele><time>2026-04-12T13:21:37Z</time></trkpt><trkpt lat="45.41946156328249" lon="9.081367179727218"><ele>114.0</ele><time>2026-04-12T13:21:38Z</time></trkpt><trkpt lat="45.41955586721645" lon="9.081289244568776"><ele>114.0</ele><time>2026-04-12T13:21:39Z</time></trkpt><trkpt lat="45.4196675295789" lon="9.081241218756782"><ele>113.75</ele><time>2026-04-12T13:21:40Z</time></trkpt><trkpt lat="45.41978927015851" lon="9.081198037643132"><ele>113.5</ele><time>2026-04-12T13:21:41Z</time></trkpt><trkpt lat="45.419920461682466" lon="9.081152020128483"><ele>113.25</ele><time>2026-04-12T13:21:42Z</time></trkpt><trkpt lat="45.420055836176566" lon="9.081098954640115"><ele>113.0</ele><time>2026-04-12T13:21:43Z</time></trkpt><trkpt lat="45.42019662871658" lon="9.081036564645055"><ele>113.0</ele><time>2026-04-12T13:21:44.001Z</time></trkpt><trkpt lat="45.42033625493551" lon="9.080970084458764"><ele>113.0</ele><time>2026-04-12T13:21:45.001Z</time></trkpt><trkpt lat="45.42046807458615" lon="9.080899708479098"><ele>113.0</ele><time>2026-04-12T13:21:46.001Z</time></trkpt><trkpt lat="45.42058351084969" lon="9.08081987969354"><ele>113.0</ele><time>2026-04-12T13:21:47.001Z</time></trkpt><trkpt lat="45.42068729781029" lon="9.080728407614966"><ele>113.25</ele><time>2026-04-12T13:21:48.001Z</time></trkpt><trkpt lat="45.420792196305065" lon="9.080681789045952"><ele>113.5</ele><time>2026-04-12T13:21:49.001Z</time></trkpt><trkpt lat="45.420876927439046" lon="9.080627587213343"><ele>113.75</ele><time>2026-04-12T13:21:50.001Z</time></trkpt><trkpt lat="45.42093935640369" lon="9.080587583392221"><ele>114.0</ele><time>2026-04-12T13:21:51.001Z</time></trkpt><trkpt lat="45.420903799401074" lon="9.080315134029616"><ele>114.0</ele><time>2026-04-12T13:21:52.001Z</time></trkpt><trkpt lat="45.42089869586378" lon="9.080214563264176"><ele>114.0</ele><time>2026-04-12T13:21:53.001Z</time></trkpt><trkpt lat="45.42085350221623" lon="9.08012539700742"><ele>114.0</ele><time>2026-04-12T13:21:54.001Z</time></trkpt><trkpt lat="45.42080496060775" lon="9.080063793416342"><ele>114.0</ele><time>2026-04-12T13:21:55.001Z</time></trkpt><trkpt lat="45.420655285384775" lon="9.080159758563369"><ele>114.0</ele><time>2026-04-12T13:21:57.001Z</time></trkpt><trkpt lat="45.42060232469501" lon="9.080251349031398"><ele>114.0</ele><time>2026-04-12T13:21:58.001Z</time></trkpt><trkpt lat="45.42054781291705" lon="9.080342524786662"><ele>114.0</ele><time>2026-04-12T13:21:59.001Z</time></trkpt><trkpt lat="45.4204932484903" lon="9.080444219926925"><ele>114.0</ele><time>2026-04-12T13:22:00.001Z</time></trkpt><trkpt lat="45.4204317375537" lon="9.080542617362322"><ele>114.0</ele><time>2026-04-12T13:22:01.001Z</time></trkpt><trkpt lat="45.42036210742896" lon="9.080626809917879"><ele>114.0</ele><time>2026-04-12T13:22:02.001Z</time></trkpt><trkpt lat="45.420282859861906" lon="9.08068891324227"><ele>114.0</ele><time>2026-04-12T13:22:03.001Z</time></trkpt><trkpt lat="45.4201941395138" lon="9.080718804435383"><ele>113.80000000000001</ele><time>2026-04-12T13:22:04.001Z</time></trkpt><trkpt lat="45.420104939990715" lon="9.080707245461637"><ele>113.60000000000001</ele><time>2026-04-12T13:22:05.001Z</time></trkpt><trkpt lat="45.42002640168547" lon="9.080649068692038"><ele>113.4</ele><time>2026-04-12T13:22:06.001Z</time></trkpt><trkpt lat="45.41996507608002" lon="9.080556774882297"><ele>113.2</ele><time>2026-04-12T13:22:07.001Z</time></trkpt><trkpt lat="45.419909374800106" lon="9.08044450214348"><ele>113.0</ele><time>2026-04-12T13:22:08.001Z</time></trkpt><trkpt lat="45.41985008490424" lon="9.080328297974571"><ele>113.0</ele><time>2026-04-12T13:22:09.001Z</time></trkpt><trkpt lat="45.419792908871145" lon="9.080207432011528"><ele>113.00000000000001</ele><time>2026-04-12T13:22:10.001Z</time></trkpt><trkpt lat="45.41973590161286" lon="9.080080818417917"><ele>113.00000000000001</ele><time>2026-04-12T13:22:11.001Z</time></trkpt><trkpt lat="45.419674464841734" lon="9.079952686728856"><ele>113.0</ele><time>2026-04-12T13:22:12.001Z</time></trkpt><trkpt lat="45.41961045896787" lon="9.079816829188777"><ele>113.0</ele><time>2026-04-12T13:22:13.001Z</time></trkpt><trkpt lat="45.41954540655437" lon="9.079681254416348"><ele>113.2</ele><time>2026-04-12T13:22:14.001Z</time></trkpt><trkpt lat="45.41947922149089" lon="9.079550205919212"><ele>113.4</ele><time>2026-04-12T13:22:15.001Z</time></trkpt><trkpt lat="45.41941343335473" lon="9.079420577416576"><ele>113.60000000000001</ele><time>2026-04-12T13:22:16.001Z</time></trkpt><trkpt lat="45.41935048379345" lon="9.079297175849577"><ele>113.80000000000001</ele><time>2026-04-12T13:22:17.001Z</time></trkpt><trkpt lat="45.41928649565198" lon="9.07917633718441"><ele>114.0</ele><time>2026-04-12T13:22:18.001Z</time></trkpt><trkpt lat="45.41922265338864" lon="9.079052575076629"><ele>114.0</ele><time>2026-04-12T13:22:19.001Z</time></trkpt><trkpt lat="45.41915741115819" lon="9.078928102131686"><ele>114.0</ele><time>2026-04-12T13:22:20.001Z</time></trkpt><trkpt lat="45.41909303124292" lon="9.078797919531565"><ele>114.0</ele><time>2026-04-12T13:22:21.001Z</time></trkpt><trkpt lat="45.41902533465077" lon="9.07866534180188"><ele>114.0</ele><time>2026-04-12T13:22:22.001Z</time></trkpt><trkpt lat="45.41895405518103" lon="9.078528049935057"><ele>114.0</ele><time>2026-04-12T13:22:23.001Z</time></trkpt><trkpt lat="45.4188885424923" lon="9.078388220123097"><ele>114.0</ele><time>2026-04-12T13:22:24.001Z</time></trkpt><trkpt lat="45.41882356393746" lon="9.078253164817044"><ele>114.0</ele><time>2026-04-12T13:22:25.001Z</time></trkpt><trkpt lat="45.41876249996232" lon="9.07812825403745"><ele>114.0</ele><time>2026-04-12T13:22:26.001Z</time></trkpt><trkpt lat="45.41870321744533" lon="9.078014165780296"><ele>114.0</ele><time>2026-04-12T13:22:27.002Z</time></trkpt><trkpt lat="45.418653486278714" lon="9.077913004664783"><ele>114.16666666666667</ele><time>2026-04-12T13:22:28.002Z</time></trkpt><trkpt lat="45.41861826110624" lon="9.07783101190882"><ele>114.33333333333334</ele><time>2026-04-12T13:22:29.002Z</time></trkpt><trkpt lat="45.41857104695255" lon="9.077658899159822"><ele>114.5</ele><time>2026-04-12T13:22:31.002Z</time></trkpt><trkpt lat="45.41852002772001" lon="9.077588312001028"><ele>114.66666666666667</ele><time>2026-04-12T13:22:32.002Z</time></trkpt><trkpt lat="45.41845417175201" lon="9.077526308398204"><ele>114.83333333333334</ele><time>2026-04-12T13:22:33.002Z</time></trkpt><trkpt lat="45.41841090339681" lon="9.07741527588367"><ele>115.0</ele><time>2026-04-12T13:22:34.002Z</time></trkpt><trkpt lat="45.41835985563401" lon="9.077309143412002"><ele>115.16666666666667</ele><time>2026-04-12T13:22:35.002Z</time></trkpt><trkpt lat="45.41830719831928" lon="9.077199806914"><ele>115.33333333333334</ele><time>2026-04-12T13:22:36.002Z</time></trkpt><trkpt lat="45.41825476372078" lon="9.07709093285171"><ele>115.5</ele><time>2026-04-12T13:22:37.002Z</time></trkpt><trkpt lat="45.41820898275208" lon="9.076995981622117"><ele>115.66666666666666</ele><time>2026-04-12T13:22:38.002Z</time></trkpt><trkpt lat="45.418169338889186" lon="9.076914238079672"><ele>115.83333333333333</ele><time>2026-04-12T13:22:39.002Z</time></trkpt><trkpt lat="45.41810645495349" lon="9.076784574526352"><ele>116.0</ele><time>2026-04-12T13:22:41.002Z</time></trkpt><trkpt lat="45.41806166364234" lon="9.076692216738657"><ele>116.16666666666666</ele><time>2026-04-12T13:22:44.002Z</time></trkpt><trkpt lat="45.4179976816644" lon="9.076583323758095"><ele>116.33333333333333</ele><time>2026-04-12T13:23:02.002Z</time></trkpt><trkpt lat="45.417967305532564" lon="9.076499355712189"><ele>116.5</ele><time>2026-04-12T13:23:03.002Z</time></trkpt><trkpt lat="45.41791866920123" lon="9.076404513938964"><ele>116.66666666666666</ele><time>2026-04-12T13:23:04.002Z</time></trkpt><trkpt lat="45.41786319075914" lon="9.076306871124629"><ele>116.83333333333333</ele><time>2026-04-12T13:23:05.002Z</time></trkpt><trkpt lat="45.4178174460523" lon="9.076213769807056"><ele>117.0</ele><time>2026-04-12T13:23:06.002Z</time></trkpt><trkpt lat="45.41777115407238" lon="9.076118981301203"><ele>117.0</ele><time>2026-04-12T13:23:07.003Z</time></trkpt><trkpt lat="45.417727716474275" lon="9.076021067082843"><ele>116.99999999999999</ele><time>2026-04-12T13:23:08.003Z</time></trkpt><trkpt lat="45.41769074990628" lon="9.075933970627627"><ele>116.99999999999999</ele><time>2026-04-12T13:23:09.003Z</time></trkpt><trkpt lat="45.41763287619627" lon="9.075820859772438"><ele>117.0</ele><time>2026-04-12T13:23:11.003Z</time></trkpt><trkpt lat="45.41759776908998" lon="9.075736674280563"><ele>117.0</ele><time>2026-04-12T13:23:21.003Z</time></trkpt><trkpt lat="45.41746172459511" lon="9.075849418722942"><ele>116.85714285714286</ele><time>2026-04-12T13:23:23.001Z</time></trkpt><trkpt lat="45.41739178885876" lon="9.075888130419811"><ele>116.71428571428572</ele><time>2026-04-12T13:23:24.001Z</time></trkpt><trkpt lat="45.417327831735" lon="9.075946976699816"><ele>116.57142857142858</ele><time>2026-04-12T13:23:25.001Z</time></trkpt><trkpt lat="45.41726796182148" lon="9.076004479655984"><ele>116.42857142857144</ele><time>2026-04-12T13:23:26.001Z</time></trkpt><trkpt lat="45.41720757004576" lon="9.076065065776762"><ele>116.28571428571429</ele><time>2026-04-12T13:23:27.001Z</time></trkpt><trkpt lat="45.41715657765818" lon="9.076144993905732"><ele>116.14285714285717</ele><time>2026-04-12T13:23:28.001Z</time></trkpt><trkpt lat="45.417099363258366" lon="9.076196905391376"><ele>116.00000000000001</ele><time>2026-04-12T13:23:29.001Z</time></trkpt><trkpt lat="45.41703089232268" lon="9.076197211667242"><ele>116.0</ele><time>2026-04-12T13:23:30.001Z</time></trkpt><trkpt lat="45.416956923313926" lon="9.076049108741357"><ele>116.0</ele><time>2026-04-12T13:23:32.001Z</time></trkpt><trkpt lat="45.41690032685579" lon="9.075969369171366"><ele>116.0</ele><time>2026-04-12T13:23:33.001Z</time></trkpt><trkpt lat="45.41685190570053" lon="9.07586851445475"><ele>116.0</ele><time>2026-04-12T13:23:34.001Z</time></trkpt><trkpt lat="45.416801021815424" lon="9.075773056429929"><ele>116.0</ele><time>2026-04-12T13:23:35.001Z</time></trkpt><trkpt lat="45.41674929130675" lon="9.075679221775344"><ele>116.19999999999999</ele><time>2026-04-12T13:23:36.001Z</time></trkpt><trkpt lat="45.41669733076054" lon="9.075580110089076"><ele>116.39999999999999</ele><time>2026-04-12T13:23:37.001Z</time></trkpt><trkpt lat="45.416647659267966" lon="9.075474733573376"><ele>116.6</ele><time>2026-04-12T13:23:38.001Z</time></trkpt><trkpt lat="45.416597315218254" lon="9.075368929638511"><ele>116.8</ele><time>2026-04-12T13:23:39.001Z</time></trkpt><trkpt lat="45.41654633196001" lon="9.075260931732709"><ele>117.0</ele><time>2026-04-12T13:23:40.001Z</time></trkpt><trkpt lat="45.41649064200025" lon="9.075152155218086"><ele>117.0</ele><time>2026-04-12T13:23:41.001Z</time></trkpt><trkpt lat="45.41643744473261" lon="9.075039560733243"><ele>116.99999999999999</ele><time>2026-04-12T13:23:42.001Z</time></trkpt><trkpt lat="45.41638355204874" lon="9.074924872939098"><ele>116.99999999999999</ele><time>2026-04-12T13:23:43.001Z</time></trkpt><trkpt lat="45.416330193624454" lon="9.07481409732264"><ele>117.0</ele><time>2026-04-12T13:23:44.001Z</time></trkpt><trkpt lat="45.41627741697996" lon="9.074707284232302"><ele>117.0</ele><time>2026-04-12T13:23:45.001Z</time></trkpt><trkpt lat="45.41622441955409" lon="9.074601859038852"><ele>117.0</ele><time>2026-04-12T13:23:46.001Z</time></trkpt><trkpt lat="45.416170608309386" lon="9.07450051683501"><ele>117.0</ele><time>2026-04-12T13:23:47.001Z</time></trkpt><trkpt lat="45.41611839993232" lon="9.074401398237187"><ele>117.0</ele><time>2026-04-12T13:23:48.001Z</time></trkpt><trkpt lat="45.41607338410789" lon="9.07431048520584"><ele>117.0</ele><time>2026-04-12T13:23:49.001Z</time></trkpt><trkpt lat="45.416032971064816" lon="9.074226298255283"><ele>117.0</ele><time>2026-04-12T13:23:50.001Z</time></trkpt><trkpt lat="45.416020285040524" lon="9.074133973359404"><ele>117.0</ele><time>2026-04-12T13:23:51.001Z</time></trkpt><trkpt lat="45.4160831037683" lon="9.073981534918294"><ele>117.0</ele><time>2026-04-12T13:23:53.001Z</time></trkpt><trkpt lat="45.41614914641417" lon="9.073926755061045"><ele>117.0</ele><time>2026-04-12T13:23:54.001Z</time></trkpt><trkpt lat="45.41621533366769" lon="9.073867564064289"><ele>117.0</ele><time>2026-04-12T13:23:55.001Z</time></trkpt><trkpt lat="45.41627923558254" lon="9.073803415153087"><ele>117.0</ele><time>2026-04-12T13:23:56.001Z</time></trkpt><trkpt lat="45.41633273206596" lon="9.073738251830063"><ele>117.0</ele><time>2026-04-12T13:23:57.001Z</time></trkpt><trkpt lat="45.41638351045744" lon="9.073683429666602"><ele>117.0</ele><time>2026-04-12T13:23:58.001Z</time></trkpt><trkpt lat="45.416474085015395" lon="9.07361061224478"><ele>116.5</ele><time>2026-04-12T13:24:00.001Z</time></trkpt><trkpt lat="45.4168531797294" lon="9.073929806870664"><ele>116.0</ele><time>2026-04-12T13:24:15.002Z</time></trkpt><trkpt lat="45.41689415684837" lon="9.074050869190067"><ele>116.0</ele><time>2026-04-12T13:24:18.002Z</time></trkpt></trkseg></trk></gpx>